# Wetter Temperatur Luftdruck Luftfeuchtigkeit Sichtweite Windgeschwindigkeit Windrichtung Zeit
1 Clouds 13 1011 100 10000 1 0 19:58 17.10.2019
2 Clouds 13 1010 100 10000 0.5 0 19:39 17.10.2019
3 Clouds 13 1010 93 10000 1 0 19:19 17.10.2019
4 Clouds 13 1010 93 10000 1 0 18:58 17.10.2019
5 Clouds 14 1010 93 10000 1 0 18:38 17.10.2019
6 Clouds 14 1010 93 10000 2.1 220 18:19 17.10.2019
7 Clouds 14 1010 93 10000 2.1 200 17:42 17.10.2019
8 Clouds 14 1010 87 10000 2.1 230 17:23 17.10.2019
9 Clouds 15 1010 87 10000 2.1 230 16:57 17.10.2019
10 Clouds 15 1010 87 10000 1.5 220 16:38 17.10.2019
11 Clouds 14 1010 93 10000 1 0 16:18 17.10.2019
12 Clouds 15 1010 93 10000 1 0 15:55 17.10.2019
13 Rain 14 1010 93 5000 3.6 290 15:37 17.10.2019
14 Rain 14 1010 87 5000 5.7 220 15:19 17.10.2019
15 Rain 14 1010 87 5000 5.7 220 14:54 17.10.2019
16 Clouds 14 1009 87 10000 4.6 220 14:36 17.10.2019
17 Clouds 14 1009 87 10000 4.1 220 14:18 17.10.2019
18 Clouds 14 1009 87 10000 5.7 220 13:39 17.10.2019
19 Drizzle 15 1009 87 9000 6.2 220 13:19 17.10.2019
20 Drizzle 14 1009 87 9000 6.2 220 12:55 17.10.2019
21 Drizzle 14 1009 87 10000 6.2 220 12:55 17.10.2019
22 Drizzle 14 1009 87 10000 6.2 220 12:36 17.10.2019
23 Drizzle 14 1009 87 9000 5.7 220 12:18 17.10.2019
24 Drizzle 14 1009 87 10000 5.7 220 11:41 17.10.2019
25 Drizzle 14 1008 93 10000 5.7 210 11:21 17.10.2019
26 Drizzle 14 1008 93 10000 5.7 210 10:58 17.10.2019
27 Clouds 14 1008 93 10000 5.1 210 10:39 17.10.2019
28 Clouds 13 1008 93 10000 6.2 210 10:19 17.10.2019
29 Clouds 13 1008 93 10000 6.2 210 09:55 17.10.2019
30 Clouds 13 1008 93 10000 6.7 210 09:55 17.10.2019
31 Clouds 13 1008 93 10000 6.2 210 09:55 17.10.2019
32 Clouds 13 1008 93 10000 6.7 210 09:37 17.10.2019
33 Clouds 13 1008 93 10000 6.2 210 09:19 17.10.2019
34 Clouds 13 1007 87 10000 6.2 210 08:46 17.10.2019
35 Clouds 13 1007 93 10000 5.7 200 08:26 17.10.2019
36 Clouds 13 1007 93 10000 5.7 200 07:58 17.10.2019
37 Drizzle 13 1007 93 10000 5.1 200 07:40 17.10.2019
38 Clouds 13 1007 93 10000 6.2 210 07:20 17.10.2019
39 Clouds 13 1007 93 10000 6.2 210 07:20 17.10.2019
40 Clouds 13 1007 87 10000 6.2 200 06:42 17.10.2019
41 Clouds 13 1007 87 10000 6.2 200 06:42 17.10.2019
42 Drizzle 13 1007 93 10000 5.7 200 06:23 17.10.2019
43 Drizzle 13 1007 93 10000 5.7 200 05:58 17.10.2019
44 Clouds 13 1007 93 10000 5.1 200 05:35 17.10.2019
45 Rain 13 1007 93 10000 5.1 200 04:58 17.10.2019
46 Rain 13 1007 93 10000 5.1 180 04:31 17.10.2019
47 Rain 13 1007 93 10000 4.1 170 03:45 17.10.2019
48 Clouds 13 1008 93 10000 4.6 170 01:56 17.10.2019
49 Clouds 13 1008 93 10000 4.6 170 01:56 17.10.2019
50 Clouds 12 1008 93 10000 3.6 170 00:42 17.10.2019
51 Clouds 12 1008 93 10000 3.6 190 00:20 17.10.2019
52 Clouds 12 1008 93 10000 3.6 190 23:58 16.10.2019
53 Clouds 12 1008 87 10000 4.1 190 23:39 16.10.2019
54 Clouds 12 1008 87 10000 3.6 170 23:18 16.10.2019
55 Clouds 11 1008 87 10000 3.6 160 22:54 16.10.2019
56 Clouds 11 1008 87 10000 3.6 160 22:36 16.10.2019
57 Clouds 11 1008 87 10000 4.1 160 22:18 16.10.2019
58 Clouds 11 1008 87 10000 2.6 140 21:54 16.10.2019
59 Clouds 11 1008 87 10000 4.1 160 21:54 16.10.2019
60 Clouds 11 1008 87 10000 2.6 140 21:36 16.10.2019
61 Clouds 11 1008 100 10000 2.6 130 21:18 16.10.2019
62 Fog 11 1008 93 10000 2.6 130 20:56 16.10.2019
63 Fog 11 1008 93 10000 2.6 130 20:37 16.10.2019
64 Fog 11 1008 93 10000 2.6 130 20:37 16.10.2019
65 Fog 11 1008 93 10000 2.6 130 20:37 16.10.2019
66 Clouds 11 1008 93 10000 2.1 150 20:19 16.10.2019
67 Clouds 12 1008 93 10000 2.6 170 19:40 16.10.2019
68 Clouds 12 1008 93 10000 2.6 170 19:40 16.10.2019
69 Clouds 12 1008 93 10000 1 0 19:21 16.10.2019
70 Clouds 12 1008 87 10000 2.6 220 18:58 16.10.2019
71 Clouds 12 1008 87 10000 2.6 220 18:58 16.10.2019
72 Clouds 12 1008 87 10000 2.6 220 18:38 16.10.2019
73 Clouds 13 1008 82 10000 2.6 220 18:18 16.10.2019
74 Clouds 13 1008 82 10000 2.6 220 17:56 16.10.2019
75 -273 0 0 0 0 0 17:56 16.10.2019
76 Clouds 14 1008 76 10000 4.6 230 17:37 16.10.2019
77 Clouds 14 1008 76 10000 5.1 230 17:19 16.10.2019
78 Clouds 14 1008 76 10000 5.1 230 16:57 16.10.2019
79 Clouds 14 1008 77 10000 6.2 230 16:38 16.10.2019
80 Clouds 14 1008 82 10000 4.1 240 16:20 16.10.2019
81 Clouds 14 1008 82 10000 4.1 240 15:54 16.10.2019
82 Clouds 14 1008 87 10000 4.6 240 15:54 16.10.2019
83 Clouds 14 1008 87 10000 4.6 240 15:36 16.10.2019
84 Clouds 14 1008 87 10000 4.6 260 15:18 16.10.2019
85 Clouds 14 1008 87 10000 4.6 260 14:55 16.10.2019
86 Clouds 13 1008 87 10000 4.6 260 14:36 16.10.2019
87 Rain 13 1008 87 9000 3.1 300 14:18 16.10.2019
88 Rain 13 1007 87 10000 4.1 300 13:41 16.10.2019
89 Rain 13 1007 87 10000 4.1 250 13:23 16.10.2019
90 Rain 13 1007 87 10000 4.6 250 12:44 16.10.2019
91 Drizzle 13 1007 87 8000 4.1 250 12:20 16.10.2019
92 Drizzle 13 1007 87 8000 4.1 250 11:59 16.10.2019
93 Rain 13 1007 93 8000 3.6 260 11:41 16.10.2019
94 Drizzle 13 1007 100 6000 3.1 270 11:18 16.10.2019
95 Drizzle 13 1007 100 6000 3.6 270 10:37 16.10.2019
96 Drizzle 13 1007 100 6000 3.1 270 10:19 16.10.2019
97 Drizzle 13 1007 93 7000 3.6 270 09:54 16.10.2019
98 Drizzle 13 1007 93 7000 3.6 270 09:36 16.10.2019
99 Drizzle 13 1007 93 8000 4.1 280 09:18 16.10.2019
100 Rain 13 1006 93 4600 4.6 280 08:42 16.10.2019
101 Rain 13 1006 100 3500 4.6 280 08:23 16.10.2019
102 Rain 13 1006 100 5000 4.1 260 07:45 16.10.2019
103 -273 0 0 0 0 0 07:25 16.10.2019
104 Rain 13 1006 93 4500 1.5 280 06:58 16.10.2019
105 Rain 13 1006 93 4500 1.5 280 06:58 16.10.2019
106 Rain 13 1006 93 4500 2.1 280 06:39 16.10.2019
107 Rain 13 1006 93 4500 1.5 310 05:44 16.10.2019
108 Rain 13 1006 93 4000 4.1 260 03:24 16.10.2019
109 Clouds 13 1005 93 7000 3.1 310 02:47 16.10.2019
110 Clouds 13 1005 93 8000 1.5 40 01:19 16.10.2019
111 Rain 13 1005 100 8000 1 0 00:49 16.10.2019
112 Rain 14 1005 100 8000 1 0 00:27 16.10.2019
113 Clouds 14 1005 100 9000 1.5 350 23:41 15.10.2019
114 Clouds 14 1006 93 10000 1.5 360 23:22 15.10.2019
115 Clouds 14 1006 93 10000 1.5 360 22:56 15.10.2019
116 Clouds 14 1006 93 10000 1 0 22:38 15.10.2019
117 Clouds 14 1006 93 10000 1.5 330 22:20 15.10.2019
118 Clouds 14 1006 93 10000 1.5 330 21:56 15.10.2019
119 -273 0 0 0 0 0 21:56 15.10.2019
120 -273 0 0 0 0 0 21:56 15.10.2019
121 Clouds 14 1006 100 10000 0.5 0 21:38 15.10.2019
122 Clouds 14 1006 100 10000 0.5 0 21:20 15.10.2019
123 Clouds 14 1006 100 10000 0.5 0 20:57 15.10.2019
124 Clouds 14 1006 93 10000 0.5 0 20:39 15.10.2019
125 Clouds 14 1006 93 10000 0.5 0 20:39 15.10.2019
126 Clouds 15 1006 100 10000 1 0 20:20 15.10.2019
127 Clouds 15 1006 100 10000 1 0 19:58 15.10.2019
128 Clouds 16 1006 93 10000 1 0 19:40 15.10.2019
129 Clouds 16 1005 87 10000 1.5 340 19:20 15.10.2019
130 Clouds 17 1005 82 10000 1.5 320 18:48 15.10.2019
131 Clouds 17 1005 82 10000 1.5 320 18:29 15.10.2019
132 Clouds 19 1005 64 10000 1 0 17:59 15.10.2019
133 Clouds 20 1005 64 10000 1 0 17:41 15.10.2019
134 Clouds 19 1005 64 10000 1 0 17:41 15.10.2019
135 Clouds 20 1005 64 10000 0.5 0 17:20 15.10.2019
136 Clouds 20 1005 64 10000 0.5 0 17:20 15.10.2019
137 Clouds 20 1005 64 10000 0.5 0 16:58 15.10.2019
138 Clouds 21 1005 68 10000 1.5 310 16:39 15.10.2019
139 Clouds 20 1005 64 10000 2.6 310 16:20 15.10.2019
140 Clouds 20 1005 64 10000 2.1 300 15:55 15.10.2019
141 Clouds 21 1005 64 10000 2.1 300 15:37 15.10.2019
142 Clouds 21 1005 64 10000 2.1 290 15:19 15.10.2019
143 Clouds 20 1005 68 10000 3.6 290 14:38 15.10.2019
144 Clouds 20 1005 68 10000 2.6 290 14:20 15.10.2019
145 Clouds 20 1005 68 10000 2.6 290 13:59 15.10.2019
146 Clouds 20 1006 68 10000 3.6 250 13:40 15.10.2019
147 Clouds 19 1006 72 10000 3.6 220 13:20 15.10.2019
148 Clouds 18 1006 77 10000 2.1 170 12:44 15.10.2019
149 Clouds 17 1006 77 10000 2.6 180 12:22 15.10.2019
150 Clouds 17 1006 77 10000 2.6 180 11:59 15.10.2019
151 Clouds 16 1005 77 10000 2.6 160 11:40 15.10.2019
152 Clouds 16 1006 82 10000 3.1 150 11:20 15.10.2019
153 Clear 14 1006 87 10000 3.1 140 10:46 15.10.2019
154 Clouds 14 1006 87 10000 3.1 140 10:46 15.10.2019
155 Clear 13 1006 87 10000 2.6 140 10:24 15.10.2019
156 Clear 13 1006 87 10000 2.6 140 09:59 15.10.2019
157 -273 0 0 0 0 0 09:40 15.10.2019
158 Clear 12 1006 93 10000 2.6 120 09:21 15.10.2019
159 Clear 12 1006 93 10000 2.6 120 09:21 15.10.2019
160 Clear 12 1006 93 10000 2.1 120 08:58 15.10.2019
161 Clear 12 1006 93 10000 2.1 120 08:39 15.10.2019
162 Clear 12 1006 93 10000 2.6 120 08:20 15.10.2019
163 Clear 12 1006 93 10000 2.1 90 07:43 15.10.2019
164 Clear 12 1006 93 10000 2.6 100 07:23 15.10.2019
165 Clear 12 1006 93 10000 2.6 100 07:23 15.10.2019
166 Clear 12 1006 93 10000 2.6 110 06:58 15.10.2019
167 Clear 12 1006 93 10000 2.6 110 06:39 15.10.2019
168 Clear 12 1007 93 10000 2.6 80 05:56 15.10.2019
169 Clear 12 1007 93 10000 2.6 80 05:37 15.10.2019
170 Clear 12 1007 87 10000 2.6 90 04:49 15.10.2019
171 Clear 12 1007 87 10000 3.1 90 04:19 15.10.2019
172 Clear 13 1008 87 10000 2.6 90 03:35 15.10.2019
173 Clear 13 1008 87 10000 2.6 90 03:35 15.10.2019
174 Clear 13 1009 82 10000 3.6 100 01:59 15.10.2019
175 Clear 13 1009 82 10000 3.6 100 01:40 15.10.2019
176 Clear 13 1009 87 10000 3.1 100 01:18 15.10.2019
177 Clear 13 1010 82 10000 2.1 90 00:26 15.10.2019
178 Clear 13 1010 82 10000 2.1 90 23:59 14.10.2019
179 Clear 13 1010 87 10000 3.6 90 23:38 14.10.2019
180 Clear 14 1011 82 10000 3.1 90 23:19 14.10.2019
181 Clear 14 1011 82 10000 4.1 90 22:40 14.10.2019
182 Clear 14 1011 82 10000 3.6 80 22:21 14.10.2019
183 Clear 14 1011 82 10000 3.6 80 21:59 14.10.2019
184 Clear 14 1011 87 10000 3.6 80 21:40 14.10.2019
185 Clear 14 1011 82 10000 4.1 60 21:21 14.10.2019
186 Clear 14 1011 82 10000 4.1 60 20:59 14.10.2019
187 Clouds 14 1012 82 10000 4.1 80 20:39 14.10.2019
188 Clear 14 1012 82 10000 4.1 60 20:20 14.10.2019
189 Clear 14 1012 82 10000 4.1 60 19:58 14.10.2019
190 Clouds 15 1012 82 10000 3.6 70 19:40 14.10.2019
191 Clouds 15 1013 77 10000 3.1 60 19:22 14.10.2019
192 Clouds 15 1013 77 10000 3.1 60 18:58 14.10.2019
193 Clear 15 1013 77 10000 3.6 80 18:38 14.10.2019
194 Clear 16 1012 77 10000 3.6 90 18:19 14.10.2019
195 Clear 16 1013 67 10000 3.6 90 17:44 14.10.2019
196 Clear 16 1013 67 10000 4.6 100 17:26 14.10.2019
197 Clear 17 1013 67 10000 4.6 100 16:59 14.10.2019
198 Clouds 17 1013 67 10000 3.6 90 16:40 14.10.2019
199 Clouds 17 1013 63 10000 3.6 90 16:21 14.10.2019
200 Clouds 17 1014 63 10000 3.1 70 15:42 14.10.2019
201 Clouds 17 1014 67 10000 2.6 90 15:23 14.10.2019
202 Clouds 17 1014 67 10000 1.5 0 14:57 14.10.2019
203 Clouds 17 1014 67 10000 1.5 0 14:39 14.10.2019
204 Clouds 17 1015 67 10000 1 0 14:19 14.10.2019
205 Clouds 17 1015 72 10000 1 0 13:44 14.10.2019
206 Clouds 17 1015 72 10000 1.5 250 13:21 14.10.2019
207 Clouds 17 1015 72 10000 2.6 260 12:55 14.10.2019
208 Clouds 16 1015 72 10000 2.6 260 12:37 14.10.2019
209 Clouds 16 1015 72 10000 2.6 260 12:18 14.10.2019
210 Clouds 15 1015 77 10000 4.6 280 11:44 14.10.2019
211 Clouds 15 1015 77 10000 3.6 260 11:26 14.10.2019
212 Clouds 14 1014 82 10000 3.6 240 10:57 14.10.2019
213 Clouds 14 1014 82 10000 3.6 240 10:38 14.10.2019
214 Clouds 13 1014 87 10000 3.6 240 10:19 14.10.2019
215 Clear 13 1014 87 10000 3.1 240 09:54 14.10.2019
216 Clear 13 1014 87 10000 3.1 240 09:36 14.10.2019
217 Clear 13 1013 87 10000 3.6 240 09:18 14.10.2019
218 Clouds 13 1013 87 10000 3.6 230 08:42 14.10.2019
219 Clouds 13 1012 87 10000 3.6 230 08:20 14.10.2019
220 Clouds 13 1012 87 10000 3.1 240 07:41 14.10.2019
221 Clouds 13 1012 87 10000 3.1 240 07:41 14.10.2019
222 Clouds 13 1012 87 10000 4.1 250 07:18 14.10.2019
223 Clouds 13 1012 82 10000 3.6 240 06:38 14.10.2019
224 Clouds 13 1011 82 10000 4.1 250 06:20 14.10.2019
225 Clouds 14 1011 82 10000 4.6 260 05:46 14.10.2019
226 Clouds 15 1010 82 10000 5.1 250 04:42 14.10.2019
227 Clouds 16 1009 77 10000 6.2 250 03:27 14.10.2019
228 Clouds 16 1009 82 10000 5.7 240 02:42 14.10.2019
229 Clear 17 1007 88 10000 5.1 220 01:23 14.10.2019
230 Clear 17 1007 93 10000 4.6 220 00:56 14.10.2019
231 Rain 17 1007 93 10000 5.7 240 00:20 14.10.2019
232 Rain 17 1007 88 6000 7.2 270 23:45 13.10.2019
233 Rain 18 1005 72 10000 5.7 210 23:20 13.10.2019
234 Clear 18 1005 72 10000 7.7 200 22:58 13.10.2019
235 Clear 18 1005 72 10000 7.7 200 22:40 13.10.2019
236 Clear 18 1005 72 10000 6.2 200 22:21 13.10.2019
237 Clear 18 1005 72 10000 6.2 200 22:21 13.10.2019
238 Clear 18 1005 72 10000 6.2 200 21:58 13.10.2019
239 Clear 18 1006 82 10000 3.6 180 21:38 13.10.2019
240 Clear 18 1005 77 10000 6.2 180 21:19 13.10.2019
241 Clear 18 1005 77 10000 6.2 180 20:58 13.10.2019
242 Clear 18 1005 82 10000 5.1 170 20:39 13.10.2019
243 Clear 18 1006 88 10000 4.6 170 20:21 13.10.2019
244 Clear 18 1006 88 10000 3.6 170 19:59 13.10.2019
245 Clear 18 1006 88 10000 3.6 170 19:39 13.10.2019
246 Clear 18 1006 88 10000 3.6 170 19:39 13.10.2019
247 Clear 18 1006 93 10000 3.6 160 19:21 13.10.2019
248 -273 0 0 0 0 0 18:58 13.10.2019
249 -273 0 0 0 0 0 18:55 13.10.2019
250 Clouds 18 1006 93 10000 4.1 160 18:36 13.10.2019
251 Clouds 18 1006 93 10000 4.1 140 18:18 13.10.2019
252 Clouds 18 1006 88 10000 4.6 140 17:44 13.10.2019
253 -273 0 0 0 0 0 17:26 13.10.2019
254 Clouds 18 1007 93 10000 3.6 140 17:25 13.10.2019
255 Clouds 18 1006 88 10000 4.6 140 17:25 13.10.2019
256 Clouds 18 1007 93 10000 3.6 150 16:54 13.10.2019
257 Clouds 18 1007 93 10000 3.6 150 16:36 13.10.2019
258 Clouds 18 1007 93 10000 3.6 150 16:18 13.10.2019
259 Rain 17 1008 93 10000 2.6 140 15:55 13.10.2019
260 Rain 17 1008 93 10000 2.6 140 15:36 13.10.2019
261 Rain 17 1008 88 8000 2.1 160 15:18 13.10.2019
262 Rain 17 1008 88 10000 3.6 160 14:40 13.10.2019
263 Clouds 17 1009 93 10000 4.1 160 14:22 13.10.2019
264 Rain 17 1009 88 10000 3.1 150 14:00 13.10.2019
265 Rain 16 1009 88 10000 3.1 150 13:39 13.10.2019
266 Rain 16 1009 93 10000 4.6 140 13:21 13.10.2019
267 Rain 15 1009 93 10000 4.6 140 12:57 13.10.2019
268 Clouds 15 1010 87 10000 4.1 170 12:39 13.10.2019
269 Clouds 15 1010 87 10000 4.1 170 12:39 13.10.2019
270 Clouds 14 1009 87 10000 3.1 160 12:20 13.10.2019
271 Clouds 13 1009 87 10000 3.1 150 11:58 13.10.2019
272 Clouds 13 1009 87 10000 3.1 150 11:38 13.10.2019
273 Clouds 13 1009 93 9000 2.6 130 11:19 13.10.2019
274 Clouds 12 1010 100 7000 2.6 110 10:43 13.10.2019
275 Clouds 12 1010 93 6000 2.6 110 10:24 13.10.2019
276 Clouds 11 1010 93 6000 2.6 110 09:59 13.10.2019
277 Clouds 11 1010 93 6000 2.6 110 09:59 13.10.2019
278 Clouds 11 1010 93 6000 1.5 90 09:39 13.10.2019
279 Rain 11 1010 100 5000 2.1 90 09:20 13.10.2019
280 Drizzle 11 1010 93 8000 2.1 90 08:43 13.10.2019
281 Clouds 11 1010 93 10000 2.1 80 08:25 13.10.2019
282 -273 0 0 0 0 0 08:25 13.10.2019
283 Clouds 11 1010 93 10000 2.1 110 07:51 13.10.2019
284 Clouds 11 1010 93 10000 2.1 110 07:33 13.10.2019
285 Clouds 11 1010 93 10000 2.6 110 06:51 13.10.2019
286 Rain 11 1010 93 10000 2.6 110 06:23 13.10.2019
287 Rain 11 1010 93 10000 2.6 110 06:23 13.10.2019
288 Drizzle 11 1010 93 6000 2.1 130 05:19 13.10.2019
289 Drizzle 11 1011 93 5000 2.1 150 04:34 13.10.2019
290 Drizzle 11 1011 93 5000 2.1 150 04:34 13.10.2019
291 Drizzle 11 1011 100 4800 2.1 180 02:53 13.10.2019
292 Drizzle 11 1011 93 5000 2.6 170 02:30 13.10.2019
293 Drizzle 11 1011 93 4000 1.5 200 01:36 13.10.2019
294 Drizzle 11 1011 93 4000 1.5 200 01:36 13.10.2019
295 Rain 11 1011 93 4800 1 220 00:55 13.10.2019
296 Rain 11 1011 93 4800 1 220 00:37 13.10.2019
297 Rain 11 1011 93 10000 2.1 190 00:18 13.10.2019
298 Rain 11 1011 93 10000 1.5 190 23:42 12.10.2019
299 Drizzle 11 1011 93 6000 2.6 200 23:23 12.10.2019
300 Drizzle 11 1010 93 5000 1.5 220 22:59 12.10.2019
301 Drizzle 11 1010 93 5000 1.5 220 22:40 12.10.2019
302 Drizzle 11 1010 93 6000 2.1 230 22:22 12.10.2019
303 Drizzle 11 1010 93 6000 2.1 230 21:58 12.10.2019
304 Drizzle 11 1010 93 6000 2.1 220 21:40 12.10.2019
305 Drizzle 11 1010 93 6000 2.1 220 21:40 12.10.2019
306 Rain 11 1010 93 10000 3.1 230 21:21 12.10.2019
307 Rain 12 1010 100 10000 3.6 210 20:54 12.10.2019
308 Rain 12 1010 100 10000 3.6 210 20:54 12.10.2019
309 Rain 12 1010 100 10000 3.6 210 20:54 12.10.2019
310 Rain 12 1010 100 10000 3.6 210 20:36 12.10.2019
311 Drizzle 12 1010 87 6000 3.1 220 20:18 12.10.2019
312 Rain 12 1010 87 10000 4.1 230 19:36 12.10.2019
313 Rain 12 1010 82 10000 4.1 240 19:18 12.10.2019
314 Clouds 13 1010 87 10000 4.1 220 18:44 12.10.2019
315 Clouds 13 1009 87 10000 3.1 230 18:26 12.10.2019
316 Clouds 13 1009 87 10000 3.1 240 17:46 12.10.2019
317 Clouds 13 1009 87 10000 4.1 240 17:25 12.10.2019
318 Clouds 13 1009 87 10000 4.1 240 16:59 12.10.2019
319 Clouds 13 1009 82 10000 3.6 230 16:40 12.10.2019
320 Clouds 13 1009 82 10000 3.6 230 16:40 12.10.2019
321 Clouds 13 1009 82 10000 5.7 230 16:21 12.10.2019
322 Clouds 13 1009 82 10000 5.7 230 15:57 12.10.2019
323 Clouds 13 1009 82 10000 5.7 230 15:57 12.10.2019
324 Clouds 13 1009 82 10000 5.7 230 15:38 12.10.2019
325 Clouds 13 1009 87 10000 3.6 240 15:18 12.10.2019
326 Clouds 13 1008 87 10000 4.6 240 14:40 12.10.2019
327 Clouds 13 1008 87 10000 4.6 240 14:20 12.10.2019
328 Clouds 13 1008 87 10000 4.1 230 13:52 12.10.2019
329 Clouds 13 1008 87 10000 4.1 230 13:33 12.10.2019
330 Drizzle 12 1008 93 10000 4.6 230 12:57 12.10.2019
331 Drizzle 12 1008 93 10000 4.6 230 12:38 12.10.2019
332 Drizzle 12 1008 93 8000 4.6 230 12:20 12.10.2019
333 Drizzle 12 1007 93 8000 4.1 250 11:47 12.10.2019
334 Drizzle 12 1007 93 4800 4.1 230 11:26 12.10.2019
335 Drizzle 11 1007 93 4200 2.1 240 10:59 12.10.2019
336 Drizzle 11 1007 93 4200 2.1 240 10:40 12.10.2019
337 Drizzle 11 1006 93 4800 2.6 260 10:21 12.10.2019
338 Drizzle 11 1006 93 4200 4.1 260 09:57 12.10.2019
339 Drizzle 11 1006 93 4800 2.6 260 09:57 12.10.2019
340 Drizzle 11 1006 93 4200 4.1 260 09:38 12.10.2019
341 Drizzle 11 1006 93 8000 3.1 240 09:20 12.10.2019
342 Drizzle 11 1005 100 7000 3.1 250 08:55 12.10.2019
343 Drizzle 11 1005 100 7000 3.1 250 08:36 12.10.2019
344 Drizzle 11 1005 100 4200 3.6 260 08:18 12.10.2019
345 Drizzle 12 1005 93 5000 3.1 250 07:33 12.10.2019
346 Rain 12 1004 82 10000 4.1 260 06:44 12.10.2019
347 Rain 13 1004 87 10000 4.1 260 05:46 12.10.2019
348 Rain 14 1003 87 8000 7.7 220 04:47 12.10.2019
349 Clouds 15 1003 77 10000 8.2 230 03:57 12.10.2019
350 Rain 15 1003 77 10000 8.2 230 02:57 12.10.2019
351 Drizzle 15 1003 82 10000 8.7 220 01:36 12.10.2019
352 Drizzle 14 1004 82 9000 9.3 220 00:58 12.10.2019
353 Clouds 14 1004 82 10000 7.7 220 00:39 12.10.2019
354 Drizzle 14 1004 93 4900 9.3 220 23:57 11.10.2019
355 Drizzle 14 1004 93 4900 9.3 220 23:38 11.10.2019
356 Drizzle 14 1004 87 5000 8.7 220 23:19 11.10.2019
357 Drizzle 14 1004 87 9000 8.7 220 22:40 11.10.2019
358 Drizzle 14 1004 87 7000 9.8 220 22:21 11.10.2019
359 Drizzle 14 1004 87 4500 10.3 220 21:56 11.10.2019
360 Drizzle 14 1004 87 4500 10.3 220 21:38 11.10.2019
361 Drizzle 14 1004 87 10000 9.3 210 21:19 11.10.2019
362 Drizzle 14 1005 87 8000 9.8 220 20:44 11.10.2019
363 Drizzle 14 1005 87 6000 10.8 220 20:25 11.10.2019
364 Drizzle 14 1005 87 10000 8.2 220 19:56 11.10.2019
365 Drizzle 14 1005 87 10000 8.2 220 19:38 11.10.2019
366 Drizzle 14 1005 87 6000 9.8 220 19:18 11.10.2019
367 Drizzle 14 1005 87 6000 9.8 220 18:58 11.10.2019
368 Rain 14 1005 77 10000 9.8 220 18:38 11.10.2019
369 Rain 14 1005 77 10000 9.8 220 18:38 11.10.2019
370 Clouds 14 1006 77 10000 9.8 210 18:19 11.10.2019
371 Clouds 14 1006 77 10000 9.8 210 17:58 11.10.2019
372 Clouds 14 1006 77 10000 9.3 210 17:38 11.10.2019
373 Clouds 14 1006 77 10000 9.3 210 17:38 11.10.2019
374 Rain 14 1006 77 10000 9.8 210 17:19 11.10.2019
375 Rain 14 1006 77 10000 9.8 210 16:58 11.10.2019
376 Rain 14 1006 82 10000 9.8 210 16:39 11.10.2019
377 Rain 14 1006 82 10000 8.2 210 16:19 11.10.2019
378 Rain 14 1007 87 10000 8.2 220 15:41 11.10.2019
379 Rain 14 1007 87 10000 9.3 220 15:21 11.10.2019
380 Rain 14 1007 87 10000 9.3 220 14:58 11.10.2019
381 Rain 14 1007 87 10000 8.7 210 14:39 11.10.2019
382 Clouds 14 1007 87 10000 8.2 220 14:20 11.10.2019
383 Clouds 14 1007 87 10000 7.2 220 13:45 11.10.2019
384 Clouds 14 1007 87 10000 7.2 220 13:45 11.10.2019
385 Clouds 14 1007 87 10000 7.2 220 13:25 11.10.2019
386 Drizzle 14 1008 87 10000 7.7 220 12:57 11.10.2019
387 Drizzle 13 1008 87 10000 7.7 220 12:39 11.10.2019
388 Drizzle 13 1008 87 10000 7.7 220 12:39 11.10.2019
389 Drizzle 13 1008 87 10000 7.7 210 12:20 11.10.2019
390 Drizzle 13 1008 87 10000 7.7 210 11:58 11.10.2019
391 Rain 13 1008 87 10000 6.2 220 11:38 11.10.2019
392 Rain 13 1008 87 10000 6.2 220 11:38 11.10.2019
393 Drizzle 13 1008 87 10000 6.7 220 11:20 11.10.2019
394 Clouds 13 1009 87 10000 7.2 230 10:56 11.10.2019
395 Clouds 13 1009 87 10000 7.2 230 10:56 11.10.2019
396 Clouds 13 1009 87 10000 7.2 230 10:36 11.10.2019
397 Clouds 12 1008 87 10000 7.7 220 10:18 11.10.2019
398 Clouds 12 1008 93 10000 7.7 230 09:42 11.10.2019
399 Clouds 12 1008 93 10000 7.7 230 09:21 11.10.2019
400 Clouds 12 1008 93 10000 7.7 230 08:59 11.10.2019
401 Drizzle 12 1008 87 10000 9.3 220 08:39 11.10.2019
402 Drizzle 11 1007 87 3500 7.2 220 08:20 11.10.2019
403 Drizzle 11 1007 87 3500 7.2 220 07:57 11.10.2019
404 Rain 12 1007 87 4500 7.7 220 07:38 11.10.2019
405 Rain 12 1007 81 10000 8.2 210 07:19 11.10.2019
406 Clouds 12 1008 81 10000 8.2 210 06:43 11.10.2019
407 Clouds 12 1008 81 10000 7.7 210 06:19 11.10.2019
408 Clouds 11 1008 87 10000 7.2 210 05:32 11.10.2019
409 Clouds 11 1009 87 10000 6.7 210 04:59 11.10.2019
410 Clouds 11 1009 81 10000 7.2 210 03:46 11.10.2019
411 Clear 10 1010 87 10000 5.1 210 01:57 11.10.2019
412 Clear 10 1011 87 10000 5.7 220 00:42 11.10.2019
413 Clear 10 1011 87 10000 5.1 220 00:22 11.10.2019
414 Clear 10 1011 87 10000 4.6 220 23:42 10.10.2019
415 Clear 10 1011 87 10000 5.1 230 23:20 10.10.2019
416 Clear 10 1011 87 10000 5.1 230 22:57 10.10.2019
417 Clear 10 1011 87 10000 5.1 230 22:38 10.10.2019
418 Clear 10 1011 93 10000 4.1 220 22:19 10.10.2019
419 Clear 10 1010 87 10000 5.1 230 21:56 10.10.2019
420 Clear 10 1010 87 10000 5.1 230 21:38 10.10.2019
421 Clouds 10 1010 87 10000 5.1 230 21:20 10.10.2019
422 Clouds 10 1010 93 10000 5.1 220 20:42 10.10.2019
423 Clouds 10 1010 87 10000 5.1 220 20:21 10.10.2019
424 Clouds 10 1010 87 10000 5.1 220 19:58 10.10.2019
425 Clouds 10 1010 87 10000 5.1 230 19:40 10.10.2019
426 Rain 11 1010 87 10000 4.1 230 19:20 10.10.2019
427 Rain 11 1009 81 10000 4.6 230 18:57 10.10.2019
428 Rain 11 1009 81 10000 4.6 230 18:38 10.10.2019
429 Clouds 11 1009 81 10000 5.1 230 18:19 10.10.2019
430 Clouds 11 1009 81 10000 5.1 230 17:54 10.10.2019
431 Clouds 11 1009 81 10000 5.1 230 17:36 10.10.2019
432 Clouds 11 1009 81 10000 5.1 230 17:36 10.10.2019
433 Rain 11 1008 81 10000 5.7 230 17:18 10.10.2019
434 Rain 11 1008 81 10000 5.7 230 17:18 10.10.2019
435 Rain 11 1008 87 10000 4.6 220 16:41 10.10.2019
436 Rain 12 1008 87 10000 3.6 240 16:22 10.10.2019
437 Rain 12 1008 67 10000 7.7 230 15:54 10.10.2019
438 Rain 12 1008 67 10000 7.7 230 15:36 10.10.2019
439 Clouds 13 1008 71 10000 7.7 230 15:18 10.10.2019
440 Clouds 13 1008 71 10000 8.2 230 14:54 10.10.2019
441 Clouds 13 1008 71 10000 8.2 230 14:36 10.10.2019
442 Clouds 13 1008 71 10000 7.2 240 14:18 10.10.2019
443 Clouds 13 1007 76 10000 8.2 230 13:41 10.10.2019
444 Clouds 13 1007 76 10000 8.2 230 13:41 10.10.2019
445 Clouds 13 1007 76 10000 6.2 240 13:23 10.10.2019
446 Clouds 12 1007 76 10000 6.2 240 12:57 10.10.2019
447 Clouds 12 1007 81 10000 6.7 230 12:39 10.10.2019
448 Clouds 12 1007 76 10000 7.2 230 12:20 10.10.2019
449 Clouds 12 1007 76 10000 6.7 240 11:55 10.10.2019
450 Clouds 11 1007 76 10000 6.7 240 11:37 10.10.2019
451 Clouds 11 1006 81 10000 6.2 230 11:18 10.10.2019
452 Clouds 10 1006 87 10000 5.7 230 10:44 10.10.2019
453 Clouds 10 1006 87 10000 5.1 240 10:26 10.10.2019
454 Clouds 9 1005 87 10000 5.7 230 09:56 10.10.2019
455 Clouds 9 1005 87 10000 5.7 230 09:38 10.10.2019
456 Clouds 9 1005 87 10000 4.6 240 09:19 10.10.2019
457 Clouds 8 1004 87 10000 5.1 230 08:56 10.10.2019
458 Clouds 8 1004 87 10000 5.1 230 08:37 10.10.2019
459 Clouds 8 1004 93 10000 4.6 230 08:18 10.10.2019
460 Clouds 8 1004 87 10000 5.7 230 07:42 10.10.2019
461 Clouds 8 1004 87 10000 4.6 240 07:20 10.10.2019
462 Clouds 8 1004 87 10000 5.1 240 06:46 10.10.2019
463 Clouds 8 1003 87 10000 5.1 230 06:26 10.10.2019
464 Clouds 8 1003 87 10000 5.1 230 05:27 10.10.2019
465 Clouds 9 1003 93 10000 6.2 230 04:39 10.10.2019
466 Clouds 9 1003 93 10000 4.6 230 04:21 10.10.2019
467 Clouds 9 1002 93 10000 4.1 230 01:43 10.10.2019
468 Clouds 9 1002 93 10000 4.1 220 01:24 10.10.2019
469 Clear 9 1002 93 10000 4.6 220 00:54 10.10.2019
470 Clear 9 1002 93 10000 3.6 230 00:22 10.10.2019
471 Clear 9 1002 93 10000 3.1 220 23:40 09.10.2019
472 Clear 9 1002 93 10000 4.1 230 23:21 09.10.2019
473 Clear 9 1002 87 10000 4.6 230 22:56 09.10.2019
474 Clear 9 1002 87 10000 4.6 230 22:38 09.10.2019
475 Clear 10 1002 87 10000 3.1 240 22:20 09.10.2019
476 Clouds 10 1002 87 10000 3.6 240 21:40 09.10.2019
477 Clouds 10 1002 93 10000 3.1 230 21:21 09.10.2019
478 Clouds 10 1002 93 10000 3.1 230 20:56 09.10.2019
479 Rain 10 1002 87 8000 5.1 240 20:38 09.10.2019
480 Rain 10 1002 81 10000 5.1 210 20:19 09.10.2019
481 Rain 11 1002 81 10000 5.1 210 20:19 09.10.2019
482 Rain 11 1002 81 10000 5.1 210 20:19 09.10.2019
483 Rain 11 1002 81 10000 5.1 210 19:58 09.10.2019
484 Clouds 11 1002 81 10000 3.1 200 19:40 09.10.2019
485 Clouds 11 1002 81 10000 3.6 200 19:22 09.10.2019
486 Clouds 12 1002 81 10000 4.6 210 18:38 09.10.2019
487 Clouds 12 1002 81 10000 4.6 210 18:20 09.10.2019
488 Rain 12 1002 81 10000 5.7 210 17:58 09.10.2019
489 Rain 12 1002 81 10000 5.7 210 17:58 09.10.2019
490 Rain 13 1002 81 10000 5.7 210 17:39 09.10.2019
491 Clouds 13 1002 71 10000 6.2 210 17:21 09.10.2019
492 Clouds 13 1003 71 10000 6.2 220 16:56 09.10.2019
493 Clouds 13 1003 71 10000 6.2 220 16:56 09.10.2019
494 Clouds 13 1003 71 10000 6.2 220 16:56 09.10.2019
495 Clouds 13 1003 71 10000 6.2 220 16:37 09.10.2019
496 Clouds 13 1003 71 10000 5.7 220 16:19 09.10.2019
497 Clouds 14 1003 67 10000 7.2 220 15:55 09.10.2019
498 Clouds 14 1003 67 10000 7.2 220 15:37 09.10.2019
499 Clouds 14 1003 71 10000 7.2 210 15:18 09.10.2019
500 Clouds 14 1003 71 10000 6.7 220 14:45 09.10.2019
501 Clouds 14 1003 67 10000 7.7 220 14:19 09.10.2019
502 Clouds 14 1003 67 10000 7.7 220 13:59 09.10.2019
503 Clouds 14 1004 71 10000 6.7 230 13:38 09.10.2019
504 Clouds 14 1004 76 10000 6.7 220 13:18 09.10.2019
505 Clouds 13 1004 82 10000 6.2 220 12:44 09.10.2019
506 Clouds 13 1004 82 10000 6.2 220 12:23 09.10.2019
507 Clouds 13 1004 82 10000 6.2 220 12:23 09.10.2019
508 Clouds 13 1004 81 10000 6.7 230 11:58 09.10.2019
509 Clouds 12 1004 81 10000 6.7 230 11:40 09.10.2019
510 Clouds 12 1004 87 10000 6.2 230 11:20 09.10.2019
511 Clouds 12 1005 87 10000 6.7 230 10:59 09.10.2019
512 Clouds 12 1005 87 10000 6.7 230 10:40 09.10.2019
513 Clouds 12 1005 87 10000 6.2 220 10:19 09.10.2019
514 Clouds 11 1005 87 10000 6.2 220 09:56 09.10.2019
515 Clouds 11 1004 93 10000 5.7 220 09:38 09.10.2019
516 Clouds 11 1004 87 10000 4.6 220 09:18 09.10.2019
517 Clouds 10 1004 87 10000 4.6 230 08:39 09.10.2019
518 Clouds 11 1004 87 10000 5.1 220 08:20 09.10.2019
519 Clouds 10 1004 87 10000 5.7 230 07:47 09.10.2019
520 Clouds 10 1004 87 10000 5.1 230 07:25 09.10.2019
521 Clouds 10 1004 87 10000 5.1 230 07:25 09.10.2019
522 Clouds 10 1004 87 10000 5.1 230 07:25 09.10.2019
523 Clouds 10 1004 87 10000 5.1 230 07:25 09.10.2019
524 Clouds 11 1004 87 10000 5.7 230 06:59 09.10.2019
525 Clouds 11 1004 87 10000 5.7 230 06:41 09.10.2019
526 Clouds 11 1003 93 10000 4.6 220 05:53 09.10.2019
527 Clouds 10 1003 87 10000 5.7 230 05:18 09.10.2019
528 Rain 11 1002 93 10000 3.6 240 03:49 09.10.2019
529 Clear 11 1002 87 10000 4.1 220 02:35 09.10.2019
530 Rain 10 1002 93 10000 4.6 220 01:39 09.10.2019
531 Clouds 10 1002 93 10000 3.1 210 01:19 09.10.2019
532 Clouds 10 1002 93 10000 3.1 210 00:55 09.10.2019
533 Clouds 10 1002 93 10000 3.1 210 00:37 09.10.2019
534 Clouds 10 1003 93 10000 3.1 220 00:19 09.10.2019
535 Clear 10 1002 93 10000 3.6 220 23:39 08.10.2019
536 Clear 10 1002 93 10000 3.6 220 23:39 08.10.2019
537 Clear 10 1002 93 10000 3.6 220 23:18 08.10.2019
538 Clear 11 1002 93 10000 2.6 230 22:55 08.10.2019
539 Clear 11 1002 93 10000 2.6 230 22:37 08.10.2019
540 Clouds 11 1002 100 10000 3.1 230 22:18 08.10.2019
541 Clouds 11 1002 93 10000 3.6 230 21:56 08.10.2019
542 Clouds 11 1002 93 10000 3.6 230 21:37 08.10.2019
543 Clouds 11 1002 93 10000 3.6 230 21:18 08.10.2019
544 Clouds 12 1002 93 10000 3.6 230 20:55 08.10.2019
545 Rain 12 1002 93 10000 5.1 220 20:37 08.10.2019
546 Clouds 12 1002 87 10000 4.1 230 20:18 08.10.2019
547 Clouds 13 1002 93 10000 3.6 230 19:55 08.10.2019
548 Clouds 13 1002 93 10000 3.6 230 19:36 08.10.2019
549 Rain 13 1002 87 10000 1.5 250 19:18 08.10.2019
550 Clouds 13 1002 87 10000 3.6 220 18:42 08.10.2019
551 Rain 14 1002 87 10000 3.1 240 18:24 08.10.2019
552 Rain 14 1002 87 10000 3.1 240 17:58 08.10.2019
553 Rain 14 1002 82 10000 6.2 230 17:39 08.10.2019
554 Rain 15 1002 82 10000 4.1 240 17:20 08.10.2019
555 Rain 15 1002 82 10000 3.6 250 16:56 08.10.2019
556 Rain 15 1002 82 10000 3.6 250 16:37 08.10.2019
557 Rain 15 1002 82 10000 5.7 240 16:19 08.10.2019
558 Clouds 15 1002 77 10000 4.6 250 15:40 08.10.2019
559 Clouds 15 1002 77 10000 5.7 230 15:20 08.10.2019
560 Clouds 15 1002 77 10000 5.7 230 15:20 08.10.2019
561 Clouds 15 1002 77 10000 4.6 260 14:57 08.10.2019
562 Clouds 15 1002 77 10000 4.6 260 14:38 08.10.2019
563 Clouds 15 1002 77 10000 4.6 250 14:19 08.10.2019
564 Clouds 15 1003 82 10000 4.6 250 13:55 08.10.2019
565 Clouds 15 1003 82 10000 4.6 250 13:55 08.10.2019
566 Clouds 14 1003 82 10000 4.6 250 13:37 08.10.2019
567 Clouds 14 1003 82 10000 4.6 250 13:37 08.10.2019
568 Clouds 14 1003 82 10000 5.7 250 13:18 08.10.2019
569 Clouds 14 1003 87 10000 6.2 250 12:41 08.10.2019
570 Clouds 13 1002 93 10000 5.7 240 12:20 08.10.2019
571 Rain 13 1003 93 10000 5.7 240 11:59 08.10.2019
572 Rain 13 1003 93 10000 5.7 240 11:40 08.10.2019
573 Drizzle 12 1003 87 10000 5.7 240 11:21 08.10.2019
574 Drizzle 12 1003 93 10000 5.7 240 10:55 08.10.2019
575 Drizzle 11 1003 93 10000 5.7 240 10:36 08.10.2019
576 Drizzle 11 1003 100 10000 5.1 230 10:18 08.10.2019
577 Drizzle 10 1003 93 4500 6.2 220 09:41 08.10.2019
578 Drizzle 10 1003 93 4500 6.7 220 09:22 08.10.2019
579 Drizzle 10 1003 93 4500 6.7 220 08:57 08.10.2019
580 Rain 10 1003 93 9000 6.7 200 08:39 08.10.2019
581 Rain 10 1004 93 4500 5.7 170 08:21 08.10.2019
582 Rain 9 1004 93 4500 5.1 160 07:41 08.10.2019
583 Rain 9 1005 100 6000 5.7 160 07:20 08.10.2019
584 Rain 9 1006 93 7000 4.6 160 06:49 08.10.2019
585 Rain 9 1006 87 8000 4.1 160 06:28 08.10.2019
586 Rain 9 1007 87 10000 3.6 160 05:45 08.10.2019
587 Rain 9 1007 87 10000 3.6 160 05:45 08.10.2019
588 Rain 8 1008 87 10000 3.6 150 05:25 08.10.2019
589 Rain 8 1009 81 10000 4.1 150 03:57 08.10.2019
590 Clouds 8 1010 75 10000 4.1 140 03:24 08.10.2019
591 Clear 8 1011 75 10000 4.1 150 02:35 08.10.2019
592 Clouds 8 1011 75 10000 4.1 150 01:44 08.10.2019
593 Clouds 8 1011 75 10000 4.1 150 01:26 08.10.2019
594 Clouds 8 1013 70 10000 4.1 140 00:46 08.10.2019
595 Clouds 8 1013 70 10000 4.6 160 00:20 08.10.2019
596 Clear 7 1014 70 10000 4.6 150 23:39 07.10.2019
597 Clear 7 1014 70 10000 4.1 150 23:20 07.10.2019
598 Clear 7 1015 70 10000 4.1 150 22:56 07.10.2019
599 Clear 7 1015 70 10000 4.1 150 22:38 07.10.2019
600 Clear 7 1016 70 10000 3.6 140 22:20 07.10.2019
601 Clear 7 1016 70 10000 3.6 140 21:56 07.10.2019
602 Clear 7 1016 70 10000 3.6 140 21:38 07.10.2019
603 Clear 7 1017 70 10000 2.6 150 21:20 07.10.2019
604 Clear 7 1017 70 10000 2.6 150 21:20 07.10.2019
605 Clear 7 1017 66 10000 3.1 150 20:57 07.10.2019
606 Clear 7 1017 66 10000 3.1 150 20:39 07.10.2019
607 Clear 7 1017 66 10000 3.6 130 20:20 07.10.2019
608 Clear 8 1017 61 10000 3.6 130 19:58 07.10.2019
609 Clear 8 1017 61 10000 3.6 130 19:39 07.10.2019
610 Clear 8 1018 57 10000 3.6 150 19:19 07.10.2019
611 Clear 9 1018 57 10000 2.6 160 18:56 07.10.2019
612 Clear 9 1018 57 10000 2.6 160 18:56 07.10.2019
613 Clear 10 1018 57 10000 2.6 160 18:38 07.10.2019
614 Clear 10 1017 53 10000 4.1 140 18:18 07.10.2019
615 Clear 10 1017 53 10000 4.1 140 18:18 07.10.2019
616 Clear 11 1017 53 10000 3.6 140 17:43 07.10.2019
617 Clear 11 1018 50 10000 4.1 150 17:20 07.10.2019
618 Clouds 11 1018 53 10000 3.6 140 16:57 07.10.2019
619 Clouds 12 1018 53 10000 3.6 140 16:38 07.10.2019
620 Clouds 12 1019 46 10000 3.1 150 16:20 07.10.2019
621 Clouds 12 1019 46 10000 3.1 170 15:45 07.10.2019
622 Clouds 12 1019 46 10000 4.1 150 15:26 07.10.2019
623 Clouds 12 1020 46 10000 3.6 170 14:55 07.10.2019
624 Clouds 12 1020 46 10000 3.6 170 14:37 07.10.2019
625 Clouds 12 1020 50 10000 3.6 130 14:19 07.10.2019
626 Clouds 12 1020 54 10000 3.1 140 13:43 07.10.2019
627 Clouds 11 1021 57 10000 3.1 140 13:20 07.10.2019
628 Clouds 11 1021 53 10000 2.6 120 12:56 07.10.2019
629 Clouds 11 1021 53 10000 2.6 120 12:38 07.10.2019
630 Clouds 10 1021 57 10000 2.1 120 12:19 07.10.2019
631 Clear 10 1021 61 10000 2.1 80 11:57 07.10.2019
632 Clear 9 1021 61 10000 2.1 80 11:38 07.10.2019
633 Clear 9 1022 66 10000 1 0 11:20 07.10.2019
634 Clear 7 1022 70 10000 0.5 0 10:42 07.10.2019
635 Clear 7 1021 75 10000 2.53 112.688 10:21 07.10.2019
636 Clear 4 1022 80 10000 2.53 112.688 09:43 07.10.2019
637 Clear 3 1021 86 10000 1 40 09:25 07.10.2019
638 Clear 1 1021 100 10000 0.5 0 08:58 07.10.2019
639 Clear 1 1021 100 10000 0.5 0 08:39 07.10.2019
640 Clear 0 1021 90 10000 1 320 08:20 07.10.2019
641 Mist 0 1021 100 10000 1 0 07:44 07.10.2019
642 Mist 0 1020 90 10000 1 60 07:25 07.10.2019
643 Clear 1 1020 90 10000 0.5 0 06:56 07.10.2019
644 Clear 0 1020 90 10000 0.5 0 06:37 07.10.2019
645 Clear 1 1021 91 10000 1 0 05:56 07.10.2019
646 Clear 1 1020 91 10000 0.5 0 05:25 07.10.2019
647 Clear 1 1021 91 10000 1.5 320 04:47 07.10.2019
648 Clear 2 1020 86 10000 0.5 0 03:46 07.10.2019
649 Clear 2 1020 86 10000 0.5 0 03:27 07.10.2019
650 Clear 3 1020 93 10000 1 0 02:37 07.10.2019
651 Clear 3 1020 93 10000 2.6 60 02:18 07.10.2019
652 Clear 3 1019 93 10000 2.6 60 01:23 07.10.2019
653 Clear 4 1019 93 10000 3.1 60 00:51 07.10.2019
654 Clear 4 1019 93 10000 3.1 60 00:26 07.10.2019
655 Clear 4 1019 86 10000 3.1 60 23:59 06.10.2019
656 Clear 4 1019 86 10000 3.1 60 23:40 06.10.2019
657 Clear 4 1019 86 10000 3.1 60 23:20 06.10.2019
658 Clear 5 1019 86 10000 2.6 60 22:56 06.10.2019
659 Clear 5 1019 86 10000 2.6 60 22:37 06.10.2019
660 Clear 5 1019 81 10000 2.6 60 22:19 06.10.2019
661 Clear 6 1019 81 10000 3.1 70 21:55 06.10.2019
662 Clear 6 1019 81 10000 3.1 70 21:37 06.10.2019
663 Clear 6 1018 87 10000 3.6 70 21:18 06.10.2019
664 Clear 6 1018 87 10000 3.6 70 21:18 06.10.2019
665 Clear 6 1018 81 10000 3.6 70 20:56 06.10.2019
666 Clear 6 1018 81 10000 3.6 70 20:38 06.10.2019
667 Clouds 7 1018 81 10000 4.1 70 20:19 06.10.2019
668 Clouds 7 1018 75 10000 4.1 70 19:56 06.10.2019
669 Clouds 8 1018 75 10000 4.1 70 19:37 06.10.2019
670 Clouds 8 1018 76 10000 3.6 80 19:18 06.10.2019
671 Clouds 8 1017 76 10000 4.1 90 18:56 06.10.2019
672 Clouds 8 1017 76 10000 4.1 90 18:37 06.10.2019
673 Clouds 9 1017 71 10000 4.6 90 18:18 06.10.2019
674 Clouds 10 1017 71 10000 5.1 90 17:43 06.10.2019
675 Clouds 10 1017 71 10000 5.7 100 17:20 06.10.2019
676 Clouds 10 1017 71 10000 5.7 100 16:58 06.10.2019
677 Clouds 10 1018 71 10000 5.7 90 16:40 06.10.2019
678 Clouds 10 1018 71 10000 5.7 110 16:22 06.10.2019
679 Clouds 10 1018 71 10000 5.1 90 15:45 06.10.2019
680 Clouds 11 1018 71 10000 5.7 100 15:22 06.10.2019
681 Clouds 11 1018 71 10000 5.7 100 14:58 06.10.2019
682 Clouds 11 1019 71 10000 6.2 90 14:40 06.10.2019
683 Clouds 11 1019 66 10000 4.6 90 14:22 06.10.2019
684 Clouds 11 1019 66 10000 6.2 90 13:55 06.10.2019
685 Clouds 11 1019 66 10000 6.2 90 13:37 06.10.2019
686 Clouds 11 1019 62 10000 5.7 90 13:19 06.10.2019
687 Clouds 11 1020 71 10000 6.2 100 12:55 06.10.2019
688 Clouds 10 1020 71 10000 6.2 100 12:37 06.10.2019
689 Clouds 10 1020 71 10000 4.6 100 12:19 06.10.2019
690 Clouds 10 1020 70 10000 5.1 110 11:43 06.10.2019
691 Clouds 9 1020 76 10000 5.1 90 11:24 06.10.2019
692 Clouds 9 1020 76 10000 5.1 90 11:24 06.10.2019
693 Clouds 9 1020 76 10000 5.1 90 10:58 06.10.2019
694 Clouds 8 1021 81 10000 4.6 130 10:39 06.10.2019
695 Clear 7 1021 81 10000 3.6 120 10:21 06.10.2019
696 Clear 6 1021 87 10000 2.6 100 09:42 06.10.2019
697 Clear 6 1021 87 10000 2.6 100 09:42 06.10.2019
698 Clear 6 1021 87 10000 1.5 90 09:21 06.10.2019
699 Clear 6 1021 87 10000 1.5 90 09:21 06.10.2019
700 Clear 5 1021 93 10000 2.6 90 08:59 06.10.2019
701 Clear 4 1021 93 10000 2.6 90 08:39 06.10.2019
702 Clear 4 1021 93 10000 2.6 100 08:19 06.10.2019
703 Clear 4 1021 93 10000 2.6 100 07:42 06.10.2019
704 Fog 4 1021 93 10000 2.6 100 07:18 06.10.2019
705 Clear 5 1021 86 10000 2.6 90 06:18 06.10.2019
706 Clear 5 1022 86 10000 2.6 90 05:27 06.10.2019
707 Clear 5 1022 93 10000 2.1 70 03:23 06.10.2019
708 Clear 5 1022 93 10000 2.6 70 02:40 06.10.2019
709 Clear 5 1022 93 10000 2.6 70 02:40 06.10.2019
710 Clear 5 1022 93 10000 2.1 60 02:19 06.10.2019
711 Clear 5 1022 100 10000 2.6 70 01:38 06.10.2019
712 Clear 5 1022 93 10000 2.6 70 01:20 06.10.2019
713 Clear 6 1022 93 10000 2.6 60 00:45 06.10.2019
714 Clear 6 1022 93 10000 2.6 70 00:24 06.10.2019
715 Clouds 6 1022 93 10000 2.1 60 23:44 05.10.2019
716 Clouds 6 1022 93 10000 2.1 60 23:22 05.10.2019
717 Clear 6 1022 93 10000 2.6 50 22:58 05.10.2019
718 Clear 6 1022 93 10000 2.6 50 22:39 05.10.2019
719 Clear 7 1022 93 10000 2.1 50 22:20 05.10.2019
720 Clear 7 1022 93 10000 2.1 50 22:20 05.10.2019
721 Clear 7 1021 87 10000 2.1 50 21:56 05.10.2019
722 Clear 7 1021 87 10000 2.1 50 21:37 05.10.2019
723 Clear 7 1021 87 10000 2.6 50 21:18 05.10.2019
724 Clear 8 1021 87 10000 1.5 50 20:55 05.10.2019
725 Clear 8 1021 87 10000 1.5 50 20:55 05.10.2019
726 Clear 7 1021 87 10000 1.5 50 20:36 05.10.2019
727 Clear 8 1021 87 10000 2.1 40 20:18 05.10.2019
728 Clear 8 1020 87 10000 2.1 30 19:37 05.10.2019
729 Clear 9 1020 81 10000 2.6 50 19:19 05.10.2019
730 Clouds 9 1020 76 10000 4.6 60 18:55 05.10.2019
731 Clouds 10 1020 76 10000 4.6 60 18:37 05.10.2019
732 Clouds 10 1019 71 10000 5.7 60 18:19 05.10.2019
733 Rain 11 1019 71 10000 6.2 60 17:43 05.10.2019
734 Rain 11 1019 76 10000 6.2 50 17:24 05.10.2019
735 Rain 11 1019 76 10000 6.2 50 16:58 05.10.2019
736 Rain 12 1018 71 10000 5.1 60 16:40 05.10.2019
737 Clouds 12 1018 62 10000 5.7 60 16:21 05.10.2019
738 Clouds 12 1018 58 10000 3.6 40 15:57 05.10.2019
739 Clouds 12 1018 58 10000 3.6 40 15:38 05.10.2019
740 Clouds 12 1018 62 10000 3.6 30 15:20 05.10.2019
741 Rain 12 1018 58 10000 4.1 60 14:44 05.10.2019
742 Clouds 12 1017 62 10000 4.6 50 14:26 05.10.2019
743 Clouds 12 1017 62 10000 4.6 50 14:26 05.10.2019
744 Clouds 12 1017 62 10000 3.6 30 13:59 05.10.2019
745 Clouds 12 1017 62 10000 3.6 30 13:41 05.10.2019
746 Clouds 12 1017 71 10000 4.6 40 13:20 05.10.2019
747 Clouds 11 1017 76 10000 5.7 50 12:44 05.10.2019
748 Clouds 11 1017 76 10000 4.1 40 12:20 05.10.2019
749 Rain 11 1016 76 10000 3.1 30 11:54 05.10.2019
750 Rain 11 1016 76 10000 3.1 30 11:36 05.10.2019
751 Rain 11 1016 76 10000 3.6 30 11:18 05.10.2019
752 Rain 10 1016 87 10000 3.6 20 10:44 05.10.2019
753 Rain 10 1015 87 10000 3.1 30 10:24 05.10.2019
754 Rain 9 1015 87 10000 2.6 20 09:56 05.10.2019
755 Rain 9 1015 87 10000 2.6 20 09:38 05.10.2019
756 Clouds 8 1014 87 10000 3.1 10 09:20 05.10.2019
757 Rain 7 1013 87 10000 4.6 20 08:39 05.10.2019
758 Rain 7 1013 87 10000 4.6 20 08:39 05.10.2019
759 -273 0 0 0 0 0 08:19 05.10.2019
760 Rain 7 1013 93 10000 2.6 360 08:19 05.10.2019
761 Clouds 7 1012 93 10000 3.1 10 07:56 05.10.2019
762 Clouds 7 1012 93 10000 3.1 10 07:33 05.10.2019
763 Clouds 7 1011 93 10000 3.1 20 06:58 05.10.2019
764 Clear 7 1011 87 10000 4.1 20 06:27 05.10.2019
765 Clouds 7 1011 93 10000 3.1 360 05:40 05.10.2019
766 Clouds 7 1010 93 10000 3.1 350 03:57 05.10.2019
767 Clouds 7 1009 87 10000 2.6 20 03:28 05.10.2019
768 Clouds 8 1009 93 10000 3.6 30 01:42 05.10.2019
769 Clouds 8 1008 93 10000 4.1 40 01:20 05.10.2019
770 Clouds 8 1008 87 10000 3.6 40 00:43 05.10.2019
771 Clouds 8 1008 93 10000 3.6 40 00:25 05.10.2019
772 Clouds 8 1007 87 10000 4.6 60 23:44 04.10.2019
773 Clouds 8 1007 93 10000 3.6 60 23:26 04.10.2019
774 Clouds 8 1007 93 10000 4.1 70 22:59 04.10.2019
775 Clouds 8 1007 93 10000 4.1 70 22:39 04.10.2019
776 Rain 8 1007 93 10000 4.6 70 22:20 04.10.2019
777 Rain 8 1007 93 10000 4.1 70 21:57 04.10.2019
778 Rain 8 1007 93 10000 4.1 70 21:39 04.10.2019
779 Rain 8 1006 93 10000 4.6 70 21:20 04.10.2019
780 Rain 8 1006 93 10000 4.6 70 20:57 04.10.2019
781 Rain 9 1006 93 10000 3.6 70 20:38 04.10.2019
782 Rain 9 1006 93 10000 4.1 80 20:20 04.10.2019
783 Rain 9 1006 93 9000 4.1 80 19:48 04.10.2019
784 Rain 9 1006 93 7000 4.1 80 19:29 04.10.2019
785 Rain 9 1006 93 7000 3.6 80 18:59 04.10.2019
786 Rain 9 1006 93 7000 3.6 80 18:39 04.10.2019
787 Rain 9 1006 93 7000 4.1 90 18:19 04.10.2019
788 Rain 9 1006 93 7000 5.1 90 17:57 04.10.2019
789 Rain 9 1006 93 7000 5.1 90 17:38 04.10.2019
790 Rain 10 1006 93 8000 4.6 70 17:19 04.10.2019
791 Rain 10 1006 93 10000 4.6 80 16:54 04.10.2019
792 Rain 10 1006 93 10000 4.6 80 16:36 04.10.2019
793 Rain 10 1006 93 10000 4.6 80 16:36 04.10.2019
794 Rain 10 1006 87 10000 3.6 90 16:18 04.10.2019
795 Rain 10 1006 87 10000 3.6 90 15:54 04.10.2019
796 Rain 10 1006 87 10000 3.6 90 15:36 04.10.2019
797 Rain 10 1006 87 10000 3.1 100 15:18 04.10.2019
798 Rain 10 1007 81 10000 3.6 120 14:41 04.10.2019
799 Clouds 10 1007 87 10000 3.6 150 14:22 04.10.2019
800 Rain 10 1007 93 10000 3.6 150 13:59 04.10.2019
801 -273 0 0 0 0 0 13:40 04.10.2019
802 Rain 10 1007 87 7000 4.1 160 13:19 04.10.2019
803 Drizzle 10 1008 87 8000 4.1 140 12:45 04.10.2019
804 Drizzle 10 1008 87 8000 4.1 140 12:27 04.10.2019
805 Drizzle 10 1008 93 8000 3.6 120 12:27 04.10.2019
806 Rain 10 1008 93 8000 3.6 120 11:56 04.10.2019
807 Rain 9 1008 93 8000 3.6 120 11:38 04.10.2019
808 Rain 9 1008 93 8000 3.6 150 11:19 04.10.2019
809 Mist 9 1009 100 4800 4.6 160 10:39 04.10.2019
810 Mist 9 1009 100 3000 4.6 150 10:20 04.10.2019
811 Mist 9 1009 93 2500 4.1 140 09:45 04.10.2019
812 Fog 9 1009 100 3000 3.6 140 09:27 04.10.2019
813 Mist 8 1009 100 2500 3.6 140 08:56 04.10.2019
814 Mist 8 1009 100 2500 3.6 140 08:37 04.10.2019
815 Mist 8 1010 100 2700 3.6 130 08:19 04.10.2019
816 Mist 8 1010 100 3500 3.1 160 07:43 04.10.2019
817 Mist 8 1010 100 4000 3.1 150 07:21 04.10.2019
818 Mist 8 1010 100 7000 3.1 160 06:42 04.10.2019
819 Clouds 8 1010 93 8000 3.6 150 06:24 04.10.2019
820 Clouds 8 1011 93 10000 3.6 130 05:24 04.10.2019
821 Clouds 7 1011 93 10000 3.6 140 04:56 04.10.2019
822 Clouds 8 1012 87 10000 2.1 140 03:47 04.10.2019
823 Clouds 8 1012 87 10000 2.1 140 03:47 04.10.2019
824 Clouds 7 1013 93 10000 2.1 140 02:53 04.10.2019
825 Clouds 7 1013 93 10000 2.1 140 02:53 04.10.2019
826 Clouds 7 1013 93 10000 1 0 01:55 04.10.2019
827 Clouds 7 1013 93 10000 2.1 130 01:30 04.10.2019
828 Clouds 7 1013 93 10000 1.5 120 00:57 04.10.2019
829 Clouds 7 1014 100 10000 3.1 90 23:58 03.10.2019
830 Clouds 7 1014 100 10000 3.1 90 23:37 03.10.2019
831 Clouds 7 1014 93 10000 2.6 90 23:18 03.10.2019
832 Clouds 7 1014 93 10000 2.6 90 23:18 03.10.2019
833 Clouds 7 1014 93 10000 2.1 90 22:56 03.10.2019
834 Clouds 7 1014 93 10000 2.1 90 22:37 03.10.2019
835 Fog 7 1014 100 10000 1.5 80 22:19 03.10.2019
836 Clouds 7 1014 100 10000 0.5 0 21:56 03.10.2019
837 Clouds 8 1014 100 10000 0.5 0 21:37 03.10.2019
838 Clouds 8 1014 93 10000 1.5 50 21:19 03.10.2019
839 Clouds 8 1014 93 10000 1 0 20:55 03.10.2019
840 Clouds 8 1014 93 10000 1 0 20:55 03.10.2019
841 Clouds 8 1014 93 10000 1 0 20:37 03.10.2019
842 Clouds 9 1014 100 10000 0.5 0 20:19 03.10.2019
843 Clouds 9 1014 93 10000 1.5 40 19:41 03.10.2019
844 Clouds 10 1014 87 10000 1 0 19:22 03.10.2019
845 Clouds 11 1014 81 10000 1 0 18:59 03.10.2019
846 Clouds 11 1014 81 10000 1 0 18:40 03.10.2019
847 Clouds 12 1014 76 10000 2.1 360 18:19 03.10.2019
848 Clouds 12 1014 76 10000 2.1 360 18:19 03.10.2019
849 Clouds 12 1014 76 10000 2.1 360 17:59 03.10.2019
850 Clouds 12 1014 76 10000 2.1 360 17:59 03.10.2019
851 Clouds 12 1014 71 10000 2.6 320 17:41 03.10.2019
852 Clouds 13 1014 71 10000 2.6 320 17:19 03.10.2019
853 Clouds 13 1014 66 10000 2.6 300 16:44 03.10.2019
854 Clouds 13 1014 66 10000 3.1 350 16:26 03.10.2019
855 Clouds 13 1014 66 10000 3.1 350 15:57 03.10.2019
856 Clouds 13 1014 66 10000 2.6 310 15:39 03.10.2019
857 Clouds 13 1014 71 10000 2.1 270 15:21 03.10.2019
858 Clouds 13 1015 71 10000 3.6 290 14:47 03.10.2019
859 Clouds 12 1015 71 10000 3.1 320 14:27 03.10.2019
860 Clouds 12 1015 71 10000 3.1 310 13:59 03.10.2019
861 Clouds 12 1015 71 10000 3.1 310 13:41 03.10.2019
862 Clouds 12 1015 76 10000 2.6 330 13:19 03.10.2019
863 Clouds 12 1015 76 10000 2.6 310 12:57 03.10.2019
864 Clouds 12 1014 76 10000 2.1 0 12:38 03.10.2019
865 Clouds 12 1014 76 10000 2.1 0 12:19 03.10.2019
866 Clouds 11 1014 76 10000 3.1 300 11:54 03.10.2019
867 Clouds 11 1014 76 10000 3.1 300 11:36 03.10.2019
868 Clouds 10 1014 81 10000 3.6 300 11:18 03.10.2019
869 Clouds 9 1014 81 10000 3.6 310 10:41 03.10.2019
870 Rain 8 1014 93 10000 3.1 300 10:19 03.10.2019
871 Clouds 7 1014 93 10000 3.6 310 09:59 03.10.2019
872 Clouds 7 1014 93 10000 3.6 310 09:40 03.10.2019
873 Clouds 7 1013 93 10000 3.1 290 09:21 03.10.2019
874 Clouds 7 1013 93 10000 2.1 290 08:55 03.10.2019
875 Clouds 6 1013 93 10000 2.1 290 08:36 03.10.2019
876 Clouds 6 1013 93 10000 2.6 280 08:18 03.10.2019
877 Clouds 6 1012 93 10000 3.6 310 07:41 03.10.2019
878 Clouds 6 1012 87 10000 3.6 280 07:19 03.10.2019
879 Clouds 6 1012 87 10000 3.6 280 07:19 03.10.2019
880 Clouds 6 1012 93 10000 3.6 310 06:51 03.10.2019
881 Clouds 7 1011 93 10000 4.6 300 06:25 03.10.2019
882 Clouds 7 1011 93 10000 3.6 310 05:47 03.10.2019
883 Clear 7 1011 93 10000 3.1 310 05:20 03.10.2019
884 Clear 7 1011 87 10000 3.6 300 04:39 03.10.2019
885 Clear 7 1010 87 10000 4.1 290 03:26 03.10.2019
886 Clear 8 1010 93 10000 4.6 300 02:43 03.10.2019
887 Clear 8 1010 87 10000 4.6 300 02:19 03.10.2019
888 Clouds 8 1009 87 10000 4.6 300 01:37 03.10.2019
889 Clouds 9 1008 81 10000 6.2 300 00:51 03.10.2019
890 Clouds 9 1008 81 10000 6.2 310 00:28 03.10.2019
891 Clouds 9 1007 87 10000 6.7 300 23:44 02.10.2019
892 Clouds 9 1007 87 10000 6.2 300 23:24 02.10.2019
893 Clouds 9 1007 87 10000 6.2 300 22:57 02.10.2019
894 Clouds 9 1006 87 10000 4.6 260 22:38 02.10.2019
895 Rain 9 1006 87 10000 5.1 250 22:18 02.10.2019
896 Rain 9 1006 87 10000 6.2 250 21:54 02.10.2019
897 Rain 9 1006 87 10000 6.2 250 21:54 02.10.2019
898 -273 0 0 0 0 0 21:54 02.10.2019
899 Rain 9 1006 87 10000 6.2 250 21:36 02.10.2019
900 Rain 10 1006 87 10000 6.2 240 21:18 02.10.2019
901 Rain 10 1006 93 10000 5.7 240 20:54 02.10.2019
902 Rain 9 1006 93 10000 5.7 240 20:36 02.10.2019
903 Rain 10 1006 87 10000 4.6 230 20:18 02.10.2019
904 Rain 10 1006 87 10000 4.1 240 19:41 02.10.2019
905 Rain 10 1007 87 10000 4.1 240 19:21 02.10.2019
906 Rain 10 1007 81 10000 5.1 230 18:57 02.10.2019
907 Rain 10 1007 81 10000 5.1 230 18:38 02.10.2019
908 Clouds 11 1007 76 10000 5.1 230 18:20 02.10.2019
909 Rain 11 1007 81 10000 5.7 260 17:57 02.10.2019
910 Rain 11 1007 81 10000 5.7 260 17:38 02.10.2019
911 Rain 11 1006 66 10000 3.6 270 17:19 02.10.2019
912 Rain 12 1006 76 10000 2.6 270 16:45 02.10.2019
913 Rain 12 1006 76 10000 2.6 270 16:22 02.10.2019
914 Rain 12 1006 62 10000 4.6 260 15:59 02.10.2019
915 Rain 12 1006 71 10000 4.1 250 15:41 02.10.2019
916 Rain 12 1006 71 10000 4.1 250 15:22 02.10.2019
917 Rain 13 1006 66 10000 4.1 290 14:58 02.10.2019
918 Clouds 13 1006 71 10000 4.1 240 14:40 02.10.2019
919 Clouds 13 1006 71 10000 4.1 240 14:21 02.10.2019
920 Clouds 12 1006 76 10000 3.6 250 13:48 02.10.2019
921 Rain 13 1005 62 10000 4.6 270 13:29 02.10.2019
922 Clouds 12 1005 62 10000 4.1 270 12:59 02.10.2019
923 Clouds 12 1005 66 10000 4.6 250 12:39 02.10.2019
924 Clouds 12 1005 66 10000 4.6 250 12:20 02.10.2019
925 Clouds 12 1005 71 10000 5.1 250 11:45 02.10.2019
926 Clouds 11 1005 71 10000 5.7 270 11:24 02.10.2019
927 Clouds 10 1004 71 10000 4.6 280 10:55 02.10.2019
928 Rain 10 1004 76 10000 4.1 270 10:36 02.10.2019
929 Clouds 9 1003 81 10000 2.6 260 10:18 02.10.2019
930 Rain 8 1003 87 10000 3.1 270 09:39 02.10.2019
931 Rain 8 1003 87 10000 3.1 270 09:20 02.10.2019
932 Clouds 7 1003 93 10000 3.1 270 08:55 02.10.2019
933 Clouds 7 1002 93 10000 2.1 250 08:36 02.10.2019
934 Clouds 7 1002 93 10000 2.1 250 08:18 02.10.2019
935 Clear 7 1002 93 10000 2.6 290 07:39 02.10.2019
936 Clear 7 1002 93 10000 2.6 290 07:20 02.10.2019
937 Clear 7 1001 93 10000 1 0 06:47 02.10.2019
938 Clear 7 1001 93 10000 0.5 0 05:56 02.10.2019
939 Clear 7 1001 93 10000 1 290 05:25 02.10.2019
940 Clear 8 1001 100 10000 1 250 04:56 02.10.2019
941 Clear 8 1001 93 10000 0.5 340 03:53 02.10.2019
942 Rain 8 1001 93 10000 1 200 02:47 02.10.2019
943 Rain 8 1001 93 10000 1 200 02:24 02.10.2019
944 Rain 8 1001 93 10000 1.5 300 01:52 02.10.2019
945 Clear 8 1000 93 10000 1 0 00:51 02.10.2019
946 Clear 8 1000 93 10000 1 0 00:29 02.10.2019
947 Fog 8 1000 93 10000 1.5 320 23:54 01.10.2019
948 Clouds 8 1000 93 10000 1 330 23:36 01.10.2019
949 Clouds 9 1000 93 10000 1 330 23:18 01.10.2019
950 Clouds 9 1000 93 10000 2.1 310 22:57 01.10.2019
951 Clouds 9 1000 93 10000 1 0 22:36 01.10.2019
952 Clouds 9 1000 100 10000 2.1 300 22:18 01.10.2019
953 Clouds 9 1000 87 10000 1 0 21:42 01.10.2019
954 Clouds 9 1000 87 10000 1 0 21:22 01.10.2019
955 Clouds 9 1000 87 10000 2.1 330 20:57 01.10.2019
956 Clouds 9 999 87 10000 1.5 340 20:38 01.10.2019
957 Clouds 9 999 87 10000 1.5 340 20:20 01.10.2019
958 Clouds 9 999 87 10000 1.5 350 19:57 01.10.2019
959 Clouds 9 999 87 10000 2.1 360 19:38 01.10.2019
960 Clouds 10 999 87 10000 2.1 360 19:20 01.10.2019
961 Clouds 10 998 87 10000 3.6 10 18:55 01.10.2019
962 Clouds 10 998 87 10000 3.6 10 18:37 01.10.2019
963 Clouds 10 998 87 10000 3.6 10 18:19 01.10.2019
964 Rain 11 998 93 10000 3.1 20 17:43 01.10.2019
965 Rain 10 998 93 10000 3.1 20 17:20 01.10.2019
966 Rain 11 997 93 10000 4.1 20 16:59 01.10.2019
967 Drizzle 11 996 93 7000 3.1 340 16:40 01.10.2019
968 Drizzle 11 996 93 7000 3.1 340 16:22 01.10.2019
969 Rain 11 996 93 10000 3.6 20 15:49 01.10.2019
970 Rain 11 996 93 10000 3.6 20 15:25 01.10.2019
971 Drizzle 12 996 93 8000 2.6 20 14:58 01.10.2019
972 Drizzle 13 996 93 6000 2.6 20 14:40 01.10.2019
973 Rain 13 996 100 6000 3.1 10 14:19 01.10.2019
974 Rain 13 996 100 6000 3.1 10 13:56 01.10.2019
975 Rain 12 996 93 8000 2.1 80 13:37 01.10.2019
976 Rain 12 996 93 8000 2.1 80 13:37 01.10.2019
977 Rain 12 996 93 8000 2.1 80 13:18 01.10.2019
978 Drizzle 12 996 93 4400 1.5 90 12:55 01.10.2019
979 Drizzle 12 996 100 3600 2.1 110 12:37 01.10.2019
980 Drizzle 12 996 100 3600 2.1 110 12:18 01.10.2019
981 Rain 11 996 100 4800 2.6 110 11:55 01.10.2019
982 Rain 11 997 93 4800 2.6 130 11:36 01.10.2019
983 Drizzle 11 997 93 4000 3.6 130 11:18 01.10.2019
984 Rain 11 997 93 6000 4.6 130 10:46 01.10.2019
985 Rain 11 997 93 6000 4.6 130 10:27 01.10.2019
986 Rain 11 999 93 9000 3.1 110 09:45 01.10.2019
987 Rain 11 999 93 9000 3.1 110 09:26 01.10.2019
988 Rain 11 1000 93 7000 2.6 140 08:44 01.10.2019
989 Rain 11 1000 100 7000 3.1 150 08:25 01.10.2019
990 Rain 11 1000 100 8000 3.1 170 07:56 01.10.2019
991 Rain 11 1001 100 7000 3.1 160 07:38 01.10.2019
992 Rain 11 1001 93 7000 2.6 180 07:19 01.10.2019
993 Rain 11 1002 93 10000 2.1 200 06:41 01.10.2019
994 Rain 11 1003 93 10000 2.6 220 06:18 01.10.2019
995 Rain 11 1003 93 10000 2.6 200 05:43 01.10.2019
996 Rain 11 1004 93 10000 2.6 210 04:42 01.10.2019
997 Clouds 11 1005 93 10000 3.1 220 03:46 01.10.2019
998 Clouds 11 1006 93 10000 4.1 230 02:20 01.10.2019
999 Clouds 11 1006 93 10000 3.1 230 01:56 01.10.2019
1000 Clouds 11 1006 93 10000 3.1 230 01:56 01.10.2019
1001 Clouds 12 1006 93 10000 4.1 230 00:46 01.10.2019
1002 Clouds 11 1007 93 10000 3.6 240 00:25 01.10.2019
1003 Clouds 12 1007 93 10000 4.6 240 23:42 30.09.2019
1004 Clouds 12 1007 93 10000 4.6 240 23:42 30.09.2019
1005 Clouds 12 1007 93 10000 4.6 240 23:23 30.09.2019
1006 Clouds 12 1007 93 10000 3.6 240 22:59 30.09.2019
1007 Clouds 12 1007 93 10000 3.6 240 22:59 30.09.2019
1008 Clouds 12 1007 93 10000 3.1 230 22:40 30.09.2019
1009 Clouds 12 1007 93 10000 3.1 230 22:22 30.09.2019
1010 Rain 12 1007 93 10000 2.6 260 21:56 30.09.2019
1011 Rain 12 1007 93 10000 2.6 260 21:56 30.09.2019
1012 Rain 12 1007 93 10000 4.6 270 21:37 30.09.2019
1013 Rain 12 1007 93 10000 3.6 260 21:19 30.09.2019
1014 -273 0 0 0 0 0 20:55 30.09.2019
1015 -273 0 0 0 0 0 20:55 30.09.2019
1016 Clouds 12 1006 93 10000 3.6 250 20:36 30.09.2019
1017 Clouds 12 1006 93 10000 3.6 250 20:36 30.09.2019
1018 Clouds 12 1006 93 10000 3.6 250 20:18 30.09.2019
1019 Clouds 12 1006 93 10000 3.6 250 19:54 30.09.2019
1020 Rain 12 1006 93 10000 3.6 260 19:36 30.09.2019
1021 Rain 13 1006 93 10000 3.6 260 19:18 30.09.2019
1022 Rain 13 1006 87 10000 5.7 290 18:41 30.09.2019
1023 Rain 13 1006 87 10000 5.7 290 18:22 30.09.2019
1024 Rain 13 1005 76 10000 6.2 270 17:58 30.09.2019
1025 Rain 14 1005 82 10000 6.2 270 17:39 30.09.2019
1026 Rain 14 1005 82 10000 6.2 270 17:21 30.09.2019
1027 Rain 14 1004 76 10000 8.2 270 16:55 30.09.2019
1028 Rain 15 1004 67 10000 9.8 290 16:37 30.09.2019
1029 Rain 15 1003 67 10000 9.3 270 16:18 30.09.2019
1030 Rain 15 1003 67 10000 9.3 270 15:55 30.09.2019
1031 -273 0 0 0 0 0 15:55 30.09.2019
1032 Rain 15 1003 72 10000 10.3 280 15:36 30.09.2019
1033 Clouds 15 1003 77 10000 7.7 280 15:18 30.09.2019
1034 Clouds 15 1003 77 10000 7.7 280 14:55 30.09.2019
1035 Rain 15 1002 76 10000 9.3 280 14:36 30.09.2019
1036 Rain 15 1002 72 10000 10.8 280 14:18 30.09.2019
1037 Rain 15 1002 72 10000 10.8 280 13:44 30.09.2019
1038 Clouds 15 1001 67 10000 10.8 290 13:22 30.09.2019
1039 Rain 15 1001 77 10000 9.3 290 12:59 30.09.2019
1040 Rain 15 1000 77 10000 8.7 270 12:40 30.09.2019
1041 Rain 14 1000 87 10000 8.2 280 12:21 30.09.2019
1042 Rain 14 999 82 10000 6.7 280 11:44 30.09.2019
1043 Rain 14 999 82 10000 6.7 280 11:22 30.09.2019
1044 Rain 13 998 76 10000 6.7 290 10:59 30.09.2019
1045 Rain 13 997 82 10000 7.2 290 10:40 30.09.2019
1046 Rain 13 997 82 10000 7.2 290 10:19 30.09.2019
1047 Clouds 13 997 87 10000 8.2 300 09:58 30.09.2019
1048 Rain 12 996 87 10000 8.2 300 09:39 30.09.2019
1049 Rain 12 996 87 10000 8.2 300 09:20 30.09.2019
1050 Drizzle 12 995 93 9000 8.2 300 08:46 30.09.2019
1051 Rain 12 993 93 10000 8.2 300 08:28 30.09.2019
1052 Rain 13 990 93 10000 11.3 300 07:45 30.09.2019
1053 Rain 13 990 93 10000 11.3 300 07:27 30.09.2019
1054 Rain 13 989 93 6000 6.7 300 06:56 30.09.2019
1055 Rain 14 988 100 3500 4.6 240 06:33 30.09.2019
1056 Rain 15 988 93 10000 4.1 240 05:48 30.09.2019
1057 Clouds 15 989 93 10000 3.6 240 04:32 30.09.2019
1058 Rain 15 989 100 10000 4.6 240 02:48 30.09.2019
1059 Clouds 15 989 100 10000 5.7 230 01:38 30.09.2019
1060 Clouds 15 990 93 10000 5.7 220 00:43 30.09.2019
1061 Clouds 15 990 93 10000 5.7 220 00:22 30.09.2019
1062 Clouds 15 990 93 10000 6.2 210 23:55 29.09.2019
1063 Clouds 15 990 93 10000 6.7 210 23:36 29.09.2019
1064 Clouds 15 990 93 10000 6.7 210 23:18 29.09.2019
1065 Drizzle 15 991 93 5000 6.7 210 22:42 29.09.2019
1066 Drizzle 15 991 93 5000 6.7 210 22:23 29.09.2019
1067 Drizzle 14 991 93 8000 6.7 210 21:58 29.09.2019
1068 Rain 14 992 93 4700 3.6 210 21:38 29.09.2019
1069 Rain 14 992 93 4700 3.6 210 21:19 29.09.2019
1070 Rain 14 992 93 4700 3.6 210 21:19 29.09.2019
1071 Drizzle 14 992 93 4500 4.6 210 20:55 29.09.2019
1072 Drizzle 14 992 93 4500 4.6 210 20:55 29.09.2019
1073 Rain 14 992 100 4000 7.2 210 20:37 29.09.2019
1074 Rain 14 992 100 4000 7.2 210 20:19 29.09.2019
1075 Drizzle 14 993 93 4500 7.7 210 19:39 29.09.2019
1076 Drizzle 14 993 93 4500 7.7 210 19:19 29.09.2019
1077 Drizzle 14 993 93 4000 7.7 210 18:57 29.09.2019
1078 Drizzle 14 993 93 4000 7.7 210 18:57 29.09.2019
1079 Drizzle 14 994 93 4000 6.7 210 18:38 29.09.2019
1080 Drizzle 14 994 93 4000 6.7 210 18:20 29.09.2019
1081 Drizzle 14 994 93 5000 7.7 210 17:59 29.09.2019
1082 Drizzle 14 995 93 5000 7.2 210 17:41 29.09.2019
1083 Drizzle 14 995 93 5000 7.2 210 17:20 29.09.2019
1084 Drizzle 14 995 93 5000 7.2 210 17:20 29.09.2019
1085 Drizzle 13 996 93 4500 7.2 210 17:00 29.09.2019
1086 Drizzle 13 996 93 5000 6.7 200 16:41 29.09.2019
1087 Drizzle 13 996 93 5000 6.7 200 16:20 29.09.2019
1088 Drizzle 13 997 93 4900 5.7 190 15:58 29.09.2019
1089 Drizzle 13 997 93 3500 4.6 180 15:37 29.09.2019
1090 Rain 13 998 100 7000 4.6 200 15:19 29.09.2019
1091 Rain 13 998 100 7000 4.6 200 14:58 29.09.2019
1092 Rain 13 998 93 6000 5.1 200 14:38 29.09.2019
1093 Rain 13 998 93 6000 5.1 200 14:19 29.09.2019
1094 Rain 13 999 93 9000 5.1 200 13:56 29.09.2019
1095 Rain 13 1000 93 6000 4.6 190 13:37 29.09.2019
1096 Rain 13 1000 93 6000 4.6 190 13:18 29.09.2019
1097 Rain 13 1000 93 6000 5.7 190 12:56 29.09.2019
1098 Rain 13 1001 93 4500 6.2 170 12:38 29.09.2019
1099 Rain 13 1001 93 4500 6.2 170 12:20 29.09.2019
1100 Rain 13 1002 93 7000 4.6 190 11:41 29.09.2019
1101 Rain 13 1002 93 7000 4.6 190 11:20 29.09.2019
1102 Rain 13 1002 93 10000 5.7 200 10:58 29.09.2019
1103 Rain 13 1002 93 10000 5.1 200 10:40 29.09.2019
1104 Rain 13 1002 93 10000 5.1 200 10:40 29.09.2019
1105 Rain 13 1002 93 10000 5.1 200 10:21 29.09.2019
1106 Rain 13 1002 93 10000 5.1 200 10:21 29.09.2019
1107 Rain 13 1003 93 10000 5.1 210 09:59 29.09.2019
1108 Rain 13 1003 93 10000 5.7 220 09:41 29.09.2019
1109 Rain 13 1003 93 10000 5.7 220 09:19 29.09.2019
1110 Clouds 13 1003 93 10000 6.7 220 08:43 29.09.2019
1111 Clouds 13 1003 93 10000 6.7 220 08:22 29.09.2019
1112 Clouds 13 1003 93 10000 7.2 220 07:45 29.09.2019
1113 Rain 13 1004 93 10000 5.7 220 07:27 29.09.2019
1114 Rain 13 1004 93 9000 4.1 220 06:57 29.09.2019
1115 Clouds 13 1004 93 10000 5.7 220 06:34 29.09.2019
1116 Clouds 14 1005 87 10000 6.2 230 04:54 29.09.2019
1117 Clouds 13 1005 87 10000 5.7 230 04:24 29.09.2019
1118 Clouds 13 1005 87 10000 5.7 230 03:47 29.09.2019
1119 Clouds 13 1006 87 10000 5.1 240 02:28 29.09.2019
1120 Clouds 14 1006 87 10000 5.7 240 01:51 29.09.2019
1121 Rain 14 1006 87 10000 7.2 250 01:29 29.09.2019
1122 Rain 14 1006 93 10000 6.7 240 00:41 29.09.2019
1123 Rain 14 1006 93 10000 6.7 240 00:19 29.09.2019
1124 Clouds 14 1005 87 10000 8.7 230 23:40 28.09.2019
1125 Clouds 14 1005 87 10000 8.7 230 23:21 28.09.2019
1126 Clouds 14 1006 87 10000 6.7 230 22:56 28.09.2019
1127 Clouds 14 1005 93 10000 6.7 230 22:37 28.09.2019
1128 Clouds 14 1005 93 10000 6.7 230 22:19 28.09.2019
1129 Rain 14 1005 93 10000 7.2 210 21:55 28.09.2019
1130 Rain 14 1005 87 10000 8.7 200 21:36 28.09.2019
1131 Rain 14 1006 82 10000 7.2 210 21:18 28.09.2019
1132 Rain 14 1006 82 10000 7.2 210 20:55 28.09.2019
1133 Rain 15 1006 82 10000 7.7 210 20:36 28.09.2019
1134 Clouds 15 1006 77 10000 8.2 210 20:18 28.09.2019
1135 Clouds 15 1006 77 10000 8.2 210 19:54 28.09.2019
1136 Rain 15 1006 72 10000 7.2 210 19:36 28.09.2019
1137 Clouds 16 1006 63 10000 7.7 210 19:18 28.09.2019
1138 Clouds 16 1006 63 10000 6.2 210 18:41 28.09.2019
1139 Clouds 17 1006 63 10000 6.2 210 18:22 28.09.2019
1140 Clouds 17 1006 63 10000 6.2 210 18:22 28.09.2019
1141 Clouds 17 1006 63 10000 6.7 220 17:59 28.09.2019
1142 Clouds 17 1006 59 10000 7.7 220 17:40 28.09.2019
1143 Clouds 18 1006 59 10000 7.7 220 17:21 28.09.2019
1144 Clouds 18 1006 63 10000 6.7 220 16:55 28.09.2019
1145 Clouds 18 1007 59 10000 7.2 230 16:37 28.09.2019
1146 Clouds 18 1007 59 10000 7.2 230 16:18 28.09.2019
1147 Clouds 18 1007 63 10000 7.2 240 15:40 28.09.2019
1148 Clouds 18 1007 63 10000 7.2 240 15:21 28.09.2019
1149 Clouds 18 1007 59 10000 8.2 230 14:55 28.09.2019
1150 Clouds 18 1007 59 10000 8.2 230 14:55 28.09.2019
1151 Clouds 18 1007 67 10000 7.2 220 14:37 28.09.2019
1152 Clouds 18 1007 67 10000 7.2 220 14:37 28.09.2019
1153 Clouds 18 1007 67 10000 7.2 220 14:19 28.09.2019
1154 Rain 18 1007 63 10000 7.7 230 13:43 28.09.2019
1155 Rain 17 1007 63 10000 7.7 230 13:20 28.09.2019
1156 Rain 17 1007 68 10000 6.7 230 13:20 28.09.2019
1157 Rain 17 1007 68 10000 6.7 230 12:58 28.09.2019
1158 Clouds 17 1007 72 10000 7.2 230 12:39 28.09.2019
1159 Clouds 17 1007 72 10000 7.2 230 12:18 28.09.2019
1160 Clouds 16 1007 77 10000 8.2 230 11:41 28.09.2019
1161 Clouds 16 1007 77 10000 8.2 230 11:21 28.09.2019
1162 Clouds 15 1007 82 10000 6.7 220 10:59 28.09.2019
1163 Rain 15 1007 82 10000 5.1 220 10:39 28.09.2019
1164 Rain 15 1007 82 10000 5.1 220 10:19 28.09.2019
1165 Rain 14 1006 87 10000 5.7 220 09:42 28.09.2019
1166 Rain 14 1006 87 10000 5.7 220 09:23 28.09.2019
1167 Rain 14 1006 87 10000 5.1 220 08:55 28.09.2019
1168 Clouds 14 1006 87 10000 6.2 210 08:37 28.09.2019
1169 Clouds 13 1006 87 10000 6.2 210 08:18 28.09.2019
1170 Rain 13 1006 93 10000 4.6 210 07:43 28.09.2019
1171 Rain 13 1006 93 10000 4.6 210 07:20 28.09.2019
1172 Rain 13 1006 87 8000 6.7 210 06:53 28.09.2019
1173 Rain 13 1006 82 10000 6.7 210 06:31 28.09.2019
1174 Clouds 13 1006 82 10000 6.7 210 05:47 28.09.2019
1175 Rain 13 1006 82 10000 5.1 200 05:20 28.09.2019
1176 Rain 13 1006 82 10000 5.1 200 04:39 28.09.2019
1177 Clouds 14 1006 77 10000 6.7 210 03:55 28.09.2019
1178 Clouds 14 1006 77 10000 7.7 210 03:22 28.09.2019
1179 Clouds 14 1006 72 10000 6.7 210 02:48 28.09.2019
1180 Clear 14 1006 77 10000 6.2 210 02:29 28.09.2019
1181 Clear 14 1006 77 10000 5.1 210 01:48 28.09.2019
1182 Clear 14 1006 77 10000 5.1 210 01:26 28.09.2019
1183 Clear 14 1006 87 10000 3.6 160 00:55 28.09.2019
1184 Clear 14 1006 82 10000 2.1 160 00:36 28.09.2019
1185 Clear 14 1006 82 10000 2.1 160 00:18 28.09.2019
1186 Clouds 14 1007 82 10000 2.6 160 23:37 27.09.2019
1187 Clouds 14 1007 82 10000 2.6 160 23:19 27.09.2019
1188 Clouds 14 1007 93 10000 2.6 160 22:45 27.09.2019
1189 Clear 14 1007 82 10000 1.5 210 22:19 27.09.2019
1190 Rain 14 1007 82 10000 2.6 230 21:57 27.09.2019
1191 Clear 14 1007 82 10000 3.1 220 21:37 27.09.2019
1192 Clear 14 1007 82 10000 3.1 220 21:19 27.09.2019
1193 Clear 15 1007 87 10000 3.1 190 20:56 27.09.2019
1194 Clear 15 1006 93 10000 1.5 190 20:38 27.09.2019
1195 Clear 15 1006 93 10000 1.5 190 20:19 27.09.2019
1196 Clear 15 1006 87 10000 1 0 19:57 27.09.2019
1197 Clouds 16 1006 87 10000 1.5 220 19:37 27.09.2019
1198 Rain 16 1006 77 10000 4.6 240 19:18 27.09.2019
1199 Rain 17 1006 72 10000 2.6 230 18:41 27.09.2019
1200 Rain 17 1006 72 10000 2.6 230 18:22 27.09.2019
1201 Rain 17 1006 72 10000 2.6 230 18:22 27.09.2019
1202 Rain 17 1006 72 10000 3.1 230 17:56 27.09.2019
1203 Rain 18 1006 68 10000 4.6 210 17:37 27.09.2019
1204 Rain 18 1006 68 10000 5.1 220 17:18 27.09.2019
1205 Rain 18 1006 68 10000 5.1 220 16:57 27.09.2019
1206 Clouds 18 1006 63 10000 6.2 230 16:37 27.09.2019
1207 Clouds 18 1006 63 10000 3.6 230 16:18 27.09.2019
1208 Clouds 18 1006 63 10000 6.2 230 16:18 27.09.2019
1209 Clouds 18 1006 63 10000 3.6 230 15:45 27.09.2019
1210 Clouds 18 1006 63 10000 3.6 230 15:45 27.09.2019
1211 Clouds 18 1006 68 10000 4.6 240 15:21 27.09.2019
1212 Clouds 18 1006 68 10000 4.6 240 15:21 27.09.2019
1213 Clouds 18 1006 68 10000 5.1 230 14:58 27.09.2019
1214 Clouds 18 1007 67 10000 4.6 240 14:39 27.09.2019
1215 Clouds 17 1007 67 10000 4.6 240 14:21 27.09.2019
1216 Clouds 17 1007 77 10000 4.1 240 13:57 27.09.2019
1217 Clouds 16 1007 77 10000 5.1 220 13:39 27.09.2019
1218 Clouds 16 1007 77 10000 4.6 230 13:21 27.09.2019
1219 Clouds 16 1007 77 10000 4.6 230 12:54 27.09.2019
1220 Clouds 16 1007 77 10000 5.1 230 12:24 27.09.2019
1221 Clouds 15 1007 82 10000 5.1 230 11:58 27.09.2019
1222 Clouds 15 1007 87 10000 5.1 220 11:38 27.09.2019
1223 Clouds 15 1007 87 10000 5.1 220 11:20 27.09.2019
1224 Clouds 14 1007 87 9000 3.6 220 10:43 27.09.2019
1225 Clouds 14 1007 87 9000 3.6 220 10:23 27.09.2019
1226 Clouds 14 1007 87 8000 3.1 230 09:58 27.09.2019
1227 Clouds 14 1007 87 8000 3.1 230 09:40 27.09.2019
1228 Clouds 14 1007 93 10000 3.1 230 09:20 27.09.2019
1229 Clouds 14 1006 93 10000 3.6 240 08:42 27.09.2019
1230 Clouds 14 1006 93 10000 3.6 240 08:22 27.09.2019
1231 Clouds 14 1006 93 10000 3.6 250 07:58 27.09.2019
1232 Clouds 14 1006 87 10000 5.1 230 07:39 27.09.2019
1233 Clouds 14 1006 87 10000 5.1 230 07:20 27.09.2019
1234 Clouds 15 1006 87 10000 4.6 230 06:40 27.09.2019
1235 Clouds 15 1006 87 10000 4.6 230 06:22 27.09.2019
1236 Rain 15 1006 93 10000 4.6 210 05:49 27.09.2019
1237 Rain 15 1006 93 10000 3.1 180 05:30 27.09.2019
1238 Rain 16 1006 93 9000 2.6 170 03:53 27.09.2019
1239 Rain 16 1007 93 10000 4.6 160 01:58 27.09.2019
1240 Rain 16 1007 93 10000 4.6 160 01:58 27.09.2019
1241 Rain 16 1007 93 10000 5.1 160 01:35 27.09.2019
1242 Rain 16 1008 93 9000 4.6 160 00:55 27.09.2019
1243 Rain 16 1008 93 9000 4.6 160 00:55 27.09.2019
1244 Clouds 16 1008 93 10000 5.7 150 00:19 27.09.2019
1245 Clouds 16 1008 93 10000 5.7 150 23:55 26.09.2019
1246 Clouds 16 1008 93 10000 5.1 150 23:37 26.09.2019
1247 Clouds 16 1008 93 10000 5.1 150 23:37 26.09.2019
1248 Drizzle 16 1008 93 10000 5.1 160 23:18 26.09.2019
1249 Drizzle 16 1008 93 10000 5.1 160 22:55 26.09.2019
1250 Drizzle 16 1008 93 6000 5.1 160 22:37 26.09.2019
1251 Drizzle 16 1008 93 6000 5.1 160 22:18 26.09.2019
1252 Drizzle 16 1008 93 6000 5.1 160 22:18 26.09.2019
1253 Clouds 16 1008 93 10000 5.1 160 21:55 26.09.2019
1254 Drizzle 16 1008 93 10000 5.1 160 21:36 26.09.2019
1255 Drizzle 16 1008 93 10000 5.1 160 21:18 26.09.2019
1256 Drizzle 16 1008 93 10000 6.2 160 21:18 26.09.2019
1257 Drizzle 16 1008 93 10000 6.2 160 20:56 26.09.2019
1258 Rain 16 1008 82 10000 5.7 170 20:37 26.09.2019
1259 Rain 16 1008 82 10000 5.7 170 20:19 26.09.2019
1260 Rain 17 1008 77 10000 4.1 180 19:40 26.09.2019
1261 Rain 17 1008 77 10000 5.1 170 19:19 26.09.2019
1262 Rain 17 1008 77 10000 5.1 170 18:58 26.09.2019
1263 Rain 17 1008 72 10000 5.1 170 18:39 26.09.2019
1264 Rain 17 1008 77 10000 4.6 170 18:21 26.09.2019
1265 Rain 17 1008 77 10000 4.6 170 17:56 26.09.2019
1266 Clouds 17 1008 77 10000 5.7 170 17:37 26.09.2019
1267 Clouds 17 1008 77 10000 3.1 170 17:18 26.09.2019
1268 Clouds 17 1008 77 10000 3.1 170 17:18 26.09.2019
1269 Clouds 18 1008 77 10000 4.1 160 16:40 26.09.2019
1270 Clouds 18 1008 77 10000 4.1 160 16:21 26.09.2019
1271 Clouds 18 1008 77 10000 4.1 160 16:21 26.09.2019
1272 Clouds 18 1008 77 10000 4.6 170 15:59 26.09.2019
1273 Clouds 18 1009 82 10000 4.1 160 15:38 26.09.2019
1274 Clouds 18 1009 82 10000 4.1 160 15:38 26.09.2019
1275 Clouds 17 1009 82 10000 4.1 160 15:20 26.09.2019
1276 Clouds 17 1009 88 10000 4.1 170 14:57 26.09.2019
1277 Clouds 17 1009 82 9000 4.1 160 14:38 26.09.2019
1278 Clouds 17 1009 82 9000 4.1 160 14:20 26.09.2019
1279 -273 0 0 0 0 0 13:54 26.09.2019
1280 Clouds 16 1009 87 8000 3.1 170 13:36 26.09.2019
1281 Clouds 16 1009 87 8000 3.1 170 13:18 26.09.2019
1282 Mist 15 1009 100 5000 3.6 160 12:41 26.09.2019
1283 Mist 15 1009 100 5000 3.6 160 12:21 26.09.2019
1284 Mist 14 1009 93 6000 3.6 160 11:55 26.09.2019
1285 Mist 14 1009 100 6000 3.1 160 11:37 26.09.2019
1286 Mist 14 1009 100 6000 3.1 160 11:37 26.09.2019
1287 Mist 14 1009 100 6000 3.1 160 11:19 26.09.2019
1288 Mist 13 1008 93 5000 2.6 150 10:42 26.09.2019
1289 Mist 13 1008 93 5000 2.6 150 10:23 26.09.2019
1290 Mist 13 1008 100 5000 2.1 140 09:57 26.09.2019
1291 Mist 13 1008 100 1700 2.6 130 09:39 26.09.2019
1292 Mist 12 1008 100 1700 2.6 130 09:18 26.09.2019
1293 Fog 12 1008 100 750 2.6 140 08:48 26.09.2019
1294 Fog 12 1008 100 350 2.6 150 08:30 26.09.2019
1295 Fog 12 1007 100 250 2.6 140 07:47 26.09.2019
1296 Fog 12 1007 100 300 2.6 100 07:22 26.09.2019
1297 Fog 12 1007 100 300 2.6 100 06:53 26.09.2019
1298 Fog 12 1007 93 200 1.5 130 06:28 26.09.2019
1299 Fog 12 1007 100 200 1.5 90 05:59 26.09.2019
1300 Fog 12 1007 100 200 2.1 100 05:29 26.09.2019
1301 Fog 12 1007 100 200 1.5 90 03:51 26.09.2019
1302 Fog 12 1007 100 200 1 0 02:33 26.09.2019
1303 Fog 13 1006 100 200 1.5 80 01:48 26.09.2019
1304 Fog 13 1006 100 200 1 0 01:22 26.09.2019
1305 Fog 13 1006 93 300 1 70 00:46 26.09.2019
1306 Fog 13 1006 100 700 1 150 00:25 26.09.2019
1307 Clouds 13 1006 93 6000 0.5 0 23:44 25.09.2019
1308 Clouds 14 1006 93 6000 0.5 0 23:23 25.09.2019
1309 Clouds 14 1006 93 10000 1 0 22:56 25.09.2019
1310 Clouds 14 1006 93 10000 1.5 70 22:37 25.09.2019
1311 Clouds 14 1006 93 10000 1.5 70 22:37 25.09.2019
1312 Rain 14 1006 93 10000 1.5 70 22:18 25.09.2019
1313 Mist 14 1006 100 10000 2.1 120 21:56 25.09.2019
1314 Mist 14 1006 100 10000 2.1 120 21:56 25.09.2019
1315 Mist 14 1006 100 10000 2.1 90 21:37 25.09.2019
1316 Clouds 14 1006 100 10000 2.1 90 21:18 25.09.2019
1317 Clouds 14 1006 100 10000 2.1 90 20:56 25.09.2019
1318 Drizzle 14 1006 93 10000 2.6 90 20:37 25.09.2019
1319 Drizzle 14 1006 93 10000 2.6 90 20:19 25.09.2019
1320 Clouds 15 1005 100 10000 2.6 90 19:41 25.09.2019
1321 Clouds 15 1005 100 10000 2.6 90 19:21 25.09.2019
1322 Clouds 15 1005 93 10000 2.6 80 18:57 25.09.2019
1323 Rain 15 1005 93 10000 3.1 90 18:38 25.09.2019
1324 -273 0 0 0 0 0 18:20 25.09.2019
1325 Drizzle 15 1005 100 4500 2.6 100 17:58 25.09.2019
1326 Drizzle 15 1005 93 3000 2.1 90 17:36 25.09.2019
1327 Drizzle 16 1005 93 3000 2.1 90 17:18 25.09.2019
1328 Drizzle 15 1005 87 6000 3.1 110 16:44 25.09.2019
1329 Drizzle 16 1005 87 6000 3.1 110 16:25 25.09.2019
1330 Drizzle 15 1005 93 4800 4.1 130 15:57 25.09.2019
1331 Drizzle 15 1005 93 4500 4.6 130 15:39 25.09.2019
1332 Drizzle 15 1005 93 4500 4.6 130 15:20 25.09.2019
1333 Drizzle 15 1005 93 4500 4.6 130 15:20 25.09.2019
1334 Rain 15 1005 87 10000 4.1 130 14:44 25.09.2019
1335 Rain 15 1005 87 10000 4.1 130 14:25 25.09.2019
1336 Rain 15 1005 87 10000 4.1 160 13:59 25.09.2019
1337 Rain 15 1005 87 10000 3.1 150 13:40 25.09.2019
1338 Rain 15 1005 87 10000 3.1 150 13:20 25.09.2019
1339 Rain 15 1005 87 10000 3.1 150 13:20 25.09.2019
1340 Rain 15 1005 87 10000 2.6 130 12:58 25.09.2019
1341 Rain 15 1005 87 10000 2.1 140 12:39 25.09.2019
1342 Rain 15 1005 87 10000 2.1 140 12:39 25.09.2019
1343 Rain 15 1005 87 10000 1.5 0 12:20 25.09.2019
1344 Rain 14 1005 87 7000 1 0 11:41 25.09.2019
1345 Rain 14 1005 93 9000 0.5 360 11:21 25.09.2019
1346 Rain 14 1005 93 9000 0.5 360 10:57 25.09.2019
1347 Rain 14 1005 93 8000 2.1 170 10:38 25.09.2019
1348 Rain 13 1005 93 7000 2.1 160 10:19 25.09.2019
1349 Rain 13 1005 93 8000 2.1 170 10:19 25.09.2019
1350 Rain 13 1005 93 7000 2.1 160 09:55 25.09.2019
1351 Rain 13 1004 93 8000 1.5 160 09:36 25.09.2019
1352 Rain 13 1004 93 8000 1.5 160 09:18 25.09.2019
1353 Rain 13 1005 100 10000 2.1 150 08:41 25.09.2019
1354 Rain 13 1005 100 10000 2.1 150 08:20 25.09.2019
1355 Rain 12 1005 93 9000 1.5 90 07:56 25.09.2019
1356 Rain 12 1005 93 10000 1.5 90 07:37 25.09.2019
1357 Rain 12 1005 93 10000 1.5 90 07:19 25.09.2019
1358 Fog 12 1005 93 10000 1.5 80 06:38 25.09.2019
1359 Fog 12 1005 93 10000 1.5 90 05:52 25.09.2019
1360 Fog 12 1005 93 10000 1 90 05:27 25.09.2019
1361 Clear 12 1005 93 10000 1 90 04:49 25.09.2019
1362 Clear 12 1005 93 10000 1 90 04:49 25.09.2019
1363 Clear 13 1006 93 10000 2.6 110 02:18 25.09.2019
1364 Clear 14 1007 87 10000 3.1 120 00:44 25.09.2019
1365 Clear 14 1007 87 10000 3.1 120 00:24 25.09.2019
1366 Clear 15 1007 82 10000 3.6 120 23:55 24.09.2019
1367 Clear 14 1007 77 10000 3.6 110 23:36 24.09.2019
1368 Clear 15 1007 77 10000 3.6 110 23:18 24.09.2019
1369 Clear 15 1007 82 10000 2.6 80 22:39 24.09.2019
1370 Clear 15 1007 82 10000 2.6 80 22:20 24.09.2019
1371 Clear 16 1008 77 10000 3.1 100 21:56 24.09.2019
1372 Clear 16 1008 82 10000 2.6 90 21:37 24.09.2019
1373 Clear 16 1008 82 10000 2.6 90 21:19 24.09.2019
1374 Clear 16 1008 77 10000 3.1 90 20:57 24.09.2019
1375 Clear 16 1008 72 10000 2.6 80 20:39 24.09.2019
1376 Clear 17 1008 68 10000 2.1 90 20:20 24.09.2019
1377 Clear 17 1008 68 10000 2.1 90 19:55 24.09.2019
1378 Clouds 17 1008 63 10000 2.1 90 19:36 24.09.2019
1379 Clouds 18 1008 63 10000 2.1 90 19:18 24.09.2019
1380 Clouds 18 1008 63 10000 2.6 90 18:42 24.09.2019
1381 Clouds 19 1008 63 10000 2.6 90 18:22 24.09.2019
1382 Clouds 19 1008 63 10000 2.6 90 18:22 24.09.2019
1383 Clouds 19 1009 60 10000 2.6 100 17:59 24.09.2019
1384 Clouds 19 1009 60 10000 3.1 130 17:39 24.09.2019
1385 Clouds 20 1009 60 10000 3.1 130 17:21 24.09.2019
1386 Clouds 20 1009 56 10000 2.6 140 16:59 24.09.2019
1387 Clouds 20 1009 60 10000 3.6 120 16:41 24.09.2019
1388 Clouds 20 1009 60 10000 3.6 120 16:19 24.09.2019
1389 Clouds 20 1010 56 10000 4.6 130 15:57 24.09.2019
1390 Clouds 20 1010 63 10000 3.1 100 15:37 24.09.2019
1391 Clouds 20 1010 63 10000 3.1 100 15:19 24.09.2019
1392 Clouds 20 1011 68 10000 1.5 160 14:37 24.09.2019
1393 Clouds 19 1011 68 10000 0.5 130 14:18 24.09.2019
1394 Clouds 19 1011 68 10000 0.5 130 14:18 24.09.2019
1395 Clouds 19 1012 72 10000 1.5 250 13:41 24.09.2019
1396 Clouds 18 1012 77 10000 2.6 190 13:21 24.09.2019
1397 Clouds 18 1012 77 10000 2.6 190 13:21 24.09.2019
1398 Clouds 18 1012 72 10000 2.1 230 12:42 24.09.2019
1399 Clouds 17 1012 72 10000 2.1 230 12:21 24.09.2019
1400 Clouds 16 1013 82 8000 2.1 230 11:58 24.09.2019
1401 Clouds 16 1013 87 6000 2.6 230 11:40 24.09.2019
1402 Clouds 16 1013 87 6000 2.6 230 11:21 24.09.2019
1403 Mist 15 1013 93 3500 3.1 240 10:40 24.09.2019
1404 Mist 15 1013 93 3500 3.1 240 10:22 24.09.2019
1405 Mist 15 1013 93 3500 3.1 240 09:59 24.09.2019
1406 Mist 14 1013 93 3500 2.6 220 09:41 24.09.2019
1407 Mist 14 1012 93 3500 2.1 220 09:20 24.09.2019
1408 Mist 14 1012 93 3500 2.1 220 08:56 24.09.2019
1409 Mist 14 1013 93 4000 2.1 210 08:38 24.09.2019
1410 Mist 14 1013 93 4000 2.1 210 08:19 24.09.2019
1411 Mist 14 1013 93 6000 2.6 220 07:46 24.09.2019
1412 -273 0 0 0 0 0 07:24 24.09.2019
1413 Clouds 14 1013 87 9000 1.5 220 06:48 24.09.2019
1414 Clouds 14 1013 87 9000 1.5 220 06:30 24.09.2019
1415 Clouds 14 1013 87 10000 1 0 05:51 24.09.2019
1416 Clouds 14 1014 87 10000 1.5 220 05:18 24.09.2019
1417 Clouds 14 1014 93 10000 2.1 230 03:44 24.09.2019
1418 Clouds 14 1014 93 10000 1.5 230 02:47 24.09.2019
1419 Clouds 15 1014 93 10000 1 250 01:55 24.09.2019
1420 Clouds 15 1014 93 10000 1 0 00:44 24.09.2019
1421 Drizzle 15 1015 93 10000 1.5 250 00:25 24.09.2019
1422 Clouds 15 1015 93 10000 1.5 290 23:58 23.09.2019
1423 Drizzle 15 1015 93 10000 2.1 310 23:40 23.09.2019
1424 Clouds 15 1015 87 10000 3.1 280 23:20 23.09.2019
1425 Clouds 15 1015 82 10000 2.1 270 22:39 23.09.2019
1426 Clouds 15 1015 82 10000 2.1 270 22:21 23.09.2019
1427 Clouds 15 1015 82 10000 3.1 280 21:58 23.09.2019
1428 Drizzle 15 1015 87 10000 3.6 270 21:39 23.09.2019
1429 Clouds 15 1015 87 10000 4.1 270 21:19 23.09.2019
1430 Clouds 15 1015 87 10000 4.1 270 20:55 23.09.2019
1431 Clouds 16 1014 87 10000 5.1 290 20:36 23.09.2019
1432 Mist 16 1014 82 10000 5.1 270 20:18 23.09.2019
1433 Mist 16 1014 88 10000 3.6 280 19:39 23.09.2019
1434 Rain 17 1013 77 10000 4.6 270 19:21 23.09.2019
1435 Rain 17 1013 77 10000 4.6 270 18:57 23.09.2019
1436 Rain 18 1013 68 10000 4.1 270 18:38 23.09.2019
1437 Clouds 19 1013 64 10000 4.1 260 18:18 23.09.2019
1438 Clouds 19 1013 64 10000 4.1 260 17:56 23.09.2019
1439 Clouds 20 1013 56 10000 1.5 270 17:37 23.09.2019
1440 Clouds 20 1013 56 10000 1.5 270 17:18 23.09.2019
1441 Clouds 21 1013 56 10000 2.6 220 16:40 23.09.2019
1442 Clouds 21 1013 56 10000 2.6 220 16:22 23.09.2019
1443 Clouds 21 1013 52 10000 1.5 180 15:59 23.09.2019
1444 Clear 21 1012 52 10000 1.5 0 15:41 23.09.2019
1445 Clear 21 1012 52 10000 1.5 0 15:20 23.09.2019
1446 Clear 21 1012 52 10000 1.5 0 15:20 23.09.2019
1447 Clear 21 1012 52 10000 3.1 180 14:59 23.09.2019
1448 Clear 21 1012 52 10000 5.1 180 14:39 23.09.2019
1449 Clear 21 1012 52 10000 5.1 180 14:19 23.09.2019
1450 Clear 21 1012 49 10000 3.1 140 13:58 23.09.2019
1451 Clear 21 1012 45 10000 3.6 130 13:37 23.09.2019
1452 Clear 20 1012 55 10000 4.1 90 13:18 23.09.2019
1453 Clear 19 1012 52 10000 3.1 100 12:43 23.09.2019
1454 Clear 18 1012 55 10000 3.1 110 12:22 23.09.2019
1455 Clear 18 1012 55 10000 3.1 110 11:55 23.09.2019
1456 Clear 17 1012 59 10000 3.6 120 11:37 23.09.2019
1457 Clear 17 1012 59 10000 3.6 120 11:37 23.09.2019
1458 Clear 17 1012 59 10000 3.6 120 11:19 23.09.2019
1459 Clear 17 1013 59 10000 3.6 120 10:49 23.09.2019
1460 Clear 16 1012 63 10000 3.1 130 10:21 23.09.2019
1461 Clear 16 1012 63 10000 3.1 130 10:21 23.09.2019
1462 Clear 15 1012 67 10000 3.6 90 09:56 23.09.2019
1463 Clear 14 1012 71 10000 2.1 100 09:37 23.09.2019
1464 Clear 14 1012 71 10000 2.1 100 09:19 23.09.2019
1465 Clear 12 1012 87 10000 2.1 70 08:44 23.09.2019
1466 Fog 11 1012 87 10000 2.1 70 08:25 23.09.2019
1467 Fog 11 1011 81 10000 2.1 70 07:47 23.09.2019
1468 Fog 11 1011 81 10000 2.1 70 07:27 23.09.2019
1469 Clear 11 1011 81 10000 2.6 80 06:24 23.09.2019
1470 Clear 12 1011 71 10000 3.1 80 05:48 23.09.2019
1471 Clear 12 1011 71 10000 3.1 80 05:20 23.09.2019
1472 Clear 12 1011 76 10000 2.1 90 04:54 23.09.2019
1473 Clear 13 1011 76 10000 1.5 80 02:37 23.09.2019
1474 Clear 14 1010 82 10000 1 0 00:43 23.09.2019
1475 Clear 15 1010 82 10000 1 0 00:22 23.09.2019
1476 Clear 15 1010 63 10000 2.1 90 23:51 22.09.2019
1477 Clear 15 1010 63 10000 2.1 90 23:32 22.09.2019
1478 Clear 15 1010 55 10000 2.6 100 22:58 22.09.2019
1479 Clear 15 1010 59 10000 3.6 110 22:40 22.09.2019
1480 Clear 15 1010 59 10000 3.6 110 22:40 22.09.2019
1481 Clear 15 1010 59 10000 3.6 110 22:22 22.09.2019
1482 Clear 17 1010 55 10000 3.1 90 21:43 22.09.2019
1483 Clear 17 1010 55 10000 3.1 90 21:22 22.09.2019
1484 Clear 17 1010 59 10000 2.6 80 21:22 22.09.2019
1485 Clear 18 1010 59 10000 2.6 80 20:58 22.09.2019
1486 Clear 18 1010 52 10000 3.1 90 20:40 22.09.2019
1487 Clear 18 1010 52 10000 3.1 90 20:22 22.09.2019
1488 Clear 19 1009 43 10000 2.6 90 19:42 22.09.2019
1489 Clear 19 1009 43 10000 2.6 90 19:42 22.09.2019
1490 Clear 20 1009 43 10000 2.6 90 19:23 22.09.2019
1491 Clear 21 1009 40 10000 3.6 110 18:59 22.09.2019
1492 Clear 22 1009 38 10000 4.6 110 18:40 22.09.2019
1493 Clear 23 1009 36 10000 5.7 120 18:20 22.09.2019
1494 Clear 23 1009 36 10000 5.7 120 17:59 22.09.2019
1495 Clear 23 1009 36 10000 5.7 120 17:59 22.09.2019
1496 Clear 23 1010 36 10000 4.6 120 17:41 22.09.2019
1497 Clear 24 1010 36 10000 4.6 120 17:20 22.09.2019
1498 Clear 24 1010 36 10000 4.6 100 16:45 22.09.2019
1499 Clear 24 1010 41 10000 5.1 100 16:26 22.09.2019
1500 Clear 24 1010 38 10000 4.6 130 15:57 22.09.2019
1501 Clear 24 1011 41 10000 5.7 100 15:38 22.09.2019
1502 Clear 24 1011 41 10000 5.7 100 15:19 22.09.2019
1503 Clear 23 1011 43 10000 5.1 130 14:45 22.09.2019
1504 Clear 23 1011 43 10000 5.1 130 14:26 22.09.2019
1505 Clear 23 1012 40 10000 4.1 100 13:59 22.09.2019
1506 Clear 22 1012 43 10000 4.1 100 13:41 22.09.2019
1507 Clear 22 1012 43 10000 4.1 100 13:22 22.09.2019
1508 Clear 21 1012 46 10000 4.1 120 12:56 22.09.2019
1509 Clear 21 1012 49 10000 3.6 120 12:37 22.09.2019
1510 Clear 20 1012 49 10000 3.6 120 12:18 22.09.2019
1511 Clear 18 1013 55 10000 4.1 120 11:42 22.09.2019
1512 Clear 18 1013 55 10000 4.1 120 11:24 22.09.2019
1513 Clear 17 1013 59 10000 3.6 120 10:55 22.09.2019
1514 Clear 16 1014 67 10000 3.1 120 10:37 22.09.2019
1515 Clear 16 1014 67 10000 3.1 120 10:18 22.09.2019
1516 Clear 13 1014 71 10000 3.1 110 09:42 22.09.2019
1517 Clear 12 1014 71 10000 3.1 110 09:21 22.09.2019
1518 Clear 10 1014 76 10000 3.1 130 08:48 22.09.2019
1519 Clear 10 1014 76 10000 3.1 130 08:26 22.09.2019
1520 Clear 9 1014 87 10000 2.6 120 07:58 22.09.2019
1521 Clear 9 1014 81 10000 1.5 0 07:39 22.09.2019
1522 Clear 9 1014 81 10000 1.5 0 07:21 22.09.2019
1523 Clear 9 1015 87 10000 1 50 06:56 22.09.2019
1524 Fog 9 1015 93 10000 0.5 0 05:37 22.09.2019
1525 Fog 10 1016 93 10000 1 0 03:53 22.09.2019
1526 Fog 11 1017 87 10000 1 0 02:43 22.09.2019
1527 Fog 11 1017 87 10000 1 0 02:23 22.09.2019
1528 Fog 11 1017 93 10000 0.5 0 01:34 22.09.2019
1529 Fog 11 1017 93 10000 0.5 0 00:40 22.09.2019
1530 Fog 12 1017 93 10000 0.5 0 00:21 22.09.2019
1531 Clear 12 1017 87 10000 2.1 60 23:45 21.09.2019
1532 Clear 12 1017 87 10000 2.1 60 23:27 21.09.2019
1533 Clear 13 1018 87 10000 2.6 80 22:43 21.09.2019
1534 Clear 13 1018 87 10000 2.6 80 22:23 21.09.2019
1535 Clear 13 1018 82 10000 2.6 80 21:58 21.09.2019
1536 Clear 14 1018 82 10000 2.6 80 21:40 21.09.2019
1537 Clear 14 1018 82 10000 2.6 80 21:18 21.09.2019
1538 Clear 15 1018 77 10000 2.1 80 20:41 21.09.2019
1539 Clear 15 1018 77 10000 2.1 80 20:23 21.09.2019
1540 Clear 16 1018 72 10000 2.1 90 19:58 21.09.2019
1541 Clear 17 1019 60 10000 2.6 80 19:39 21.09.2019
1542 Clear 19 1019 60 10000 2.6 100 19:18 21.09.2019
1543 Clear 19 1019 52 10000 2.1 110 18:39 21.09.2019
1544 Clear 20 1019 52 10000 2.1 110 18:21 21.09.2019
1545 Clear 21 1020 53 10000 2.1 60 17:42 21.09.2019
1546 Clear 21 1020 53 10000 2.1 60 17:42 21.09.2019
1547 Clear 21 1020 53 10000 2.1 60 17:23 21.09.2019
1548 Clear 21 1020 53 10000 2.1 60 17:23 21.09.2019
1549 Clear 21 1020 53 10000 2.1 60 17:23 21.09.2019
1550 Clear 21 1020 53 10000 2.1 60 17:23 21.09.2019
1551 Clear 21 1020 56 10000 1 0 16:56 21.09.2019
1552 Clear 21 1020 56 10000 1 0 16:37 21.09.2019
1553 Clear 21 1021 56 10000 1 0 16:19 21.09.2019
1554 Clear 21 1021 56 10000 1 0 15:42 21.09.2019
1555 Clear 20 1021 60 10000 1.5 0 15:21 21.09.2019
1556 Clear 20 1021 60 10000 1.5 0 14:48 21.09.2019
1557 Clear 20 1022 60 10000 2.1 0 14:29 21.09.2019
1558 Clear 19 1022 60 10000 1.5 0 13:50 21.09.2019
1559 Clouds 19 1022 63 10000 1.5 0 13:29 21.09.2019
1560 Clouds 18 1022 63 10000 1.5 0 12:59 21.09.2019
1561 Clouds 18 1023 68 10000 1.5 0 12:41 21.09.2019
1562 Clouds 18 1023 68 10000 1.5 0 12:22 21.09.2019
1563 Clouds 17 1023 68 10000 2.1 260 11:59 21.09.2019
1564 Clouds 17 1023 67 10000 2.1 230 11:41 21.09.2019
1565 Clouds 17 1023 67 10000 2.1 240 11:21 21.09.2019
1566 Clouds 16 1023 72 10000 1 0 10:41 21.09.2019
1567 Clouds 15 1023 72 10000 1 0 10:23 21.09.2019
1568 Clouds 14 1023 82 10000 1.5 210 09:57 21.09.2019
1569 Clouds 13 1023 82 10000 2.1 220 09:38 21.09.2019
1570 Clouds 13 1023 82 10000 2.1 220 09:20 21.09.2019
1571 Clouds 12 1023 93 10000 1.5 210 08:51 21.09.2019
1572 Clouds 12 1023 87 10000 1 230 08:27 21.09.2019
1573 Clouds 12 1023 87 10000 1.5 230 07:42 21.09.2019
1574 Clouds 12 1023 82 10000 2.1 270 07:23 21.09.2019
1575 Clouds 12 1023 82 10000 2.1 270 06:57 21.09.2019
1576 Clouds 12 1023 93 10000 2.1 220 06:32 21.09.2019
1577 Clouds 12 1024 87 10000 2.1 240 05:32 21.09.2019
1578 Clouds 12 1024 82 10000 2.6 240 04:36 21.09.2019
1579 Clouds 13 1024 82 10000 2.1 240 03:22 21.09.2019
1580 Clouds 13 1024 82 10000 2.1 250 02:21 21.09.2019
1581 Clouds 13 1024 82 10000 3.1 230 01:46 21.09.2019
1582 Clouds 13 1025 82 10000 2.1 240 00:51 21.09.2019
1583 Clouds 13 1025 82 10000 2.1 240 00:20 21.09.2019
1584 Clouds 13 1025 82 10000 2.1 240 23:48 20.09.2019
1585 Clouds 13 1025 82 10000 2.1 240 23:28 20.09.2019
1586 Clouds 14 1026 82 10000 2.1 250 22:43 20.09.2019
1587 Clouds 14 1026 82 10000 2.1 250 22:24 20.09.2019
1588 Clouds 14 1026 82 10000 2.1 250 21:57 20.09.2019
1589 Clouds 14 1026 82 10000 2.1 260 21:39 20.09.2019
1590 Clouds 14 1026 82 10000 2.1 260 21:20 20.09.2019
1591 Clouds 14 1026 82 10000 3.1 260 20:58 20.09.2019
1592 Drizzle 14 1026 77 10000 5.1 290 20:39 20.09.2019
1593 Drizzle 14 1026 77 10000 5.1 290 20:19 20.09.2019
1594 Drizzle 14 1026 77 10000 5.1 290 20:19 20.09.2019
1595 Clouds 14 1026 77 10000 2.1 270 19:55 20.09.2019
1596 Clouds 14 1026 77 10000 2.6 280 19:36 20.09.2019
1597 Clouds 15 1026 77 10000 4.1 290 19:18 20.09.2019
1598 Clouds 15 1026 72 10000 4.1 300 18:38 20.09.2019
1599 Clouds 15 1026 72 10000 3.6 290 18:20 20.09.2019
1600 Clouds 16 1027 67 10000 4.1 290 17:47 20.09.2019
1601 Clouds 16 1027 67 10000 4.1 290 17:27 20.09.2019
1602 Clouds 16 1027 67 10000 4.1 270 16:59 20.09.2019
1603 Clouds 16 1027 67 10000 3.6 270 16:37 20.09.2019
1604 Clouds 16 1027 67 10000 3.6 270 16:19 20.09.2019
1605 Clouds 16 1027 63 10000 3.6 260 15:42 20.09.2019
1606 Clouds 16 1027 63 10000 4.6 250 15:23 20.09.2019
1607 Clouds 16 1028 67 10000 4.1 270 14:56 20.09.2019
1608 Clouds 16 1028 67 10000 4.1 270 14:38 20.09.2019
1609 Clouds 16 1028 67 10000 4.6 280 14:18 20.09.2019
1610 Clouds 16 1028 76 10000 2.6 260 13:44 20.09.2019
1611 Clouds 15 1028 76 10000 2.6 260 13:25 20.09.2019
1612 Clouds 15 1028 76 10000 2.6 260 12:56 20.09.2019
1613 Clouds 15 1028 71 10000 3.1 250 12:36 20.09.2019
1614 Clouds 14 1028 76 10000 3.1 240 12:18 20.09.2019
1615 Clouds 15 1028 71 10000 3.1 250 12:18 20.09.2019
1616 Clouds 14 1029 81 10000 3.6 240 11:44 20.09.2019
1617 Clouds 13 1029 81 10000 3.6 240 11:19 20.09.2019
1618 Clouds 12 1029 87 10000 1.5 240 10:43 20.09.2019
1619 Clouds 12 1029 87 10000 1.5 240 10:43 20.09.2019
1620 Clouds 11 1029 87 10000 1.5 240 10:23 20.09.2019
1621 Clouds 10 1028 87 10000 2.1 240 09:39 20.09.2019
1622 Clear 10 1028 87 10000 1.5 230 09:19 20.09.2019
1623 Clear 10 1028 87 10000 1.5 230 08:59 20.09.2019
1624 Clear 9 1028 93 10000 1 0 08:40 20.09.2019
1625 Clear 9 1028 93 10000 1 0 08:21 20.09.2019
1626 Clear 9 1028 87 10000 0.5 0 07:45 20.09.2019
1627 Clear 9 1028 87 10000 0.5 0 07:25 20.09.2019
1628 Clear 8 1028 93 10000 1.5 220 06:44 20.09.2019
1629 Clouds 8 1029 93 10000 0.5 0 06:20 20.09.2019
1630 Clouds 8 1029 100 10000 0.5 20 05:43 20.09.2019
1631 Clear 7 1029 93 10000 2.39 256.912 03:36 20.09.2019
1632 Clear 7 1029 93 10000 2.27 248.123 03:18 20.09.2019
1633 Clear 7 1029 93 10000 1.5 320 01:44 20.09.2019
1634 Clear 7 1029 93 10000 1.5 320 01:44 20.09.2019
1635 Clear 8 1029 93 10000 1 320 00:52 20.09.2019
1636 Clear 8 1029 87 10000 1.5 310 00:21 20.09.2019
1637 Clear 8 1030 93 10000 1.5 310 23:42 19.09.2019
1638 Clear 9 1029 87 10000 1 320 23:19 19.09.2019
1639 Clear 9 1029 87 10000 1 320 22:55 19.09.2019
1640 Clear 9 1029 87 10000 1.5 300 22:37 19.09.2019
1641 Clear 9 1029 87 10000 1.5 300 22:18 19.09.2019
1642 Clear 10 1029 81 10000 2.1 290 21:55 19.09.2019
1643 Clear 10 1029 81 10000 1.5 300 21:36 19.09.2019
1644 Clear 10 1029 81 10000 1.5 300 21:18 19.09.2019
1645 Clouds 11 1029 76 10000 2.1 280 20:43 19.09.2019
1646 Clouds 12 1029 76 10000 2.1 280 20:22 19.09.2019
1647 Clouds 13 1028 66 10000 3.6 290 19:55 19.09.2019
1648 Clouds 13 1028 66 10000 3.6 290 19:37 19.09.2019
1649 Clouds 13 1028 62 10000 5.7 300 19:19 19.09.2019
1650 Clouds 14 1028 62 10000 7.2 310 18:42 19.09.2019
1651 Clouds 14 1028 58 10000 6.2 290 18:24 19.09.2019
1652 Clouds 15 1028 58 10000 6.2 290 17:54 19.09.2019
1653 Clouds 15 1028 62 10000 4.6 300 17:36 19.09.2019
1654 Clouds 15 1028 62 10000 4.6 300 17:18 19.09.2019
1655 Rain 15 1028 58 10000 5.7 300 16:57 19.09.2019
1656 Clouds 15 1028 59 10000 4.6 310 16:38 19.09.2019
1657 Clouds 15 1028 59 10000 4.6 310 16:18 19.09.2019
1658 Clouds 15 1028 55 10000 3.1 290 15:38 19.09.2019
1659 Clouds 16 1028 55 10000 3.1 290 15:18 19.09.2019
1660 Clouds 15 1029 62 10000 4.6 320 14:42 19.09.2019
1661 Clouds 15 1029 62 10000 4.6 320 14:23 19.09.2019
1662 Clouds 15 1029 62 10000 4.1 330 13:59 19.09.2019
1663 Clouds 15 1029 58 10000 6.2 320 13:39 19.09.2019
1664 Clouds 15 1029 62 10000 5.1 300 13:19 19.09.2019
1665 Clouds 14 1029 66 10000 5.1 310 12:40 19.09.2019
1666 Clouds 14 1029 66 10000 5.1 310 12:40 19.09.2019
1667 Clouds 14 1029 66 10000 5.1 310 12:20 19.09.2019
1668 Clouds 14 1028 66 10000 6.2 310 11:57 19.09.2019
1669 Clouds 14 1028 66 10000 5.7 320 11:39 19.09.2019
1670 -273 0 0 0 0 0 11:20 19.09.2019
1671 Clouds 13 1028 66 10000 5.1 320 10:56 19.09.2019
1672 Clouds 13 1028 66 10000 5.1 320 10:56 19.09.2019
1673 Clouds 13 1028 71 10000 4.1 300 10:36 19.09.2019
1674 Clouds 12 1028 71 10000 4.1 300 10:18 19.09.2019
1675 Clear 10 1027 81 10000 2.1 300 09:41 19.09.2019
1676 Clear 10 1027 81 10000 2.1 300 09:22 19.09.2019
1677 Clear 8 1027 93 10000 1 0 08:56 19.09.2019
1678 Clear 7 1027 93 10000 1 0 08:29 19.09.2019
1679 Clear 7 1027 93 10000 0.5 290 07:58 19.09.2019
1680 Fog 7 1026 100 10000 1.5 290 07:40 19.09.2019
1681 Fog 7 1026 100 10000 1.5 290 07:21 19.09.2019
1682 Fog 7 1026 93 10000 1 0 06:46 19.09.2019
1683 Clouds 7 1026 93 10000 1 0 06:27 19.09.2019
1684 Clouds 8 1026 93 10000 1 0 05:52 19.09.2019
1685 Clouds 8 1026 81 10000 2.6 280 04:44 19.09.2019
1686 Clouds 9 1026 87 10000 3.1 280 03:51 19.09.2019
1687 Clouds 9 1026 76 10000 3.6 280 02:30 19.09.2019
1688 Clouds 9 1025 76 10000 3.6 280 01:23 19.09.2019
1689 Clouds 10 1025 71 10000 3.1 290 00:50 19.09.2019
1690 Clouds 10 1025 71 10000 3.1 290 00:25 19.09.2019
1691 Clear 9 1025 71 10000 3.6 280 23:42 18.09.2019
1692 Clear 9 1025 71 10000 3.6 280 23:21 18.09.2019
1693 Clear 9 1025 71 10000 3.6 290 22:55 18.09.2019
1694 Clear 9 1025 71 10000 3.1 290 22:36 18.09.2019
1695 Clear 10 1025 71 10000 3.6 290 22:18 18.09.2019
1696 Clear 10 1025 71 10000 3.6 290 21:54 18.09.2019
1697 Clear 10 1024 66 10000 3.6 300 21:36 18.09.2019
1698 Clouds 10 1024 66 10000 4.1 290 21:18 18.09.2019
1699 Clouds 10 1024 66 10000 4.1 290 20:55 18.09.2019
1700 Clouds 11 1024 71 10000 3.6 290 20:37 18.09.2019
1701 Rain 11 1024 66 10000 4.1 310 20:18 18.09.2019
1702 Clouds 12 1024 62 10000 3.6 300 19:41 18.09.2019
1703 Clouds 12 1024 62 10000 5.1 300 19:20 18.09.2019
1704 Clouds 13 1024 62 10000 5.1 300 18:57 18.09.2019
1705 Rain 13 1024 62 10000 7.2 310 18:38 18.09.2019
1706 Rain 13 1024 62 10000 7.2 310 18:19 18.09.2019
1707 Rain 14 1023 62 10000 5.7 320 17:59 18.09.2019
1708 Rain 14 1023 47 10000 7.2 310 17:40 18.09.2019
1709 Rain 14 1023 47 10000 7.2 310 17:19 18.09.2019
1710 Clouds 14 1023 50 10000 8.2 300 17:19 18.09.2019
1711 Clouds 14 1023 50 10000 8.2 300 16:57 18.09.2019
1712 Clouds 14 1023 47 10000 8.2 300 16:38 18.09.2019
1713 Clouds 14 1023 47 10000 8.2 300 16:20 18.09.2019
1714 Rain 15 1023 44 10000 9.8 290 15:56 18.09.2019
1715 Rain 15 1023 44 10000 9.8 290 15:56 18.09.2019
1716 Clouds 15 1023 54 10000 7.7 290 15:38 18.09.2019
1717 Clouds 15 1023 54 10000 7.7 290 15:19 18.09.2019
1718 Clear 15 1023 47 10000 8.7 300 14:58 18.09.2019
1719 Clouds 15 1023 44 10000 8.7 300 14:39 18.09.2019
1720 Clouds 15 1023 44 10000 8.7 300 14:21 18.09.2019
1721 Clouds 15 1023 44 10000 8.7 300 14:21 18.09.2019
1722 Rain 15 1023 54 10000 9.8 310 13:57 18.09.2019
1723 Clouds 15 1023 47 10000 6.2 300 13:37 18.09.2019
1724 Clouds 15 1023 47 10000 6.2 300 13:18 18.09.2019
1725 Clouds 15 1023 51 10000 8.2 310 12:41 18.09.2019
1726 Clouds 14 1023 51 10000 8.2 310 12:22 18.09.2019
1727 Clouds 14 1023 54 10000 7.7 310 11:40 18.09.2019
1728 Clouds 14 1023 54 10000 7.7 310 11:20 18.09.2019
1729 Clouds 13 1023 62 10000 7.2 300 10:57 18.09.2019
1730 Clouds 13 1022 62 10000 6.2 310 10:39 18.09.2019
1731 Clouds 13 1022 62 10000 6.2 310 10:19 18.09.2019
1732 Clouds 12 1022 71 10000 4.1 300 09:55 18.09.2019
1733 Clouds 11 1022 76 10000 4.1 300 09:37 18.09.2019
1734 Clouds 11 1022 76 10000 4.1 300 09:18 18.09.2019
1735 Clouds 10 1021 76 10000 3.1 290 08:41 18.09.2019
1736 Clouds 10 1021 76 10000 3.1 290 08:23 18.09.2019
1737 Clouds 9 1021 76 10000 3.6 270 07:45 18.09.2019
1738 Clear 9 1021 76 10000 3.1 270 07:26 18.09.2019
1739 Rain 9 1021 87 10000 2.6 260 06:55 18.09.2019
1740 Rain 9 1021 87 10000 2.6 260 06:55 18.09.2019
1741 Clear 9 1020 87 10000 2.6 250 06:29 18.09.2019
1742 Clouds 9 1020 81 10000 3.1 280 05:40 18.09.2019
1743 Clouds 9 1020 76 10000 4.1 290 04:20 18.09.2019
1744 Clouds 9 1019 76 10000 3.1 270 02:41 18.09.2019
1745 Clouds 9 1019 81 10000 2.6 270 01:50 18.09.2019
1746 Clouds 9 1019 81 10000 2.6 270 01:18 18.09.2019
1747 Clear 9 1018 81 10000 4.1 300 00:42 18.09.2019
1748 Clear 9 1018 81 10000 4.1 300 00:19 18.09.2019
1749 Clouds 9 1017 81 10000 4.6 280 23:42 17.09.2019
1750 Clouds 9 1017 81 10000 4.6 280 23:22 17.09.2019
1751 Clear 9 1017 81 10000 4.6 290 22:42 17.09.2019
1752 Clear 9 1017 81 10000 4.6 290 22:24 17.09.2019
1753 Rain 9 1017 87 10000 4.6 300 21:55 17.09.2019
1754 Rain 10 1016 81 10000 5.7 340 21:37 17.09.2019
1755 Rain 10 1016 71 10000 7.2 300 21:18 17.09.2019
1756 Rain 10 1016 71 10000 7.2 300 20:57 17.09.2019
1757 Clouds 10 1015 66 10000 4.6 290 20:39 17.09.2019
1758 Clouds 10 1015 66 10000 4.6 290 20:21 17.09.2019
1759 Clouds 11 1015 66 10000 7.2 300 19:58 17.09.2019
1760 Rain 11 1015 62 10000 7.2 300 19:39 17.09.2019
1761 Clouds 12 1015 66 10000 7.7 300 19:19 17.09.2019
1762 Rain 11 1015 62 10000 7.2 300 19:19 17.09.2019
1763 Clouds 12 1015 66 10000 7.7 300 18:56 17.09.2019
1764 Rain 12 1015 66 10000 8.2 300 18:38 17.09.2019
1765 Rain 12 1015 66 10000 8.2 300 18:19 17.09.2019
1766 Rain 12 1014 76 10000 10.3 300 17:45 17.09.2019
1767 Rain 12 1014 76 10000 10.3 300 17:20 17.09.2019
1768 Rain 13 1014 58 10000 10.3 290 16:57 17.09.2019
1769 Rain 13 1014 54 10000 12.3 300 16:37 17.09.2019
1770 Rain 13 1014 54 10000 12.3 300 16:19 17.09.2019
1771 Rain 13 1014 71 10000 7.7 280 15:40 17.09.2019
1772 Rain 13 1014 71 10000 7.7 280 15:20 17.09.2019
1773 Rain 13 1014 71 10000 7.7 300 14:56 17.09.2019
1774 Rain 13 1013 71 10000 9.3 290 14:38 17.09.2019
1775 Rain 13 1013 71 10000 9.3 290 14:19 17.09.2019
1776 Rain 13 1014 81 9000 9.8 300 13:57 17.09.2019
1777 Rain 13 1013 67 10000 8.2 290 13:38 17.09.2019
1778 Rain 13 1013 67 10000 8.2 290 13:20 17.09.2019
1779 Rain 13 1013 87 10000 5.7 270 12:42 17.09.2019
1780 Rain 13 1014 81 10000 7.2 280 12:19 17.09.2019
1781 Rain 12 1014 81 10000 7.2 280 11:46 17.09.2019
1782 Rain 12 1013 87 10000 6.7 240 11:26 17.09.2019
1783 Rain 12 1014 87 10000 5.7 240 10:59 17.09.2019
1784 Rain 12 1014 93 10000 4.6 240 10:41 17.09.2019
1785 Rain 12 1014 93 10000 4.6 240 10:20 17.09.2019
1786 Rain 12 1014 93 10000 4.1 240 09:55 17.09.2019
1787 Rain 11 1014 93 8000 3.6 260 09:37 17.09.2019
1788 Rain 11 1014 93 8000 3.6 260 09:19 17.09.2019
1789 Rain 11 1014 81 10000 4.1 270 08:43 17.09.2019
1790 Rain 11 1014 76 10000 5.7 270 08:25 17.09.2019
1791 Clouds 11 1014 81 10000 3.6 250 07:45 17.09.2019
1792 Clouds 10 1014 81 10000 3.1 260 07:27 17.09.2019
1793 Clouds 11 1014 81 10000 3.1 260 06:57 17.09.2019
1794 Clear 11 1014 81 10000 4.1 240 06:36 17.09.2019
1795 Clouds 11 1015 87 10000 3.6 240 05:54 17.09.2019
1796 Clouds 11 1015 87 10000 3.1 250 05:33 17.09.2019
1797 Clouds 11 1016 87 10000 3.6 240 03:49 17.09.2019
1798 Clouds 11 1016 87 10000 3.6 240 03:49 17.09.2019
1799 Clear 11 1017 81 10000 3.1 260 02:40 17.09.2019
1800 Clear 11 1016 81 10000 3.1 240 01:52 17.09.2019
1801 Clouds 11 1017 87 10000 3.1 240 00:56 17.09.2019
1802 Clouds 11 1017 87 10000 2.1 250 23:55 16.09.2019
1803 Clouds 11 1017 87 10000 2.1 250 23:36 16.09.2019
1804 Clouds 11 1017 87 10000 2.1 250 23:18 16.09.2019
1805 Clouds 11 1017 82 10000 2.6 270 22:41 16.09.2019
1806 Clouds 11 1017 82 10000 2.6 270 22:23 16.09.2019
1807 Clouds 11 1017 82 10000 2.1 260 21:58 16.09.2019
1808 Rain 12 1017 82 10000 3.1 260 21:38 16.09.2019
1809 Rain 12 1017 82 10000 3.1 260 21:20 16.09.2019
1810 Rain 13 1017 76 10000 3.1 270 20:55 16.09.2019
1811 Clouds 13 1017 71 10000 2.1 280 20:37 16.09.2019
1812 Clouds 13 1017 67 10000 3.1 290 20:18 16.09.2019
1813 Clouds 13 1017 67 10000 3.1 290 19:54 16.09.2019
1814 Clouds 14 1017 67 10000 3.6 300 19:36 16.09.2019
1815 Clouds 14 1017 67 10000 3.6 300 19:18 16.09.2019
1816 Clouds 15 1017 62 10000 5.1 290 18:42 16.09.2019
1817 Clouds 15 1017 62 10000 5.1 290 18:24 16.09.2019
1818 Clouds 15 1017 63 10000 4.6 310 17:43 16.09.2019
1819 Clouds 15 1017 63 10000 4.6 310 17:24 16.09.2019
1820 Clouds 16 1017 59 10000 4.6 290 16:59 16.09.2019
1821 Clouds 16 1017 59 10000 5.1 290 16:40 16.09.2019
1822 Clouds 16 1017 59 10000 5.1 290 16:21 16.09.2019
1823 Clouds 16 1018 63 10000 4.1 300 15:57 16.09.2019
1824 Rain 16 1018 67 10000 6.7 300 15:38 16.09.2019
1825 Rain 16 1018 67 10000 6.7 300 15:20 16.09.2019
1826 Clouds 16 1018 59 10000 6.2 280 14:57 16.09.2019
1827 Clouds 16 1018 59 10000 6.2 300 14:38 16.09.2019
1828 Clouds 16 1018 59 10000 6.2 300 14:20 16.09.2019
1829 Clouds 16 1018 59 10000 4.6 290 13:41 16.09.2019
1830 Clouds 16 1018 59 10000 5.7 290 13:22 16.09.2019
1831 Clouds 16 1018 59 10000 5.7 290 13:22 16.09.2019
1832 Clouds 16 1018 59 10000 5.7 290 12:55 16.09.2019
1833 Clouds 16 1018 59 10000 5.7 290 12:54 16.09.2019
1834 Clouds 16 1018 59 10000 5.7 290 12:54 16.09.2019
1835 Clouds 15 1018 55 10000 6.2 280 12:36 16.09.2019
1836 Clouds 15 1018 59 10000 5.1 260 12:18 16.09.2019
1837 Clouds 16 1018 63 10000 4.1 270 11:44 16.09.2019
1838 Clouds 15 1018 67 10000 4.1 240 11:22 16.09.2019
1839 Clouds 15 1018 67 10000 4.1 240 10:55 16.09.2019
1840 Clouds 14 1019 76 10000 3.1 260 10:36 16.09.2019
1841 Clouds 13 1019 82 10000 2.6 250 10:18 16.09.2019
1842 Clouds 12 1018 87 10000 2.1 240 09:41 16.09.2019
1843 Clouds 11 1018 87 10000 2.1 240 09:21 16.09.2019
1844 Clouds 11 1018 93 10000 1.5 260 08:53 16.09.2019
1845 Clouds 10 1018 93 10000 3.1 240 08:34 16.09.2019
1846 Clouds 9 1018 93 10000 3.6 240 07:59 16.09.2019
1847 Clouds 9 1018 87 10000 1 0 07:41 16.09.2019
1848 Clouds 9 1018 87 10000 1 0 07:21 16.09.2019
1849 Clouds 9 1019 87 10000 1.5 260 06:55 16.09.2019
1850 Clouds 9 1019 87 10000 2.1 270 06:36 16.09.2019
1851 Clouds 9 1019 87 10000 2.1 270 06:18 16.09.2019
1852 Clear 9 1019 87 10000 2.6 250 05:41 16.09.2019
1853 Clouds 9 1019 93 10000 2.1 260 05:18 16.09.2019
1854 Clouds 10 1019 93 10000 3.1 240 03:36 16.09.2019
1855 Clouds 12 1019 87 10000 2.6 260 00:58 16.09.2019
1856 Clouds 12 1019 82 10000 2.6 280 00:38 16.09.2019
1857 Clouds 12 1019 87 10000 3.6 280 00:20 16.09.2019
1858 Clouds 13 1019 87 10000 2.6 260 23:39 15.09.2019
1859 Clouds 13 1019 87 10000 2.6 260 23:20 15.09.2019
1860 Clouds 13 1019 87 10000 2.1 260 22:40 15.09.2019
1861 Clouds 13 1019 87 10000 2.1 260 22:21 15.09.2019
1862 Clouds 13 1019 87 10000 2.1 260 22:21 15.09.2019
1863 Clear 14 1018 82 10000 2.1 260 21:58 15.09.2019
1864 Clear 14 1018 82 10000 2.6 240 21:39 15.09.2019
1865 Clear 14 1018 82 10000 2.6 240 21:21 15.09.2019
1866 Clouds 14 1019 82 10000 3.1 270 20:57 15.09.2019
1867 Clouds 14 1019 87 10000 3.1 280 20:38 15.09.2019
1868 Clouds 14 1019 87 10000 3.1 280 20:20 15.09.2019
1869 Clouds 15 1018 82 10000 3.6 290 19:42 15.09.2019
1870 Clouds 15 1018 82 10000 3.6 290 19:22 15.09.2019
1871 Rain 15 1018 93 8000 4.1 290 18:42 15.09.2019
1872 Rain 15 1018 93 8000 4.1 290 18:24 15.09.2019
1873 Drizzle 15 1018 93 3500 6.7 300 17:58 15.09.2019
1874 Drizzle 16 1018 82 9000 3.6 250 17:39 15.09.2019
1875 Drizzle 16 1018 82 9000 3.6 250 17:20 15.09.2019
1876 Drizzle 16 1018 82 8000 5.7 260 16:44 15.09.2019
1877 Drizzle 16 1018 82 8000 5.7 260 16:26 15.09.2019
1878 Drizzle 17 1018 82 9000 5.1 260 15:59 15.09.2019
1879 Clouds 17 1018 82 10000 6.7 240 15:41 15.09.2019
1880 Clouds 17 1018 82 10000 6.7 240 15:20 15.09.2019
1881 Clouds 17 1018 72 10000 6.2 260 14:58 15.09.2019
1882 Clouds 17 1018 72 10000 6.2 250 14:40 15.09.2019
1883 Clouds 18 1018 72 10000 6.2 250 14:20 15.09.2019
1884 Clouds 18 1018 68 10000 6.2 250 13:47 15.09.2019
1885 Clouds 18 1018 68 10000 6.2 250 13:24 15.09.2019
1886 Clouds 18 1018 68 10000 7.2 250 12:56 15.09.2019
1887 Clouds 18 1018 63 10000 5.7 260 12:38 15.09.2019
1888 Clouds 17 1018 63 10000 5.7 260 12:18 15.09.2019
1889 Clear 17 1018 63 10000 5.7 250 11:42 15.09.2019
1890 Clear 16 1018 63 10000 5.7 250 11:22 15.09.2019
1891 Clear 16 1018 63 10000 5.7 250 11:22 15.09.2019
1892 Clear 16 1018 62 10000 5.7 240 10:58 15.09.2019
1893 Clear 15 1019 62 10000 5.1 240 10:40 15.09.2019
1894 Clear 15 1019 62 10000 5.1 240 10:21 15.09.2019
1895 Clear 13 1019 66 10000 4.6 240 09:42 15.09.2019
1896 Clear 13 1019 66 10000 4.6 240 09:42 15.09.2019
1897 Clear 12 1019 66 10000 4.6 240 09:20 15.09.2019
1898 Clear 12 1019 62 10000 5.7 230 08:58 15.09.2019
1899 Clear 11 1020 66 10000 3.6 230 08:39 15.09.2019
1900 Clear 11 1020 71 10000 4.6 220 08:18 15.09.2019
1901 Clear 11 1020 71 10000 5.1 220 07:41 15.09.2019
1902 Clear 10 1021 76 10000 3.6 220 06:44 15.09.2019
1903 Clear 10 1022 71 10000 4.6 220 05:35 15.09.2019
1904 Clear 10 1024 76 10000 3.1 220 03:19 15.09.2019
1905 Clear 10 1025 76 10000 2.1 240 02:18 15.09.2019
1906 Clear 10 1025 81 10000 2.6 220 01:36 15.09.2019
1907 Clear 11 1026 81 10000 2.6 220 00:57 15.09.2019
1908 Clear 11 1026 76 10000 3.1 220 00:37 15.09.2019
1909 Clear 11 1026 76 10000 3.1 220 00:18 15.09.2019
1910 Clear 11 1027 81 10000 2.6 220 23:55 14.09.2019
1911 Clear 11 1027 76 10000 2.1 220 23:37 14.09.2019
1912 Clear 11 1028 87 10000 1.5 220 23:19 14.09.2019
1913 Clear 11 1028 87 10000 1.5 220 22:55 14.09.2019
1914 Clear 11 1028 87 10000 1 0 22:37 14.09.2019
1915 Clear 11 1028 81 10000 1.5 230 22:18 14.09.2019
1916 Clear 12 1029 81 10000 0.5 0 21:40 14.09.2019
1917 Clear 12 1029 81 10000 0.5 0 21:20 14.09.2019
1918 Clear 13 1029 81 10000 1 290 20:58 14.09.2019
1919 Clear 13 1029 71 10000 2.1 260 20:39 14.09.2019
1920 Clear 14 1029 71 10000 2.1 260 20:21 14.09.2019
1921 Clear 16 1029 55 10000 2.1 260 19:47 14.09.2019
1922 Clear 16 1029 55 10000 2.1 260 19:23 14.09.2019
1923 Clouds 17 1030 52 10000 2.1 250 18:58 14.09.2019
1924 Clouds 17 1030 48 10000 2.6 240 18:38 14.09.2019
1925 Clouds 18 1030 48 10000 3.6 220 18:20 14.09.2019
1926 Clouds 18 1030 48 10000 3.6 220 17:45 14.09.2019
1927 Clouds 18 1030 48 10000 3.6 220 17:45 14.09.2019
1928 Clouds 18 1031 48 10000 2.6 280 17:24 14.09.2019
1929 Clouds 18 1031 45 10000 3.1 240 16:59 14.09.2019
1930 Clouds 18 1032 48 10000 2.6 230 16:40 14.09.2019
1931 Clouds 18 1032 48 10000 2.6 230 16:19 14.09.2019
1932 Clouds 19 1032 48 10000 2.6 230 16:19 14.09.2019
1933 Clouds 18 1033 51 10000 2.1 0 15:42 14.09.2019
1934 Clouds 18 1033 51 10000 2.1 0 15:23 14.09.2019
1935 Clouds 18 1033 51 10000 2.1 0 15:23 14.09.2019
1936 Clouds 18 1033 51 10000 3.6 300 14:58 14.09.2019
1937 Clouds 18 1033 55 10000 3.1 320 14:39 14.09.2019
1938 Clouds 18 1033 55 10000 3.1 320 14:18 14.09.2019
1939 Clouds 17 1034 55 10000 3.1 260 13:47 14.09.2019
1940 Clouds 17 1034 55 10000 3.1 260 13:22 14.09.2019
1941 Clouds 17 1034 59 10000 2.1 200 12:47 14.09.2019
1942 Clouds 17 1034 59 10000 2.1 200 12:25 14.09.2019
1943 Clouds 16 1034 63 10000 2.6 210 11:42 14.09.2019
1944 Clouds 16 1034 63 10000 2.6 210 11:21 14.09.2019
1945 Clouds 15 1035 62 10000 2.6 210 10:57 14.09.2019
1946 Clear 14 1035 72 10000 2.1 230 10:36 14.09.2019
1947 Clear 14 1035 72 10000 2.1 230 10:36 14.09.2019
1948 Clear 14 1035 72 10000 2.1 230 10:18 14.09.2019
1949 Clear 12 1035 82 10000 1 0 09:56 14.09.2019
1950 Clear 11 1035 81 10000 1 0 09:37 14.09.2019
1951 Clear 10 1034 93 10000 0.5 0 09:18 14.09.2019
1952 Clear 9 1034 93 10000 0.5 0 08:41 14.09.2019
1953 Fog 8 1034 100 10000 1 0 08:23 14.09.2019
1954 Fog 7 1034 93 10000 1 210 07:44 14.09.2019
1955 Fog 7 1034 100 10000 0.5 0 07:44 14.09.2019
1956 Fog 7 1034 93 10000 1 210 07:26 14.09.2019
1957 Fog 7 1034 100 10000 0.5 330 06:39 14.09.2019
1958 Fog 7 1034 100 10000 0.5 0 05:57 14.09.2019
1959 Fog 8 1034 93 10000 0.5 0 04:55 14.09.2019
1960 Fog 8 1034 100 10000 1.13 261.374 03:38 14.09.2019
1961 Fog 9 1034 100 10000 0.5 90 02:51 14.09.2019
1962 Fog 9 1034 93 10000 1.19 296.629 01:47 14.09.2019
1963 Clear 10 1034 100 10000 1 320 01:21 14.09.2019
1964 Clear 10 1034 93 10000 1 320 00:57 14.09.2019
1965 Clear 10 1034 87 10000 1 0 00:37 14.09.2019
1966 Clear 10 1034 87 10000 1 0 00:19 14.09.2019
1967 Clear 11 1034 87 10000 1 0 23:38 13.09.2019
1968 Clear 11 1034 87 10000 1 0 23:19 13.09.2019
1969 Clear 11 1034 87 10000 1 0 23:19 13.09.2019
1970 Clear 11 1034 81 10000 0.5 0 22:56 13.09.2019
1971 Clear 12 1033 81 10000 1 0 22:38 13.09.2019
1972 Clear 12 1033 81 10000 1 0 22:38 13.09.2019
1973 Clear 12 1033 81 10000 1 0 22:19 13.09.2019
1974 Clear 13 1033 71 10000 2.6 290 21:41 13.09.2019
1975 Clear 13 1033 71 10000 2.1 310 21:20 13.09.2019
1976 Clear 14 1033 71 10000 2.1 310 20:59 13.09.2019
1977 Clouds 14 1033 62 10000 3.1 290 20:40 13.09.2019
1978 Clouds 15 1032 67 10000 4.1 300 20:21 13.09.2019
1979 Clouds 15 1032 67 10000 4.1 300 19:56 13.09.2019
1980 Clouds 16 1032 59 10000 4.6 300 19:38 13.09.2019
1981 Clouds 16 1032 55 10000 3.6 290 19:19 13.09.2019
1982 Clouds 16 1032 55 10000 3.6 290 18:56 13.09.2019
1983 Clouds 17 1032 51 10000 5.1 320 18:37 13.09.2019
1984 Clouds 17 1032 51 10000 6.7 310 18:18 13.09.2019
1985 Clouds 18 1031 48 10000 6.7 290 17:39 13.09.2019
1986 Clouds 18 1031 48 10000 6.7 290 17:39 13.09.2019
1987 Clouds 18 1031 45 10000 6.2 300 17:19 13.09.2019
1988 Clouds 18 1031 45 10000 6.2 300 16:42 13.09.2019
1989 Clouds 18 1031 45 10000 6.7 290 16:22 13.09.2019
1990 Clouds 18 1031 48 10000 6.7 300 15:59 13.09.2019
1991 Clouds 18 1031 48 10000 7.2 300 15:40 13.09.2019
1992 Clouds 19 1031 48 10000 7.2 300 15:20 13.09.2019
1993 Clouds 19 1030 48 10000 7.7 300 14:44 13.09.2019
1994 Clouds 19 1030 48 10000 7.7 300 14:22 13.09.2019
1995 Clouds 19 1030 55 10000 6.7 300 13:56 13.09.2019
1996 Clouds 19 1030 55 10000 6.7 300 13:56 13.09.2019
1997 Clouds 19 1030 59 10000 6.2 320 13:38 13.09.2019
1998 Clouds 18 1029 63 10000 7.7 320 13:19 13.09.2019
1999 Rain 18 1029 68 10000 5.7 310 12:44 13.09.2019
2000 Rain 18 1029 68 10000 5.7 310 12:23 13.09.2019
2001 Rain 18 1028 72 10000 5.7 310 11:56 13.09.2019
2002 Clouds 17 1028 77 10000 5.7 320 11:20 13.09.2019
2003 Clouds 17 1027 87 10000 6.2 320 10:41 13.09.2019
2004 Clouds 17 1027 87 10000 6.2 320 10:41 13.09.2019
2005 Rain 16 1026 93 10000 5.7 320 10:20 13.09.2019
2006 Rain 16 1026 93 10000 5.7 320 09:54 13.09.2019
2007 Rain 16 1025 93 10000 6.2 320 09:36 13.09.2019
2008 Rain 16 1025 93 10000 6.2 320 09:18 13.09.2019
2009 Rain 17 1024 88 4500 3.6 260 08:41 13.09.2019
2010 Rain 17 1024 88 4500 3.6 260 08:21 13.09.2019
2011 Rain 17 1024 88 10000 5.1 250 07:59 13.09.2019
2012 Rain 17 1024 82 10000 4.1 270 07:40 13.09.2019
2013 Clouds 17 1023 82 10000 4.6 240 06:54 13.09.2019
2014 Clouds 17 1023 82 10000 4.6 240 06:34 13.09.2019
2015 Clouds 18 1023 82 10000 5.1 240 05:30 13.09.2019
2016 Clouds 17 1024 82 10000 4.1 220 03:44 13.09.2019
2017 Clouds 17 1024 82 10000 4.1 220 03:24 13.09.2019
2018 Clouds 16 1024 77 10000 4.6 240 02:19 13.09.2019
2019 Clear 15 1024 82 10000 3.1 230 01:35 13.09.2019
2020 Clear 15 1024 82 10000 3.1 230 01:35 13.09.2019
2021 Clouds 15 1025 77 10000 3.6 240 00:59 13.09.2019
2022 Clouds 15 1025 82 10000 3.1 240 00:34 13.09.2019
2023 Clouds 15 1025 77 10000 2.6 230 23:47 12.09.2019
2024 Clouds 15 1025 77 10000 2.6 230 23:24 12.09.2019
2025 Clouds 15 1025 77 10000 2.6 210 22:57 12.09.2019
2026 Clear 15 1025 82 10000 1.5 220 22:39 12.09.2019
2027 Clear 15 1025 82 10000 1.5 220 22:21 12.09.2019
2028 Clear 15 1025 87 10000 1 210 21:55 12.09.2019
2029 Clouds 15 1025 82 10000 0.5 310 21:36 12.09.2019
2030 Clouds 15 1025 82 10000 0.5 310 21:18 12.09.2019
2031 Clear 16 1025 72 10000 1.5 270 20:44 12.09.2019
2032 Clear 17 1025 59 10000 2.6 260 20:22 12.09.2019
2033 Clear 18 1025 59 10000 2.6 260 19:57 12.09.2019
2034 Clouds 18 1025 59 10000 4.1 270 19:39 12.09.2019
2035 Clouds 19 1025 56 10000 4.1 270 19:19 12.09.2019
2036 Clouds 19 1025 56 10000 4.1 270 18:56 12.09.2019
2037 Clouds 19 1025 52 10000 5.7 250 18:36 12.09.2019
2038 Clouds 20 1025 56 10000 6.2 270 18:18 12.09.2019
2039 Clouds 20 1025 52 10000 6.2 270 17:40 12.09.2019
2040 Clouds 20 1025 52 10000 5.1 260 17:20 12.09.2019
2041 Clouds 20 1025 52 10000 5.1 260 16:56 12.09.2019
2042 Clouds 20 1025 52 10000 4.6 270 16:38 12.09.2019
2043 Clouds 20 1025 49 10000 5.1 290 16:19 12.09.2019
2044 Clouds 20 1025 52 10000 6.2 270 15:41 12.09.2019
2045 Clouds 20 1025 52 10000 6.2 270 15:23 12.09.2019
2046 Clouds 20 1025 63 10000 5.1 260 14:46 12.09.2019
2047 Clouds 20 1025 63 10000 5.1 260 14:22 12.09.2019
2048 Clouds 19 1025 63 10000 6.2 250 13:58 12.09.2019
2049 Clouds 19 1025 63 10000 5.1 260 13:38 12.09.2019
2050 Clouds 19 1025 63 10000 5.1 260 13:19 12.09.2019
2051 Clouds 19 1025 72 10000 4.6 240 12:45 12.09.2019
2052 Clouds 18 1025 72 10000 4.6 240 12:19 12.09.2019
2053 Clouds 18 1025 72 10000 4.6 240 12:19 12.09.2019
2054 Clouds 18 1025 82 10000 4.1 230 11:57 12.09.2019
2055 Clouds 17 1025 82 9000 4.6 240 11:39 12.09.2019
2056 Clouds 17 1025 82 9000 4.6 230 11:21 12.09.2019
2057 Clouds 17 1025 82 9000 4.6 230 10:48 12.09.2019
2058 Clouds 16 1024 87 8000 4.1 230 10:26 12.09.2019
2059 Clouds 16 1024 87 6000 2.6 240 09:56 12.09.2019
2060 Clouds 15 1024 87 6000 2.6 240 09:36 12.09.2019
2061 Clouds 15 1024 87 6000 2.6 240 09:18 12.09.2019
2062 Clouds 15 1023 93 6000 3.1 240 08:43 12.09.2019
2063 Clouds 15 1023 93 6000 3.1 240 08:22 12.09.2019
2064 Clouds 14 1023 93 6000 3.1 240 07:46 12.09.2019
2065 Mist 14 1022 93 6000 2.6 240 07:20 12.09.2019
2066 Mist 14 1022 93 6000 2.6 240 06:52 12.09.2019
2067 Clouds 14 1022 93 7000 2.6 230 06:31 12.09.2019
2068 Clouds 14 1022 100 7000 2.6 240 05:53 12.09.2019
2069 Clouds 15 1021 93 7000 2.6 250 05:35 12.09.2019
2070 Clouds 15 1021 93 6000 2.1 240 04:42 12.09.2019
2071 Clouds 14 1021 93 6000 3.6 230 03:23 12.09.2019
2072 Clouds 14 1020 93 7000 5.1 220 01:43 12.09.2019
2073 Clouds 14 1020 93 7000 5.1 220 01:22 12.09.2019
2074 Clouds 14 1019 93 8000 6.2 230 00:47 12.09.2019
2075 Clouds 14 1019 93 8000 6.2 230 00:28 12.09.2019
2076 Drizzle 14 1019 93 9000 7.2 230 23:43 11.09.2019
2077 Drizzle 14 1019 93 9000 7.2 230 23:25 11.09.2019
2078 Drizzle 14 1019 93 8000 7.2 230 22:58 11.09.2019
2079 Drizzle 14 1019 93 5000 7.7 220 22:38 11.09.2019
2080 Drizzle 14 1019 93 5000 7.7 220 22:20 11.09.2019
2081 Drizzle 14 1019 93 4800 8.2 210 21:58 11.09.2019
2082 Drizzle 14 1019 87 9000 8.7 220 21:40 11.09.2019
2083 Drizzle 13 1019 87 9000 8.7 220 21:22 11.09.2019
2084 Drizzle 14 1018 93 4300 8.2 210 20:56 11.09.2019
2085 Drizzle 14 1019 93 4500 7.2 210 20:37 11.09.2019
2086 Drizzle 14 1019 87 9000 7.2 230 20:18 11.09.2019
2087 Drizzle 14 1019 87 9000 7.2 230 19:56 11.09.2019
2088 Rain 14 1018 77 10000 6.7 230 19:37 11.09.2019
2089 Rain 14 1018 72 10000 6.2 230 19:19 11.09.2019
2090 Rain 16 1018 59 10000 8.7 240 18:43 11.09.2019
2091 Rain 17 1018 59 10000 8.7 240 18:24 11.09.2019
2092 Rain 17 1018 63 10000 5.7 240 17:59 11.09.2019
2093 Clouds 18 1018 59 10000 6.2 230 17:41 11.09.2019
2094 Clouds 18 1018 59 10000 6.2 230 17:21 11.09.2019
2095 Rain 18 1018 52 10000 7.2 230 16:56 11.09.2019
2096 Rain 18 1018 52 10000 7.2 230 16:56 11.09.2019
2097 Rain 18 1018 52 10000 7.2 230 16:56 11.09.2019
2098 Rain 19 1018 52 10000 7.7 230 16:37 11.09.2019
2099 Rain 19 1018 52 10000 7.7 230 16:19 11.09.2019
2100 Clouds 19 1018 49 10000 8.7 220 15:46 11.09.2019
2101 Clouds 19 1018 49 10000 8.7 220 15:46 11.09.2019
2102 Clouds 19 1018 49 10000 8.7 220 15:23 11.09.2019
2103 Clouds 19 1018 52 10000 8.2 220 14:58 11.09.2019
2104 Clouds 20 1018 52 10000 7.7 220 14:39 11.09.2019
2105 Clouds 20 1018 52 10000 7.7 220 14:20 11.09.2019
2106 Clouds 20 1018 49 10000 9.3 230 13:57 11.09.2019
2107 Clouds 19 1018 52 10000 8.2 220 13:37 11.09.2019
2108 Clouds 19 1018 52 10000 8.2 220 13:18 11.09.2019
2109 Clear 19 1019 55 10000 7.7 210 12:42 11.09.2019
2110 Clear 18 1019 55 10000 7.7 210 12:21 11.09.2019
2111 Clear 18 1019 55 10000 8.2 210 11:58 11.09.2019
2112 Clear 17 1019 59 10000 6.7 210 11:38 11.09.2019
2113 Clear 17 1019 63 10000 6.2 210 11:19 11.09.2019
2114 Clear 16 1019 72 10000 6.2 210 10:41 11.09.2019
2115 Clear 15 1019 72 10000 6.2 210 10:22 11.09.2019
2116 Clear 14 1019 76 10000 4.6 220 09:57 11.09.2019
2117 Clear 13 1019 76 10000 4.1 220 09:37 11.09.2019
2118 Clear 12 1019 87 10000 3.1 220 09:19 11.09.2019
2119 Clear 12 1019 87 10000 3.1 220 09:19 11.09.2019
2120 Clear 11 1019 81 10000 3.1 210 08:41 11.09.2019
2121 Clear 10 1019 81 10000 3.1 210 08:21 11.09.2019
2122 Clear 10 1019 93 10000 3.6 210 07:57 11.09.2019
2123 Clear 9 1019 87 10000 3.1 210 07:38 11.09.2019
2124 Clear 9 1019 87 10000 2.6 220 07:19 11.09.2019
2125 Clear 9 1019 93 10000 2.6 200 06:40 11.09.2019
2126 Clear 10 1019 93 10000 2.6 200 06:21 11.09.2019
2127 Clear 10 1019 93 10000 3.1 210 05:34 11.09.2019
2128 Clear 10 1019 87 10000 2.6 220 04:52 11.09.2019
2129 Clear 10 1019 93 10000 2.1 220 04:18 11.09.2019
2130 Clear 11 1019 93 10000 2.6 220 03:27 11.09.2019
2131 Clear 11 1019 87 10000 3.1 220 02:32 11.09.2019
2132 Clear 12 1018 82 10000 3.1 240 01:33 11.09.2019
2133 Clear 13 1018 82 10000 3.1 250 00:37 11.09.2019
2134 Clear 13 1018 82 10000 3.1 250 00:19 11.09.2019
2135 Clear 13 1018 82 10000 3.1 250 23:40 10.09.2019
2136 Clouds 13 1018 82 10000 3.1 250 23:22 10.09.2019
2137 Clouds 13 1018 82 10000 3.1 250 22:57 10.09.2019
2138 Clear 14 1017 82 10000 3.1 260 22:37 10.09.2019
2139 Clear 14 1017 82 10000 2.6 270 22:18 10.09.2019
2140 Clear 14 1017 82 10000 2.6 270 21:55 10.09.2019
2141 Rain 15 1017 82 10000 3.6 260 21:36 10.09.2019
2142 Rain 15 1017 82 10000 3.6 260 21:18 10.09.2019
2143 Rain 15 1017 82 10000 4.6 260 20:56 10.09.2019
2144 Rain 15 1017 77 10000 3.6 270 20:38 10.09.2019
2145 Rain 15 1017 77 10000 3.6 270 20:38 10.09.2019
2146 Rain 15 1017 77 10000 3.6 270 20:19 10.09.2019
2147 Rain 15 1016 77 10000 5.1 270 19:55 10.09.2019
2148 Rain 16 1016 77 10000 4.6 270 19:36 10.09.2019
2149 Rain 16 1016 77 10000 4.1 270 19:18 10.09.2019
2150 Rain 16 1016 77 10000 5.7 280 18:46 10.09.2019
2151 Rain 17 1016 77 10000 5.7 280 18:23 10.09.2019
2152 Rain 17 1015 77 10000 5.1 280 17:59 10.09.2019
2153 Rain 17 1015 77 10000 5.1 280 17:59 10.09.2019
2154 Rain 17 1015 72 10000 8.2 290 17:41 10.09.2019
2155 Rain 17 1015 72 10000 8.2 290 17:21 10.09.2019
2156 Rain 17 1015 55 10000 6.7 260 16:57 10.09.2019
2157 Rain 17 1015 55 10000 6.2 270 16:38 10.09.2019
2158 Rain 17 1015 55 10000 6.2 270 16:20 10.09.2019
2159 Rain 17 1014 59 10000 8.2 280 15:56 10.09.2019
2160 Rain 17 1014 59 10000 7.7 270 15:38 10.09.2019
2161 Rain 17 1014 55 10000 7.2 260 15:19 10.09.2019
2162 Rain 17 1014 59 10000 7.2 250 14:40 10.09.2019
2163 Clouds 17 1014 55 10000 6.7 270 14:22 10.09.2019
2164 Clouds 17 1014 55 10000 6.7 270 13:49 10.09.2019
2165 Clouds 17 1014 59 10000 7.7 280 13:24 10.09.2019
2166 Clouds 17 1014 59 10000 7.7 280 12:58 10.09.2019
2167 Clouds 17 1014 63 10000 7.2 270 12:40 10.09.2019
2168 Clouds 16 1013 63 10000 8.2 270 12:22 10.09.2019
2169 Clouds 17 1013 63 10000 8.2 270 11:54 10.09.2019
2170 Clouds 16 1013 72 10000 6.7 260 11:36 10.09.2019
2171 Clouds 16 1013 72 10000 4.6 270 11:18 10.09.2019
2172 Clouds 15 1013 76 10000 4.1 260 10:39 10.09.2019
2173 Clouds 15 1013 76 10000 5.1 270 10:19 10.09.2019
2174 Clouds 14 1013 76 10000 5.1 270 09:55 10.09.2019
2175 Clouds 13 1013 87 10000 4.1 260 09:37 10.09.2019
2176 Clouds 13 1013 87 10000 4.1 260 09:18 10.09.2019
2177 Clouds 12 1013 93 10000 3.6 250 08:43 10.09.2019
2178 Clouds 12 1012 93 10000 3.6 260 08:24 10.09.2019
2179 Clouds 12 1012 87 10000 3.6 260 07:44 10.09.2019
2180 Clouds 12 1012 87 10000 3.6 260 07:26 10.09.2019
2181 Clouds 12 1012 93 10000 3.6 260 06:51 10.09.2019
2182 Clouds 12 1012 93 10000 3.6 260 06:32 10.09.2019
2183 Clear 12 1012 93 10000 3.6 260 05:24 10.09.2019
2184 Clouds 12 1012 93 10000 3.6 260 03:50 10.09.2019
2185 Clouds 13 1012 93 10000 2.1 270 02:23 10.09.2019
2186 Clouds 13 1012 93 10000 2.1 270 02:23 10.09.2019
2187 Clouds 13 1012 93 10000 3.1 280 01:57 10.09.2019
2188 Clouds 13 1012 93 10000 4.1 280 01:39 10.09.2019
2189 Rain 13 1012 93 10000 3.1 280 00:54 10.09.2019
2190 Rain 13 1012 93 10000 3.1 290 00:25 10.09.2019
2191 Rain 13 1012 93 10000 2.6 280 23:47 09.09.2019
2192 Rain 13 1012 87 10000 3.6 280 23:20 09.09.2019
2193 Rain 13 1012 87 10000 3.6 280 22:57 09.09.2019
2194 Rain 13 1012 93 10000 3.6 290 22:38 09.09.2019
2195 Rain 13 1012 93 10000 3.6 290 22:20 09.09.2019
2196 Rain 13 1012 93 10000 2.6 310 21:57 09.09.2019
2197 Rain 13 1012 93 10000 2.1 290 21:39 09.09.2019
2198 Rain 13 1012 93 10000 1.5 290 21:20 09.09.2019
2199 Rain 14 1012 93 10000 1.5 290 20:56 09.09.2019
2200 Rain 14 1012 93 10000 1.5 330 20:37 09.09.2019
2201 Rain 14 1012 93 10000 1 0 20:19 09.09.2019
2202 Rain 14 1012 93 10000 1 0 20:19 09.09.2019
2203 Rain 14 1012 93 10000 1 0 20:19 09.09.2019
2204 Rain 14 1012 93 10000 1 0 19:58 09.09.2019
2205 -273 0 0 0 0 0 19:39 09.09.2019
2206 Rain 15 1012 82 10000 2.1 30 19:19 09.09.2019
2207 Rain 15 1012 82 10000 2.1 30 18:58 09.09.2019
2208 Rain 15 1012 82 10000 2.6 330 18:40 09.09.2019
2209 Rain 15 1012 82 10000 2.1 350 18:21 09.09.2019
2210 Rain 15 1012 82 10000 2.1 350 17:58 09.09.2019
2211 Rain 16 1012 67 10000 3.1 330 17:40 09.09.2019
2212 Rain 16 1012 67 10000 3.6 320 17:21 09.09.2019
2213 Rain 16 1012 67 10000 3.6 320 16:56 09.09.2019
2214 Rain 17 1011 68 10000 4.1 320 16:38 09.09.2019
2215 Rain 17 1012 63 10000 3.6 330 16:19 09.09.2019
2216 Rain 17 1012 63 10000 3.6 330 15:55 09.09.2019
2217 Rain 17 1012 63 10000 3.6 330 15:55 09.09.2019
2218 Rain 17 1012 63 10000 3.6 330 15:55 09.09.2019
2219 Rain 17 1012 68 10000 3.1 310 15:36 09.09.2019
2220 Rain 17 1012 63 10000 2.6 310 15:18 09.09.2019
2221 Rain 18 1012 63 10000 2.6 310 14:54 09.09.2019
2222 Clouds 18 1013 63 10000 1.5 10 14:36 09.09.2019
2223 Clouds 18 1013 68 10000 2.1 30 14:18 09.09.2019
2224 Clouds 18 1013 67 10000 2.6 360 13:43 09.09.2019
2225 Clear 18 1013 67 10000 1.5 10 13:19 09.09.2019
2226 Clear 18 1013 67 10000 1.5 10 12:57 09.09.2019
2227 Clear 18 1013 72 10000 2.1 20 12:38 09.09.2019
2228 Clear 17 1013 72 10000 2.1 330 12:19 09.09.2019
2229 Clear 17 1014 77 10000 2.1 310 11:46 09.09.2019
2230 Clear 16 1014 82 10000 2.1 330 11:22 09.09.2019
2231 Clear 16 1014 82 10000 2.1 330 10:58 09.09.2019
2232 Clear 15 1014 82 10000 1.5 320 10:40 09.09.2019
2233 Clear 14 1014 82 10000 1.5 320 10:20 09.09.2019
2234 Clear 13 1014 82 10000 0.5 0 09:56 09.09.2019
2235 Clear 13 1014 82 10000 1.5 70 09:37 09.09.2019
2236 Clear 12 1014 93 10000 1 0 09:19 09.09.2019
2237 Clear 11 1015 93 10000 1 0 08:38 09.09.2019
2238 Drizzle 11 1015 93 10000 1 0 08:20 09.09.2019
2239 Drizzle 11 1015 93 10000 1 310 07:46 09.09.2019
2240 Clear 10 1015 100 10000 2.1 320 07:22 09.09.2019
2241 Clear 10 1015 100 10000 2.1 320 06:57 09.09.2019
2242 Clear 10 1015 100 10000 2.1 320 06:35 09.09.2019
2243 Clear 11 1015 100 10000 1.5 310 04:55 09.09.2019
2244 Clear 11 1016 93 10000 1 310 02:54 09.09.2019
2245 Clear 11 1016 93 10000 0.5 0 02:34 09.09.2019
2246 Clear 12 1017 87 10000 1 0 00:43 09.09.2019
2247 Clear 12 1017 82 10000 2.1 60 00:22 09.09.2019
2248 Clear 12 1017 82 10000 2.6 60 23:45 08.09.2019
2249 Clear 12 1017 82 10000 2.6 60 23:24 08.09.2019
2250 Clear 12 1017 87 10000 1 0 23:24 08.09.2019
2251 Clear 12 1017 87 10000 1 0 22:57 08.09.2019
2252 Clear 13 1017 87 10000 1 0 22:38 08.09.2019
2253 Clear 13 1017 87 10000 1 0 22:19 08.09.2019
2254 Clouds 13 1018 82 10000 1 0 21:42 08.09.2019
2255 Clouds 14 1017 77 10000 2.1 310 21:23 08.09.2019
2256 Clouds 14 1017 77 10000 2.1 310 20:59 08.09.2019
2257 Clouds 15 1017 72 10000 2.1 280 20:40 08.09.2019
2258 Clouds 15 1017 72 10000 2.1 280 20:21 08.09.2019
2259 Rain 16 1017 72 10000 1.5 20 19:59 08.09.2019
2260 Rain 16 1017 67 10000 1.5 20 19:38 08.09.2019
2261 Rain 17 1017 59 10000 3.1 70 19:20 08.09.2019
2262 Rain 17 1017 59 10000 3.1 70 18:57 08.09.2019
2263 Clouds 18 1017 59 10000 3.1 60 18:38 08.09.2019
2264 Rain 18 1017 55 10000 3.1 50 18:18 08.09.2019
2265 Rain 19 1017 55 10000 3.1 50 17:56 08.09.2019
2266 Rain 19 1017 63 10000 3.1 20 17:36 08.09.2019
2267 Rain 19 1017 55 10000 3.1 50 17:18 08.09.2019
2268 Clouds 19 1017 55 10000 1.5 0 16:44 08.09.2019
2269 Clouds 19 1017 55 10000 2.1 0 16:22 08.09.2019
2270 Clouds 19 1017 55 10000 2.1 0 15:58 08.09.2019
2271 Clouds 19 1017 55 10000 2.6 320 15:40 08.09.2019
2272 Clouds 19 1017 55 10000 2.6 320 15:21 08.09.2019
2273 Rain 19 1017 59 10000 3.1 310 14:57 08.09.2019
2274 Rain 19 1018 59 10000 1.5 0 14:39 08.09.2019
2275 Rain 18 1018 63 10000 2.1 170 14:20 08.09.2019
2276 Rain 18 1018 63 10000 2.1 170 13:56 08.09.2019
2277 Clouds 18 1018 63 10000 2.1 0 13:37 08.09.2019
2278 Clouds 18 1018 59 10000 2.1 160 13:19 08.09.2019
2279 Clouds 18 1018 63 10000 1 0 12:42 08.09.2019
2280 Clouds 17 1018 63 10000 1 0 12:24 08.09.2019
2281 Clouds 18 1018 67 10000 2.6 120 11:58 08.09.2019
2282 Clouds 18 1018 67 10000 2.1 70 11:40 08.09.2019
2283 Clear 17 1018 72 10000 2.1 90 11:20 08.09.2019
2284 Clear 17 1018 72 10000 2.1 90 10:58 08.09.2019
2285 Clear 16 1018 72 10000 1.5 100 10:40 08.09.2019
2286 Clear 15 1018 72 10000 1.5 100 10:22 08.09.2019
2287 Clear 13 1018 82 10000 0.5 0 09:39 08.09.2019
2288 Clear 12 1018 82 10000 0.5 0 09:21 08.09.2019
2289 Fog 11 1018 100 10000 0.5 0 08:57 08.09.2019
2290 Fog 10 1018 100 10000 1 0 08:39 08.09.2019
2291 Fog 9 1018 100 10000 1 0 08:18 08.09.2019
2292 Fog 9 1018 100 10000 1 0 07:40 08.09.2019
2293 Fog 9 1018 100 10000 1 0 07:21 08.09.2019
2294 Clouds 9 1018 100 10000 0.5 0 06:53 08.09.2019
2295 Clouds 9 1018 100 10000 0.5 0 06:34 08.09.2019
2296 Clouds 9 1017 93 10000 1 360 05:39 08.09.2019
2297 Clouds 10 1017 100 10000 0.5 0 04:27 08.09.2019
2298 Clear 10 1017 93 10000 1.5 320 03:19 08.09.2019
2299 Clear 10 1017 93 10000 1 0 02:36 08.09.2019
2300 Clear 10 1017 93 10000 0.5 0 01:53 08.09.2019
2301 Clouds 11 1018 93 10000 0.5 0 01:26 08.09.2019
2302 Clouds 11 1018 93 10000 0.5 0 00:47 08.09.2019
2303 Clouds 11 1018 87 10000 1 0 00:28 08.09.2019
2304 Clouds 11 1018 87 10000 1 320 23:55 07.09.2019
2305 Clouds 11 1018 87 10000 1 320 23:36 07.09.2019
2306 Clouds 11 1018 87 10000 1 320 23:36 07.09.2019
2307 Clouds 11 1018 100 10000 1 0 23:18 07.09.2019
2308 Clear 12 1018 100 10000 0.5 280 22:42 07.09.2019
2309 Clear 12 1018 100 10000 0.5 280 22:23 07.09.2019
2310 Clear 12 1018 93 10000 0.5 0 21:56 07.09.2019
2311 Clear 13 1017 93 10000 1.5 330 21:38 07.09.2019
2312 Clouds 13 1017 93 10000 1 320 21:19 07.09.2019
2313 Clouds 14 1017 82 10000 1 0 20:39 07.09.2019
2314 Clouds 14 1017 77 10000 1 330 20:21 07.09.2019
2315 Rain 15 1017 77 10000 1 0 19:56 07.09.2019
2316 Rain 15 1017 77 10000 1 0 19:38 07.09.2019
2317 Rain 16 1017 77 10000 1.5 100 19:19 07.09.2019
2318 Rain 16 1017 77 10000 1.5 100 18:58 07.09.2019
2319 Rain 16 1017 77 10000 1.5 100 18:58 07.09.2019
2320 Rain 17 1017 72 10000 2.1 140 18:39 07.09.2019
2321 Rain 18 1017 72 10000 2.1 140 18:20 07.09.2019
2322 Rain 18 1017 72 10000 2.1 140 17:59 07.09.2019
2323 Clouds 18 1016 63 10000 2.1 350 17:39 07.09.2019
2324 Rain 18 1016 63 10000 1.5 240 17:18 07.09.2019
2325 Rain 18 1016 63 10000 1.5 240 16:57 07.09.2019
2326 Rain 18 1016 59 10000 2.1 0 16:39 07.09.2019
2327 Clouds 18 1016 59 10000 3.6 220 16:19 07.09.2019
2328 Clouds 18 1017 59 10000 3.1 230 15:45 07.09.2019
2329 Clouds 18 1017 59 10000 3.1 230 15:26 07.09.2019
2330 Clouds 18 1017 67 10000 4.1 210 14:56 07.09.2019
2331 Clouds 18 1017 67 10000 4.1 210 14:56 07.09.2019
2332 Clouds 18 1017 67 10000 4.1 210 14:36 07.09.2019
2333 Clouds 18 1017 67 10000 3.6 210 14:18 07.09.2019
2334 Clouds 18 1017 67 10000 4.1 190 13:56 07.09.2019
2335 Clouds 18 1017 67 10000 4.1 190 13:38 07.09.2019
2336 Clouds 17 1017 72 10000 3.6 210 13:20 07.09.2019
2337 Clouds 17 1017 72 10000 3.6 220 12:44 07.09.2019
2338 Clouds 17 1017 72 10000 4.1 220 12:25 07.09.2019
2339 Clouds 16 1017 77 10000 3.6 220 11:42 07.09.2019
2340 Clouds 15 1017 72 10000 3.1 200 11:23 07.09.2019
2341 Clouds 15 1017 72 10000 3.1 200 10:59 07.09.2019
2342 Clear 15 1017 77 10000 2.6 210 10:38 07.09.2019
2343 Clear 15 1017 77 10000 2.6 210 10:38 07.09.2019
2344 Clear 14 1017 76 10000 3.6 210 10:19 07.09.2019
2345 Clear 14 1017 82 10000 1.5 210 09:43 07.09.2019
2346 Clear 13 1017 82 10000 1.5 210 09:25 07.09.2019
2347 Clear 12 1016 81 10000 2.1 250 08:59 07.09.2019
2348 Clouds 12 1016 76 10000 3.1 230 08:40 07.09.2019
2349 Clouds 12 1016 76 10000 3.1 230 08:22 07.09.2019
2350 Clear 11 1016 76 10000 3.1 220 07:45 07.09.2019
2351 Clear 11 1016 76 10000 3.1 220 07:25 07.09.2019
2352 Clouds 11 1016 76 10000 3.1 230 06:47 07.09.2019
2353 Clouds 11 1016 76 10000 3.1 230 06:20 07.09.2019
2354 Clouds 12 1016 71 10000 3.6 200 04:48 07.09.2019
2355 Clouds 12 1016 71 10000 3.1 210 04:20 07.09.2019
2356 Clouds 13 1016 66 10000 3.6 220 02:48 07.09.2019
2357 Rain 14 1016 62 10000 4.6 200 01:46 07.09.2019
2358 Rain 14 1017 67 10000 4.6 200 01:21 07.09.2019
2359 Clouds 14 1017 67 10000 4.6 210 00:40 07.09.2019
2360 Rain 14 1017 58 10000 6.7 240 00:19 07.09.2019
2361 Clouds 14 1017 58 10000 4.1 210 23:40 06.09.2019
2362 Clouds 14 1017 62 10000 2.6 220 23:22 06.09.2019
2363 Clouds 14 1017 62 10000 2.6 220 22:58 06.09.2019
2364 Clouds 14 1017 97 0 4.44 200.518 22:38 06.09.2019
2365 Clouds 15 1018 67 10000 2.6 190 22:19 06.09.2019
2366 Clouds 15 1018 67 10000 2.6 190 22:19 06.09.2019
2367 Clouds 15 1018 67 10000 2.6 190 21:57 06.09.2019
2368 Clouds 15 1018 67 10000 3.1 190 21:39 06.09.2019
2369 Clouds 15 1018 67 10000 3.1 190 21:39 06.09.2019
2370 Clouds 15 1018 67 10000 3.1 190 21:39 06.09.2019
2371 Clear 15 1018 67 10000 2.1 180 21:20 06.09.2019
2372 Clear 15 1018 67 10000 2.1 180 20:58 06.09.2019
2373 Clear 15 1018 67 10000 2.6 200 20:39 06.09.2019
2374 Clear 15 1018 67 10000 2.6 200 20:39 06.09.2019
2375 Clouds 15 1018 63 10000 4.1 210 20:21 06.09.2019
2376 Clouds 16 1018 55 10000 5.7 230 19:57 06.09.2019
2377 Clouds 16 1018 55 10000 5.7 230 19:39 06.09.2019
2378 -273 0 0 0 0 0 19:20 06.09.2019
2379 Clouds 16 1019 59 10000 5.7 220 18:46 06.09.2019
2380 Clouds 17 1019 59 10000 6.2 220 18:25 06.09.2019
2381 Clouds 17 1019 59 10000 6.2 220 17:59 06.09.2019
2382 Clouds 17 1019 59 10000 6.2 220 17:59 06.09.2019
2383 Clouds 17 1019 59 10000 7.2 210 17:38 06.09.2019
2384 Clouds 17 1019 59 10000 6.7 220 17:19 06.09.2019
2385 Clouds 18 1020 59 10000 6.7 230 16:41 06.09.2019
2386 Clouds 18 1020 59 10000 7.2 220 16:19 06.09.2019
2387 Clouds 17 1020 59 10000 7.7 220 15:45 06.09.2019
2388 Clouds 17 1020 59 10000 7.7 220 15:27 06.09.2019
2389 Clouds 17 1020 63 10000 7.2 230 14:59 06.09.2019
2390 Clouds 17 1021 63 10000 7.7 210 14:39 06.09.2019
2391 Clouds 17 1021 67 10000 6.7 220 14:18 06.09.2019
2392 Clouds 17 1021 63 10000 8.2 220 13:43 06.09.2019
2393 Clouds 16 1021 67 10000 6.2 230 13:22 06.09.2019
2394 Clouds 16 1021 67 10000 6.2 230 12:41 06.09.2019
2395 Clouds 15 1022 67 10000 6.7 230 12:23 06.09.2019
2396 Clouds 16 1022 67 10000 6.7 230 11:58 06.09.2019
2397 Clouds 15 1021 62 10000 8.2 230 11:40 06.09.2019
2398 Clear 15 1022 67 10000 7.2 230 11:21 06.09.2019
2399 Clear 15 1022 67 10000 7.2 230 10:54 06.09.2019
2400 Clouds 14 1022 67 10000 6.7 230 10:36 06.09.2019
2401 Clear 14 1022 71 10000 5.7 230 10:18 06.09.2019
2402 Clear 12 1022 76 10000 5.1 220 09:38 06.09.2019
2403 Clear 11 1022 76 10000 4.6 240 09:19 06.09.2019
2404 Clear 11 1022 76 10000 4.6 240 08:54 06.09.2019
2405 Clear 10 1022 81 10000 4.6 230 08:36 06.09.2019
2406 Clear 10 1022 81 10000 4.6 230 08:18 06.09.2019
2407 Clear 9 1022 87 10000 3.6 220 07:41 06.09.2019
2408 Clear 9 1022 87 10000 3.6 220 07:22 06.09.2019
2409 Clear 9 1022 87 10000 3.6 220 06:41 06.09.2019
2410 Clear 9 1022 93 10000 3.6 220 05:58 06.09.2019
2411 Clear 9 1022 87 10000 3.6 230 04:56 06.09.2019
2412 Clouds 9 1022 87 10000 3.1 230 04:26 06.09.2019
2413 Clouds 9 1022 87 10000 3.6 250 03:23 06.09.2019
2414 Clouds 9 1021 87 10000 3.1 240 01:31 06.09.2019
2415 Clouds 10 1021 87 10000 3.1 250 00:23 06.09.2019
2416 Rain 10 1021 76 10000 4.6 300 23:43 05.09.2019
2417 Rain 10 1021 76 10000 4.6 300 23:23 05.09.2019
2418 Clouds 11 1020 76 10000 4.1 270 22:47 05.09.2019
2419 Clouds 11 1020 76 10000 4.1 270 22:28 05.09.2019
2420 Rain 12 1020 81 10000 3.6 270 21:58 05.09.2019
2421 Clouds 12 1019 81 10000 3.1 250 21:40 05.09.2019
2422 Clouds 12 1019 81 10000 3.1 250 21:40 05.09.2019
2423 Clouds 12 1019 87 10000 2.6 240 21:21 05.09.2019
2424 Clouds 12 1019 87 10000 2.6 240 20:58 05.09.2019
2425 Rain 13 1018 76 10000 3.1 270 20:40 05.09.2019
2426 Rain 13 1018 76 10000 3.1 270 20:22 05.09.2019
2427 Rain 13 1018 82 10000 3.6 240 20:00 05.09.2019
2428 Rain 14 1018 82 10000 3.6 240 19:41 05.09.2019
2429 Rain 14 1018 82 10000 3.6 240 19:22 05.09.2019
2430 Rain 14 1018 76 10000 4.6 290 18:57 05.09.2019
2431 Rain 14 1018 76 10000 4.6 290 18:57 05.09.2019
2432 Rain 14 1017 82 10000 5.1 260 18:38 05.09.2019
2433 Rain 15 1017 82 10000 5.1 270 18:19 05.09.2019
2434 Rain 16 1016 72 10000 9.3 280 17:41 05.09.2019
2435 Rain 16 1016 72 10000 9.3 280 17:22 05.09.2019
2436 Rain 16 1015 72 10000 8.2 280 16:58 05.09.2019
2437 Rain 16 1015 72 10000 8.2 280 16:58 05.09.2019
2438 Rain 17 1015 59 10000 9.8 280 16:40 05.09.2019
2439 Rain 17 1014 63 10000 7.2 290 16:20 05.09.2019
2440 Rain 17 1014 63 10000 7.2 290 15:56 05.09.2019
2441 Rain 17 1014 67 10000 9.3 290 15:38 05.09.2019
2442 Rain 17 1014 67 10000 9.3 290 15:18 05.09.2019
2443 Rain 17 1014 67 10000 9.3 290 15:18 05.09.2019
2444 Rain 17 1013 72 10000 6.2 280 14:42 05.09.2019
2445 Rain 17 1013 72 10000 6.2 280 14:21 05.09.2019
2446 Clouds 16 1012 77 10000 5.7 280 13:44 05.09.2019
2447 Clouds 16 1012 77 10000 5.7 280 13:23 05.09.2019
2448 Rain 16 1012 87 10000 4.6 280 12:59 05.09.2019
2449 Drizzle 15 1011 82 10000 6.7 250 12:40 05.09.2019
2450 Rain 15 1010 82 10000 9.3 220 12:21 05.09.2019
2451 Rain 14 1010 82 10000 6.7 210 11:44 05.09.2019
2452 Clouds 15 1010 82 10000 7.7 210 11:20 05.09.2019
2453 Clouds 15 1010 82 10000 7.7 220 10:57 05.09.2019
2454 Clouds 15 1010 82 10000 7.7 220 10:36 05.09.2019
2455 Clouds 15 1010 82 10000 7.7 220 10:18 05.09.2019
2456 Clouds 14 1009 82 10000 8.2 210 09:40 05.09.2019
2457 Clouds 14 1010 82 10000 7.2 210 09:20 05.09.2019
2458 Clouds 13 1010 82 10000 7.2 210 08:56 05.09.2019
2459 Clear 13 1010 82 10000 7.2 210 08:37 05.09.2019
2460 Clear 13 1010 82 10000 7.2 210 08:37 05.09.2019
2461 Clear 12 1010 82 10000 6.7 210 08:19 05.09.2019
2462 Clouds 12 1010 87 10000 5.1 200 07:43 05.09.2019
2463 Clouds 12 1010 87 10000 5.1 200 07:24 05.09.2019
2464 Clouds 11 1010 87 10000 3.6 210 06:46 05.09.2019
2465 Clouds 11 1010 87 10000 3.6 210 06:26 05.09.2019
2466 Clear 11 1010 93 10000 2.6 220 05:46 05.09.2019
2467 Clear 12 1010 93 10000 2.6 220 05:27 05.09.2019
2468 Clear 12 1011 93 10000 3.1 220 04:30 05.09.2019
2469 Clouds 13 1010 93 10000 4.1 230 03:52 05.09.2019
2470 Clouds 13 1010 87 10000 3.6 240 02:59 05.09.2019
2471 Clouds 13 1010 87 10000 3.6 240 02:59 05.09.2019
2472 Clouds 14 1010 87 10000 4.1 250 02:38 05.09.2019
2473 Clouds 14 1010 87 10000 4.1 250 02:18 05.09.2019
2474 Clouds 15 1010 87 10000 4.6 240 00:58 05.09.2019
2475 Clouds 15 1010 87 10000 4.6 240 00:40 05.09.2019
2476 Clouds 15 1010 87 10000 5.7 230 00:19 05.09.2019
2477 Clouds 15 1010 87 10000 5.1 220 23:42 04.09.2019
2478 Clouds 16 1010 87 10000 5.1 220 23:23 04.09.2019
2479 Rain 16 1010 93 10000 5.7 220 22:49 04.09.2019
2480 Rain 16 1010 93 10000 5.7 220 22:21 04.09.2019
2481 Rain 16 1010 93 10000 5.1 230 21:58 04.09.2019
2482 Rain 16 1010 93 10000 4.6 210 21:39 04.09.2019
2483 Rain 16 1011 93 10000 3.6 230 21:20 04.09.2019
2484 Rain 16 1011 93 10000 3.6 230 20:55 04.09.2019
2485 Drizzle 16 1011 93 10000 4.1 220 20:37 04.09.2019
2486 Drizzle 16 1011 93 7000 4.6 240 20:18 04.09.2019
2487 Drizzle 17 1011 93 7000 4.6 240 19:44 04.09.2019
2488 Rain 17 1011 72 10000 6.2 250 19:24 04.09.2019
2489 Rain 17 1011 72 10000 6.2 250 18:58 04.09.2019
2490 Rain 18 1010 63 10000 6.2 230 18:38 04.09.2019
2491 Rain 19 1010 60 10000 6.2 220 18:19 04.09.2019
2492 Clear 20 1010 56 10000 6.2 220 17:41 04.09.2019
2493 Clouds 20 1011 56 10000 6.2 210 17:23 04.09.2019
2494 Clouds 20 1011 56 10000 6.2 210 16:58 04.09.2019
2495 Clouds 20 1011 56 10000 7.2 230 16:39 04.09.2019
2496 Clouds 20 1011 56 10000 7.2 230 16:21 04.09.2019
2497 Clouds 20 1011 59 10000 8.2 220 15:55 04.09.2019
2498 Clouds 20 1012 59 10000 7.2 210 15:37 04.09.2019
2499 Clouds 20 1012 52 10000 7.7 200 15:18 04.09.2019
2500 Clouds 20 1012 55 10000 7.7 210 14:54 04.09.2019
2501 Clouds 20 1012 55 10000 7.7 210 14:36 04.09.2019
2502 Clouds 20 1012 55 10000 7.7 210 14:18 04.09.2019
2503 Clouds 19 1013 55 10000 8.2 210 13:39 04.09.2019
2504 Clouds 19 1014 63 10000 7.2 200 13:21 04.09.2019
2505 Clouds 18 1014 68 10000 4.6 210 12:46 04.09.2019
2506 Clouds 18 1014 68 10000 4.6 210 12:27 04.09.2019
2507 Clouds 18 1014 72 10000 4.6 190 11:59 04.09.2019
2508 Clouds 18 1015 72 10000 5.7 200 11:41 04.09.2019
2509 Clouds 17 1015 72 10000 5.7 200 11:21 04.09.2019
2510 Clouds 17 1015 72 10000 5.1 190 10:59 04.09.2019
2511 Clouds 17 1016 72 10000 4.1 180 10:40 04.09.2019
2512 Clear 16 1016 77 10000 3.1 200 10:21 04.09.2019
2513 Clear 15 1016 77 10000 3.6 200 09:46 04.09.2019
2514 Clear 15 1016 77 10000 3.6 200 09:22 04.09.2019
2515 Clear 15 1016 82 10000 3.6 200 08:59 04.09.2019
2516 Clouds 14 1016 82 10000 2.6 190 08:40 04.09.2019
2517 Clouds 14 1017 82 10000 2.1 200 08:21 04.09.2019
2518 Clouds 14 1017 82 10000 2.1 210 07:48 04.09.2019
2519 Clouds 14 1017 82 10000 2.1 210 07:29 04.09.2019
2520 Clouds 14 1017 87 10000 4.1 210 06:39 04.09.2019
2521 Clear 13 1018 87 10000 3.1 210 05:19 04.09.2019
2522 Clear 14 1018 93 10000 2.6 210 04:51 04.09.2019
2523 Clear 14 1019 87 10000 2.1 210 03:45 04.09.2019
2524 Clear 15 1020 93 10000 3.1 230 01:27 04.09.2019
2525 Clear 15 1020 93 10000 3.1 230 01:27 04.09.2019
2526 Clouds 15 1020 87 10000 3.6 220 00:54 04.09.2019
2527 Clouds 15 1020 87 10000 3.6 220 00:32 04.09.2019
2528 Clear 15 1020 82 10000 3.1 240 23:54 03.09.2019
2529 Clear 15 1020 82 10000 3.1 240 23:28 03.09.2019
2530 Rain 16 1020 82 10000 2.6 220 22:59 03.09.2019
2531 Clouds 16 1020 77 10000 3.1 250 22:40 03.09.2019
2532 Clouds 16 1020 77 10000 3.1 250 22:21 03.09.2019
2533 Clouds 16 1020 82 10000 3.1 260 21:56 03.09.2019
2534 Clouds 16 1020 82 10000 3.1 260 21:56 03.09.2019
2535 Clear 16 1020 77 10000 3.6 250 21:37 03.09.2019
2536 Clear 16 1020 77 10000 3.6 250 21:37 03.09.2019
2537 Clouds 16 1020 77 10000 4.6 250 21:19 03.09.2019
2538 Clouds 17 1020 77 10000 4.6 250 20:42 03.09.2019
2539 Rain 17 1020 82 10000 4.1 260 20:24 03.09.2019
2540 Rain 17 1020 82 10000 4.1 260 20:24 03.09.2019
2541 Rain 17 1020 82 10000 4.1 260 19:56 03.09.2019
2542 Clouds 18 1020 77 10000 3.6 260 19:38 03.09.2019
2543 Clouds 18 1020 77 10000 4.1 260 19:19 03.09.2019
2544 Clouds 18 1020 77 10000 4.1 260 18:56 03.09.2019
2545 Clouds 19 1019 72 10000 5.7 270 18:38 03.09.2019
2546 Rain 19 1019 82 10000 4.1 270 18:18 03.09.2019
2547 Rain 19 1019 88 10000 4.6 260 17:41 03.09.2019
2548 Rain 19 1019 72 10000 7.2 240 17:21 03.09.2019
2549 Rain 19 1019 72 10000 7.2 240 16:59 03.09.2019
2550 Rain 19 1019 77 10000 5.7 230 16:39 03.09.2019
2551 Rain 19 1019 82 10000 6.2 230 16:21 03.09.2019
2552 Clouds 18 1019 82 10000 4.6 240 15:41 03.09.2019
2553 Rain 19 1019 88 10000 4.6 240 15:22 03.09.2019
2554 Rain 18 1019 88 10000 4.6 240 14:59 03.09.2019
2555 Clouds 18 1019 77 10000 4.6 230 14:40 03.09.2019
2556 Clouds 18 1019 77 10000 4.6 230 14:40 03.09.2019
2557 Rain 18 1019 82 10000 5.7 230 14:21 03.09.2019
2558 Rain 18 1019 82 10000 5.7 230 13:58 03.09.2019
2559 Clouds 18 1019 77 10000 6.2 230 13:38 03.09.2019
2560 Clouds 17 1019 77 10000 6.2 230 13:38 03.09.2019
2561 Clouds 17 1019 77 10000 6.2 230 13:19 03.09.2019
2562 Clouds 17 1019 82 10000 5.1 240 12:57 03.09.2019
2563 Clouds 17 1019 82 10000 5.1 240 12:38 03.09.2019
2564 Clouds 16 1019 82 10000 6.7 220 12:20 03.09.2019
2565 Drizzle 15 1019 87 9000 6.7 230 11:42 03.09.2019
2566 Drizzle 15 1019 87 9000 6.7 230 11:23 03.09.2019
2567 Drizzle 14 1019 87 9000 6.7 230 10:57 03.09.2019
2568 Drizzle 14 1019 87 9000 6.7 230 10:39 03.09.2019
2569 Drizzle 14 1019 87 9000 6.7 220 10:20 03.09.2019
2570 Drizzle 14 1019 87 9000 6.7 220 09:48 03.09.2019
2571 Clouds 13 1019 87 10000 7.7 220 09:30 03.09.2019
2572 Drizzle 13 1019 87 10000 7.2 220 08:56 03.09.2019
2573 Rain 13 1019 87 10000 7.2 210 08:37 03.09.2019
2574 Rain 13 1019 82 10000 5.1 220 08:19 03.09.2019
2575 Rain 12 1019 82 10000 5.7 210 07:42 03.09.2019
2576 Rain 12 1019 82 10000 5.1 210 07:24 03.09.2019
2577 Rain 12 1019 82 10000 5.1 210 06:45 03.09.2019
2578 Rain 12 1019 82 10000 5.1 210 06:27 03.09.2019
2579 Clear 13 1021 76 10000 3.1 220 03:44 03.09.2019
2580 Clear 12 1021 81 10000 2.1 210 02:47 03.09.2019
2581 Clear 12 1021 81 10000 2.1 210 02:26 03.09.2019
2582 Clear 13 1021 76 10000 3.1 210 01:53 03.09.2019
2583 Clear 13 1021 76 10000 3.1 210 01:34 03.09.2019
2584 Clear 12 1021 81 10000 2.6 210 00:57 03.09.2019
2585 Clear 13 1021 81 10000 2.6 210 00:27 03.09.2019
2586 Clear 13 1022 82 10000 2.6 220 23:41 02.09.2019
2587 Clear 13 1022 82 10000 2.6 220 23:41 02.09.2019
2588 Clear 13 1022 82 10000 2.1 210 23:20 02.09.2019
2589 Clear 13 1022 82 10000 2.1 210 22:58 02.09.2019
2590 Clear 13 1022 82 10000 2.1 210 22:58 02.09.2019
2591 Clear 13 1022 82 10000 2.1 230 22:39 02.09.2019
2592 Clouds 13 1022 82 10000 1.5 220 22:21 02.09.2019
2593 Clouds 13 1022 82 10000 1.5 220 21:58 02.09.2019
2594 Clouds 14 1022 76 10000 2.1 250 21:40 02.09.2019
2595 Clouds 14 1022 76 10000 2.1 250 21:40 02.09.2019
2596 Clouds 14 1022 76 10000 2.1 250 21:40 02.09.2019
2597 Clouds 14 1022 76 10000 2.1 250 21:20 02.09.2019
2598 Clouds 14 1021 76 10000 3.1 230 20:59 02.09.2019
2599 Clouds 15 1021 72 10000 2.6 240 20:40 02.09.2019
2600 Clouds 16 1021 72 10000 2.6 240 20:21 02.09.2019
2601 Clouds 16 1021 72 10000 2.6 240 19:57 02.09.2019
2602 Clouds 17 1021 67 10000 4.1 230 19:39 02.09.2019
2603 Clouds 17 1021 63 10000 4.1 250 19:21 02.09.2019
2604 Rain 17 1021 59 10000 4.1 250 18:41 02.09.2019
2605 Rain 18 1021 63 10000 4.1 250 18:23 02.09.2019
2606 Rain 18 1021 63 10000 4.1 250 17:59 02.09.2019
2607 Clouds 18 1021 63 10000 4.6 250 17:40 02.09.2019
2608 Rain 18 1021 63 10000 4.6 250 17:21 02.09.2019
2609 Rain 18 1021 63 10000 5.1 240 16:59 02.09.2019
2610 Rain 18 1021 59 10000 4.6 260 16:38 02.09.2019
2611 Rain 18 1021 59 10000 5.1 270 16:20 02.09.2019
2612 Rain 18 1021 59 10000 5.7 270 15:45 02.09.2019
2613 Rain 19 1021 59 10000 5.7 270 15:27 02.09.2019
2614 Rain 19 1021 59 10000 5.7 270 15:27 02.09.2019
2615 Rain 18 1021 72 10000 3.6 260 14:58 02.09.2019
2616 Clouds 18 1021 72 10000 3.6 270 14:39 02.09.2019
2617 Rain 17 1021 82 10000 4.1 270 14:21 02.09.2019
2618 Rain 17 1021 82 10000 4.1 270 13:56 02.09.2019
2619 Rain 17 1021 82 10000 3.1 250 13:37 02.09.2019
2620 Rain 17 1021 71 9000 6.2 360 13:19 02.09.2019
2621 Rain 17 1020 63 10000 7.2 280 12:45 02.09.2019
2622 Rain 16 1020 59 10000 5.1 260 12:25 02.09.2019
2623 Rain 17 1020 59 10000 5.1 260 11:59 02.09.2019
2624 Clear 17 1020 59 10000 5.7 270 11:39 02.09.2019
2625 Clear 17 1020 59 10000 5.7 270 11:21 02.09.2019
2626 Clear 16 1019 72 10000 5.7 240 10:57 02.09.2019
2627 Clear 16 1019 72 10000 5.7 240 10:38 02.09.2019
2628 Clear 16 1019 72 10000 4.6 260 10:20 02.09.2019
2629 Clear 15 1019 72 10000 4.6 260 09:55 02.09.2019
2630 Clear 14 1019 76 10000 4.1 240 09:37 02.09.2019
2631 Clear 13 1018 82 10000 4.6 230 09:18 02.09.2019
2632 Clear 13 1018 87 10000 2.6 230 08:39 02.09.2019
2633 Clear 12 1018 87 10000 2.6 230 08:39 02.09.2019
2634 Clear 12 1018 87 10000 2.6 230 08:39 02.09.2019
2635 Clear 12 1018 87 10000 2.6 230 08:18 02.09.2019
2636 Clear 11 1018 81 10000 1.5 260 07:41 02.09.2019
2637 Clear 11 1018 81 10000 1.5 260 07:21 02.09.2019
2638 Clouds 11 1018 87 10000 2.1 220 06:48 02.09.2019
2639 Clouds 11 1018 87 10000 2.1 220 06:29 02.09.2019
2640 Clear 11 1017 87 10000 1.5 210 05:49 02.09.2019
2641 Clear 11 1017 87 10000 1.5 210 05:19 02.09.2019
2642 Clear 11 1017 87 10000 2.6 230 04:33 02.09.2019
2643 Clear 12 1016 87 10000 2.1 220 01:48 02.09.2019
2644 Clear 12 1016 87 10000 2.1 240 00:53 02.09.2019
2645 Clear 13 1016 87 10000 2.1 240 00:32 02.09.2019
2646 Clouds 13 1016 82 10000 2.6 250 23:48 01.09.2019
2647 Clear 13 1015 87 10000 1.5 240 23:23 01.09.2019
2648 Clear 13 1015 87 10000 1.5 240 22:59 01.09.2019
2649 Clear 13 1015 87 10000 1.5 240 22:59 01.09.2019
2650 Clear 14 1015 82 10000 1.5 230 22:40 01.09.2019
2651 Clear 14 1015 82 10000 2.1 250 22:20 01.09.2019
2652 Clear 14 1015 82 10000 2.1 250 21:59 01.09.2019
2653 Clear 15 1015 77 10000 2.1 280 21:40 01.09.2019
2654 Clouds 15 1015 67 10000 2.6 300 21:22 01.09.2019
2655 Clouds 16 1015 67 10000 2.6 300 20:57 01.09.2019
2656 Clouds 16 1015 67 10000 2.6 300 20:38 01.09.2019
2657 Clouds 17 1015 63 10000 4.6 300 20:19 01.09.2019
2658 Clouds 17 1015 63 10000 4.6 300 19:58 01.09.2019
2659 Clouds 17 1014 59 10000 5.1 290 19:39 01.09.2019
2660 Clouds 18 1014 59 10000 5.1 290 19:20 01.09.2019
2661 Clouds 18 1014 59 10000 7.2 310 18:44 01.09.2019
2662 Clouds 19 1013 59 10000 7.2 300 18:26 01.09.2019
2663 Clouds 19 1013 59 10000 7.2 300 17:58 01.09.2019
2664 Clouds 19 1013 55 10000 4.6 310 17:39 01.09.2019
2665 Clouds 19 1013 55 10000 4.6 300 17:20 01.09.2019
2666 Clouds 20 1013 52 10000 4.6 300 16:41 01.09.2019
2667 Clouds 20 1013 52 10000 5.7 290 16:21 01.09.2019
2668 Clouds 20 1013 52 10000 5.7 290 15:59 01.09.2019
2669 Clouds 20 1012 63 10000 5.1 290 15:41 01.09.2019
2670 Clouds 20 1012 68 10000 6.2 300 15:22 01.09.2019
2671 Clouds 20 1012 72 10000 5.1 310 14:44 01.09.2019
2672 Rain 20 1012 82 10000 6.2 300 14:26 01.09.2019
2673 Rain 19 1012 82 10000 6.2 300 13:59 01.09.2019
2674 Clouds 19 1012 82 10000 4.1 290 13:40 01.09.2019
2675 Clouds 19 1012 82 10000 4.1 290 13:21 01.09.2019
2676 Rain 20 1011 77 10000 7.7 310 12:44 01.09.2019
2677 Rain 20 1011 77 10000 7.7 310 12:26 01.09.2019
2678 Rain 20 1010 82 10000 5.7 270 11:57 01.09.2019
2679 Rain 21 1010 73 10000 4.6 280 11:38 01.09.2019
2680 Clouds 21 1010 77 10000 4.1 270 11:18 01.09.2019
2681 Rain 21 1010 77 10000 4.1 260 10:45 01.09.2019
2682 Rain 21 1010 77 10000 4.1 260 10:23 01.09.2019
2683 Clouds 20 1009 82 10000 3.6 280 09:47 01.09.2019
2684 Clouds 20 1009 82 10000 3.6 280 09:26 01.09.2019
2685 Clouds 19 1008 88 10000 2.6 270 08:56 01.09.2019
2686 Clouds 18 1008 88 9000 2.1 270 08:38 01.09.2019
2687 Clouds 18 1008 88 9000 2.1 270 08:20 01.09.2019
2688 Clear 18 1007 88 10000 3.1 280 07:41 01.09.2019
2689 Clear 18 1007 88 10000 3.1 280 07:20 01.09.2019
2690 Clear 18 1007 88 10000 2.6 260 06:38 01.09.2019
2691 Clear 18 1007 82 10000 2.1 310 05:59 01.09.2019
2692 Clear 19 1007 82 10000 1.5 0 04:43 01.09.2019
2693 Clouds 20 1007 72 10000 2.6 290 03:49 01.09.2019
2694 Clouds 20 1007 72 10000 2.6 290 03:30 01.09.2019
2695 Clouds 21 1008 64 10000 7.2 280 02:40 01.09.2019
2696 Clear 21 1006 69 10000 3.6 150 02:19 01.09.2019
2697 Clouds 21 1006 64 10000 3.6 150 01:29 01.09.2019
2698 Clouds 22 1006 64 10000 3.6 150 00:57 01.09.2019
2699 Clouds 22 1006 64 10000 3.6 150 00:38 01.09.2019
2700 Clouds 22 1006 69 10000 3.6 140 00:19 01.09.2019
2701 Clouds 22 1007 64 10000 2.6 100 23:41 31.08.2019
2702 Clear 22 1008 73 10000 1 0 23:21 31.08.2019
2703 Clear 22 1008 73 10000 1 0 22:55 31.08.2019
2704 Clear 22 1008 73 10000 1.5 60 22:37 31.08.2019
2705 Clear 23 1008 73 10000 1.5 60 22:19 31.08.2019
2706 Clouds 23 1009 73 10000 0.5 0 21:44 31.08.2019
2707 Clear 24 1009 78 10000 0.5 0 21:23 31.08.2019
2708 Clear 25 1009 78 10000 0.5 0 20:59 31.08.2019
2709 Clear 26 1009 65 10000 2.1 160 20:41 31.08.2019
2710 Clear 26 1009 65 10000 2.1 160 20:23 31.08.2019
2711 Clear 28 1009 40 10000 3.6 160 19:43 31.08.2019
2712 Clear 29 1009 40 10000 3.6 160 19:23 31.08.2019
2713 Clear 29 1010 40 10000 5.1 160 18:58 31.08.2019
2714 Clear 30 1010 40 10000 5.1 160 18:38 31.08.2019
2715 Clear 30 1010 40 10000 4.6 180 18:19 31.08.2019
2716 Clear 30 1011 40 10000 6.2 170 17:55 31.08.2019
2717 Clear 30 1011 40 10000 6.2 170 17:37 31.08.2019
2718 Clear 30 1011 40 10000 6.2 170 17:37 31.08.2019
2719 Clear 31 1011 38 10000 6.2 170 17:18 31.08.2019
2720 Clear 31 1011 35 10000 4.6 180 16:55 31.08.2019
2721 Clear 31 1011 35 10000 4.6 180 16:37 31.08.2019
2722 Clear 30 1012 40 10000 4.1 190 16:18 31.08.2019
2723 Clear 30 1013 40 10000 5.7 160 15:41 31.08.2019
2724 Clear 30 1013 45 10000 5.1 170 15:19 31.08.2019
2725 Clear 29 1013 45 10000 5.1 170 14:55 31.08.2019
2726 Clear 29 1014 45 10000 4.6 150 14:36 31.08.2019
2727 Clear 29 1014 45 10000 4.6 150 14:18 31.08.2019
2728 Clear 28 1014 51 10000 4.1 130 13:40 31.08.2019
2729 Clear 27 1015 54 10000 4.6 120 13:21 31.08.2019
2730 Clear 27 1015 54 10000 4.1 110 12:57 31.08.2019
2731 Clear 27 1015 54 10000 4.1 110 12:38 31.08.2019
2732 Clear 26 1016 57 10000 3.1 110 12:19 31.08.2019
2733 Clear 25 1016 57 10000 3.1 120 11:46 31.08.2019
2734 Clear 25 1016 57 10000 3.1 120 11:28 31.08.2019
2735 Clear 25 1016 60 10000 2.6 110 10:58 31.08.2019
2736 Clear 23 1017 68 10000 2.6 110 10:40 31.08.2019
2737 Clear 23 1017 68 10000 2.6 110 10:19 31.08.2019
2738 Clear 22 1017 68 10000 1.5 100 09:54 31.08.2019
2739 Clear 19 1017 77 10000 1 0 09:36 31.08.2019
2740 Clear 18 1017 82 10000 2.1 80 09:18 31.08.2019
2741 Clear 16 1017 87 10000 1.5 60 08:41 31.08.2019
2742 Clear 16 1017 87 10000 1.5 60 08:41 31.08.2019
2743 Clear 15 1018 87 10000 1.5 70 08:22 31.08.2019
2744 Fog 15 1018 100 10000 1 0 07:40 31.08.2019
2745 Fog 14 1018 100 10000 1 0 07:20 31.08.2019
2746 Fog 13 1018 93 10000 1.5 80 06:28 31.08.2019
2747 Fog 14 1018 93 10000 1 80 05:55 31.08.2019
2748 Fog 14 1019 100 10000 1 0 05:30 31.08.2019
2749 Fog 14 1019 93 10000 0.5 0 04:30 31.08.2019
2750 Clear 15 1020 93 10000 0.5 0 03:44 31.08.2019
2751 Fog 15 1020 93 10000 0.5 0 02:30 31.08.2019
2752 Clouds 15 1020 87 10000 0.5 130 01:52 31.08.2019
2753 Clouds 15 1020 87 10000 0.5 130 01:31 31.08.2019
2754 Clear 16 1021 93 10000 1 60 00:49 31.08.2019
2755 Clear 16 1021 93 10000 1 0 00:28 31.08.2019
2756 Clear 16 1021 88 10000 0.5 0 23:57 30.08.2019
2757 Clear 16 1021 88 10000 0.5 0 23:38 30.08.2019
2758 Clear 17 1021 88 10000 0.5 0 23:18 30.08.2019
2759 Clear 17 1021 88 10000 0.5 0 23:18 30.08.2019
2760 Clear 17 1021 77 10000 0.5 40 22:40 30.08.2019
2761 Clear 18 1021 82 10000 0.5 0 22:22 30.08.2019
2762 Clear 18 1021 82 10000 0.5 0 21:58 30.08.2019
2763 Clear 18 1021 82 10000 0.5 0 21:58 30.08.2019
2764 Clear 19 1021 88 10000 0.5 0 21:38 30.08.2019
2765 Clear 20 1021 72 10000 2.1 310 21:19 30.08.2019
2766 Clear 20 1021 72 10000 2.1 310 21:19 30.08.2019
2767 Clear 20 1021 72 10000 2.1 310 20:58 30.08.2019
2768 Clear 21 1021 60 10000 1.5 330 20:39 30.08.2019
2769 Clouds 22 1021 56 10000 1.5 320 20:20 30.08.2019
2770 Clouds 22 1021 56 10000 1.5 320 19:57 30.08.2019
2771 Clouds 22 1021 56 10000 1.5 320 19:57 30.08.2019
2772 Clouds 22 1021 56 10000 1.5 320 19:57 30.08.2019
2773 Clouds 23 1021 56 10000 1.5 320 19:39 30.08.2019
2774 Clouds 23 1021 53 10000 1 270 19:19 30.08.2019
2775 Clouds 24 1021 53 10000 3.1 250 18:54 30.08.2019
2776 Clouds 24 1021 53 10000 3.1 250 18:36 30.08.2019
2777 Clouds 24 1021 53 10000 3.6 260 18:18 30.08.2019
2778 Clouds 25 1021 53 10000 5.1 240 17:55 30.08.2019
2779 Clouds 24 1021 53 10000 5.1 240 17:37 30.08.2019
2780 Clouds 25 1021 53 10000 5.1 240 17:18 30.08.2019
2781 Clouds 25 1022 53 10000 4.1 250 16:43 30.08.2019
2782 Clouds 25 1022 53 10000 4.1 230 16:22 30.08.2019
2783 Clouds 25 1022 50 10000 3.6 250 15:45 30.08.2019
2784 Clouds 25 1022 50 10000 3.6 250 15:45 30.08.2019
2785 Clouds 25 1022 53 10000 3.6 230 15:25 30.08.2019
2786 Clouds 25 1022 53 10000 3.6 230 14:58 30.08.2019
2787 Clouds 24 1022 53 10000 4.1 250 14:40 30.08.2019
2788 Clouds 24 1022 53 10000 3.1 240 14:22 30.08.2019
2789 Clouds 24 1022 53 10000 4.1 250 13:43 30.08.2019
2790 Clouds 23 1022 56 10000 5.7 230 13:23 30.08.2019
2791 Clouds 23 1022 56 10000 5.7 230 12:58 30.08.2019
2792 Clouds 23 1022 64 10000 5.7 220 12:40 30.08.2019
2793 Clouds 22 1022 60 10000 4.6 220 12:21 30.08.2019
2794 Clouds 22 1022 60 10000 4.6 220 12:21 30.08.2019
2795 Clouds 22 1022 73 10000 4.6 230 11:42 30.08.2019
2796 Clouds 22 1022 73 10000 4.6 230 11:24 30.08.2019
2797 Clouds 21 1022 77 10000 0.5 0 10:42 30.08.2019
2798 Clouds 20 1022 77 10000 0.5 0 10:23 30.08.2019
2799 Clouds 19 1022 82 10000 1.5 200 09:58 30.08.2019
2800 Clouds 18 1022 88 10000 1.5 170 09:40 30.08.2019
2801 Fog 18 1022 93 10000 1 0 09:19 30.08.2019
2802 Fog 17 1022 93 10000 1 0 08:56 30.08.2019
2803 Fog 16 1022 100 10000 0.5 50 08:38 30.08.2019
2804 Fog 16 1022 100 10000 0.5 50 08:20 30.08.2019
2805 Fog 15 1022 100 9000 0.51 231.13 07:40 30.08.2019
2806 Fog 15 1021 93 8000 0.5 340 07:21 30.08.2019
2807 Fog 14 1021 93 10000 1 330 06:47 30.08.2019
2808 Fog 14 1021 93 10000 1 330 06:28 30.08.2019
2809 Fog 14 1021 100 10000 0.5 110 05:46 30.08.2019
2810 Fog 15 1021 100 10000 0.5 310 03:59 30.08.2019
2811 Fog 16 1021 93 10000 0.5 0 03:38 30.08.2019
2812 Fog 15 1021 93 10000 0.5 0 03:38 30.08.2019
2813 Clouds 16 1021 100 10000 0.5 0 03:18 30.08.2019
2814 Clouds 16 1021 93 10000 0.5 0 02:29 30.08.2019
2815 Clouds 16 1021 93 10000 0.5 0 01:29 30.08.2019
2816 Clouds 16 1021 100 10000 1 330 00:45 30.08.2019
2817 Clear 16 1020 93 10000 1.5 320 00:18 30.08.2019
2818 Clear 17 1020 93 10000 1 300 23:41 29.08.2019
2819 Clear 17 1020 93 10000 1 300 23:21 29.08.2019
2820 Clear 18 1020 88 10000 1.5 330 22:44 29.08.2019
2821 Clear 18 1020 88 10000 1.5 330 22:26 29.08.2019
2822 Clouds 19 1020 82 10000 2.1 330 21:57 29.08.2019
2823 Clouds 19 1020 77 10000 1.5 330 21:39 29.08.2019
2824 Clouds 20 1019 73 10000 3.6 310 21:21 29.08.2019
2825 Clouds 20 1019 73 10000 3.6 310 21:21 29.08.2019
2826 Clouds 20 1019 73 10000 3.6 310 21:21 29.08.2019
2827 Clouds 20 1019 73 10000 3.6 310 20:56 29.08.2019
2828 Clouds 21 1019 73 10000 3.6 310 20:37 29.08.2019
2829 Clouds 21 1019 68 10000 4.1 310 20:37 29.08.2019
2830 Clouds 22 1019 68 10000 4.1 310 20:18 29.08.2019
2831 Clouds 22 1018 60 10000 3.6 310 19:46 29.08.2019
2832 Clouds 23 1018 56 10000 2.6 290 19:25 29.08.2019
2833 Clouds 23 1018 57 10000 2.6 270 18:57 29.08.2019
2834 Clouds 24 1018 53 10000 3.1 280 18:38 29.08.2019
2835 Clouds 24 1018 53 10000 3.1 280 18:18 29.08.2019
2836 Clouds 24 1018 53 10000 4.1 280 17:54 29.08.2019
2837 Clouds 24 1018 53 10000 4.1 280 17:54 29.08.2019
2838 Clouds 24 1018 53 10000 4.1 280 17:36 29.08.2019
2839 Clouds 24 1018 53 10000 5.7 280 17:18 29.08.2019
2840 Clouds 24 1018 53 10000 5.7 280 17:18 29.08.2019
2841 Clouds 24 1018 53 10000 5.7 280 17:18 29.08.2019
2842 Clouds 24 1018 64 10000 6.7 280 16:41 29.08.2019
2843 Clouds 24 1018 64 10000 6.7 280 16:23 29.08.2019
2844 Clouds 24 1018 60 10000 5.1 250 15:41 29.08.2019
2845 Clouds 24 1017 65 10000 4.1 260 15:22 29.08.2019
2846 Clouds 24 1017 65 10000 4.1 260 15:22 29.08.2019
2847 Clouds 24 1017 65 10000 4.1 260 14:59 29.08.2019
2848 Clouds 23 1017 69 10000 5.1 240 14:41 29.08.2019
2849 Clouds 23 1017 73 10000 5.7 240 14:20 29.08.2019
2850 Clouds 23 1017 73 10000 5.7 240 13:57 29.08.2019
2851 Clouds 23 1017 73 10000 5.1 260 13:39 29.08.2019
2852 Clouds 23 1017 78 10000 6.2 230 13:19 29.08.2019
2853 Clouds 22 1017 78 10000 6.2 230 12:56 29.08.2019
2854 Clouds 22 1017 73 10000 5.7 230 12:38 29.08.2019
2855 Clouds 21 1017 83 10000 5.7 230 12:20 29.08.2019
2856 Clouds 21 1016 83 8000 4.1 230 11:56 29.08.2019
2857 Clouds 21 1016 83 8000 4.1 230 11:36 29.08.2019
2858 Rain 20 1016 83 8000 3.6 210 11:18 29.08.2019
2859 Mist 20 1016 94 5000 2.6 170 10:41 29.08.2019
2860 Mist 19 1016 94 5000 2.6 170 10:22 29.08.2019
2861 Rain 19 1016 93 3500 3.6 180 09:42 29.08.2019
2862 Rain 19 1016 93 4000 3.6 230 09:20 29.08.2019
2863 Rain 19 1016 93 4000 3.6 230 08:56 29.08.2019
2864 Rain 19 1015 93 6000 2.1 230 08:37 29.08.2019
2865 Mist 19 1015 93 7000 1.5 260 08:19 29.08.2019
2866 Rain 18 1015 88 9000 2.1 270 07:43 29.08.2019
2867 Rain 18 1015 88 9000 2.1 270 07:25 29.08.2019
2868 Clear 18 1014 93 10000 1 0 06:43 29.08.2019
2869 Fog 18 1014 93 10000 1 210 06:21 29.08.2019
2870 Fog 18 1014 93 10000 1.5 220 05:41 29.08.2019
2871 Clear 18 1014 88 10000 1.5 240 04:50 29.08.2019
2872 Clear 18 1014 88 10000 1.5 240 04:29 29.08.2019
2873 Clear 19 1014 88 10000 2.6 190 02:49 29.08.2019
2874 Clear 19 1014 88 10000 1 0 01:49 29.08.2019
2875 Clear 19 1014 88 10000 1 0 01:30 29.08.2019
2876 Clear 19 1014 88 10000 2.1 300 00:40 29.08.2019
2877 Rain 19 1014 88 10000 1.5 0 00:20 29.08.2019
2878 Rain 20 1014 88 10000 3.1 330 23:43 28.08.2019
2879 Rain 20 1014 88 10000 3.1 330 23:24 28.08.2019
2880 Thunderstorm 20 1015 83 10000 2.1 310 22:59 28.08.2019
2881 Thunderstorm 21 1015 83 10000 2.1 310 22:39 28.08.2019
2882 Thunderstorm 21 1014 78 10000 1 0 22:18 28.08.2019
2883 Thunderstorm 22 1014 78 10000 1 0 21:57 28.08.2019
2884 Rain 24 1014 57 10000 3.6 170 21:39 28.08.2019
2885 Thunderstorm 25 1013 57 10000 5.7 210 21:20 28.08.2019
2886 Clouds 25 1012 69 10000 1 0 20:42 28.08.2019
2887 Clear 27 1012 65 10000 0.5 0 20:24 28.08.2019
2888 Clear 27 1012 65 10000 0.5 0 19:59 28.08.2019
2889 Clear 28 1012 65 10000 0.5 0 19:39 28.08.2019
2890 Clear 29 1011 48 10000 1.5 320 19:21 28.08.2019
2891 Clear 31 1011 45 10000 1 0 18:42 28.08.2019
2892 Clear 31 1012 40 10000 1 0 18:22 28.08.2019
2893 Clear 31 1012 40 10000 1 0 17:59 28.08.2019
2894 Clear 31 1012 38 10000 1.5 230 17:37 28.08.2019
2895 Clear 31 1012 45 10000 2.1 220 17:19 28.08.2019
2896 Clear 31 1012 45 10000 2.1 250 16:43 28.08.2019
2897 Clear 31 1012 45 10000 2.6 250 16:19 28.08.2019
2898 Clear 31 1012 45 10000 2.6 250 15:59 28.08.2019
2899 Clear 31 1012 45 10000 2.6 240 15:37 28.08.2019
2900 Clear 32 1012 45 10000 2.6 240 15:19 28.08.2019
2901 Clear 31 1012 48 10000 2.6 210 14:56 28.08.2019
2902 Clear 31 1012 51 10000 2.6 170 14:37 28.08.2019
2903 Clear 31 1012 51 10000 2.6 170 14:37 28.08.2019
2904 Clear 31 1012 54 10000 3.1 180 14:19 28.08.2019
2905 Clear 30 1012 54 10000 3.1 160 13:57 28.08.2019
2906 Clear 30 1012 54 10000 3.1 160 13:37 28.08.2019
2907 Clear 30 1012 51 10000 3.1 180 13:18 28.08.2019
2908 Clear 29 1012 54 10000 2.6 150 12:41 28.08.2019
2909 Clear 29 1012 54 10000 2.6 150 12:23 28.08.2019
2910 Clear 29 1012 54 10000 2.6 150 12:23 28.08.2019
2911 Clear 27 1013 61 10000 2.1 170 11:54 28.08.2019
2912 Clear 27 1013 61 10000 2.1 170 11:36 28.08.2019
2913 Clear 27 1013 65 10000 3.1 170 11:18 28.08.2019
2914 Clear 25 1013 69 10000 2.6 150 10:41 28.08.2019
2915 Clear 25 1013 69 10000 2.6 150 10:21 28.08.2019
2916 Clear 24 1013 69 10000 2.6 160 09:59 28.08.2019
2917 Clear 23 1013 73 10000 2.6 160 09:40 28.08.2019
2918 Clear 21 1013 78 10000 2.6 150 09:19 28.08.2019
2919 Clear 21 1013 83 10000 1.5 140 08:39 28.08.2019
2920 Clear 20 1013 88 10000 2.1 130 08:20 28.08.2019
2921 Clear 20 1013 82 10000 1.5 110 07:43 28.08.2019
2922 Clear 20 1013 82 10000 1.5 110 07:24 28.08.2019
2923 Clear 20 1013 82 10000 2.1 100 06:55 28.08.2019
2924 Clear 19 1013 88 10000 1 0 06:37 28.08.2019
2925 Clear 19 1014 93 10000 1 0 05:44 28.08.2019
2926 Clear 20 1014 88 10000 2.1 120 03:32 28.08.2019
2927 Clear 21 1015 88 10000 3.1 110 01:50 28.08.2019
2928 Clear 21 1015 88 10000 3.1 110 01:29 28.08.2019
2929 Fog 21 1015 94 10000 1 70 00:41 28.08.2019
2930 Clear 21 1015 88 10000 1 0 00:18 28.08.2019
2931 Clear 22 1015 83 10000 1.5 70 23:40 27.08.2019
2932 Clear 22 1015 83 10000 1.5 70 23:40 27.08.2019
2933 Clear 21 1015 94 10000 2.1 80 23:21 27.08.2019
2934 Clear 22 1015 94 10000 2.1 80 22:57 27.08.2019
2935 Clear 22 1015 100 10000 1.5 40 22:38 27.08.2019
2936 Clouds 22 1015 88 10000 2.6 60 22:20 27.08.2019
2937 Clouds 23 1015 88 10000 2.6 60 21:55 27.08.2019
2938 Rain 23 1015 94 10000 2.1 30 21:37 27.08.2019
2939 Rain 23 1015 94 10000 2.1 50 21:18 27.08.2019
2940 Rain 23 1015 100 10000 2.1 360 20:42 27.08.2019
2941 Rain 24 1015 94 10000 0.5 0 20:21 27.08.2019
2942 Rain 23 1015 94 10000 0.5 0 19:58 27.08.2019
2943 Thunderstorm 23 1015 83 10000 3.1 30 19:40 27.08.2019
2944 Thunderstorm 25 1015 83 10000 3.1 30 19:22 27.08.2019
2945 Thunderstorm 25 1015 88 10000 8.7 250 18:54 27.08.2019
2946 Thunderstorm 29 1014 38 10000 1.5 0 18:36 27.08.2019
2947 Thunderstorm 30 1015 48 10000 8.2 70 18:18 27.08.2019
2948 Clear 31 1015 38 10000 3.1 110 17:42 27.08.2019
2949 Clear 31 1015 40 10000 2.6 60 17:22 27.08.2019
2950 Clear 31 1015 43 10000 4.1 90 16:48 27.08.2019
2951 Clear 31 1015 43 10000 4.1 90 16:28 27.08.2019
2952 Clear 31 1015 43 10000 4.1 90 16:28 27.08.2019
2953 Clear 31 1016 43 10000 3.6 70 15:58 27.08.2019
2954 Clear 31 1016 45 10000 4.1 100 15:40 27.08.2019
2955 Clear 31 1016 45 10000 4.1 100 15:21 27.08.2019
2956 Clear 31 1016 45 10000 4.1 140 14:58 27.08.2019
2957 Clear 31 1017 45 10000 3.6 90 14:39 27.08.2019
2958 Clear 31 1017 45 10000 3.6 90 14:19 27.08.2019
2959 Clear 30 1017 45 10000 4.1 110 13:42 27.08.2019
2960 Clear 30 1017 45 10000 4.1 110 13:22 27.08.2019
2961 Clear 29 1018 48 10000 3.6 80 12:55 27.08.2019
2962 Clear 28 1018 51 10000 3.1 80 12:36 27.08.2019
2963 Clear 28 1018 51 10000 2.6 100 12:18 27.08.2019
2964 Clear 28 1018 51 10000 2.6 100 12:18 27.08.2019
2965 Clear 27 1018 57 10000 3.1 100 11:43 27.08.2019
2966 Clear 26 1018 57 10000 2.6 100 11:23 27.08.2019
2967 Clear 25 1018 61 10000 3.6 110 10:42 27.08.2019
2968 Clear 24 1018 64 10000 3.6 110 10:20 27.08.2019
2969 Clear 24 1018 64 10000 3.6 110 09:58 27.08.2019
2970 Clear 22 1018 69 10000 1 0 09:38 27.08.2019
2971 Clear 21 1018 77 10000 0.5 0 09:20 27.08.2019
2972 Clear 20 1018 88 10000 2.1 70 08:48 27.08.2019
2973 Clear 19 1018 88 10000 1.5 60 08:27 27.08.2019
2974 Clear 19 1018 88 10000 1.5 60 07:59 27.08.2019
2975 Clear 18 1018 88 10000 2.1 70 07:39 27.08.2019
2976 Clear 18 1018 82 10000 1 0 07:19 27.08.2019
2977 Clear 18 1018 82 10000 1.5 60 06:50 27.08.2019
2978 Clear 18 1018 82 10000 1.5 60 06:22 27.08.2019
2979 Clear 18 1018 88 10000 1.5 50 05:36 27.08.2019
2980 Clear 18 1018 88 10000 1 0 04:33 27.08.2019
2981 Clear 19 1018 82 10000 1.5 60 03:33 27.08.2019
2982 Clear 20 1018 82 10000 1 0 02:23 27.08.2019
2983 Clear 20 1018 77 10000 3.1 60 01:40 27.08.2019
2984 Clear 21 1018 77 10000 2.1 60 00:58 27.08.2019
2985 Clear 21 1018 77 10000 2.1 60 00:39 27.08.2019
2986 Clear 21 1019 68 10000 2.6 60 00:19 27.08.2019
2987 Clear 22 1019 64 10000 3.6 60 23:37 26.08.2019
2988 Clear 22 1019 64 10000 3.6 50 23:19 26.08.2019
2989 Clear 22 1018 60 10000 4.1 60 22:39 26.08.2019
2990 Clear 23 1018 60 10000 4.1 60 22:19 26.08.2019
2991 Clear 23 1018 57 10000 3.6 50 21:58 26.08.2019
2992 Clear 24 1018 53 10000 3.1 50 21:38 26.08.2019
2993 Clear 24 1018 53 10000 3.1 50 21:19 26.08.2019
2994 Clear 26 1018 50 10000 3.6 50 20:56 26.08.2019
2995 Clear 26 1018 50 10000 3.6 50 20:37 26.08.2019
2996 Clear 26 1018 50 10000 3.6 50 20:37 26.08.2019
2997 Clear 27 1018 47 10000 4.1 50 20:18 26.08.2019
2998 Clear 27 1018 45 10000 4.1 50 19:43 26.08.2019
2999 Clear 28 1018 42 10000 4.1 40 19:19 26.08.2019
3000 Clear 28 1018 40 10000 4.6 50 18:58 26.08.2019
3001 Clear 29 1018 33 10000 3.6 70 18:38 26.08.2019
3002 Clear 30 1018 33 10000 3.6 70 18:19 26.08.2019
3003 Clear 31 1018 33 10000 4.6 90 17:44 26.08.2019
3004 Clear 31 1018 33 10000 3.1 70 17:20 26.08.2019
3005 Clear 31 1018 33 10000 3.1 130 16:58 26.08.2019
3006 Clear 31 1018 33 10000 3.1 130 16:40 26.08.2019
3007 Clear 31 1018 33 10000 3.1 130 16:40 26.08.2019
3008 Clear 31 1019 33 10000 4.1 100 16:19 26.08.2019
3009 Clear 31 1019 33 10000 4.6 90 15:59 26.08.2019
3010 Clear 31 1019 33 10000 4.6 90 15:41 26.08.2019
3011 Clear 31 1019 33 10000 4.1 120 15:20 26.08.2019
3012 Clear 31 1019 35 10000 3.6 110 14:44 26.08.2019
3013 Clear 31 1020 35 10000 4.6 110 14:23 26.08.2019
3014 Clear 31 1020 35 10000 4.6 130 13:57 26.08.2019
3015 Clear 30 1020 37 10000 5.7 130 13:38 26.08.2019
3016 Clear 30 1020 37 10000 5.7 130 13:19 26.08.2019
3017 Clear 29 1020 40 10000 5.1 100 12:43 26.08.2019
3018 Clear 29 1020 42 10000 4.6 110 12:23 26.08.2019
3019 Clear 29 1020 42 10000 4.6 110 12:23 26.08.2019
3020 Clear 28 1020 48 10000 4.6 130 11:56 26.08.2019
3021 Clear 27 1020 48 10000 4.1 100 11:36 26.08.2019
3022 Clear 27 1020 48 10000 4.1 100 11:18 26.08.2019
3023 Clear 26 1020 51 10000 3.1 110 10:42 26.08.2019
3024 Clear 25 1020 50 10000 3.6 120 10:20 26.08.2019
3025 Clear 24 1020 57 10000 1.5 110 09:57 26.08.2019
3026 Clear 23 1020 57 10000 1.5 110 09:37 26.08.2019
3027 Clouds 22 1020 60 10000 1.5 70 09:19 26.08.2019
3028 Clouds 20 1020 64 10000 1.5 70 08:42 26.08.2019
3029 Clouds 20 1020 68 10000 2.1 130 08:22 26.08.2019
3030 Clouds 19 1020 64 10000 1 0 07:59 26.08.2019
3031 Clouds 19 1020 64 10000 1 0 07:40 26.08.2019
3032 Clouds 18 1020 68 10000 2.1 90 07:21 26.08.2019
3033 Clear 18 1020 68 10000 2.1 80 06:41 26.08.2019
3034 Clear 18 1020 72 10000 1.5 70 06:21 26.08.2019
3035 Clear 18 1020 77 10000 1 0 05:48 26.08.2019
3036 Clear 19 1020 72 10000 2.1 80 04:28 26.08.2019
3037 Clear 20 1020 64 10000 1.5 80 02:53 26.08.2019
3038 Clear 21 1020 68 10000 3.1 90 01:35 26.08.2019
3039 Clear 21 1020 77 10000 1 0 00:53 26.08.2019
3040 Clear 21 1020 77 10000 1.5 60 00:28 26.08.2019
3041 Clear 21 1020 77 10000 1.5 50 23:59 25.08.2019
3042 Clear 21 1020 77 10000 1.5 50 23:40 25.08.2019
3043 Clear 22 1020 73 10000 1 0 23:18 25.08.2019
3044 Clear 22 1020 73 10000 1 0 23:18 25.08.2019
3045 Clear 22 1020 73 10000 1 0 22:56 25.08.2019
3046 Clear 22 1020 73 10000 2.1 30 22:38 25.08.2019
3047 Clear 23 1020 73 10000 2.1 30 22:19 25.08.2019
3048 Clear 23 1020 60 10000 2.6 50 21:55 25.08.2019
3049 Clear 24 1020 57 10000 3.1 50 21:37 25.08.2019
3050 Clear 24 1020 57 10000 3.1 50 21:18 25.08.2019
3051 Clear 25 1020 57 10000 3.1 40 20:40 25.08.2019
3052 Clear 26 1020 54 10000 3.1 30 20:20 25.08.2019
3053 Clear 27 1019 51 10000 3.6 40 19:56 25.08.2019
3054 Clear 27 1019 51 10000 3.6 40 19:38 25.08.2019
3055 Clear 28 1019 48 10000 3.1 30 19:19 25.08.2019
3056 Clear 28 1019 45 10000 2.1 20 18:57 25.08.2019
3057 Clear 28 1019 42 10000 1 0 18:39 25.08.2019
3058 Clear 29 1019 42 10000 1 0 18:20 25.08.2019
3059 Clear 29 1019 42 10000 3.1 190 17:43 25.08.2019
3060 Clear 29 1019 42 10000 1 0 17:25 25.08.2019
3061 Clear 30 1019 42 10000 2.1 0 16:56 25.08.2019
3062 Clear 29 1019 42 10000 2.1 0 16:36 25.08.2019
3063 Clear 29 1019 45 10000 3.1 70 16:18 25.08.2019
3064 Clear 29 1020 42 10000 1.5 0 15:42 25.08.2019
3065 Clear 29 1020 45 10000 3.1 0 15:24 25.08.2019
3066 Clear 29 1020 45 10000 3.1 80 14:43 25.08.2019
3067 Clear 29 1020 48 10000 2.6 110 14:24 25.08.2019
3068 Clear 29 1020 45 10000 3.1 70 13:56 25.08.2019
3069 Clear 28 1020 45 10000 3.1 70 13:37 25.08.2019
3070 Clear 28 1020 47 10000 3.6 60 13:18 25.08.2019
3071 Clear 27 1021 47 10000 3.6 80 12:44 25.08.2019
3072 Clear 27 1021 47 10000 3.6 50 12:25 25.08.2019
3073 Clear 26 1021 50 10000 3.1 80 11:59 25.08.2019
3074 Clear 26 1021 50 10000 3.1 80 11:40 25.08.2019
3075 Clear 25 1021 53 10000 2.6 80 11:21 25.08.2019
3076 Clear 24 1021 57 10000 2.6 80 10:57 25.08.2019
3077 Clear 23 1021 57 10000 2.6 80 10:39 25.08.2019
3078 Clear 23 1021 56 10000 2.6 90 10:19 25.08.2019
3079 Clear 21 1021 64 10000 1.5 70 09:44 25.08.2019
3080 Clear 20 1021 72 10000 1 0 09:25 25.08.2019
3081 Clear 18 1021 77 10000 1 0 08:56 25.08.2019
3082 Clear 17 1021 82 10000 1.5 60 08:38 25.08.2019
3083 Clear 17 1021 82 10000 1.5 60 08:20 25.08.2019
3084 Clear 16 1021 87 10000 0.5 60 07:34 25.08.2019
3085 Clear 15 1021 87 10000 1 50 06:45 25.08.2019
3086 Clear 16 1021 87 10000 0.5 0 05:43 25.08.2019
3087 Clear 16 1021 87 10000 1.5 40 04:32 25.08.2019
3088 Clear 17 1021 87 10000 0.5 0 03:31 25.08.2019
3089 Clear 17 1022 82 10000 1 0 02:39 25.08.2019
3090 Clear 18 1022 88 10000 3.6 70 01:20 25.08.2019
3091 Clear 18 1022 88 10000 4.1 60 00:39 25.08.2019
3092 Clear 18 1022 88 10000 4.1 60 00:20 25.08.2019
3093 Clear 18 1022 82 10000 4.1 60 23:50 24.08.2019
3094 Clear 19 1022 82 10000 4.1 60 23:22 24.08.2019
3095 Clear 19 1022 77 10000 4.6 50 22:55 24.08.2019
3096 Clear 19 1022 72 10000 4.6 60 22:37 24.08.2019
3097 Clear 20 1022 72 10000 4.6 60 22:19 24.08.2019
3098 Clear 20 1022 68 10000 4.1 50 21:55 24.08.2019
3099 Clear 21 1022 68 10000 4.1 50 21:37 24.08.2019
3100 Clear 22 1021 68 10000 4.6 50 21:18 24.08.2019
3101 Clear 23 1021 64 10000 5.1 50 20:54 24.08.2019
3102 Clear 23 1021 64 10000 5.1 50 20:36 24.08.2019
3103 Clear 24 1021 57 10000 5.1 50 20:18 24.08.2019
3104 Clear 24 1021 53 10000 5.1 50 19:55 24.08.2019
3105 Clear 25 1022 47 10000 5.7 50 19:37 24.08.2019
3106 Clear 25 1022 47 10000 5.7 50 19:18 24.08.2019
3107 Clear 26 1022 50 10000 5.1 50 18:41 24.08.2019
3108 Clear 27 1022 47 10000 5.7 50 18:21 24.08.2019
3109 Clear 27 1022 47 10000 5.7 50 18:21 24.08.2019
3110 Clear 27 1022 45 10000 6.2 60 17:44 24.08.2019
3111 Clear 27 1022 39 10000 5.1 70 17:24 24.08.2019
3112 Clear 28 1022 34 10000 6.7 80 16:51 24.08.2019
3113 Clear 28 1022 32 10000 6.2 80 16:21 24.08.2019
3114 Clear 28 1023 32 10000 4.6 80 15:59 24.08.2019
3115 Clear 28 1023 32 10000 4.6 80 15:41 24.08.2019
3116 Clear 28 1023 32 10000 4.6 80 15:41 24.08.2019
3117 Clear 28 1023 37 10000 4.6 90 15:23 24.08.2019
3118 Clear 27 1023 34 10000 5.1 100 14:44 24.08.2019
3119 Clear 28 1023 37 10000 4.6 60 14:23 24.08.2019
3120 Clear 27 1024 42 10000 3.6 90 13:59 24.08.2019
3121 Clear 27 1024 42 10000 3.6 90 13:41 24.08.2019
3122 Clear 27 1024 42 10000 3.6 100 13:22 24.08.2019
3123 Clear 26 1024 47 10000 3.6 80 12:58 24.08.2019
3124 Clear 26 1024 47 10000 3.6 80 12:39 24.08.2019
3125 Clear 25 1025 47 10000 3.6 90 12:20 24.08.2019
3126 Clear 24 1025 47 10000 3.6 100 11:45 24.08.2019
3127 Clear 24 1025 50 10000 3.6 80 11:24 24.08.2019
3128 Clear 23 1025 53 10000 4.1 90 10:57 24.08.2019
3129 Clear 23 1025 53 10000 4.1 90 10:38 24.08.2019
3130 Clear 21 1025 56 10000 3.6 90 10:19 24.08.2019
3131 Clear 20 1025 64 10000 2.6 80 09:40 24.08.2019
3132 Clear 19 1025 68 10000 2.6 80 09:18 24.08.2019
3133 Clear 17 1025 72 10000 2.6 80 08:41 24.08.2019
3134 Clear 16 1025 77 10000 3.6 70 08:23 24.08.2019
3135 Clear 15 1025 82 10000 2.6 60 07:50 24.08.2019
3136 Clear 14 1025 82 10000 2.1 60 07:29 24.08.2019
3137 Clear 14 1025 82 10000 2.1 60 06:31 24.08.2019
3138 Fog 14 1025 87 10000 1 60 05:59 24.08.2019
3139 Fog 13 1025 93 10000 0.5 0 05:35 24.08.2019
3140 Fog 14 1025 93 10000 1 350 03:40 24.08.2019
3141 Clear 14 1025 93 10000 1 0 02:41 24.08.2019
3142 Clear 15 1025 93 10000 1.5 40 01:54 24.08.2019
3143 Fog 15 1025 93 10000 0.5 0 01:24 24.08.2019
3144 Clear 15 1025 100 10000 0.5 0 00:46 24.08.2019
3145 Clear 16 1025 87 10000 1 300 00:22 24.08.2019
3146 Clear 16 1025 93 10000 1 0 23:45 23.08.2019
3147 Clear 17 1025 87 10000 1 0 23:20 23.08.2019
3148 Clear 17 1025 82 10000 1.5 30 22:44 23.08.2019
3149 Clear 18 1025 77 10000 1.5 360 22:25 23.08.2019
3150 Clear 18 1025 72 10000 2.1 350 21:56 23.08.2019
3151 Clear 19 1025 72 10000 2.1 350 21:37 23.08.2019
3152 Clear 19 1025 64 10000 2.1 340 21:37 23.08.2019
3153 Clear 20 1025 64 10000 2.1 340 21:19 23.08.2019
3154 Clear 21 1025 60 10000 2.6 330 20:51 23.08.2019
3155 Clear 22 1025 49 10000 2.1 330 20:33 23.08.2019
3156 Clear 22 1025 43 10000 2.6 320 19:47 23.08.2019
3157 Clear 23 1025 41 10000 2.6 320 19:19 23.08.2019
3158 Clear 24 1025 41 10000 3.1 310 18:58 23.08.2019
3159 Clear 24 1025 41 10000 3.1 310 18:40 23.08.2019
3160 Clear 24 1025 41 10000 3.1 310 18:40 23.08.2019
3161 Clear 25 1025 41 10000 3.6 320 18:21 23.08.2019
3162 Clear 25 1025 33 10000 3.6 310 17:45 23.08.2019
3163 Clear 25 1025 33 10000 3.6 310 17:45 23.08.2019
3164 Clear 25 1025 38 10000 4.1 330 17:26 23.08.2019
3165 Clear 25 1025 41 10000 3.6 310 16:59 23.08.2019
3166 Clear 25 1025 41 10000 3.6 310 16:40 23.08.2019
3167 Clear 26 1025 38 10000 4.1 320 16:22 23.08.2019
3168 Clear 25 1025 41 10000 4.1 310 15:41 23.08.2019
3169 Clear 25 1026 38 10000 3.1 310 15:22 23.08.2019
3170 Clear 25 1026 38 10000 4.1 270 14:58 23.08.2019
3171 Clear 25 1026 41 10000 4.1 280 14:40 23.08.2019
3172 Clear 25 1026 41 10000 4.1 280 14:20 23.08.2019
3173 Clear 25 1026 41 10000 4.1 260 13:56 23.08.2019
3174 Clear 24 1026 44 10000 4.6 260 13:38 23.08.2019
3175 Clear 24 1026 44 10000 4.6 260 13:19 23.08.2019
3176 Clear 24 1026 44 10000 4.1 260 12:54 23.08.2019
3177 Clear 24 1026 47 10000 3.6 260 12:36 23.08.2019
3178 Clear 24 1026 47 10000 3.6 260 12:18 23.08.2019
3179 Clear 23 1026 49 10000 3.6 230 11:54 23.08.2019
3180 Clear 23 1026 49 10000 3.1 240 11:36 23.08.2019
3181 Clear 22 1026 49 10000 3.1 240 11:18 23.08.2019
3182 Clear 22 1026 49 10000 2.6 230 10:42 23.08.2019
3183 Clear 21 1026 56 10000 2.6 240 10:21 23.08.2019
3184 Clear 20 1026 60 10000 2.1 200 09:56 23.08.2019
3185 Clear 19 1026 68 10000 2.1 160 09:38 23.08.2019
3186 Clear 18 1026 68 10000 2.1 160 09:18 23.08.2019
3187 Clear 16 1026 77 10000 0.5 0 08:40 23.08.2019
3188 Clear 14 1026 87 10000 0.5 0 08:19 23.08.2019
3189 Clear 13 1025 93 10000 0.5 0 07:43 23.08.2019
3190 Fog 12 1025 100 10000 1.5 223.33 07:24 23.08.2019
3191 Fog 12 1025 100 10000 0.5 0 06:57 23.08.2019
3192 Fog 12 1025 100 10000 0.5 0 06:38 23.08.2019
3193 Fog 11 1025 100 10000 0.5 70 06:20 23.08.2019
3194 Fog 12 1025 93 10000 0.5 0 05:34 23.08.2019
3195 Fog 12 1025 100 10000 0.5 0 04:45 23.08.2019
3196 Fog 13 1025 100 10000 1 0 03:21 23.08.2019
3197 Fog 13 1025 93 10000 0.5 0 02:23 23.08.2019
3198 Fog 13 1025 93 10000 0.5 0 01:40 23.08.2019
3199 Clear 14 1025 93 10000 1 300 00:45 23.08.2019
3200 Clear 14 1025 87 10000 1 300 00:20 23.08.2019
3201 Clear 15 1025 82 10000 0.5 0 23:49 22.08.2019
3202 Clear 15 1025 82 10000 1 310 23:31 22.08.2019
3203 Clear 16 1025 77 10000 1 320 22:58 22.08.2019
3204 Clear 16 1025 77 10000 1 320 22:40 22.08.2019
3205 Clear 17 1025 63 10000 2.1 330 22:21 22.08.2019
3206 Clear 18 1024 52 10000 3.1 300 21:57 22.08.2019
3207 Clear 19 1024 52 10000 3.1 300 21:39 22.08.2019
3208 Clear 19 1024 60 10000 1.5 270 21:19 22.08.2019
3209 Clear 21 1024 56 10000 1.5 240 20:57 22.08.2019
3210 Clear 21 1024 56 10000 1.5 240 20:38 22.08.2019
3211 Clear 22 1024 43 10000 2.6 250 20:18 22.08.2019
3212 Clear 22 1023 38 10000 3.1 250 19:56 22.08.2019
3213 Clear 23 1023 38 10000 3.1 250 19:55 22.08.2019
3214 Clear 24 1023 38 10000 3.1 250 19:37 22.08.2019
3215 Clear 24 1023 38 10000 4.1 230 19:19 22.08.2019
3216 Clear 25 1023 38 10000 4.1 240 18:56 22.08.2019
3217 Clear 25 1023 38 10000 4.1 240 18:37 22.08.2019
3218 Clear 25 1024 36 10000 4.1 240 18:18 22.08.2019
3219 Clear 25 1024 36 10000 4.6 220 17:42 22.08.2019
3220 Clear 26 1024 34 10000 3.6 200 17:42 22.08.2019
3221 Clear 26 1024 34 10000 3.6 200 17:21 22.08.2019
3222 Clear 25 1024 34 10000 4.1 220 17:21 22.08.2019
3223 Clear 26 1024 34 10000 4.1 220 16:58 22.08.2019
3224 Clear 26 1024 34 10000 4.1 220 16:39 22.08.2019
3225 Clear 26 1024 31 10000 4.6 210 16:21 22.08.2019
3226 Clear 26 1024 33 10000 5.7 210 15:59 22.08.2019
3227 Clear 26 1024 33 10000 5.7 210 15:58 22.08.2019
3228 Clear 25 1025 33 10000 6.2 210 15:38 22.08.2019
3229 Clear 25 1025 33 10000 6.2 210 15:38 22.08.2019
3230 Clear 25 1025 33 10000 6.2 210 15:38 22.08.2019
3231 Clear 26 1024 33 10000 5.7 210 15:38 22.08.2019
3232 Clear 25 1025 33 10000 6.2 210 15:19 22.08.2019
3233 Clear 25 1025 33 10000 6.2 210 15:19 22.08.2019
3234 Clear 25 1025 33 10000 6.2 210 15:19 22.08.2019
3235 Clear 25 1025 33 10000 6.7 230 14:56 22.08.2019
3236 Clear 25 1025 33 10000 6.7 230 14:38 22.08.2019
3237 Clear 25 1025 33 10000 6.2 200 14:18 22.08.2019
3238 Clear 25 1025 36 10000 6.2 220 13:41 22.08.2019
3239 Clear 24 1025 36 10000 7.2 230 13:22 22.08.2019
3240 Clear 24 1025 41 10000 5.1 170 12:59 22.08.2019
3241 Clear 23 1026 46 10000 4.6 170 12:39 22.08.2019
3242 Clear 23 1026 46 10000 4.6 170 12:20 22.08.2019
3243 Clear 22 1026 46 10000 6.2 180 11:55 22.08.2019
3244 Clear 22 1026 46 10000 6.2 180 11:36 22.08.2019
3245 Clear 21 1026 49 10000 5.1 180 11:18 22.08.2019
3246 Clear 21 1026 49 10000 4.1 170 10:56 22.08.2019
3247 Clear 20 1027 52 10000 4.1 160 10:36 22.08.2019
3248 Clear 19 1027 52 10000 4.1 160 10:18 22.08.2019
3249 Clear 17 1027 67 10000 3.1 150 09:40 22.08.2019
3250 Clear 16 1027 67 10000 3.1 150 09:21 22.08.2019
3251 Clear 15 1027 72 10000 3.1 140 08:58 22.08.2019
3252 Clear 14 1027 72 10000 3.1 140 08:39 22.08.2019
3253 Clear 13 1027 82 10000 2.6 140 08:20 22.08.2019
3254 Clear 12 1027 87 10000 2.1 120 07:42 22.08.2019
3255 Clear 11 1027 87 10000 2.1 120 07:23 22.08.2019
3256 Clear 11 1027 87 10000 1 100 06:58 22.08.2019
3257 Clear 11 1027 87 10000 1 100 06:40 22.08.2019
3258 Clear 10 1027 87 10000 1 0 06:19 22.08.2019
3259 Clear 11 1027 87 10000 1 0 04:42 22.08.2019
3260 Fog 11 1027 100 10000 1 0 02:56 22.08.2019
3261 Fog 12 1028 93 10000 1 60 02:34 22.08.2019
3262 Fog 12 1028 87 10000 0.5 0 01:26 22.08.2019
3263 Fog 12 1028 100 10000 1 0 00:48 22.08.2019
3264 Fog 12 1028 93 10000 1 0 00:30 22.08.2019
3265 Clear 12 1028 93 10000 1 0 23:58 21.08.2019
3266 Clear 13 1028 93 10000 1 0 23:39 21.08.2019
3267 Clear 13 1028 93 10000 0.5 0 23:20 21.08.2019
3268 Clear 13 1028 93 10000 0.5 0 22:56 21.08.2019
3269 Clear 13 1028 93 10000 0.5 0 22:38 21.08.2019
3270 Clear 14 1028 87 10000 0.5 0 22:19 21.08.2019
3271 Clear 14 1027 82 10000 0.5 0 21:55 21.08.2019
3272 Clear 15 1027 82 10000 0.5 0 21:37 21.08.2019
3273 Clear 16 1027 82 10000 0.5 0 21:18 21.08.2019
3274 Clouds 17 1027 72 10000 1.5 40 20:43 21.08.2019
3275 Clouds 18 1027 63 10000 1.5 350 20:25 21.08.2019
3276 Clouds 19 1027 56 10000 2.1 360 19:59 21.08.2019
3277 Clouds 19 1027 56 10000 2.1 360 19:41 21.08.2019
3278 Clouds 19 1027 56 10000 2.1 360 19:23 21.08.2019
3279 Clouds 20 1027 56 10000 2.6 340 18:56 21.08.2019
3280 Clouds 20 1027 56 10000 2.6 340 18:56 21.08.2019
3281 Clouds 20 1027 56 10000 3.6 320 18:38 21.08.2019
3282 Clouds 20 1027 56 10000 3.6 320 18:20 21.08.2019
3283 Clouds 21 1027 52 10000 3.1 310 17:44 21.08.2019
3284 Clouds 21 1027 49 10000 3.6 320 17:22 21.08.2019
3285 Clouds 21 1027 49 10000 3.6 270 16:57 21.08.2019
3286 Clouds 21 1027 49 10000 3.1 290 16:39 21.08.2019
3287 Clouds 21 1027 49 10000 3.1 290 16:18 21.08.2019
3288 Clouds 21 1027 55 10000 4.6 310 15:56 21.08.2019
3289 Clouds 21 1027 55 10000 4.6 310 15:38 21.08.2019
3290 Clouds 21 1027 46 10000 4.1 240 15:19 21.08.2019
3291 Clouds 21 1027 46 10000 4.1 240 15:19 21.08.2019
3292 -273 0 0 0 0 0 14:55 21.08.2019
3293 Clouds 20 1027 49 10000 4.1 300 14:37 21.08.2019
3294 Clouds 20 1027 52 10000 5.7 300 14:18 21.08.2019
3295 Clouds 20 1028 55 10000 5.1 260 13:43 21.08.2019
3296 Clouds 19 1028 59 10000 5.1 260 13:20 21.08.2019
3297 Clouds 19 1027 56 10000 4.6 280 12:58 21.08.2019
3298 Clouds 18 1028 63 10000 5.1 270 12:40 21.08.2019
3299 Clouds 18 1028 63 10000 5.1 270 12:20 21.08.2019
3300 Clouds 18 1028 68 10000 4.1 280 11:54 21.08.2019
3301 Clouds 18 1028 72 10000 4.1 270 11:36 21.08.2019
3302 Clouds 17 1028 72 10000 4.1 270 11:18 21.08.2019
3303 Clouds 17 1028 72 10000 3.6 270 10:55 21.08.2019
3304 Clouds 17 1027 72 10000 2.6 250 10:37 21.08.2019
3305 Clouds 17 1027 72 10000 2.6 250 10:18 21.08.2019
3306 Clouds 16 1027 72 10000 4.1 250 09:41 21.08.2019
3307 Clear 15 1027 82 10000 3.1 220 09:23 21.08.2019
3308 Clouds 14 1027 82 10000 2.6 230 08:57 21.08.2019
3309 Clouds 14 1027 82 10000 2.6 230 08:38 21.08.2019
3310 Clouds 13 1027 87 10000 2.1 240 08:19 21.08.2019
3311 Clear 12 1026 93 10000 2.1 230 07:40 21.08.2019
3312 Fog 12 1026 93 10000 2.6 230 07:20 21.08.2019
3313 Fog 11 1026 100 10000 2.1 230 06:47 21.08.2019
3314 Clear 11 1026 93 10000 2.1 230 06:21 21.08.2019
3315 Clear 12 1026 93 10000 2.6 240 05:38 21.08.2019
3316 Clear 12 1025 93 10000 2.6 240 05:18 21.08.2019
3317 Clear 12 1025 100 10000 1.5 250 03:23 21.08.2019
3318 Clear 14 1024 93 10000 2.1 240 01:42 21.08.2019
3319 Rain 14 1024 93 10000 1.5 250 00:44 21.08.2019
3320 Clear 14 1024 93 10000 2.6 220 00:24 21.08.2019
3321 Clear 14 1024 93 10000 0.5 50 23:57 20.08.2019
3322 Clear 14 1024 93 10000 0.5 50 23:38 20.08.2019
3323 Clear 14 1023 93 10000 1 290 23:18 20.08.2019
3324 Clear 14 1023 93 10000 1.5 240 22:55 20.08.2019
3325 Clear 15 1023 87 10000 2.1 330 22:36 20.08.2019
3326 Rain 15 1023 87 10000 2.1 330 22:18 20.08.2019
3327 Rain 15 1023 87 10000 2.1 250 21:56 20.08.2019
3328 Rain 16 1023 93 10000 1.5 300 21:37 20.08.2019
3329 Rain 16 1023 93 10000 1.5 300 21:18 20.08.2019
3330 Rain 17 1023 93 10000 2.1 310 20:42 20.08.2019
3331 Rain 18 1022 93 10000 1.5 30 20:24 20.08.2019
3332 Rain 18 1022 82 10000 2.6 40 19:56 20.08.2019
3333 Rain 19 1022 87 10000 2.1 220 19:38 20.08.2019
3334 Rain 20 1022 68 10000 5.1 270 19:20 20.08.2019
3335 Rain 20 1021 56 10000 4.1 320 18:55 20.08.2019
3336 Rain 20 1021 56 10000 4.1 320 18:37 20.08.2019
3337 Clear 21 1021 46 10000 3.1 0 18:18 20.08.2019
3338 Clear 21 1021 43 10000 4.1 280 17:39 20.08.2019
3339 Clouds 21 1021 43 10000 4.1 270 17:20 20.08.2019
3340 Clouds 21 1021 43 10000 4.1 270 16:58 20.08.2019
3341 Clouds 21 1021 49 10000 2.6 260 16:40 20.08.2019
3342 Clouds 21 1021 46 10000 3.6 260 16:22 20.08.2019
3343 Clouds 21 1021 49 10000 4.6 270 15:41 20.08.2019
3344 Clouds 21 1021 52 10000 3.6 250 15:18 20.08.2019
3345 Clouds 21 1021 52 10000 3.6 250 14:56 20.08.2019
3346 Clouds 21 1021 56 10000 5.7 250 14:38 20.08.2019
3347 Clouds 22 1021 52 10000 5.7 240 14:19 20.08.2019
3348 Clouds 21 1021 60 10000 5.1 270 13:55 20.08.2019
3349 Clouds 21 1021 60 10000 5.1 270 13:37 20.08.2019
3350 Clouds 21 1020 56 10000 5.7 260 13:18 20.08.2019
3351 Clouds 21 1020 56 10000 5.7 260 12:48 20.08.2019
3352 Clouds 20 1020 64 10000 4.6 240 12:24 20.08.2019
3353 Clouds 19 1020 64 10000 4.6 240 11:56 20.08.2019
3354 Clouds 19 1020 68 10000 5.7 240 11:38 20.08.2019
3355 Clouds 19 1020 72 10000 6.2 220 11:18 20.08.2019
3356 Clouds 18 1020 72 10000 4.6 230 10:56 20.08.2019
3357 Clouds 18 1020 72 10000 4.6 230 10:37 20.08.2019
3358 Clear 17 1020 72 10000 5.7 220 10:18 20.08.2019
3359 Clear 16 1019 72 10000 5.1 230 09:41 20.08.2019
3360 Clear 16 1019 77 10000 4.1 220 09:22 20.08.2019
3361 Clear 15 1019 82 10000 4.1 220 08:43 20.08.2019
3362 Clear 14 1019 82 10000 4.1 220 08:25 20.08.2019
3363 Clear 13 1019 82 10000 3.1 230 07:59 20.08.2019
3364 Clear 13 1019 82 10000 3.1 220 07:41 20.08.2019
3365 Clear 13 1019 82 10000 3.1 220 07:22 20.08.2019
3366 Clear 12 1019 82 10000 2.6 230 06:56 20.08.2019
3367 Clear 12 1018 82 10000 2.6 230 06:25 20.08.2019
3368 Clear 12 1018 82 10000 3.1 220 05:49 20.08.2019
3369 Clear 12 1018 82 10000 3.1 220 04:57 20.08.2019
3370 Clear 13 1018 77 10000 3.6 230 03:52 20.08.2019
3371 Clear 13 1018 76 10000 2.1 220 02:36 20.08.2019
3372 Clear 13 1018 87 10000 1 0 01:38 20.08.2019
3373 Clear 13 1017 87 10000 0.5 0 00:57 20.08.2019
3374 Clear 13 1017 82 10000 1 0 00:39 20.08.2019
3375 Clear 13 1017 82 10000 1.5 220 00:18 20.08.2019
3376 Clear 14 1017 82 10000 1.5 220 23:39 19.08.2019
3377 Clear 14 1017 82 10000 1.5 220 23:18 19.08.2019
3378 Clear 15 1017 82 10000 1.5 230 22:54 19.08.2019
3379 Clear 15 1017 72 10000 2.1 220 22:36 19.08.2019
3380 Clear 16 1017 63 10000 2.1 230 22:18 19.08.2019
3381 Clear 16 1017 63 10000 2.1 230 21:55 19.08.2019
3382 Clear 17 1016 55 10000 4.6 230 21:36 19.08.2019
3383 Clear 18 1016 55 10000 4.1 230 21:18 19.08.2019
3384 Clouds 18 1016 52 10000 5.1 240 20:39 19.08.2019
3385 Clouds 18 1016 52 10000 5.1 240 20:39 19.08.2019
3386 Clouds 19 1015 49 10000 5.7 240 20:20 19.08.2019
3387 Clouds 19 1015 49 10000 5.7 240 19:58 19.08.2019
3388 Clouds 20 1015 49 10000 5.7 240 19:39 19.08.2019
3389 Clear 20 1015 49 10000 5.7 250 19:19 19.08.2019
3390 Clear 20 1015 49 10000 5.1 240 18:47 19.08.2019
3391 Clear 20 1015 49 10000 5.1 240 18:29 19.08.2019
3392 Clear 20 1015 46 10000 7.7 230 17:59 19.08.2019
3393 Clear 21 1015 49 10000 6.7 230 17:41 19.08.2019
3394 Clear 21 1015 49 10000 6.7 230 17:22 19.08.2019
3395 Clouds 21 1015 49 10000 5.1 230 16:58 19.08.2019
3396 Clouds 21 1015 49 10000 5.1 230 16:37 19.08.2019
3397 Clouds 21 1014 52 10000 8.2 220 16:19 19.08.2019
3398 Clouds 21 1014 52 10000 7.2 230 15:56 19.08.2019
3399 Clouds 21 1014 53 10000 7.2 230 15:37 19.08.2019
3400 Clouds 21 1014 53 10000 7.2 230 15:18 19.08.2019
3401 Clouds 21 1014 52 10000 7.2 230 14:43 19.08.2019
3402 Clouds 21 1014 60 10000 7.2 230 14:23 19.08.2019
3403 Clouds 20 1013 56 10000 8.2 230 13:58 19.08.2019
3404 Clouds 20 1013 56 10000 8.2 230 13:38 19.08.2019
3405 Rain 20 1013 64 10000 7.7 230 13:19 19.08.2019
3406 Rain 20 1013 68 10000 6.7 220 12:57 19.08.2019
3407 Rain 19 1013 68 10000 6.7 220 12:39 19.08.2019
3408 Clouds 19 1013 68 10000 7.7 220 12:19 19.08.2019
3409 Clouds 18 1013 72 10000 7.2 230 11:40 19.08.2019
3410 Clouds 18 1012 77 10000 6.2 230 11:21 19.08.2019
3411 Clouds 18 1012 77 10000 6.7 220 10:58 19.08.2019
3412 Clouds 17 1012 77 10000 7.7 220 10:37 19.08.2019
3413 Clouds 17 1012 77 10000 7.7 220 10:18 19.08.2019
3414 Clouds 17 1012 77 10000 8.2 220 09:45 19.08.2019
3415 Clouds 16 1011 82 10000 6.7 220 09:24 19.08.2019
3416 Clouds 16 1011 82 10000 6.7 220 09:24 19.08.2019
3417 Clouds 16 1011 82 10000 6.7 220 08:59 19.08.2019
3418 Clouds 15 1011 82 10000 6.7 210 08:41 19.08.2019
3419 Clouds 15 1011 82 10000 6.7 210 08:20 19.08.2019
3420 Clouds 15 1011 87 10000 5.1 210 07:50 19.08.2019
3421 Clouds 15 1011 87 9000 4.6 220 07:31 19.08.2019
3422 Clouds 14 1010 93 9000 5.1 230 06:52 19.08.2019
3423 Clear 14 1010 93 10000 4.1 220 06:33 19.08.2019
3424 Clouds 14 1010 93 8000 3.1 220 05:25 19.08.2019
3425 Clouds 14 1010 100 8000 3.6 210 04:32 19.08.2019
3426 Clouds 14 1009 93 8000 3.1 200 03:24 19.08.2019
3427 Clouds 14 1009 100 9000 2.6 210 02:29 19.08.2019
3428 Clear 14 1008 93 10000 2.6 210 01:36 19.08.2019
3429 Clear 15 1009 93 10000 3.1 220 00:44 19.08.2019
3430 Clear 15 1008 93 10000 2.6 220 00:23 19.08.2019
3431 Clouds 15 1008 93 10000 3.1 220 23:43 18.08.2019
3432 Clouds 15 1008 87 10000 3.6 230 23:22 18.08.2019
3433 Clouds 16 1008 82 10000 4.1 230 22:59 18.08.2019
3434 Clouds 16 1008 82 10000 4.1 230 22:39 18.08.2019
3435 Clouds 16 1007 82 10000 4.1 210 22:21 18.08.2019
3436 Rain 16 1007 82 10000 2.6 230 21:56 18.08.2019
3437 Rain 17 1007 82 10000 2.6 230 21:38 18.08.2019
3438 Clear 17 1006 82 10000 3.1 230 21:20 18.08.2019
3439 Clouds 17 1006 82 10000 3.1 230 20:45 18.08.2019
3440 Clouds 17 1006 72 10000 3.6 250 20:26 18.08.2019
3441 Clouds 18 1006 68 10000 4.1 250 19:59 18.08.2019
3442 Clouds 18 1006 68 10000 4.1 250 19:40 18.08.2019
3443 Clouds 19 1005 68 10000 4.6 250 19:22 18.08.2019
3444 Clouds 18 1005 72 10000 3.6 250 18:56 18.08.2019
3445 Clouds 18 1005 72 10000 3.6 250 18:38 18.08.2019
3446 Clouds 18 1005 68 10000 4.1 250 18:20 18.08.2019
3447 Clouds 18 1005 77 10000 3.6 260 17:44 18.08.2019
3448 Clouds 18 1004 77 10000 3.1 250 17:19 18.08.2019
3449 Rain 18 1004 77 10000 3.1 240 16:59 18.08.2019
3450 Rain 18 1004 77 10000 3.1 240 16:41 18.08.2019
3451 Rain 18 1004 88 10000 3.6 240 16:23 18.08.2019
3452 Clouds 17 1004 88 10000 4.1 220 15:59 18.08.2019
3453 Clouds 17 1004 88 10000 4.1 220 15:39 18.08.2019
3454 Rain 17 1004 88 10000 4.6 230 15:20 18.08.2019
3455 Rain 17 1004 88 10000 4.6 230 15:20 18.08.2019
3456 Clouds 17 1004 82 10000 3.6 230 14:57 18.08.2019
3457 Clouds 17 1004 82 10000 3.6 230 14:38 18.08.2019
3458 Rain 17 1004 88 10000 3.1 240 14:19 18.08.2019
3459 Rain 17 1005 82 10000 2.6 220 13:56 18.08.2019
3460 Rain 17 1005 82 10000 2.6 220 13:37 18.08.2019
3461 Clouds 17 1004 82 10000 3.1 220 13:19 18.08.2019
3462 Rain 18 1004 82 10000 3.1 180 12:41 18.08.2019
3463 Rain 17 1005 82 10000 3.1 200 12:22 18.08.2019
3464 Rain 17 1005 77 10000 4.1 200 11:55 18.08.2019
3465 Rain 17 1005 77 10000 4.1 200 11:36 18.08.2019
3466 Rain 18 1005 82 10000 5.1 220 11:18 18.08.2019
3467 Rain 18 1005 82 10000 4.1 220 10:41 18.08.2019
3468 Rain 18 1005 88 10000 4.1 210 10:21 18.08.2019
3469 Rain 18 1005 88 10000 2.1 220 09:51 18.08.2019
3470 Rain 17 1005 93 9000 2.1 240 09:24 18.08.2019
3471 Rain 17 1005 93 9000 2.1 240 08:59 18.08.2019
3472 Rain 17 1005 93 9000 2.1 240 08:41 18.08.2019
3473 Clouds 17 1005 93 10000 1.5 250 08:23 18.08.2019
3474 Clouds 17 1005 93 10000 2.1 210 07:49 18.08.2019
3475 Clouds 17 1005 93 10000 2.1 220 07:29 18.08.2019
3476 Clouds 17 1005 93 10000 1.5 210 05:49 18.08.2019
3477 Clouds 18 1006 93 10000 2.1 250 04:54 18.08.2019
3478 Clouds 18 1006 93 10000 2.1 230 03:42 18.08.2019
3479 Clouds 18 1006 93 10000 3.1 220 02:46 18.08.2019
3480 Clouds 18 1006 88 10000 3.1 220 02:25 18.08.2019
3481 Clouds 18 1006 93 10000 3.6 210 01:47 18.08.2019
3482 Clouds 18 1006 93 10000 3.1 190 01:20 18.08.2019
3483 Clouds 18 1006 93 10000 1.5 230 00:38 18.08.2019
3484 Clouds 18 1006 93 10000 1.5 230 00:19 18.08.2019
3485 Rain 18 1006 93 10000 5.1 180 23:57 17.08.2019
3486 Rain 18 1006 93 10000 5.1 180 23:37 17.08.2019
3487 Rain 18 1006 93 6000 5.1 200 23:18 17.08.2019
3488 Rain 19 1007 88 8000 3.6 200 22:56 17.08.2019
3489 Rain 19 1007 88 8000 3.6 200 22:38 17.08.2019
3490 Rain 19 1006 82 10000 3.6 180 22:20 17.08.2019
3491 Clouds 19 1006 82 10000 4.1 190 21:42 17.08.2019
3492 Clouds 19 1006 82 10000 4.1 210 21:23 17.08.2019
3493 Clouds 19 1007 82 10000 4.1 220 20:57 17.08.2019
3494 Clouds 20 1007 82 10000 4.1 220 20:36 17.08.2019
3495 Clouds 20 1007 77 10000 5.1 210 20:18 17.08.2019
3496 Clouds 20 1007 77 10000 6.2 210 19:43 17.08.2019
3497 Clouds 20 1007 77 10000 6.2 210 19:43 17.08.2019
3498 Clouds 20 1007 77 10000 6.7 210 19:24 17.08.2019
3499 Clouds 20 1007 77 10000 6.7 210 19:24 17.08.2019
3500 Clouds 20 1007 82 10000 4.1 190 18:55 17.08.2019
3501 Rain 20 1007 82 10000 4.1 210 18:37 17.08.2019
3502 Rain 20 1007 82 10000 4.1 210 18:18 17.08.2019
3503 Rain 20 1007 88 10000 4.1 240 17:42 17.08.2019
3504 Rain 20 1007 77 10000 5.7 240 17:22 17.08.2019
3505 Rain 20 1007 77 10000 2.6 240 16:57 17.08.2019
3506 Rain 20 1007 77 10000 2.6 240 16:38 17.08.2019
3507 Rain 20 1007 77 10000 4.1 220 16:20 17.08.2019
3508 Rain 20 1007 77 10000 4.6 250 15:54 17.08.2019
3509 Rain 20 1007 77 10000 4.6 250 15:54 17.08.2019
3510 Rain 20 1007 77 10000 4.6 250 15:36 17.08.2019
3511 Clouds 20 1007 77 10000 5.7 220 15:18 17.08.2019
3512 Clouds 20 1007 77 10000 4.1 210 14:40 17.08.2019
3513 Clouds 20 1007 77 10000 4.1 210 14:40 17.08.2019
3514 Rain 20 1007 82 10000 5.1 230 14:21 17.08.2019
3515 Rain 20 1007 72 10000 6.7 220 13:45 17.08.2019
3516 Clouds 20 1006 72 10000 5.1 210 13:21 17.08.2019
3517 Clouds 19 1007 77 10000 6.7 190 12:46 17.08.2019
3518 Clouds 19 1007 77 10000 5.7 190 12:21 17.08.2019
3519 Rain 18 1007 77 10000 7.2 190 11:59 17.08.2019
3520 Rain 18 1007 77 10000 7.2 190 11:39 17.08.2019
3521 Clouds 18 1007 77 10000 5.1 200 11:20 17.08.2019
3522 Rain 17 1007 77 10000 3.6 170 10:55 17.08.2019
3523 Clouds 17 1007 77 10000 4.6 170 10:37 17.08.2019
3524 Clouds 17 1007 77 10000 4.6 170 10:18 17.08.2019
3525 Clouds 16 1007 82 10000 4.6 140 09:43 17.08.2019
3526 Clouds 16 1007 82 10000 4.1 130 09:25 17.08.2019
3527 Rain 16 1007 82 10000 3.6 140 08:53 17.08.2019
3528 Rain 15 1008 87 10000 4.6 150 08:24 17.08.2019
3529 Rain 15 1008 87 10000 4.1 140 07:45 17.08.2019
3530 Rain 15 1008 87 10000 4.1 130 07:21 17.08.2019
3531 Rain 15 1008 87 10000 3.6 150 06:40 17.08.2019
3532 Rain 15 1009 82 10000 3.6 160 05:30 17.08.2019
3533 Rain 16 1009 77 10000 4.1 130 04:28 17.08.2019
3534 Rain 17 1010 67 10000 3.1 160 02:53 17.08.2019
3535 Clear 17 1011 63 10000 3.6 150 01:42 17.08.2019
3536 Clear 17 1011 67 10000 3.6 150 01:24 17.08.2019
3537 Clouds 17 1012 67 10000 3.1 150 00:54 17.08.2019
3538 Clear 17 1012 67 10000 3.6 150 00:27 17.08.2019
3539 Clouds 17 1012 67 10000 3.1 140 23:48 16.08.2019
3540 Clouds 17 1012 63 10000 2.6 150 23:26 16.08.2019
3541 Clear 17 1012 67 10000 3.1 150 22:56 16.08.2019
3542 Clear 17 1012 67 10000 3.1 150 22:37 16.08.2019
3543 Clear 17 1012 82 10000 2.1 150 22:18 16.08.2019
3544 Clear 17 1013 77 10000 1 0 21:40 16.08.2019
3545 Clear 18 1013 77 10000 1.5 200 21:20 16.08.2019
3546 Clear 19 1013 68 10000 2.1 240 20:55 16.08.2019
3547 Clouds 19 1013 52 10000 3.6 230 20:37 16.08.2019
3548 Clouds 19 1013 52 10000 3.6 230 20:18 16.08.2019
3549 Clouds 20 1013 52 10000 3.6 230 19:42 16.08.2019
3550 Clouds 20 1013 52 10000 4.1 230 19:22 16.08.2019
3551 Clouds 20 1013 56 10000 2.6 210 18:44 16.08.2019
3552 Clouds 21 1013 56 10000 3.6 220 18:26 16.08.2019
3553 Clouds 20 1014 64 10000 2.6 240 17:59 16.08.2019
3554 Clouds 20 1014 64 10000 2.6 240 17:41 16.08.2019
3555 Clouds 20 1014 64 10000 2.6 240 17:41 16.08.2019
3556 Clouds 21 1014 64 10000 3.1 230 17:23 16.08.2019
3557 Clouds 21 1014 64 10000 3.1 230 17:23 16.08.2019
3558 Clouds 21 1014 60 10000 2.6 240 16:56 16.08.2019
3559 Clouds 20 1014 68 10000 1.5 0 16:37 16.08.2019
3560 Clouds 20 1014 68 10000 1.5 0 16:18 16.08.2019
3561 Rain 20 1014 72 10000 2.1 240 15:40 16.08.2019
3562 Rain 20 1015 63 10000 3.1 250 15:21 16.08.2019
3563 Rain 20 1015 63 10000 3.1 250 15:21 16.08.2019
3564 Clouds 20 1015 63 10000 3.1 240 14:58 16.08.2019
3565 Clouds 20 1015 63 10000 3.1 240 14:39 16.08.2019
3566 -273 0 0 0 0 0 14:19 16.08.2019
3567 Clouds 20 1015 63 10000 3.1 260 14:19 16.08.2019
3568 Clouds 20 1015 63 10000 4.1 250 13:57 16.08.2019
3569 Clouds 20 1015 63 10000 3.6 240 13:37 16.08.2019
3570 Clouds 20 1015 63 10000 3.6 240 13:18 16.08.2019
3571 Clouds 19 1015 63 10000 4.1 260 12:39 16.08.2019
3572 Rain 19 1015 63 10000 4.6 290 12:20 16.08.2019
3573 Clouds 19 1015 72 10000 5.1 280 11:42 16.08.2019
3574 Rain 18 1014 77 10000 3.6 270 11:24 16.08.2019
3575 Rain 18 1014 77 10000 3.6 270 11:24 16.08.2019
3576 Clouds 18 1015 82 10000 3.6 260 10:54 16.08.2019
3577 Clouds 17 1015 82 10000 3.6 260 10:36 16.08.2019
3578 Clouds 17 1015 87 10000 4.6 250 10:36 16.08.2019
3579 Clouds 17 1015 87 10000 4.6 250 10:18 16.08.2019
3580 Rain 16 1014 87 10000 5.1 250 09:38 16.08.2019
3581 Rain 16 1014 87 10000 4.6 240 09:19 16.08.2019
3582 Clouds 16 1014 87 10000 4.1 250 08:56 16.08.2019
3583 Rain 16 1014 87 10000 4.1 250 08:38 16.08.2019
3584 Rain 16 1013 87 10000 4.6 240 08:18 16.08.2019
3585 Clouds 15 1013 87 10000 3.1 240 07:44 16.08.2019
3586 Rain 15 1013 93 10000 3.6 240 07:24 16.08.2019
3587 Rain 15 1013 93 10000 3.6 240 06:38 16.08.2019
3588 Rain 15 1012 93 10000 4.1 230 05:58 16.08.2019
3589 Clouds 15 1012 93 10000 4.1 230 05:33 16.08.2019
3590 Clouds 15 1012 93 10000 3.6 230 03:19 16.08.2019
3591 Clouds 16 1011 87 10000 3.6 230 01:50 16.08.2019
3592 Clear 16 1011 87 10000 3.6 230 01:25 16.08.2019
3593 Clear 16 1011 87 10000 3.6 230 01:25 16.08.2019
3594 Clear 16 1011 87 10000 3.1 250 00:48 16.08.2019
3595 Clear 16 1011 87 10000 3.1 250 00:23 16.08.2019
3596 Clear 16 1011 93 10000 2.6 230 23:57 15.08.2019
3597 Clouds 16 1010 93 10000 2.6 230 23:38 15.08.2019
3598 Clouds 16 1010 93 10000 2.6 230 23:18 15.08.2019
3599 Clouds 16 1010 93 10000 2.1 230 22:41 15.08.2019
3600 Clouds 16 1010 93 10000 2.6 240 22:23 15.08.2019
3601 Rain 16 1010 88 10000 4.1 260 21:58 15.08.2019
3602 Rain 17 1009 88 10000 2.1 270 21:39 15.08.2019
3603 Rain 17 1010 88 10000 4.1 260 21:39 15.08.2019
3604 Rain 17 1009 88 10000 2.1 270 21:19 15.08.2019
3605 Clouds 18 1009 88 10000 2.6 270 20:58 15.08.2019
3606 Clouds 18 1009 88 10000 2.6 270 20:40 15.08.2019
3607 Rain 18 1008 88 10000 2.1 280 20:20 15.08.2019
3608 Rain 18 1008 88 9000 2.1 260 19:40 15.08.2019
3609 Rain 18 1008 88 9000 3.1 280 19:22 15.08.2019
3610 Rain 18 1008 82 10000 4.1 250 18:59 15.08.2019
3611 Rain 18 1008 82 10000 4.1 250 18:41 15.08.2019
3612 Rain 18 1007 88 10000 4.1 220 18:21 15.08.2019
3613 -273 0 0 0 0 0 17:55 15.08.2019
3614 Rain 18 1007 82 10000 4.6 210 17:37 15.08.2019
3615 Rain 18 1007 82 10000 4.6 210 17:19 15.08.2019
3616 Rain 18 1007 82 10000 6.7 210 16:47 15.08.2019
3617 Rain 18 1007 82 10000 7.2 210 16:25 15.08.2019
3618 Rain 18 1007 88 10000 5.7 210 15:56 15.08.2019
3619 Drizzle 18 1007 88 5000 4.6 220 15:38 15.08.2019
3620 Drizzle 18 1007 88 5000 4.6 220 15:18 15.08.2019
3621 Drizzle 18 1007 82 8000 5.1 200 14:42 15.08.2019
3622 Drizzle 18 1007 82 8000 5.1 200 14:42 15.08.2019
3623 Rain 17 1007 82 10000 5.1 200 14:23 15.08.2019
3624 Clouds 17 1007 82 10000 6.2 190 13:57 15.08.2019
3625 Clouds 17 1007 82 10000 6.2 190 13:39 15.08.2019
3626 Rain 17 1007 88 10000 5.7 190 13:20 15.08.2019
3627 Rain 16 1007 93 10000 4.1 180 12:56 15.08.2019
3628 Rain 16 1007 87 10000 4.6 170 12:38 15.08.2019
3629 Rain 16 1007 87 10000 4.6 170 12:18 15.08.2019
3630 Rain 16 1007 87 8000 5.7 180 11:57 15.08.2019
3631 Rain 16 1007 87 8000 5.7 180 11:36 15.08.2019
3632 Rain 15 1007 87 6000 5.1 180 11:18 15.08.2019
3633 Rain 15 1007 87 6000 5.1 180 11:18 15.08.2019
3634 Rain 15 1008 82 10000 5.7 160 10:54 15.08.2019
3635 Rain 15 1008 87 10000 4.6 170 10:36 15.08.2019
3636 Rain 15 1008 87 10000 4.6 170 10:18 15.08.2019
3637 Rain 14 1008 87 10000 5.7 160 09:41 15.08.2019
3638 Rain 14 1008 93 10000 5.7 150 09:21 15.08.2019
3639 Rain 14 1008 93 10000 5.1 150 08:38 15.08.2019
3640 Drizzle 13 1009 93 8000 5.1 140 08:19 15.08.2019
3641 Rain 13 1009 93 9000 3.6 130 07:54 15.08.2019
3642 Drizzle 13 1009 93 2800 3.6 150 07:36 15.08.2019
3643 Drizzle 13 1009 93 2800 3.6 150 07:18 15.08.2019
3644 Rain 13 1010 87 10000 3.6 170 06:40 15.08.2019
3645 Rain 13 1010 87 10000 3.6 170 06:21 15.08.2019
3646 Rain 14 1011 67 10000 6.2 190 05:29 15.08.2019
3647 Clouds 14 1010 59 10000 4.1 150 04:51 15.08.2019
3648 Rain 14 1011 63 10000 3.6 140 03:49 15.08.2019
3649 Clouds 15 1012 59 10000 1.5 150 02:53 15.08.2019
3650 Clear 15 1012 55 10000 3.6 150 02:24 15.08.2019
3651 Clear 15 1013 55 10000 3.1 130 01:39 15.08.2019
3652 Clear 15 1013 59 10000 3.1 130 00:55 15.08.2019
3653 Clear 15 1013 59 10000 3.1 110 00:36 15.08.2019
3654 Clear 15 1013 59 10000 3.1 110 00:18 15.08.2019
3655 Clear 15 1014 67 10000 2.6 80 23:54 14.08.2019
3656 Clear 15 1014 67 10000 2.6 60 23:36 14.08.2019
3657 Clear 15 1014 67 10000 2.6 60 23:18 14.08.2019
3658 Clear 15 1014 63 10000 2.1 60 22:41 14.08.2019
3659 Clear 15 1014 63 10000 2.1 30 22:22 14.08.2019
3660 Clear 16 1014 59 10000 2.1 10 21:57 14.08.2019
3661 Clear 16 1014 59 10000 2.1 10 21:39 14.08.2019
3662 Clear 16 1014 59 10000 2.1 10 21:39 14.08.2019
3663 Clear 17 1014 55 10000 3.1 50 21:20 14.08.2019
3664 Clear 17 1014 59 10000 1 0 20:56 14.08.2019
3665 Clear 17 1014 59 10000 1 0 20:56 14.08.2019
3666 Clear 18 1015 52 10000 2.1 350 20:37 14.08.2019
3667 Clear 18 1015 52 10000 2.1 350 20:18 14.08.2019
3668 Clear 20 1015 45 10000 2.1 280 19:41 14.08.2019
3669 Clear 20 1015 45 10000 2.1 280 19:22 14.08.2019
3670 Clear 20 1015 42 10000 2.6 280 18:59 14.08.2019
3671 Clear 20 1015 42 10000 2.6 280 18:41 14.08.2019
3672 Clear 20 1015 42 10000 2.6 250 18:23 14.08.2019
3673 Clear 20 1015 42 10000 2.6 270 17:59 14.08.2019
3674 Clear 20 1015 42 10000 2.6 270 17:40 14.08.2019
3675 Clear 20 1015 42 10000 3.6 270 17:21 14.08.2019
3676 Clear 20 1015 42 10000 4.1 270 16:56 14.08.2019
3677 Clear 20 1015 42 10000 4.6 270 16:38 14.08.2019
3678 Clear 20 1015 42 10000 4.6 270 16:19 14.08.2019
3679 Clear 19 1016 42 10000 5.1 270 15:43 14.08.2019
3680 Clear 19 1016 42 10000 5.1 270 15:43 14.08.2019
3681 Clouds 19 1016 40 10000 6.7 240 15:19 14.08.2019
3682 Clouds 19 1016 40 10000 6.7 240 15:19 14.08.2019
3683 Clouds 19 1016 40 10000 6.7 240 15:19 14.08.2019
3684 Rain 18 1016 48 10000 5.7 240 14:57 14.08.2019
3685 Rain 18 1016 48 10000 5.7 240 14:39 14.08.2019
3686 Rain 18 1016 52 10000 6.2 270 14:19 14.08.2019
3687 Rain 18 1016 48 10000 6.2 250 13:44 14.08.2019
3688 Clouds 18 1016 52 10000 5.7 260 13:24 14.08.2019
3689 Clouds 18 1016 63 10000 4.6 270 12:59 14.08.2019
3690 Clouds 18 1016 52 10000 6.2 240 12:40 14.08.2019
3691 Clouds 18 1016 52 10000 6.2 240 12:22 14.08.2019
3692 Clouds 18 1016 59 10000 5.7 260 11:57 14.08.2019
3693 Clouds 18 1016 59 10000 5.7 260 11:57 14.08.2019
3694 Clouds 18 1016 59 10000 5.7 260 11:39 14.08.2019
3695 Clouds 17 1016 59 10000 6.2 250 11:21 14.08.2019
3696 Clouds 16 1016 67 10000 4.6 250 10:45 14.08.2019
3697 Clouds 15 1016 67 10000 5.1 240 10:25 14.08.2019
3698 Clear 14 1016 72 10000 4.1 240 09:59 14.08.2019
3699 Clear 14 1016 72 10000 4.1 240 09:41 14.08.2019
3700 Clouds 13 1016 76 10000 4.1 230 09:20 14.08.2019
3701 Mist 12 1016 82 10000 4.1 250 08:41 14.08.2019
3702 Mist 11 1016 87 9000 4.1 240 08:23 14.08.2019
3703 Mist 11 1016 93 7000 3.6 240 07:54 14.08.2019
3704 Mist 10 1016 93 7000 3.1 230 07:34 14.08.2019
3705 Clouds 11 1015 87 7000 3.1 220 06:49 14.08.2019
3706 Clouds 10 1015 93 7000 3.1 230 06:18 14.08.2019
3707 Clouds 11 1015 87 10000 3.6 230 05:28 14.08.2019
3708 Clear 11 1015 87 10000 3.1 220 03:40 14.08.2019
3709 Clear 11 1016 87 10000 2.6 220 02:36 14.08.2019
3710 Clear 12 1016 81 10000 3.1 230 01:57 14.08.2019
3711 Clear 12 1016 81 10000 3.1 230 01:23 14.08.2019
3712 Clear 12 1016 81 10000 2.6 230 00:23 14.08.2019
3713 Clear 13 1016 76 10000 2.6 240 23:40 13.08.2019
3714 Clear 13 1016 71 10000 2.1 240 23:19 13.08.2019
3715 Clear 13 1016 71 10000 3.1 230 22:56 13.08.2019
3716 Clear 13 1016 71 10000 3.1 230 22:56 13.08.2019
3717 Clear 13 1016 71 10000 3.1 230 22:38 13.08.2019
3718 Clouds 13 1016 76 10000 3.6 230 22:19 13.08.2019
3719 Clouds 13 1016 71 10000 3.1 240 21:54 13.08.2019
3720 Clouds 14 1015 67 10000 3.6 250 21:36 13.08.2019
3721 Clouds 14 1015 67 10000 3.6 250 21:18 13.08.2019
3722 Clouds 15 1015 59 10000 3.1 250 20:42 13.08.2019
3723 Clouds 16 1015 59 10000 4.6 260 20:19 13.08.2019
3724 Clouds 16 1015 51 10000 4.1 270 19:56 13.08.2019
3725 Clouds 17 1015 45 10000 4.6 270 19:38 13.08.2019
3726 Clouds 17 1015 45 10000 4.6 270 19:19 13.08.2019
3727 Clouds 17 1015 48 10000 5.1 270 18:41 13.08.2019
3728 Clouds 17 1015 48 10000 5.1 270 18:41 13.08.2019
3729 Rain 18 1014 52 10000 4.1 250 18:22 13.08.2019
3730 Clouds 18 1015 52 10000 5.1 270 17:56 13.08.2019
3731 Clouds 18 1014 48 10000 6.2 280 17:38 13.08.2019
3732 Clouds 18 1014 48 10000 6.2 280 17:18 13.08.2019
3733 Clouds 18 1014 55 10000 4.6 280 16:55 13.08.2019
3734 Clouds 18 1014 59 10000 5.1 280 16:36 13.08.2019
3735 Clouds 18 1014 59 10000 5.1 280 16:18 13.08.2019
3736 Rain 16 1014 63 10000 5.1 260 15:38 13.08.2019
3737 Rain 16 1014 63 10000 5.1 260 15:20 13.08.2019
3738 Rain 16 1014 72 10000 5.1 260 14:55 13.08.2019
3739 Rain 16 1014 77 10000 5.7 250 14:37 13.08.2019
3740 Rain 16 1014 77 10000 5.7 250 14:18 13.08.2019
3741 Rain 16 1014 82 10000 5.1 250 13:41 13.08.2019
3742 Rain 15 1014 76 10000 6.7 280 13:21 13.08.2019
3743 Rain 16 1013 82 10000 6.2 230 12:57 13.08.2019
3744 Rain 16 1013 82 10000 6.2 230 12:39 13.08.2019
3745 Rain 15 1013 72 10000 6.2 240 12:21 13.08.2019
3746 Rain 16 1013 77 10000 6.7 230 11:56 13.08.2019
3747 Clouds 15 1013 82 10000 4.6 240 11:37 13.08.2019
3748 Clouds 15 1013 82 10000 4.6 240 11:18 13.08.2019
3749 Clouds 15 1013 82 10000 5.1 230 10:55 13.08.2019
3750 Rain 15 1013 82 10000 4.6 230 10:36 13.08.2019
3751 Rain 15 1013 82 10000 4.6 230 10:18 13.08.2019
3752 Clouds 15 1013 82 8000 4.1 230 09:41 13.08.2019
3753 Clouds 14 1013 87 8000 4.1 230 09:22 13.08.2019
3754 Clouds 14 1013 87 7000 4.1 240 08:42 13.08.2019
3755 Clouds 14 1012 87 7000 4.1 230 08:22 13.08.2019
3756 Clouds 14 1012 87 7000 4.6 230 07:56 13.08.2019
3757 Clouds 14 1012 87 7000 4.6 230 07:32 13.08.2019
3758 Clouds 13 1012 87 8000 3.6 230 06:53 13.08.2019
3759 Clouds 14 1012 93 8000 4.1 230 06:34 13.08.2019
3760 Clouds 14 1012 93 7000 3.6 240 05:35 13.08.2019
3761 Rain 15 1013 93 9000 1.5 290 02:38 13.08.2019
3762 Rain 15 1013 93 10000 1 0 01:59 13.08.2019
3763 Rain 15 1013 87 10000 3.6 240 00:59 13.08.2019
3764 Rain 16 1013 87 10000 3.6 240 00:40 13.08.2019
3765 Rain 16 1013 77 10000 0.5 0 23:56 12.08.2019
3766 Rain 16 1013 77 10000 0.5 0 23:36 12.08.2019
3767 Rain 16 1013 77 10000 2.1 250 23:18 12.08.2019
3768 Clear 16 1013 87 10000 1.5 290 22:40 12.08.2019
3769 Fog 16 1012 87 10000 0.5 340 22:20 12.08.2019
3770 Clear 17 1012 82 10000 1.5 330 21:55 12.08.2019
3771 Clear 17 1012 82 10000 1.5 330 21:37 12.08.2019
3772 Clear 18 1012 82 10000 1 0 21:18 12.08.2019
3773 Clear 18 1012 77 10000 0.5 290 20:57 12.08.2019
3774 Clear 19 1012 72 10000 2.1 320 20:38 12.08.2019
3775 Clear 19 1012 72 10000 2.1 320 20:20 12.08.2019
3776 Clear 19 1012 72 10000 2.1 320 20:20 12.08.2019
3777 Clear 20 1012 68 10000 1.5 330 19:55 12.08.2019
3778 Rain 20 1012 68 10000 2.1 310 19:37 12.08.2019
3779 Rain 20 1012 68 10000 2.1 310 19:19 12.08.2019
3780 Rain 20 1012 68 10000 3.1 320 18:55 12.08.2019
3781 Rain 20 1012 68 10000 3.1 320 18:55 12.08.2019
3782 Clouds 21 1012 72 10000 6.2 310 18:37 12.08.2019
3783 Clouds 21 1012 72 10000 6.2 310 18:18 12.08.2019
3784 Clouds 21 1012 72 10000 6.2 310 18:18 12.08.2019
3785 Thunderstorm 21 1012 60 10000 4.1 300 17:46 12.08.2019
3786 Clouds 22 1012 56 10000 5.7 310 17:28 12.08.2019
3787 Rain 22 1012 49 10000 4.6 300 16:57 12.08.2019
3788 Rain 23 1012 43 10000 5.7 230 16:39 12.08.2019
3789 Rain 22 1012 43 10000 5.7 230 16:20 12.08.2019
3790 Rain 22 1012 43 10000 5.7 230 16:20 12.08.2019
3791 Rain 22 1012 43 10000 5.7 230 16:20 12.08.2019
3792 Clouds 23 1012 44 10000 5.1 230 15:58 12.08.2019
3793 Clouds 22 1012 44 10000 5.1 230 15:39 12.08.2019
3794 Clouds 22 1012 49 10000 5.7 230 15:21 12.08.2019
3795 Clouds 22 1012 46 10000 6.2 240 14:55 12.08.2019
3796 Clouds 23 1012 46 10000 6.2 240 14:37 12.08.2019
3797 Clouds 23 1012 46 10000 6.2 240 14:37 12.08.2019
3798 Clouds 22 1013 56 10000 4.6 260 14:18 12.08.2019
3799 Rain 22 1013 56 10000 5.7 230 13:42 12.08.2019
3800 Clouds 22 1013 53 10000 5.1 240 13:23 12.08.2019
3801 Clouds 21 1013 60 10000 5.7 250 12:44 12.08.2019
3802 Clouds 21 1013 56 10000 6.7 240 12:23 12.08.2019
3803 Clouds 21 1013 56 10000 6.7 240 11:58 12.08.2019
3804 Clouds 21 1013 56 10000 6.7 240 11:39 12.08.2019
3805 Clouds 20 1013 60 10000 6.7 240 11:21 12.08.2019
3806 Clouds 20 1013 60 10000 7.2 230 10:42 12.08.2019
3807 Clouds 19 1013 63 10000 7.2 240 10:23 12.08.2019
3808 Clouds 19 1013 63 10000 6.7 230 09:56 12.08.2019
3809 Clouds 18 1013 68 10000 6.7 230 09:38 12.08.2019
3810 Clouds 18 1013 68 10000 6.7 230 09:19 12.08.2019
3811 Clear 18 1013 63 10000 5.7 230 08:57 12.08.2019
3812 Clear 17 1013 63 10000 5.7 230 08:38 12.08.2019
3813 Clear 17 1012 67 10000 6.2 230 08:38 12.08.2019
3814 Clear 17 1012 67 10000 6.2 230 08:19 12.08.2019
3815 Clear 16 1012 72 10000 5.1 220 07:49 12.08.2019
3816 Clear 15 1012 72 10000 4.6 230 07:27 12.08.2019
3817 Clear 15 1012 72 10000 4.1 230 06:50 12.08.2019
3818 Clear 15 1012 72 10000 3.1 230 05:39 12.08.2019
3819 Clear 16 1012 63 10000 2.1 250 02:44 12.08.2019
3820 Clear 17 1012 63 10000 2.1 230 01:55 12.08.2019
3821 Clear 17 1012 63 10000 2.1 220 01:21 12.08.2019
3822 Clear 18 1012 59 10000 2.1 220 00:58 12.08.2019
3823 Clear 18 1012 59 10000 2.1 220 00:39 12.08.2019
3824 Clear 18 1012 59 10000 2.1 230 00:20 12.08.2019
3825 Clear 18 1012 72 10000 1.5 230 23:55 11.08.2019
3826 Clear 18 1012 63 10000 1.5 230 23:37 11.08.2019
3827 Clear 18 1012 63 10000 1.5 230 23:18 11.08.2019
3828 Clear 18 1012 59 10000 2.1 220 22:40 11.08.2019
3829 Clouds 18 1012 63 10000 1 220 22:20 11.08.2019
3830 Clouds 18 1012 63 10000 1 220 22:20 11.08.2019
3831 Clear 19 1012 63 10000 1.5 250 21:59 11.08.2019
3832 Clear 19 1012 63 10000 1.5 250 21:41 11.08.2019
3833 Clear 20 1011 63 10000 1 240 21:22 11.08.2019
3834 Clear 20 1012 52 10000 1.5 240 20:58 11.08.2019
3835 Clear 21 1012 52 10000 1.5 240 20:40 11.08.2019
3836 Clear 21 1011 46 10000 2.6 240 20:22 11.08.2019
3837 Clear 22 1012 46 10000 4.1 230 19:45 11.08.2019
3838 Clear 22 1012 46 10000 4.1 230 19:45 11.08.2019
3839 Clear 22 1012 43 10000 4.6 240 19:20 11.08.2019
3840 Clear 22 1012 40 10000 4.1 240 18:56 11.08.2019
3841 Clear 22 1012 40 10000 4.1 240 18:36 11.08.2019
3842 Clear 23 1012 43 10000 5.1 240 18:18 11.08.2019
3843 Clear 23 1012 40 10000 6.7 240 17:41 11.08.2019
3844 Clear 23 1012 40 10000 4.1 250 17:20 11.08.2019
3845 Clear 23 1012 40 10000 6.2 240 16:59 11.08.2019
3846 Clear 23 1012 40 10000 6.2 240 16:59 11.08.2019
3847 Clear 23 1012 40 10000 6.2 240 16:40 11.08.2019
3848 Clear 23 1012 38 10000 6.2 250 16:20 11.08.2019
3849 Clear 23 1013 40 10000 6.7 250 15:56 11.08.2019
3850 Clear 23 1012 40 10000 5.7 240 15:38 11.08.2019
3851 Clear 23 1012 40 10000 5.7 240 15:19 11.08.2019
3852 Clear 23 1013 40 10000 6.7 230 14:42 11.08.2019
3853 Clear 23 1013 40 10000 6.7 230 14:42 11.08.2019
3854 Clear 23 1013 40 10000 8.2 230 14:24 11.08.2019
3855 Clear 23 1012 40 10000 8.7 230 13:46 11.08.2019
3856 Clear 23 1013 40 10000 10.3 230 13:26 11.08.2019
3857 Clear 23 1013 40 10000 10.8 220 12:59 11.08.2019
3858 Clear 22 1013 40 10000 10.8 220 12:41 11.08.2019
3859 Clear 22 1013 43 10000 9.8 230 12:21 11.08.2019
3860 Clouds 21 1013 49 10000 7.7 220 11:41 11.08.2019
3861 Clouds 21 1013 56 10000 7.7 230 11:22 11.08.2019
3862 Clouds 20 1013 56 10000 8.2 230 10:57 11.08.2019
3863 Clouds 20 1013 56 10000 8.2 230 10:39 11.08.2019
3864 Clear 20 1013 59 10000 7.7 230 10:20 11.08.2019
3865 Clear 19 1013 59 10000 7.7 230 09:55 11.08.2019
3866 Clear 19 1013 55 10000 9.3 220 09:37 11.08.2019
3867 Clear 19 1013 55 10000 9.3 220 09:18 11.08.2019
3868 Clear 18 1013 59 10000 7.2 220 08:41 11.08.2019
3869 Clear 17 1012 63 10000 6.7 220 08:23 11.08.2019
3870 Clear 16 1012 63 10000 6.2 210 07:47 11.08.2019
3871 Clear 16 1012 63 10000 5.1 220 07:20 11.08.2019
3872 Clear 15 1012 71 10000 4.6 220 06:38 11.08.2019
3873 Clear 16 1011 63 10000 5.1 220 05:34 11.08.2019
3874 Clear 17 1011 63 10000 5.1 230 03:36 11.08.2019
3875 Clear 17 1011 63 10000 5.1 230 02:45 11.08.2019
3876 Clear 17 1011 63 10000 6.7 230 01:36 11.08.2019
3877 Clear 17 1011 68 10000 5.1 210 00:59 11.08.2019
3878 Clear 17 1011 68 10000 5.1 210 00:41 11.08.2019
3879 Clear 17 1011 72 10000 4.6 210 00:23 11.08.2019
3880 Clear 17 1011 72 10000 5.7 220 23:43 10.08.2019
3881 Clear 17 1011 68 10000 4.6 220 23:23 10.08.2019
3882 Clear 17 1010 77 10000 4.6 210 22:43 10.08.2019
3883 Clear 17 1010 82 10000 3.6 210 22:25 10.08.2019
3884 Clear 18 1010 77 10000 4.6 210 21:58 10.08.2019
3885 Clear 18 1010 77 10000 4.6 210 21:58 10.08.2019
3886 Clear 18 1010 77 10000 4.6 210 21:38 10.08.2019
3887 Clear 18 1010 72 10000 5.1 210 21:19 10.08.2019
3888 Rain 19 1010 72 10000 6.7 220 20:56 10.08.2019
3889 Rain 19 1010 72 10000 6.7 220 20:37 10.08.2019
3890 Rain 20 1009 72 10000 7.2 220 20:18 10.08.2019
3891 Clouds 21 1008 64 10000 7.7 220 19:39 10.08.2019
3892 Clouds 21 1008 64 10000 7.7 220 19:21 10.08.2019
3893 Clouds 21 1008 60 10000 6.7 210 18:41 10.08.2019
3894 Clouds 22 1009 64 10000 8.2 230 18:22 10.08.2019
3895 Clouds 22 1009 60 10000 6.7 240 17:46 10.08.2019
3896 Rain 21 1009 72 10000 5.7 230 17:25 10.08.2019
3897 Rain 22 1009 82 10000 5.7 260 16:47 10.08.2019
3898 Rain 22 1008 56 10000 6.2 240 16:29 10.08.2019
3899 Rain 23 1008 53 10000 6.2 240 15:59 10.08.2019
3900 Rain 23 1008 53 10000 6.2 240 15:40 10.08.2019
3901 Rain 23 1008 60 10000 6.2 240 15:21 10.08.2019
3902 Clouds 23 1007 53 10000 8.7 230 14:43 10.08.2019
3903 Clouds 23 1007 56 10000 9.3 230 14:19 10.08.2019
3904 Clouds 23 1007 53 10000 9.8 220 13:40 10.08.2019
3905 Clouds 23 1007 56 10000 8.2 230 13:19 10.08.2019
3906 Clouds 22 1007 64 10000 7.2 230 12:44 10.08.2019
3907 Clouds 22 1007 64 10000 6.2 250 12:23 10.08.2019
3908 Clouds 22 1007 64 10000 8.2 230 11:58 10.08.2019
3909 Clouds 22 1007 64 10000 8.2 230 11:39 10.08.2019
3910 Clouds 22 1007 64 10000 8.7 230 11:21 10.08.2019
3911 Clouds 22 1006 68 10000 8.2 230 10:55 10.08.2019
3912 Clouds 22 1006 68 10000 8.2 230 10:36 10.08.2019
3913 Clouds 22 1006 68 10000 8.2 230 10:18 10.08.2019
3914 Clouds 22 1006 68 10000 8.2 230 10:18 10.08.2019
3915 Clouds 21 1006 77 10000 6.7 230 09:40 10.08.2019
3916 Clouds 21 1006 77 10000 6.7 230 09:21 10.08.2019
3917 Clouds 21 1006 77 10000 7.2 230 08:41 10.08.2019
3918 Clouds 20 1006 77 10000 5.7 220 08:20 10.08.2019
3919 Clouds 19 1006 82 10000 5.1 230 07:54 10.08.2019
3920 Clouds 20 1006 82 10000 5.1 230 07:54 10.08.2019
3921 Clouds 19 1006 88 10000 5.1 220 07:29 10.08.2019
3922 Clouds 19 1005 88 10000 4.6 220 06:49 10.08.2019
3923 Clouds 19 1005 88 10000 4.6 220 06:26 10.08.2019
3924 Clear 19 1005 93 10000 2.1 180 05:26 10.08.2019
3925 Clear 19 1005 88 10000 3.6 170 04:35 10.08.2019
3926 Clear 19 1005 88 10000 4.1 170 02:56 10.08.2019
3927 Clouds 19 1005 82 10000 5.1 150 02:27 10.08.2019
3928 Clear 19 1005 82 10000 4.1 140 01:43 10.08.2019
3929 Clear 19 1006 82 10000 4.1 140 01:23 10.08.2019
3930 Clear 19 1006 82 10000 4.1 150 00:49 10.08.2019
3931 -273 0 0 0 0 0 00:26 10.08.2019
3932 Clear 19 1006 82 10000 4.1 150 23:59 09.08.2019
3933 Clear 19 1005 82 10000 5.7 120 23:38 09.08.2019
3934 Clear 19 1005 82 10000 5.7 120 23:19 09.08.2019
3935 Clear 19 1006 88 10000 5.1 120 22:41 09.08.2019
3936 Rain 19 1007 88 10000 5.1 130 22:23 09.08.2019
3937 Clouds 19 1007 88 10000 5.7 110 21:59 09.08.2019
3938 Clouds 19 1007 88 10000 5.7 110 21:39 09.08.2019
3939 Rain 19 1007 88 10000 5.7 130 21:21 09.08.2019
3940 Rain 19 1008 82 10000 4.1 120 20:56 09.08.2019
3941 Rain 19 1008 82 10000 4.1 120 20:38 09.08.2019
3942 Rain 19 1008 88 10000 4.1 110 20:18 09.08.2019
3943 Rain 19 1008 88 8000 4.1 90 19:43 09.08.2019
3944 Rain 19 1008 82 10000 3.6 70 19:22 09.08.2019
3945 Rain 19 1008 82 10000 3.6 70 19:22 09.08.2019
3946 Rain 20 1009 77 10000 1.5 80 18:56 09.08.2019
3947 Rain 21 1009 73 10000 2.1 80 18:38 09.08.2019
3948 Rain 21 1009 73 10000 2.1 80 18:38 09.08.2019
3949 Rain 21 1009 73 10000 2.1 80 18:19 09.08.2019
3950 Rain 21 1009 73 10000 2.1 80 18:19 09.08.2019
3951 Rain 22 1009 56 10000 4.1 100 17:42 09.08.2019
3952 Rain 22 1009 56 10000 4.1 100 17:24 09.08.2019
3953 -273 0 0 0 0 0 16:55 09.08.2019
3954 Rain 23 1009 56 10000 4.6 100 16:36 09.08.2019
3955 Rain 23 1009 56 10000 4.6 100 16:18 09.08.2019
3956 Rain 23 1009 56 10000 5.7 120 15:42 09.08.2019
3957 Clear 23 1010 53 10000 4.6 120 15:21 09.08.2019
3958 Clear 22 1010 56 10000 4.1 130 14:58 09.08.2019
3959 Clear 22 1010 56 10000 4.1 130 14:38 09.08.2019
3960 Clear 23 1011 56 10000 4.6 120 14:20 09.08.2019
3961 Clouds 23 1011 53 10000 4.1 130 13:46 09.08.2019
3962 Clouds 22 1011 60 10000 3.6 110 13:21 09.08.2019
3963 Clouds 22 1011 60 10000 3.1 140 12:58 09.08.2019
3964 Clouds 21 1011 60 10000 3.1 140 12:40 09.08.2019
3965 Clouds 21 1011 64 10000 3.1 120 12:21 09.08.2019
3966 Clouds 20 1012 64 10000 2.1 160 11:42 09.08.2019
3967 Clouds 20 1012 64 10000 2.1 200 11:21 09.08.2019
3968 Clouds 20 1012 64 10000 2.6 160 10:58 09.08.2019
3969 Clouds 19 1012 64 10000 2.6 160 10:38 09.08.2019
3970 Clouds 19 1012 64 10000 1.5 150 10:20 09.08.2019
3971 Clouds 18 1012 72 10000 1.5 190 09:42 09.08.2019
3972 Clouds 17 1012 77 10000 1.5 230 09:19 09.08.2019
3973 Clear 16 1012 82 10000 2.1 220 08:46 09.08.2019
3974 Clear 16 1012 87 10000 2.1 210 08:26 09.08.2019
3975 Clear 14 1012 87 10000 1.5 220 07:59 09.08.2019
3976 Clear 14 1012 87 10000 1.5 220 07:41 09.08.2019
3977 Clear 13 1012 100 10000 1.5 200 07:21 09.08.2019
3978 Fog 13 1012 93 10000 0.5 0 06:50 09.08.2019
3979 Fog 13 1012 93 10000 1.5 220 06:22 09.08.2019
3980 Fog 13 1012 93 10000 2.1 230 05:46 09.08.2019
3981 Clear 14 1011 93 10000 2.6 220 02:30 09.08.2019
3982 Clear 14 1011 93 10000 2.1 230 01:41 09.08.2019
3983 Clear 15 1011 87 10000 2.6 230 00:43 09.08.2019
3984 Clear 15 1011 87 10000 2.6 230 00:24 09.08.2019
3985 Clear 15 1011 82 10000 1.5 240 23:59 08.08.2019
3986 Clear 16 1011 77 10000 2.1 260 23:38 08.08.2019
3987 Clear 16 1011 77 10000 2.1 260 23:19 08.08.2019
3988 Clear 16 1011 77 10000 2.6 270 22:57 08.08.2019
3989 Clear 16 1011 77 10000 2.6 270 22:36 08.08.2019
3990 Clear 17 1011 77 10000 2.6 290 22:18 08.08.2019
3991 Clear 17 1011 77 10000 3.1 300 21:55 08.08.2019
3992 Clear 18 1011 77 10000 3.1 300 21:37 08.08.2019
3993 Clouds 18 1010 72 10000 4.1 310 21:18 08.08.2019
3994 Clouds 19 1010 64 10000 4.6 300 20:42 08.08.2019
3995 Clouds 20 1010 68 10000 4.1 300 20:21 08.08.2019
3996 Clouds 20 1009 60 10000 6.2 290 19:57 08.08.2019
3997 Clouds 20 1009 60 10000 6.2 290 19:38 08.08.2019
3998 Clouds 20 1009 60 10000 6.2 290 19:19 08.08.2019
3999 Clouds 20 1009 60 10000 6.2 290 19:19 08.08.2019
4000 Clouds 21 1009 56 10000 5.1 300 18:41 08.08.2019
4001 Clouds 21 1009 56 10000 5.1 300 18:41 08.08.2019
4002 Rain 21 1009 60 10000 5.7 310 18:22 08.08.2019
4003 Rain 21 1009 68 10000 4.6 310 17:55 08.08.2019
4004 Rain 21 1009 68 10000 4.6 310 17:36 08.08.2019
4005 Rain 22 1009 72 10000 5.7 310 17:18 08.08.2019
4006 Thunderstorm 21 1009 56 10000 3.1 280 16:42 08.08.2019
4007 Thunderstorm 21 1009 53 10000 7.2 250 16:24 08.08.2019
4008 Rain 21 1009 60 10000 7.7 260 15:58 08.08.2019
4009 Rain 21 1009 60 10000 7.7 260 15:39 08.08.2019
4010 Rain 21 1008 56 10000 5.7 270 15:21 08.08.2019
4011 Rain 22 1008 53 10000 7.2 250 14:42 08.08.2019
4012 Rain 22 1008 49 10000 7.2 250 14:23 08.08.2019
4013 Clouds 22 1008 49 10000 8.7 240 13:59 08.08.2019
4014 Clouds 21 1008 56 10000 6.2 240 13:38 08.08.2019
4015 Clouds 21 1008 56 10000 6.2 240 13:18 08.08.2019
4016 Clouds 21 1008 64 10000 7.2 230 12:40 08.08.2019
4017 Thunderstorm 21 1007 60 10000 5.7 250 12:20 08.08.2019
4018 Clouds 21 1008 64 10000 7.7 230 11:56 08.08.2019
4019 Clouds 20 1008 64 10000 7.7 230 11:37 08.08.2019
4020 Rain 19 1008 68 10000 7.2 230 11:19 08.08.2019
4021 Clouds 19 1008 72 10000 6.7 230 10:41 08.08.2019
4022 Clouds 19 1008 72 10000 6.2 220 10:21 08.08.2019
4023 Clouds 18 1008 68 10000 6.2 220 09:49 08.08.2019
4024 Clouds 17 1007 72 10000 5.7 220 09:30 08.08.2019
4025 Clouds 17 1007 77 10000 5.1 230 08:56 08.08.2019
4026 Clouds 16 1007 77 10000 4.6 220 08:37 08.08.2019
4027 Clouds 16 1007 77 10000 4.6 220 08:18 08.08.2019
4028 Clear 15 1007 82 10000 5.1 220 07:40 08.08.2019
4029 Clear 15 1007 82 10000 3.6 210 07:20 08.08.2019
4030 Clear 14 1007 82 10000 3.6 200 06:47 08.08.2019
4031 Rain 14 1007 87 10000 2.6 220 06:27 08.08.2019
4032 Clouds 14 1007 82 10000 3.1 210 05:53 08.08.2019
4033 Clear 14 1007 93 10000 2.1 220 04:54 08.08.2019
4034 Fog 14 1007 100 10000 1.5 220 03:53 08.08.2019
4035 Clear 14 1007 93 10000 0.5 0 02:28 08.08.2019
4036 Clouds 15 1007 93 10000 0.5 0 01:37 08.08.2019
4037 Rain 15 1007 93 10000 0.5 0 00:26 08.08.2019
4038 Fog 16 1007 93 10000 1 0 23:51 07.08.2019
4039 Fog 16 1006 93 10000 1 0 23:20 07.08.2019
4040 Clear 16 1006 87 10000 1.5 220 22:57 07.08.2019
4041 Clouds 17 1006 87 10000 0.5 0 22:39 07.08.2019
4042 Clouds 17 1006 87 10000 0.5 0 22:20 07.08.2019
4043 Clouds 17 1006 87 10000 0.5 0 22:20 07.08.2019
4044 Rain 17 1006 77 10000 2.1 230 21:56 07.08.2019
4045 Rain 18 1006 77 10000 2.1 230 21:37 07.08.2019
4046 Rain 19 1006 77 10000 2.6 250 21:19 07.08.2019
4047 Rain 20 1006 63 10000 3.6 310 20:43 07.08.2019
4048 Thunderstorm 20 1006 60 10000 4.1 310 20:24 07.08.2019
4049 Thunderstorm 21 1005 56 10000 4.6 270 19:59 07.08.2019
4050 Thunderstorm 21 1005 56 10000 4.6 270 19:39 07.08.2019
4051 Clouds 21 1005 53 10000 5.1 280 19:21 07.08.2019
4052 Clouds 21 1005 53 10000 5.1 270 18:55 07.08.2019
4053 Clouds 21 1005 56 10000 5.1 290 18:37 07.08.2019
4054 Clouds 21 1005 56 10000 5.1 290 18:19 07.08.2019
4055 Clear 22 1005 64 10000 6.2 290 17:54 07.08.2019
4056 Rain 21 1005 64 10000 6.7 290 17:36 07.08.2019
4057 Rain 22 1005 64 10000 6.7 290 17:18 07.08.2019
4058 Clouds 22 1005 64 10000 7.7 300 16:54 07.08.2019
4059 Rain 22 1005 60 10000 9.8 280 16:36 07.08.2019
4060 Rain 21 1005 60 10000 9.8 280 16:18 07.08.2019
4061 Clouds 22 1004 44 10000 5.1 240 15:42 07.08.2019
4062 Clouds 23 1004 47 10000 5.1 230 15:20 07.08.2019
4063 Clouds 23 1004 60 10000 4.1 250 14:49 07.08.2019
4064 Clouds 23 1004 64 10000 3.1 230 14:30 07.08.2019
4065 Clouds 23 1005 64 10000 4.6 220 13:58 07.08.2019
4066 Clouds 23 1005 64 10000 4.6 220 13:39 07.08.2019
4067 Clouds 22 1005 68 10000 4.1 200 13:19 07.08.2019
4068 Clouds 21 1005 72 10000 2.6 210 12:57 07.08.2019
4069 Rain 20 1005 88 10000 1 0 12:38 07.08.2019
4070 Rain 20 1005 88 10000 1 0 12:19 07.08.2019
4071 Rain 19 1005 88 10000 1.5 150 11:55 07.08.2019
4072 Rain 19 1005 88 10000 1.5 150 11:37 07.08.2019
4073 Rain 18 1005 88 8000 3.1 200 11:18 07.08.2019
4074 Rain 18 1005 72 10000 4.6 180 10:40 07.08.2019
4075 Rain 18 1005 72 10000 4.6 180 10:20 07.08.2019
4076 Rain 18 1005 72 10000 4.1 170 09:55 07.08.2019
4077 Clear 18 1005 72 10000 4.1 170 09:37 07.08.2019
4078 Clear 17 1005 72 10000 4.1 170 09:18 07.08.2019
4079 Rain 17 1005 72 10000 4.6 150 08:45 07.08.2019
4080 Clear 17 1005 72 10000 3.6 150 08:24 07.08.2019
4081 Clear 16 1005 77 10000 3.6 160 07:50 07.08.2019
4082 Clear 16 1005 82 10000 3.6 140 07:29 07.08.2019
4083 Clear 14 1006 82 10000 3.1 160 06:44 07.08.2019
4084 Clear 14 1006 87 10000 2.6 140 06:21 07.08.2019
4085 Clear 14 1006 87 10000 2.1 130 05:42 07.08.2019
4086 Clear 14 1007 87 10000 1 0 04:37 07.08.2019
4087 Clouds 14 1007 93 10000 1 60 02:58 07.08.2019
4088 Clouds 14 1007 93 10000 1 60 02:38 07.08.2019
4089 Clear 14 1007 93 10000 0.5 0 01:51 07.08.2019
4090 Clear 15 1008 87 10000 0.5 0 01:22 07.08.2019
4091 Clear 16 1008 87 10000 1 0 00:24 07.08.2019
4092 Clear 16 1008 87 10000 0.5 350 23:59 06.08.2019
4093 Clear 16 1008 87 10000 0.5 350 23:38 06.08.2019
4094 Clear 17 1008 88 10000 0.5 300 23:20 06.08.2019
4095 Clear 17 1008 77 10000 0.5 0 22:41 06.08.2019
4096 Rain 18 1008 72 10000 1 0 22:22 06.08.2019
4097 Rain 19 1008 77 10000 2.1 330 21:57 06.08.2019
4098 Rain 19 1008 77 10000 2.1 330 21:39 06.08.2019
4099 Rain 20 1007 68 10000 2.1 300 21:19 06.08.2019
4100 Rain 20 1007 68 10000 2.1 300 21:19 06.08.2019
4101 Rain 20 1007 68 10000 2.1 300 21:19 06.08.2019
4102 Rain 20 1007 68 10000 2.1 300 21:19 06.08.2019
4103 Rain 20 1007 68 10000 2.6 320 20:46 06.08.2019
4104 Rain 20 1007 68 10000 2.6 320 20:28 06.08.2019
4105 Clouds 20 1007 68 10000 4.1 320 19:58 06.08.2019
4106 Clear 21 1007 60 10000 5.1 320 19:38 06.08.2019
4107 Clear 21 1007 60 10000 5.1 320 19:19 06.08.2019
4108 Clear 21 1007 60 10000 6.7 320 18:43 06.08.2019
4109 Clear 22 1007 68 10000 7.7 310 18:25 06.08.2019
4110 Clear 23 1007 47 10000 5.7 280 17:58 06.08.2019
4111 Clear 23 1007 47 10000 5.7 280 17:38 06.08.2019
4112 Clear 23 1007 44 10000 4.1 260 17:19 06.08.2019
4113 Clear 24 1007 41 10000 4.1 250 16:54 06.08.2019
4114 Clear 24 1007 41 10000 4.1 220 16:36 06.08.2019
4115 Clear 24 1007 41 10000 4.1 220 16:18 06.08.2019
4116 Clear 25 1007 41 10000 3.6 260 15:56 06.08.2019
4117 Clear 25 1007 38 10000 3.6 250 15:37 06.08.2019
4118 Clear 25 1007 38 10000 3.6 250 15:18 06.08.2019
4119 Clouds 24 1008 47 10000 3.1 240 14:40 06.08.2019
4120 Clouds 24 1008 47 10000 3.6 270 14:22 06.08.2019
4121 Clouds 24 1008 47 10000 4.1 230 13:57 06.08.2019
4122 Clouds 24 1008 47 10000 4.1 230 13:38 06.08.2019
4123 Clouds 24 1008 53 10000 4.1 230 13:19 06.08.2019
4124 Clouds 24 1008 53 10000 3.6 250 12:55 06.08.2019
4125 Clouds 23 1008 56 10000 4.6 250 12:36 06.08.2019
4126 Clouds 23 1008 56 10000 4.6 250 12:18 06.08.2019
4127 Clouds 22 1009 64 10000 3.6 0 11:40 06.08.2019
4128 Clouds 22 1009 64 10000 3.6 0 11:40 06.08.2019
4129 Clouds 22 1009 64 10000 3.6 0 11:40 06.08.2019
4130 Clouds 22 1009 64 10000 3.6 0 11:18 06.08.2019
4131 Clouds 21 1009 68 10000 3.6 250 10:41 06.08.2019
4132 Clouds 21 1009 73 10000 3.6 250 10:22 06.08.2019
4133 Clouds 20 1008 77 10000 3.6 260 09:48 06.08.2019
4134 Clear 19 1008 77 10000 3.6 240 09:24 06.08.2019
4135 Clear 19 1008 77 10000 3.6 230 08:57 06.08.2019
4136 Clear 18 1008 77 10000 3.6 230 08:38 06.08.2019
4137 Clear 18 1008 82 10000 3.1 220 08:20 06.08.2019
4138 Mist 17 1008 88 9000 2.1 240 07:36 06.08.2019
4139 Fog 16 1008 93 7000 2.1 220 06:51 06.08.2019
4140 Fog 16 1008 88 7000 2.1 230 06:29 06.08.2019
4141 Fog 16 1008 93 9000 2.1 220 05:48 06.08.2019
4142 Fog 17 1009 93 10000 2.1 210 03:44 06.08.2019
4143 Clouds 17 1009 93 10000 1 220 01:51 06.08.2019
4144 Clear 18 1009 88 10000 2.1 240 01:22 06.08.2019
4145 Clear 18 1009 82 10000 3.1 270 00:29 06.08.2019
4146 Clear 19 1009 82 10000 2.6 250 23:46 05.08.2019
4147 Clear 19 1009 82 10000 3.1 230 23:18 05.08.2019
4148 Clear 19 1009 82 10000 1.5 220 22:41 05.08.2019
4149 Clear 19 1009 82 10000 1 0 22:23 05.08.2019
4150 Clear 20 1009 77 10000 2.1 180 21:55 05.08.2019
4151 Clouds 20 1008 68 10000 3.1 150 21:36 05.08.2019
4152 Clouds 21 1008 68 10000 3.1 150 21:18 05.08.2019
4153 Clouds 21 1008 68 10000 2.6 160 20:55 05.08.2019
4154 Clouds 21 1008 68 10000 3.6 150 20:37 05.08.2019
4155 Clouds 21 1008 68 10000 3.6 150 20:18 05.08.2019
4156 Clear 21 1008 68 10000 2.6 160 19:43 05.08.2019
4157 Clear 22 1008 64 10000 2.1 110 19:23 05.08.2019
4158 Clear 22 1008 64 10000 2.6 100 18:57 05.08.2019
4159 Clear 22 1008 64 10000 2.6 100 18:39 05.08.2019
4160 Clear 22 1008 64 10000 2.1 120 18:18 05.08.2019
4161 Clear 22 1009 64 10000 2.6 140 17:42 05.08.2019
4162 Clear 22 1009 64 10000 2.1 120 17:24 05.08.2019
4163 Clear 22 1009 68 10000 2.6 120 16:46 05.08.2019
4164 Clouds 22 1009 68 10000 2.1 150 16:25 05.08.2019
4165 Rain 23 1009 64 10000 2.6 190 15:56 05.08.2019
4166 Rain 23 1009 64 10000 2.6 190 15:36 05.08.2019
4167 Rain 23 1009 60 10000 2.1 170 15:18 05.08.2019
4168 Clear 23 1009 56 10000 2.6 170 14:39 05.08.2019
4169 Clear 23 1009 56 10000 2.6 170 14:19 05.08.2019
4170 Clear 23 1009 56 10000 2.1 160 13:44 05.08.2019
4171 Clear 23 1009 56 10000 2.6 160 13:22 05.08.2019
4172 Clear 23 1009 56 10000 3.6 170 12:48 05.08.2019
4173 Clear 23 1010 56 10000 2.6 140 12:20 05.08.2019
4174 Clear 22 1010 56 10000 2.6 150 11:47 05.08.2019
4175 Clear 22 1010 56 10000 2.6 90 11:28 05.08.2019
4176 Clear 21 1010 60 10000 2.6 140 10:59 05.08.2019
4177 Clear 21 1010 60 10000 2.6 140 10:41 05.08.2019
4178 Clear 21 1010 60 10000 2.6 130 10:21 05.08.2019
4179 Clear 19 1011 68 10000 2.1 110 09:43 05.08.2019
4180 Clear 18 1011 77 10000 2.6 100 09:24 05.08.2019
4181 Clear 17 1011 72 10000 2.1 90 08:59 05.08.2019
4182 Clear 17 1011 72 10000 2.1 90 08:40 05.08.2019
4183 Clear 16 1011 82 10000 2.1 80 08:20 05.08.2019
4184 Clear 16 1011 82 10000 2.1 80 08:20 05.08.2019
4185 Clear 16 1011 82 10000 1.5 90 07:42 05.08.2019
4186 Clear 15 1012 87 10000 2.1 70 07:22 05.08.2019
4187 Clear 15 1012 87 10000 2.1 70 06:32 05.08.2019
4188 Clear 15 1012 87 10000 1 0 05:52 05.08.2019
4189 Clear 15 1013 93 10000 1.5 40 05:19 05.08.2019
4190 Clear 15 1013 87 10000 1 0 04:27 05.08.2019
4191 Clear 14 1013 93 10000 0.5 0 03:38 05.08.2019
4192 Clear 15 1014 93 10000 0.5 0 02:36 05.08.2019
4193 Clear 15 1014 87 10000 0.5 0 01:35 05.08.2019
4194 Clear 16 1014 87 10000 0.5 0 00:43 05.08.2019
4195 Clear 16 1014 82 10000 0.5 0 00:24 05.08.2019
4196 Clear 16 1014 82 10000 0.5 0 23:59 04.08.2019
4197 Clear 17 1014 82 10000 0.5 0 23:40 04.08.2019
4198 Clear 17 1014 88 10000 1.5 320 23:20 04.08.2019
4199 Clear 17 1014 82 10000 1 320 22:56 04.08.2019
4200 Clouds 17 1014 82 10000 1 310 22:37 04.08.2019
4201 Clouds 17 1014 82 10000 1 310 22:19 04.08.2019
4202 Clouds 19 1014 72 10000 1 320 21:44 04.08.2019
4203 Clouds 19 1014 68 10000 1.5 290 21:22 04.08.2019
4204 Clouds 20 1014 60 10000 2.1 290 20:55 04.08.2019
4205 Clouds 20 1014 60 10000 3.1 310 20:37 04.08.2019
4206 Clouds 20 1014 60 10000 3.1 310 20:18 04.08.2019
4207 Clouds 20 1014 56 10000 3.6 320 19:43 04.08.2019
4208 Clouds 21 1014 60 10000 4.1 320 19:24 04.08.2019
4209 Clouds 21 1014 53 10000 4.1 330 18:44 04.08.2019
4210 Clouds 21 1015 56 10000 4.1 300 18:21 04.08.2019
4211 Clouds 21 1015 60 10000 3.6 300 17:59 04.08.2019
4212 Clouds 22 1015 56 10000 3.1 290 17:40 04.08.2019
4213 Clouds 22 1015 56 10000 3.1 290 17:21 04.08.2019
4214 Clouds 21 1015 60 10000 4.1 290 16:44 04.08.2019
4215 Clouds 22 1015 60 10000 3.6 310 16:26 04.08.2019
4216 Clouds 21 1016 68 10000 2.1 280 15:55 04.08.2019
4217 Clouds 21 1016 68 10000 2.1 280 15:37 04.08.2019
4218 Clouds 21 1016 68 10000 2.1 270 15:18 04.08.2019
4219 Clouds 21 1016 68 10000 3.1 260 14:42 04.08.2019
4220 Clouds 21 1016 68 10000 3.6 250 14:20 04.08.2019
4221 Clouds 20 1016 68 10000 3.1 260 13:43 04.08.2019
4222 Clouds 20 1016 64 10000 3.1 260 13:23 04.08.2019
4223 Clouds 20 1016 72 10000 4.1 240 12:55 04.08.2019
4224 Clouds 20 1016 72 10000 3.6 250 12:37 04.08.2019
4225 Clouds 20 1016 72 10000 3.6 250 12:18 04.08.2019
4226 Clouds 19 1016 72 10000 4.1 280 11:41 04.08.2019
4227 Clouds 19 1016 72 10000 3.1 260 11:22 04.08.2019
4228 Clouds 19 1016 77 10000 3.1 250 10:43 04.08.2019
4229 Clouds 19 1016 77 10000 3.1 250 10:43 04.08.2019
4230 Clouds 18 1016 82 10000 2.6 270 10:21 04.08.2019
4231 Clouds 18 1016 77 10000 2.1 270 09:46 04.08.2019
4232 Clouds 17 1016 88 10000 1.5 260 09:25 04.08.2019
4233 Clouds 17 1016 88 10000 1 0 08:57 04.08.2019
4234 Rain 16 1016 87 10000 2.6 260 08:33 04.08.2019
4235 Clouds 16 1016 87 10000 2.1 250 07:54 04.08.2019
4236 Clouds 15 1016 87 10000 1.5 240 07:23 04.08.2019
4237 Clouds 14 1016 93 10000 1.5 240 06:28 04.08.2019
4238 Clouds 14 1016 87 10000 1.5 230 05:57 04.08.2019
4239 Clouds 14 1016 87 10000 0.5 0 03:36 04.08.2019
4240 Clear 15 1016 87 10000 2.1 270 01:52 04.08.2019
4241 Clear 15 1016 87 10000 1 0 01:32 04.08.2019
4242 Clear 16 1016 82 10000 1.5 270 00:42 04.08.2019
4243 Clear 16 1016 82 10000 2.1 310 00:23 04.08.2019
4244 Clear 17 1016 77 10000 3.1 300 23:42 03.08.2019
4245 Clear 17 1016 82 10000 4.1 300 23:19 03.08.2019
4246 Clear 17 1016 77 10000 3.6 300 22:59 03.08.2019
4247 Clear 17 1016 77 10000 3.6 300 22:39 03.08.2019
4248 Clear 18 1016 77 10000 3.6 300 22:19 03.08.2019
4249 Clear 18 1016 72 10000 4.1 290 21:39 03.08.2019
4250 Clouds 19 1015 72 10000 4.6 290 21:21 03.08.2019
4251 Clouds 19 1015 68 10000 6.2 290 20:45 03.08.2019
4252 Clouds 20 1015 64 10000 6.2 300 20:24 03.08.2019
4253 Clouds 20 1015 56 10000 5.1 290 19:55 03.08.2019
4254 Rain 21 1015 60 10000 5.7 290 19:37 03.08.2019
4255 Rain 21 1015 60 10000 5.7 290 19:18 03.08.2019
4256 Rain 22 1015 64 10000 4.1 30 18:40 03.08.2019
4257 Rain 22 1015 64 10000 4.1 30 18:22 03.08.2019
4258 Rain 22 1015 56 10000 6.2 290 17:42 03.08.2019
4259 Rain 22 1015 53 10000 6.2 310 17:20 03.08.2019
4260 Rain 22 1015 53 10000 5.1 310 16:39 03.08.2019
4261 Rain 22 1015 53 10000 5.1 310 16:21 03.08.2019
4262 Rain 23 1015 57 10000 5.1 310 15:46 03.08.2019
4263 Rain 23 1015 53 10000 5.7 290 15:26 03.08.2019
4264 Clouds 24 1015 47 10000 2.1 0 14:50 03.08.2019
4265 Rain 24 1015 53 10000 1.5 0 14:24 03.08.2019
4266 Rain 24 1015 50 10000 2.1 0 13:59 03.08.2019
4267 Rain 24 1015 50 10000 2.1 0 13:41 03.08.2019
4268 Clouds 24 1015 53 10000 1.5 0 13:23 03.08.2019
4269 Clouds 23 1015 56 10000 1.5 270 12:54 03.08.2019
4270 Clouds 23 1015 60 10000 1.5 20 12:36 03.08.2019
4271 Clouds 22 1015 60 10000 1.5 20 12:18 03.08.2019
4272 Clouds 22 1015 60 10000 2.1 310 11:38 03.08.2019
4273 Clouds 21 1015 68 10000 1.5 300 11:19 03.08.2019
4274 Clouds 20 1015 72 10000 1 0 10:38 03.08.2019
4275 Clouds 20 1015 72 10000 1 0 10:19 03.08.2019
4276 Clear 18 1015 77 10000 0.5 0 09:37 03.08.2019
4277 Clear 17 1015 88 0 1 0 09:18 03.08.2019
4278 Mist 16 1015 100 5000 1.5 310 08:43 03.08.2019
4279 Fog 14 1015 100 700 2.1 320 07:38 03.08.2019
4280 Fog 13 1014 100 700 1 320 06:48 03.08.2019
4281 Fog 13 1014 100 600 1.5 320 06:18 03.08.2019
4282 Fog 15 1014 100 3000 0.5 310 03:35 03.08.2019
4283 Fog 15 1014 100 500 1.5 310 02:25 03.08.2019
4284 Fog 16 1014 100 1200 1.5 320 00:59 03.08.2019
4285 Fog 16 1014 93 4800 1 330 00:32 03.08.2019
4286 Fog 17 1014 93 10000 1 320 23:42 02.08.2019
4287 Fog 17 1014 93 10000 1 320 23:42 02.08.2019
4288 Fog 17 1014 93 10000 2.1 340 23:20 02.08.2019
4289 Fog 17 1014 93 10000 2.1 340 22:59 02.08.2019
4290 Fog 18 1014 93 10000 2.6 320 22:40 02.08.2019
4291 Fog 18 1014 93 10000 2.6 320 22:22 02.08.2019
4292 Clear 18 1014 93 10000 1 0 21:56 02.08.2019
4293 Clear 18 1014 93 10000 1 0 21:38 02.08.2019
4294 Clear 19 1014 82 10000 1.5 50 21:20 02.08.2019
4295 Clear 20 1013 82 10000 1.5 10 20:43 02.08.2019
4296 Clear 20 1013 82 10000 1.5 10 20:23 02.08.2019
4297 Clear 20 1014 82 10000 1.5 360 19:55 02.08.2019
4298 Clouds 20 1014 77 10000 1.5 340 19:33 02.08.2019
4299 Clouds 20 1014 82 10000 2.1 30 18:57 02.08.2019
4300 Rain 20 1014 82 10000 1.5 20 18:38 02.08.2019
4301 Rain 19 1014 82 10000 1.5 20 18:18 02.08.2019
4302 Rain 20 1014 77 10000 3.6 50 17:39 02.08.2019
4303 Rain 20 1014 77 10000 3.6 50 17:20 02.08.2019
4304 Rain 20 1014 88 10000 4.1 360 16:40 02.08.2019
4305 Rain 20 1014 77 10000 4.1 320 16:21 02.08.2019
4306 Rain 20 1014 82 10000 3.6 320 15:57 02.08.2019
4307 Rain 20 1014 82 10000 3.6 320 15:37 02.08.2019
4308 Thunderstorm 21 1014 88 10000 6.2 290 15:18 02.08.2019
4309 Thunderstorm 22 1014 77 10000 2.1 0 14:44 02.08.2019
4310 Rain 23 1014 56 10000 3.1 100 14:18 02.08.2019
4311 Rain 23 1014 56 10000 2.6 110 13:46 02.08.2019
4312 Clouds 23 1014 60 10000 3.1 90 13:23 02.08.2019
4313 Clouds 23 1014 64 10000 3.1 90 12:44 02.08.2019
4314 Rain 22 1014 73 10000 3.1 100 12:21 02.08.2019
4315 Clouds 21 1015 68 10000 2.6 100 11:42 02.08.2019
4316 Clouds 21 1015 68 10000 1.5 160 11:24 02.08.2019
4317 Clear 20 1015 77 10000 1 0 10:55 02.08.2019
4318 Rain 20 1015 77 10000 2.1 70 10:37 02.08.2019
4319 Rain 19 1015 77 10000 2.1 70 10:18 02.08.2019
4320 Rain 19 1015 77 10000 2.6 120 09:44 02.08.2019
4321 Rain 18 1015 82 10000 1 70 09:24 02.08.2019
4322 Rain 17 1015 88 10000 1.5 60 08:44 02.08.2019
4323 Rain 17 1014 82 10000 1 60 08:21 02.08.2019
4324 Rain 16 1014 82 10000 0.5 0 07:48 02.08.2019
4325 Rain 16 1014 88 10000 1 50 07:28 02.08.2019
4326 Clear 16 1014 88 10000 1 60 06:42 02.08.2019
4327 Clear 16 1014 88 10000 0.5 0 05:50 02.08.2019
4328 Clear 16 1015 77 10000 1.5 80 03:55 02.08.2019
4329 Clear 16 1015 82 10000 1.5 110 03:25 02.08.2019
4330 Clear 17 1015 82 10000 1.5 60 01:46 02.08.2019
4331 Clear 18 1015 82 10000 2.6 70 00:35 02.08.2019
4332 Clear 18 1015 77 10000 2.6 60 23:46 01.08.2019
4333 Clear 18 1015 72 10000 2.6 70 23:28 01.08.2019
4334 Clear 18 1015 68 10000 2.6 60 22:58 01.08.2019
4335 Clear 19 1015 72 10000 0.5 0 22:38 01.08.2019
4336 Clear 19 1015 72 10000 0.5 0 22:19 01.08.2019
4337 Clear 19 1015 68 10000 1 280 21:43 01.08.2019
4338 Clear 19 1015 68 10000 1 280 21:43 01.08.2019
4339 Clear 21 1015 68 10000 1.5 360 21:23 01.08.2019
4340 Clear 22 1015 56 10000 2.1 310 20:55 01.08.2019
4341 Clear 22 1015 56 10000 2.1 310 20:37 01.08.2019
4342 Clear 22 1015 53 10000 2.6 310 20:19 01.08.2019
4343 Clear 23 1015 46 10000 3.1 260 19:42 01.08.2019
4344 Clear 23 1015 44 10000 2.6 250 19:20 01.08.2019
4345 Clear 24 1015 38 10000 1.5 50 18:44 01.08.2019
4346 Clear 24 1015 44 10000 1.5 0 18:25 01.08.2019
4347 Clear 24 1015 38 10000 1 0 17:56 01.08.2019
4348 Clear 24 1015 41 10000 2.1 290 17:38 01.08.2019
4349 Clear 24 1015 41 10000 2.1 290 17:19 01.08.2019
4350 Rain 24 1015 41 10000 2.1 330 16:44 01.08.2019
4351 Clear 24 1015 44 10000 2.1 0 16:21 01.08.2019
4352 Clear 24 1015 38 10000 1.5 0 15:42 01.08.2019
4353 Clouds 24 1015 46 10000 2.6 0 15:20 01.08.2019
4354 Clouds 24 1015 41 10000 2.6 0 14:44 01.08.2019
4355 Clouds 24 1016 49 10000 1 0 14:21 01.08.2019
4356 Clouds 24 1016 53 10000 3.1 260 13:59 01.08.2019
4357 Clouds 24 1016 53 10000 3.1 260 13:40 01.08.2019
4358 Clouds 23 1016 49 10000 3.6 200 13:21 01.08.2019
4359 Clouds 23 1016 49 10000 2.6 250 12:52 01.08.2019
4360 Clouds 23 1016 53 10000 3.6 230 12:33 01.08.2019
4361 Clouds 22 1016 53 10000 3.6 210 11:58 01.08.2019
4362 Clouds 22 1016 53 10000 3.6 210 11:40 01.08.2019
4363 Clouds 22 1016 53 10000 3.1 240 11:22 01.08.2019
4364 Clouds 21 1017 60 10000 3.1 240 10:43 01.08.2019
4365 Clouds 21 1016 60 10000 3.6 230 10:25 01.08.2019
4366 Clear 19 1016 64 10000 3.1 230 09:56 01.08.2019
4367 Clear 19 1016 64 10000 3.1 230 09:38 01.08.2019
4368 Clear 18 1016 72 10000 3.6 230 09:20 01.08.2019
4369 Clear 17 1016 77 10000 3.1 230 08:42 01.08.2019
4370 Clear 16 1016 82 10000 2.1 230 08:19 01.08.2019
4371 Mist 15 1016 93 10000 1.5 220 07:46 01.08.2019
4372 Fog 14 1016 93 10000 1 0 07:21 01.08.2019
4373 Fog 14 1016 93 10000 0.5 0 06:45 01.08.2019
4374 Fog 14 1016 93 10000 1 230 05:37 01.08.2019
4375 Fog 15 1016 87 10000 1.5 240 03:53 01.08.2019
4376 Clear 15 1016 87 10000 1.5 230 02:26 01.08.2019
4377 Clear 16 1016 93 10000 0.5 0 00:41 01.08.2019
4378 Clear 16 1016 88 10000 0.5 0 00:19 01.08.2019
4379 Clouds 16 1016 88 10000 1 0 23:42 31.07.2019
4380 Clouds 17 1016 82 10000 1 70 23:20 31.07.2019
4381 Clouds 17 1016 82 10000 3.1 50 22:47 31.07.2019
4382 Thunderstorm 17 1016 68 10000 3.1 300 22:29 31.07.2019
4383 Thunderstorm 18 1015 64 10000 3.1 320 21:56 31.07.2019
4384 Thunderstorm 18 1015 56 10000 3.1 290 21:37 31.07.2019
4385 Thunderstorm 19 1015 56 10000 3.1 290 21:18 31.07.2019
4386 Thunderstorm 20 1014 53 10000 6.2 280 20:41 31.07.2019
4387 Clouds 20 1014 60 10000 5.7 300 20:21 31.07.2019
4388 Thunderstorm 21 1014 56 10000 4.1 310 19:41 31.07.2019
4389 Thunderstorm 22 1013 56 10000 5.7 300 19:23 31.07.2019
4390 Rain 23 1013 44 10000 4.1 240 18:53 31.07.2019
4391 Rain 24 1013 41 10000 5.1 230 18:26 31.07.2019
4392 Clouds 24 1013 44 10000 3.1 200 17:59 31.07.2019
4393 Clouds 24 1013 44 10000 3.1 200 17:40 31.07.2019
4394 Clouds 24 1013 50 10000 4.6 220 17:19 31.07.2019
4395 Clouds 24 1013 50 10000 3.6 230 16:43 31.07.2019
4396 Clouds 24 1013 53 10000 3.6 250 16:20 31.07.2019
4397 Clouds 23 1014 53 10000 3.1 0 15:45 31.07.2019
4398 Thunderstorm 23 1014 56 10000 2.6 250 15:25 31.07.2019
4399 Rain 22 1014 60 10000 4.6 230 14:54 31.07.2019
4400 Rain 23 1014 60 10000 4.6 230 14:36 31.07.2019
4401 Rain 22 1014 73 10000 7.7 230 14:18 31.07.2019
4402 Rain 23 1014 57 10000 5.1 220 13:42 31.07.2019
4403 Rain 23 1014 57 10000 3.1 230 13:23 31.07.2019
4404 Clouds 22 1014 69 10000 3.1 0 12:56 31.07.2019
4405 Rain 22 1014 78 10000 3.6 150 12:37 31.07.2019
4406 Rain 21 1014 78 10000 3.6 150 12:18 31.07.2019
4407 Clouds 21 1014 83 10000 2.6 160 11:38 31.07.2019
4408 Rain 20 1014 88 10000 3.1 140 11:19 31.07.2019
4409 Rain 20 1014 82 10000 3.6 150 10:42 31.07.2019
4410 Rain 19 1014 88 10000 3.6 140 10:20 31.07.2019
4411 Rain 19 1014 88 10000 4.1 140 09:54 31.07.2019
4412 Rain 18 1014 88 10000 3.6 160 09:36 31.07.2019
4413 Rain 18 1014 88 10000 3.6 160 09:18 31.07.2019
4414 Clear 18 1013 88 10000 2.1 140 08:40 31.07.2019
4415 Rain 18 1013 88 10000 1 0 08:20 31.07.2019
4416 Rain 17 1013 88 10000 1 0 07:35 31.07.2019
4417 Rain 17 1012 93 8000 5.1 60 06:34 31.07.2019
4418 Thunderstorm 18 1013 93 4000 1.5 270 04:52 31.07.2019
4419 Clear 18 1012 88 10000 2.1 120 03:24 31.07.2019
4420 Clear 19 1012 72 10000 3.1 110 23:58 30.07.2019
4421 Clear 19 1012 72 10000 3.1 110 23:40 30.07.2019
4422 Clear 19 1012 72 10000 2.6 100 23:19 30.07.2019
4423 Clear 19 1012 68 10000 3.6 100 22:46 30.07.2019
4424 Clear 20 1012 73 10000 3.6 100 22:25 30.07.2019
4425 Clear 20 1011 60 10000 3.1 80 21:56 30.07.2019
4426 Clear 20 1011 60 10000 3.1 80 21:36 30.07.2019
4427 Clear 22 1011 56 10000 3.6 80 21:18 30.07.2019
4428 Clear 23 1011 53 10000 3.6 70 20:42 30.07.2019
4429 Clouds 23 1011 50 10000 3.1 50 20:24 30.07.2019
4430 Clouds 23 1011 50 10000 3.1 50 20:24 30.07.2019
4431 Clouds 23 1011 50 10000 3.1 50 19:58 30.07.2019
4432 Clouds 24 1011 50 10000 3.1 50 19:39 30.07.2019
4433 Clouds 24 1011 47 10000 2.6 310 18:58 30.07.2019
4434 Clouds 24 1011 47 10000 2.6 310 18:39 30.07.2019
4435 Clouds 24 1011 47 10000 3.1 330 18:19 30.07.2019
4436 Clouds 24 1011 47 10000 2.1 320 17:42 30.07.2019
4437 Clouds 24 1011 47 10000 1.5 0 17:19 30.07.2019
4438 Clouds 24 1011 47 10000 3.1 310 16:52 30.07.2019
4439 Clouds 26 1011 47 10000 2.6 340 16:21 30.07.2019
4440 Clear 26 1012 47 10000 3.6 360 15:58 30.07.2019
4441 Clear 24 1012 50 10000 3.6 300 15:38 30.07.2019
4442 Clear 24 1012 50 10000 3.6 300 15:19 30.07.2019
4443 Clear 24 1012 50 10000 3.6 310 14:42 30.07.2019
4444 Clear 24 1012 53 10000 2.6 300 14:21 30.07.2019
4445 Clouds 23 1012 53 10000 3.1 310 13:48 30.07.2019
4446 Clouds 23 1012 56 10000 3.1 330 13:29 30.07.2019
4447 Clouds 22 1012 60 10000 3.6 320 12:59 30.07.2019
4448 Clouds 22 1012 60 10000 3.6 320 12:41 30.07.2019
4449 Clouds 21 1012 73 10000 2.6 300 12:23 30.07.2019
4450 Clouds 20 1012 72 10000 3.1 280 11:44 30.07.2019
4451 Clouds 19 1012 72 10000 2.6 300 11:21 30.07.2019
4452 Clouds 19 1012 72 10000 2.6 300 11:21 30.07.2019
4453 Clouds 19 1012 82 10000 3.1 280 10:55 30.07.2019
4454 Clouds 19 1012 82 10000 2.6 290 10:37 30.07.2019
4455 Clouds 19 1012 82 10000 2.6 290 10:19 30.07.2019
4456 Clouds 18 1012 88 10000 2.1 270 09:45 30.07.2019
4457 Rain 18 1012 88 10000 2.1 270 09:24 30.07.2019
4458 Rain 17 1011 93 10000 1.5 280 08:32 30.07.2019
4459 Rain 17 1011 93 10000 1 0 07:52 30.07.2019
4460 Clouds 17 1011 93 10000 0.5 0 07:34 30.07.2019
4461 Rain 16 1011 93 10000 1 0 06:52 30.07.2019
4462 Rain 16 1011 93 10000 1 0 06:33 30.07.2019
4463 Rain 17 1011 93 9000 4.1 320 05:35 30.07.2019
4464 Rain 17 1011 88 10000 4.6 310 03:32 30.07.2019
4465 Rain 18 1011 88 10000 3.6 290 01:22 30.07.2019
4466 Rain 19 1011 82 10000 2.6 290 00:27 30.07.2019
4467 Rain 19 1011 82 10000 3.1 290 23:59 29.07.2019
4468 Clear 19 1011 82 10000 3.1 280 23:39 29.07.2019
4469 Clear 19 1011 82 10000 3.1 280 23:20 29.07.2019
4470 Clear 20 1011 77 10000 2.6 290 22:55 29.07.2019
4471 Clear 20 1011 77 10000 2.6 290 22:37 29.07.2019
4472 Clear 20 1011 82 10000 3.1 300 22:18 29.07.2019
4473 Clouds 20 1011 82 10000 4.1 300 21:41 29.07.2019
4474 Clouds 21 1011 82 10000 4.1 310 21:23 29.07.2019
4475 Mist 21 1010 83 10000 4.6 310 20:57 29.07.2019
4476 Mist 21 1010 83 10000 4.6 310 20:57 29.07.2019
4477 Mist 21 1010 83 10000 4.6 310 20:38 29.07.2019
4478 Mist 21 1010 77 10000 5.7 300 20:19 29.07.2019
4479 Clouds 22 1010 78 10000 6.2 280 19:45 29.07.2019
4480 Clouds 22 1010 78 10000 5.1 290 19:23 29.07.2019
4481 Clouds 22 1010 78 10000 4.6 290 18:58 29.07.2019
4482 Clouds 22 1010 78 10000 4.6 290 18:38 29.07.2019
4483 Clouds 22 1010 83 10000 5.1 310 18:19 29.07.2019
4484 Rain 23 1010 78 10000 5.1 310 17:47 29.07.2019
4485 Rain 22 1010 78 10000 5.1 330 17:28 29.07.2019
4486 Thunderstorm 23 1010 73 10000 5.1 310 16:55 29.07.2019
4487 Thunderstorm 23 1010 78 10000 4.1 290 16:36 29.07.2019
4488 Thunderstorm 23 1010 73 10000 5.1 310 16:36 29.07.2019
4489 Thunderstorm 23 1010 78 10000 4.1 290 16:18 29.07.2019
4490 Rain 23 1010 78 10000 2.6 290 15:45 29.07.2019
4491 Rain 24 1010 73 10000 2.1 260 15:27 29.07.2019
4492 Clouds 24 1010 78 10000 4.1 250 14:42 29.07.2019
4493 Clouds 25 1010 83 10000 4.6 290 14:21 29.07.2019
4494 Clouds 25 1009 78 8000 5.1 280 13:48 29.07.2019
4495 Clouds 25 1010 78 9000 5.7 290 13:24 29.07.2019
4496 Clouds 25 1009 83 8000 4.6 290 12:59 29.07.2019
4497 Clouds 24 1009 83 8000 4.6 290 12:40 29.07.2019
4498 Clouds 24 1010 83 10000 5.1 290 12:21 29.07.2019
4499 Clouds 23 1010 83 10000 4.6 280 11:42 29.07.2019
4500 Clouds 23 1009 83 10000 4.1 290 11:19 29.07.2019
4501 Clouds 23 1009 83 10000 4.1 290 10:44 29.07.2019
4502 Clouds 23 1009 83 10000 4.6 300 10:23 29.07.2019
4503 Clouds 22 1009 78 10000 4.1 290 09:44 29.07.2019
4504 Clouds 22 1008 78 10000 4.6 290 09:23 29.07.2019
4505 Clouds 21 1008 78 10000 2.6 290 08:55 29.07.2019
4506 Mist 21 1008 83 10000 2.1 310 08:27 29.07.2019
4507 Mist 20 1008 78 10000 1.5 320 07:53 29.07.2019
4508 Fog 20 1007 88 10000 1.5 280 07:31 29.07.2019
4509 Clear 19 1007 93 10000 1 320 06:40 29.07.2019
4510 Clear 19 1007 93 10000 1 0 05:38 29.07.2019
4511 Clear 20 1007 88 10000 1.5 60 04:24 29.07.2019
4512 Clear 21 1006 83 10000 2.1 330 01:54 29.07.2019
4513 Clear 21 1006 83 10000 2.1 330 01:35 29.07.2019
4514 Clear 21 1006 83 10000 1.5 330 00:59 29.07.2019
4515 Clear 22 1005 83 10000 1.5 50 00:32 29.07.2019
4516 Clear 22 1005 78 10000 2.1 50 23:51 28.07.2019
4517 Clear 22 1005 78 10000 2.1 60 23:33 28.07.2019
4518 Clear 22 1005 73 10000 2.6 50 22:58 28.07.2019
4519 Clear 22 1004 64 10000 2.6 40 22:37 28.07.2019
4520 Clear 22 1004 64 10000 2.6 40 22:18 28.07.2019
4521 Clear 24 1004 64 10000 3.1 40 21:42 28.07.2019
4522 Clear 25 1004 64 10000 4.1 50 21:18 28.07.2019
4523 Clear 25 1004 61 10000 3.1 30 20:43 28.07.2019
4524 Clear 26 1003 57 10000 4.1 50 20:25 28.07.2019
4525 Clear 26 1003 54 10000 5.1 50 19:42 28.07.2019
4526 Clear 27 1003 54 10000 4.6 40 19:21 28.07.2019
4527 Clear 27 1002 51 10000 6.2 50 18:50 28.07.2019
4528 Clear 28 1002 54 10000 4.1 40 18:29 28.07.2019
4529 Clouds 28 1002 48 10000 5.7 50 17:58 28.07.2019
4530 Clouds 28 1002 48 10000 5.7 50 17:40 28.07.2019
4531 Clear 28 1002 40 10000 5.1 90 17:20 28.07.2019
4532 Clear 28 1002 48 10000 4.6 70 16:47 28.07.2019
4533 Clear 28 1002 42 10000 5.1 90 16:28 28.07.2019
4534 Clear 28 1002 39 10000 5.1 100 15:59 28.07.2019
4535 Clear 28 1002 39 10000 5.1 100 15:41 28.07.2019
4536 Clear 28 1002 42 10000 5.1 90 15:21 28.07.2019
4537 Clouds 28 1002 45 10000 4.6 70 14:37 28.07.2019
4538 Clouds 27 1002 47 10000 4.1 80 14:19 28.07.2019
4539 Clouds 27 1002 47 10000 5.1 80 13:44 28.07.2019
4540 Clouds 27 1002 51 10000 5.7 100 13:23 28.07.2019
4541 Clouds 26 1002 57 10000 5.1 60 12:59 28.07.2019
4542 Clouds 26 1002 57 10000 5.1 60 12:40 28.07.2019
4543 Clouds 26 1003 64 10000 5.1 60 12:22 28.07.2019
4544 Clouds 24 1003 64 10000 4.6 50 11:47 28.07.2019
4545 Clouds 24 1003 64 10000 4.6 50 11:27 28.07.2019
4546 Clouds 23 1003 64 10000 5.1 50 10:41 28.07.2019
4547 Clouds 23 1003 68 10000 5.1 60 10:22 28.07.2019
4548 Clouds 22 1003 73 10000 5.1 50 09:47 28.07.2019
4549 Clouds 21 1003 73 10000 4.1 60 09:29 28.07.2019
4550 Clouds 21 1003 77 10000 4.1 60 08:52 28.07.2019
4551 Clouds 20 1003 77 10000 4.1 60 08:30 28.07.2019
4552 Clear 19 1003 82 10000 4.1 70 07:59 28.07.2019
4553 Clear 19 1003 82 10000 4.1 70 07:38 28.07.2019
4554 Clear 18 1003 88 10000 4.6 50 06:46 28.07.2019
4555 Clouds 18 1004 88 10000 4.1 50 05:53 28.07.2019
4556 Clouds 18 1004 88 10000 3.1 50 04:37 28.07.2019
4557 Clear 19 1004 88 10000 4.1 50 02:24 28.07.2019
4558 Clear 19 1005 82 10000 5.1 50 01:22 28.07.2019
4559 Clear 19 1005 82 10000 5.1 50 00:47 28.07.2019
4560 Clear 20 1005 82 10000 5.1 50 00:24 28.07.2019
4561 Clear 20 1005 77 10000 4.1 50 23:47 27.07.2019
4562 Clear 20 1005 77 10000 4.1 50 23:26 27.07.2019
4563 Clear 21 1005 73 10000 4.6 50 22:42 27.07.2019
4564 Clear 21 1005 73 10000 5.7 50 22:23 27.07.2019
4565 Clear 22 1005 68 10000 5.1 50 21:44 27.07.2019
4566 Clear 23 1005 68 10000 5.7 50 21:22 27.07.2019
4567 Clear 23 1005 68 10000 6.2 50 20:54 27.07.2019
4568 Clear 24 1005 64 10000 7.7 50 20:30 27.07.2019
4569 Clear 24 1005 60 10000 6.7 40 19:59 27.07.2019
4570 Clear 25 1005 60 10000 6.7 40 19:39 27.07.2019
4571 Clear 25 1005 60 10000 8.2 40 19:19 27.07.2019
4572 Clear 26 1005 57 10000 8.2 40 18:46 27.07.2019
4573 Clear 26 1005 54 10000 7.7 50 18:28 27.07.2019
4574 Clear 27 1005 50 10000 8.7 50 17:50 27.07.2019
4575 Clear 27 1006 51 10000 8.2 50 17:31 27.07.2019
4576 Clear 27 1006 47 10000 7.2 50 16:54 27.07.2019
4577 Clear 28 1006 50 10000 8.2 40 16:34 27.07.2019
4578 Clear 28 1006 50 10000 7.7 50 15:56 27.07.2019
4579 Clear 28 1007 35 10000 8.2 90 15:36 27.07.2019
4580 Clear 28 1007 35 10000 8.2 90 15:18 27.07.2019
4581 Clear 27 1007 37 10000 9.3 90 14:41 27.07.2019
4582 Clear 27 1007 37 10000 8.7 80 14:23 27.07.2019
4583 Clear 27 1007 39 10000 9.3 90 13:46 27.07.2019
4584 Clear 27 1008 42 10000 8.7 80 13:22 27.07.2019
4585 Clouds 27 1008 42 10000 8.7 70 12:50 27.07.2019
4586 Clouds 26 1008 44 10000 7.7 90 12:27 27.07.2019
4587 Clouds 26 1008 50 10000 8.2 90 11:54 27.07.2019
4588 Clouds 25 1009 53 10000 7.7 80 11:36 27.07.2019
4589 Clouds 25 1009 53 10000 7.7 80 11:18 27.07.2019
4590 Clouds 25 1009 53 10000 7.2 80 10:40 27.07.2019
4591 Clear 24 1009 57 10000 6.2 80 10:21 27.07.2019
4592 Clear 23 1009 60 10000 5.1 70 09:41 27.07.2019
4593 Clear 22 1009 64 10000 5.7 70 09:22 27.07.2019
4594 Clear 21 1009 68 10000 6.7 70 08:48 27.07.2019
4595 Clear 21 1009 72 10000 5.7 70 08:29 27.07.2019
4596 Clear 20 1009 77 10000 4.1 70 07:54 27.07.2019
4597 Clear 19 1009 82 10000 3.6 80 07:27 27.07.2019
4598 Clear 18 1009 82 10000 4.6 60 06:56 27.07.2019
4599 Clear 18 1009 82 10000 4.1 60 06:31 27.07.2019
4600 Clear 18 1009 82 10000 4.1 70 05:51 27.07.2019
4601 Clear 18 1009 77 0 3.6 70 05:24 27.07.2019
4602 Clear 18 1010 77 10000 5.7 70 04:31 27.07.2019
4603 Clear 19 1010 77 10000 4.6 60 02:58 27.07.2019
4604 Clear 19 1010 72 10000 5.1 60 02:32 27.07.2019
4605 Clear 19 1011 72 10000 4.6 60 01:48 27.07.2019
4606 Clear 19 1011 77 10000 4.1 60 01:21 27.07.2019
4607 Clear 20 1012 72 10000 3.6 50 00:32 27.07.2019
4608 Clear 21 1012 68 10000 3.6 50 23:55 26.07.2019
4609 Clear 21 1012 68 10000 3.6 50 23:37 26.07.2019
4610 Clear 22 1012 68 10000 3.6 50 23:18 26.07.2019
4611 Clear 22 1012 64 10000 4.6 50 22:41 26.07.2019
4612 Clear 22 1012 56 10000 5.1 50 22:23 26.07.2019
4613 Clear 24 1012 53 10000 3.1 50 21:49 26.07.2019
4614 Clear 26 1012 47 10000 5.7 60 21:20 26.07.2019
4615 Clear 26 1012 42 10000 7.2 70 20:45 26.07.2019
4616 Clear 27 1011 34 10000 6.2 80 20:27 26.07.2019
4617 Clear 29 1011 42 10000 6.7 50 19:44 26.07.2019
4618 Clear 29 1011 39 10000 6.2 60 19:26 26.07.2019
4619 Clear 30 1011 37 10000 6.7 60 18:59 26.07.2019
4620 Clear 30 1012 37 10000 6.2 50 18:40 26.07.2019
4621 Clear 30 1012 37 10000 6.2 50 18:20 26.07.2019
4622 Clear 30 1012 35 10000 7.2 70 17:48 26.07.2019
4623 Clear 31 1012 38 10000 7.7 60 17:20 26.07.2019
4624 Clear 31 1013 42 10000 7.2 60 16:59 26.07.2019
4625 Clear 31 1013 33 10000 7.2 80 16:41 26.07.2019
4626 Clear 31 1013 33 10000 7.2 80 16:21 26.07.2019
4627 Clear 30 1013 33 10000 7.7 70 15:59 26.07.2019
4628 Clear 30 1013 33 10000 7.7 70 15:40 26.07.2019
4629 Clear 30 1013 35 10000 6.2 80 15:20 26.07.2019
4630 Clear 30 1014 37 10000 5.1 100 14:44 26.07.2019
4631 Clear 30 1014 37 10000 6.7 70 14:24 26.07.2019
4632 Clear 30 1014 37 10000 7.2 80 13:47 26.07.2019
4633 Clear 30 1015 37 10000 6.7 90 13:28 26.07.2019
4634 Clear 29 1015 39 10000 7.2 110 12:49 26.07.2019
4635 Clear 29 1015 39 10000 8.2 100 12:24 26.07.2019
4636 Clear 28 1015 42 10000 7.7 100 11:58 26.07.2019
4637 Clear 27 1015 42 10000 7.7 100 11:37 26.07.2019
4638 Clear 27 1015 50 10000 7.2 100 11:18 26.07.2019
4639 Clear 26 1016 57 10000 5.7 80 10:46 26.07.2019
4640 Clear 25 1016 60 10000 5.1 100 10:28 26.07.2019
4641 Clear 24 1016 60 10000 5.7 110 09:50 26.07.2019
4642 Clear 23 1016 64 10000 5.1 80 09:31 26.07.2019
4643 Clear 21 1016 64 10000 4.6 80 08:42 26.07.2019
4644 Clear 21 1016 68 10000 3.6 90 08:21 26.07.2019
4645 Clear 20 1016 68 10000 2.6 90 07:54 26.07.2019
4646 Clear 18 1016 72 10000 3.1 70 07:27 26.07.2019
4647 Clear 18 1016 72 10000 2.6 70 06:41 26.07.2019
4648 Clear 18 1016 72 10000 2.1 80 05:19 26.07.2019
4649 Clear 19 1016 68 10000 1.5 80 04:21 26.07.2019
4650 Clear 21 1016 56 10000 3.1 90 02:40 26.07.2019
4651 Clear 22 1016 56 10000 3.6 90 01:42 26.07.2019
4652 Clear 23 1016 53 10000 3.6 80 00:43 26.07.2019
4653 Clear 24 1016 50 10000 4.1 90 23:56 25.07.2019
4654 Clear 25 1016 47 10000 4.1 80 23:24 25.07.2019
4655 Clear 25 1016 50 10000 3.6 80 22:56 25.07.2019
4656 Clear 25 1016 45 10000 4.6 80 22:37 25.07.2019
4657 Clear 25 1016 45 10000 4.6 80 22:18 25.07.2019
4658 Clear 27 1016 54 10000 4.1 60 21:44 25.07.2019
4659 Clear 28 1016 54 10000 3.6 50 21:21 25.07.2019
4660 Clear 30 1016 51 10000 4.1 50 20:47 25.07.2019
4661 Clear 30 1016 45 10000 4.1 50 20:23 25.07.2019
4662 Clear 31 1016 45 10000 4.1 50 19:44 25.07.2019
4663 Clear 31 1016 45 10000 4.1 50 19:44 25.07.2019
4664 Clear 32 1016 45 10000 4.6 50 19:26 25.07.2019
4665 Clear 32 1016 27 10000 4.1 70 18:58 25.07.2019
4666 Clear 33 1016 27 10000 4.1 70 18:39 25.07.2019
4667 Clear 33 1016 30 10000 3.6 90 18:20 25.07.2019
4668 Clear 33 1016 30 10000 4.1 80 17:44 25.07.2019
4669 Clear 34 1016 30 10000 4.1 80 17:24 25.07.2019
4670 Clear 35 1016 28 10000 4.6 90 16:45 25.07.2019
4671 Clear 35 1016 30 10000 4.6 90 16:26 25.07.2019
4672 Clear 35 1017 28 10000 5.1 80 15:56 25.07.2019
4673 Clear 34 1017 32 10000 4.6 100 15:36 25.07.2019
4674 Clear 34 1017 32 10000 4.6 100 15:18 25.07.2019
4675 Clear 34 1017 30 10000 4.6 110 14:41 25.07.2019
4676 Clear 34 1017 30 10000 4.6 110 14:22 25.07.2019
4677 Clear 34 1017 30 10000 4.6 110 13:44 25.07.2019
4678 Clear 34 1017 32 10000 4.1 100 13:25 25.07.2019
4679 Clear 33 1017 33 10000 3.6 100 12:54 25.07.2019
4680 Clear 32 1017 35 10000 4.1 120 12:28 25.07.2019
4681 Clear 31 1017 35 10000 3.6 100 11:43 25.07.2019
4682 Clear 30 1017 40 10000 3.1 100 11:23 25.07.2019
4683 Clear 30 1017 40 10000 3.1 100 11:23 25.07.2019
4684 Clear 29 1017 42 10000 3.6 120 10:46 25.07.2019
4685 Clear 27 1017 45 10000 3.1 120 10:26 25.07.2019
4686 Clear 27 1017 45 10000 3.1 120 09:59 25.07.2019
4687 Clear 26 1017 45 10000 3.1 120 09:40 25.07.2019
4688 Clear 24 1017 57 10000 3.6 120 08:59 25.07.2019
4689 Clear 24 1017 57 10000 3.6 120 08:40 25.07.2019
4690 Clear 22 1017 64 10000 3.1 110 07:55 25.07.2019
4691 Clear 21 1017 68 10000 3.6 120 07:30 25.07.2019
4692 Clear 21 1017 73 10000 3.6 110 06:42 25.07.2019
4693 Clear 21 1017 73 10000 3.6 110 05:37 25.07.2019
4694 Clear 21 1017 68 10000 3.1 100 04:57 25.07.2019
4695 Clear 22 1017 64 10000 3.1 120 04:19 25.07.2019
4696 Clear 22 1017 77 10000 2.6 70 01:31 25.07.2019
4697 Clear 23 1017 73 10000 3.1 70 00:45 25.07.2019
4698 Clear 23 1016 69 10000 2.6 80 00:19 25.07.2019
4699 Clear 24 1016 78 10000 3.1 70 23:45 24.07.2019
4700 Clear 24 1016 73 10000 3.6 70 23:27 24.07.2019
4701 Clear 24 1016 69 10000 3.6 60 22:48 24.07.2019
4702 Clear 25 1016 65 10000 4.1 60 22:27 24.07.2019
4703 Clear 25 1016 61 10000 4.1 50 21:59 24.07.2019
4704 Clear 27 1016 61 10000 4.1 50 21:41 24.07.2019
4705 Clear 28 1016 54 10000 4.1 50 21:21 24.07.2019
4706 Clear 30 1015 40 10000 3.1 70 20:55 24.07.2019
4707 Clear 30 1015 40 10000 3.1 70 20:37 24.07.2019
4708 Clear 31 1015 35 10000 4.1 90 20:19 24.07.2019
4709 Clear 31 1015 31 10000 4.1 110 19:41 24.07.2019
4710 Clear 31 1015 29 10000 3.6 150 19:22 24.07.2019
4711 Clear 32 1015 27 10000 2.6 120 18:45 24.07.2019
4712 Clear 32 1015 31 10000 4.1 90 18:25 24.07.2019
4713 Clear 33 1016 33 10000 4.1 80 17:56 24.07.2019
4714 Clear 33 1016 33 10000 4.1 80 17:37 24.07.2019
4715 Clear 33 1016 31 10000 3.6 80 17:18 24.07.2019
4716 Clear 33 1016 35 10000 3.6 150 16:40 24.07.2019
4717 Clear 33 1016 35 10000 3.6 150 16:40 24.07.2019
4718 Clear 33 1016 33 10000 3.1 0 16:21 24.07.2019
4719 Clear 33 1016 33 10000 2.6 0 15:39 24.07.2019
4720 Clear 32 1017 33 10000 3.1 120 15:21 24.07.2019
4721 Clear 32 1017 35 10000 4.1 100 14:50 24.07.2019
4722 Clear 32 1017 35 10000 4.1 110 14:23 24.07.2019
4723 Clear 32 1017 38 10000 4.1 140 13:59 24.07.2019
4724 Clear 32 1017 38 10000 4.1 140 13:36 24.07.2019
4725 Clear 31 1017 42 10000 4.1 120 13:18 24.07.2019
4726 Clear 30 1017 40 10000 3.6 100 12:46 24.07.2019
4727 Clear 30 1018 42 10000 3.1 160 12:24 24.07.2019
4728 Clear 29 1018 45 10000 3.6 130 11:38 24.07.2019
4729 Clear 28 1018 48 10000 4.1 110 11:19 24.07.2019
4730 Clear 27 1018 47 10000 4.1 150 10:44 24.07.2019
4731 Clear 27 1018 50 10000 4.1 120 10:25 24.07.2019
4732 Clear 25 1018 54 10000 4.1 130 09:45 24.07.2019
4733 Clear 24 1018 57 10000 3.6 130 09:25 24.07.2019
4734 Clear 23 1018 60 10000 3.6 120 08:57 24.07.2019
4735 Clear 22 1018 69 10000 3.1 130 08:30 24.07.2019
4736 Clear 20 1018 77 10000 3.1 130 07:52 24.07.2019
4737 Clear 19 1018 73 10000 2.6 120 07:24 24.07.2019
4738 Clear 18 1018 88 10000 2.1 90 06:31 24.07.2019
4739 Clear 18 1018 82 10000 2.1 90 05:54 24.07.2019
4740 Clear 19 1019 82 10000 2.1 100 02:52 24.07.2019
4741 Clear 20 1019 82 10000 2.1 70 01:30 24.07.2019
4742 Clear 20 1019 77 10000 2.1 70 00:57 24.07.2019
4743 Clear 21 1019 77 10000 1.5 60 00:23 24.07.2019
4744 Clear 21 1019 73 10000 2.1 50 23:43 23.07.2019
4745 Clear 22 1019 73 10000 2.1 40 23:25 23.07.2019
4746 Clear 21 1019 73 10000 2.1 20 22:55 23.07.2019
4747 Clear 22 1019 73 10000 2.1 20 22:36 23.07.2019
4748 Clear 23 1019 73 10000 2.1 20 22:18 23.07.2019
4749 Clear 26 1019 69 10000 2.1 10 21:42 23.07.2019
4750 Clear 26 1019 61 10000 1.5 330 21:23 23.07.2019
4751 Clear 27 1019 54 10000 2.1 320 20:48 23.07.2019
4752 Clear 28 1019 48 10000 3.1 310 20:27 23.07.2019
4753 Clear 28 1019 45 10000 3.1 310 19:43 23.07.2019
4754 Clear 28 1019 45 10000 3.1 340 19:24 23.07.2019
4755 Clear 28 1020 45 10000 3.1 290 18:55 23.07.2019
4756 Clear 29 1020 45 10000 3.1 340 18:37 23.07.2019
4757 Clear 29 1020 45 10000 3.1 340 18:18 23.07.2019
4758 Clear 29 1020 42 10000 2.6 0 17:41 23.07.2019
4759 Clear 30 1020 45 10000 3.6 330 17:20 23.07.2019
4760 Clear 30 1020 45 10000 2.6 330 16:42 23.07.2019
4761 Clear 29 1020 45 10000 3.1 0 16:24 23.07.2019
4762 Clouds 29 1020 51 10000 3.1 330 15:48 23.07.2019
4763 Clouds 29 1020 51 10000 3.6 320 15:29 23.07.2019
4764 Clouds 29 1021 48 10000 4.1 320 14:54 23.07.2019
4765 Clouds 28 1021 51 10000 2.6 310 14:36 23.07.2019
4766 Clouds 29 1021 51 10000 2.6 310 14:18 23.07.2019
4767 Clouds 28 1021 54 10000 3.1 260 13:42 23.07.2019
4768 Clouds 28 1021 54 10000 3.1 260 13:23 23.07.2019
4769 Clouds 27 1021 54 10000 3.1 280 12:54 23.07.2019
4770 Clouds 26 1022 57 10000 3.1 280 12:36 23.07.2019
4771 Clouds 26 1022 57 10000 3.1 280 12:18 23.07.2019
4772 Clouds 26 1022 57 10000 3.1 290 11:41 23.07.2019
4773 Clouds 25 1022 61 10000 2.6 300 11:20 23.07.2019
4774 Clear 24 1022 64 10000 2.6 280 10:43 23.07.2019
4775 Clear 23 1022 73 10000 2.6 280 10:22 23.07.2019
4776 Clear 22 1022 73 10000 1.5 0 09:43 23.07.2019
4777 Clear 20 1022 73 10000 2.6 260 09:22 23.07.2019
4778 Clear 20 1022 77 10000 3.1 280 08:44 23.07.2019
4779 Clear 18 1022 82 10000 2.6 260 08:21 23.07.2019
4780 Clear 18 1022 93 10000 2.1 220 07:59 23.07.2019
4781 Clear 17 1022 93 10000 2.1 220 07:38 23.07.2019
4782 Clear 16 1021 93 10000 1.5 230 06:57 23.07.2019
4783 Fog 16 1021 93 10000 1.5 240 06:36 23.07.2019
4784 Fog 16 1021 100 10000 0.5 0 04:28 23.07.2019
4785 Clear 17 1021 93 10000 0.5 0 01:46 23.07.2019
4786 Clear 18 1021 93 10000 1.5 250 00:46 23.07.2019
4787 Clear 18 1021 93 10000 2.1 230 00:20 23.07.2019
4788 Clear 19 1021 88 10000 1.5 240 23:39 22.07.2019
4789 Clouds 19 1021 82 10000 1.5 280 23:20 22.07.2019
4790 Clouds 19 1021 82 10000 2.6 300 22:46 22.07.2019
4791 Clouds 19 1021 82 10000 2.6 300 22:46 22.07.2019
4792 Clouds 19 1021 82 10000 2.6 300 22:46 22.07.2019
4793 Clouds 19 1021 77 10000 3.6 290 22:26 22.07.2019
4794 Clouds 19 1021 77 10000 4.1 300 21:58 22.07.2019
4795 Clouds 20 1021 77 10000 4.1 300 21:40 22.07.2019
4796 Clouds 21 1021 77 10000 3.6 300 21:20 22.07.2019
4797 Clouds 21 1020 73 10000 3.6 310 20:44 22.07.2019
4798 Clouds 22 1020 68 10000 3.6 290 20:23 22.07.2019
4799 Clouds 22 1020 64 10000 3.1 270 19:43 22.07.2019
4800 Clouds 22 1020 60 10000 3.1 260 19:24 22.07.2019
4801 Clouds 22 1020 60 10000 3.6 250 18:57 22.07.2019
4802 Clouds 22 1020 53 10000 4.1 260 18:39 22.07.2019
4803 Clouds 22 1020 53 10000 4.1 260 18:21 22.07.2019
4804 Clouds 21 1020 56 10000 4.1 240 17:41 22.07.2019
4805 Clouds 21 1021 60 10000 2.6 240 17:23 22.07.2019
4806 Drizzle 21 1021 64 10000 3.6 240 16:41 22.07.2019
4807 Rain 21 1021 64 10000 4.6 220 16:21 22.07.2019
4808 Rain 21 1021 60 10000 4.6 190 15:58 22.07.2019
4809 Rain 20 1021 60 10000 4.6 190 15:37 22.07.2019
4810 Rain 20 1021 56 10000 3.6 180 15:18 22.07.2019
4811 Rain 20 1021 60 10000 3.1 170 14:43 22.07.2019
4812 Rain 20 1022 56 10000 1 0 14:20 22.07.2019
4813 Rain 20 1022 60 10000 3.1 210 13:47 22.07.2019
4814 Rain 20 1022 56 10000 3.1 230 13:28 22.07.2019
4815 Rain 20 1022 60 10000 4.1 210 12:47 22.07.2019
4816 Rain 19 1022 63 10000 3.1 220 12:28 22.07.2019
4817 Rain 18 1022 72 10000 2.1 230 11:45 22.07.2019
4818 Rain 18 1022 72 10000 2.1 250 11:25 22.07.2019
4819 Rain 18 1022 68 10000 2.6 230 10:58 22.07.2019
4820 Rain 18 1022 68 10000 2.6 230 10:33 22.07.2019
4821 Clear 17 1022 68 10000 3.6 230 09:45 22.07.2019
4822 Clear 17 1022 77 10000 2.6 240 09:26 22.07.2019
4823 Clear 16 1022 82 10000 3.1 220 08:57 22.07.2019
4824 Clear 15 1022 82 10000 3.1 220 08:36 22.07.2019
4825 Clear 15 1022 82 10000 2.1 210 08:18 22.07.2019
4826 Clear 14 1022 87 10000 1.5 220 07:43 22.07.2019
4827 Clear 13 1022 93 10000 2.1 220 07:24 22.07.2019
4828 Fog 12 1022 93 10000 1.5 230 04:53 22.07.2019
4829 Fog 13 1023 93 10000 1 240 02:58 22.07.2019
4830 Fog 14 1022 93 10000 0.5 0 00:58 22.07.2019
4831 Fog 14 1022 93 10000 0.5 0 00:38 22.07.2019
4832 Clear 15 1022 93 10000 1 0 00:18 22.07.2019
4833 Clear 15 1022 93 10000 0.5 0 23:43 21.07.2019
4834 Clear 16 1022 82 10000 3.1 310 22:57 21.07.2019
4835 Clouds 17 1022 77 10000 2.6 310 22:38 21.07.2019
4836 Clouds 17 1022 77 10000 2.6 310 22:20 21.07.2019
4837 Clouds 18 1021 72 10000 4.1 300 21:49 21.07.2019
4838 Clouds 19 1021 68 10000 4.1 310 21:25 21.07.2019
4839 Clouds 19 1021 68 10000 4.6 310 20:57 21.07.2019
4840 Clouds 19 1021 68 10000 4.6 310 20:39 21.07.2019
4841 Clouds 20 1021 64 10000 4.6 300 20:21 21.07.2019
4842 Clouds 20 1021 60 10000 6.2 280 19:48 21.07.2019
4843 Clouds 21 1020 60 10000 6.2 300 19:28 21.07.2019
4844 Clouds 21 1020 60 10000 7.2 300 18:51 21.07.2019
4845 Clouds 21 1020 60 10000 7.2 300 18:28 21.07.2019
4846 Clouds 22 1020 60 10000 7.7 300 17:56 21.07.2019
4847 Clouds 22 1020 60 10000 7.7 300 17:38 21.07.2019
4848 Clouds 22 1020 64 10000 7.2 300 17:18 21.07.2019
4849 Clouds 22 1020 60 10000 6.7 290 16:41 21.07.2019
4850 Clouds 22 1019 60 10000 7.7 300 16:22 21.07.2019
4851 Clouds 22 1019 60 10000 7.7 300 16:22 21.07.2019
4852 Clouds 23 1019 64 10000 7.7 300 15:41 21.07.2019
4853 Clouds 23 1019 68 10000 8.2 310 15:21 21.07.2019
4854 Clouds 23 1019 68 10000 8.2 310 15:21 21.07.2019
4855 Clouds 23 1018 56 10000 6.2 300 14:44 21.07.2019
4856 Clouds 23 1018 49 10000 7.7 270 14:25 21.07.2019
4857 Clouds 22 1018 56 10000 6.2 280 13:53 21.07.2019
4858 Clouds 22 1017 60 10000 6.7 280 13:34 21.07.2019
4859 Clouds 22 1017 56 10000 6.2 270 12:58 21.07.2019
4860 Clouds 22 1017 56 10000 6.2 270 12:39 21.07.2019
4861 Clouds 22 1017 60 10000 7.2 260 12:20 21.07.2019
4862 Clouds 21 1016 64 10000 6.7 260 11:45 21.07.2019
4863 Clouds 21 1016 68 10000 5.7 260 11:26 21.07.2019
4864 Clouds 20 1016 68 10000 6.2 250 10:43 21.07.2019
4865 Clouds 20 1015 72 10000 5.1 250 10:24 21.07.2019
4866 Clouds 19 1015 77 10000 5.7 250 09:54 21.07.2019
4867 Clouds 18 1015 77 10000 5.1 240 09:34 21.07.2019
4868 Clouds 18 1015 88 10000 4.6 230 08:49 21.07.2019
4869 Clouds 17 1014 88 10000 3.6 240 08:29 21.07.2019
4870 Clouds 17 1014 88 10000 3.6 240 07:53 21.07.2019
4871 Clouds 16 1014 93 10000 3.6 240 07:18 21.07.2019
4872 Clouds 16 1013 93 10000 3.1 230 06:23 21.07.2019
4873 Clouds 16 1012 88 10000 1.5 170 03:50 21.07.2019
4874 Clouds 16 1012 93 10000 3.1 160 01:53 21.07.2019
4875 Clouds 17 1012 93 10000 4.1 160 00:46 21.07.2019
4876 Clear 17 1012 93 10000 4.1 160 00:21 21.07.2019
4877 Clear 17 1012 93 10000 3.6 140 23:45 20.07.2019
4878 Clear 17 1012 88 10000 2.1 170 23:25 20.07.2019
4879 Clear 17 1012 88 10000 3.1 160 22:55 20.07.2019
4880 Clear 17 1012 88 10000 3.1 160 22:37 20.07.2019
4881 Drizzle 17 1012 88 10000 3.1 160 22:18 20.07.2019
4882 Rain 17 1011 93 10000 4.1 140 21:42 20.07.2019
4883 Rain 18 1011 88 10000 3.1 160 21:24 20.07.2019
4884 Rain 18 1011 88 10000 3.1 160 20:43 20.07.2019
4885 Rain 18 1011 88 10000 2.1 210 20:22 20.07.2019
4886 Rain 18 1011 93 10000 3.1 200 19:49 20.07.2019
4887 Rain 18 1011 93 10000 2.6 180 19:27 20.07.2019
4888 Rain 18 1011 93 10000 4.1 110 18:56 20.07.2019
4889 Thunderstorm 18 1010 88 9000 3.6 110 18:37 20.07.2019
4890 Thunderstorm 18 1010 88 9000 3.6 110 18:18 20.07.2019
4891 Thunderstorm 21 1011 93 8000 2.6 250 17:43 20.07.2019
4892 Thunderstorm 22 1010 64 10000 8.2 260 17:19 20.07.2019
4893 Thunderstorm 25 1009 39 10000 5.7 180 16:41 20.07.2019
4894 Clear 28 1009 37 10000 6.7 160 16:22 20.07.2019
4895 Clear 29 1009 39 10000 6.2 160 15:42 20.07.2019
4896 Clear 29 1010 39 10000 6.7 170 15:21 20.07.2019
4897 Clear 29 1010 37 10000 6.7 170 14:54 20.07.2019
4898 Clear 29 1010 39 10000 6.7 180 14:36 20.07.2019
4899 Clear 29 1010 39 10000 6.7 180 14:18 20.07.2019
4900 Clear 28 1010 37 10000 6.7 170 13:38 20.07.2019
4901 Clear 27 1011 39 10000 7.2 180 13:19 20.07.2019
4902 Clear 27 1011 44 10000 6.2 180 12:51 20.07.2019
4903 Clear 26 1011 44 10000 6.2 150 12:20 20.07.2019
4904 Clouds 26 1011 50 10000 5.7 150 11:52 20.07.2019
4905 Clear 25 1012 53 10000 4.6 140 11:23 20.07.2019
4906 Clear 24 1012 56 10000 5.7 150 10:52 20.07.2019
4907 Clear 24 1012 56 10000 5.7 160 10:26 20.07.2019
4908 Clear 23 1012 53 10000 5.1 150 09:55 20.07.2019
4909 Clear 22 1012 53 10000 5.1 150 09:37 20.07.2019
4910 Clear 21 1012 56 10000 5.1 150 09:18 20.07.2019
4911 Clear 21 1012 56 10000 5.1 150 09:18 20.07.2019
4912 Clear 19 1013 63 10000 4.1 140 08:39 20.07.2019
4913 Clear 19 1013 63 10000 4.1 140 08:19 20.07.2019
4914 Clear 16 1013 63 10000 3.1 140 07:18 20.07.2019
4915 Clear 15 1013 72 10000 2.6 130 06:35 20.07.2019
4916 Clear 14 1013 76 10000 2.6 120 04:31 20.07.2019
4917 Clear 15 1013 76 10000 2.1 70 03:28 20.07.2019
4918 Clear 15 1014 77 10000 1 50 01:21 20.07.2019
4919 Clear 15 1014 77 10000 1 0 00:46 20.07.2019
4920 Clear 16 1014 82 10000 1.09 88.479 00:21 20.07.2019
4921 Clear 16 1014 72 10000 0.5 0 23:44 19.07.2019
4922 Clear 17 1014 72 10000 0.5 0 23:25 19.07.2019
4923 Clear 17 1014 67 10000 0.5 0 22:50 19.07.2019
4924 Clear 17 1014 68 10000 1 0 22:26 19.07.2019
4925 Clear 18 1014 68 10000 1 330 21:51 19.07.2019
4926 Clear 20 1014 56 10000 1.5 330 21:33 19.07.2019
4927 Clear 21 1013 52 10000 2.1 340 20:59 19.07.2019
4928 Clear 21 1013 52 10000 2.6 330 20:40 19.07.2019
4929 Clear 21 1013 52 10000 2.6 330 20:22 19.07.2019
4930 Clear 22 1013 43 10000 4.6 320 19:35 19.07.2019
4931 Clear 23 1013 40 10000 4.6 300 18:46 19.07.2019
4932 Clear 24 1013 38 10000 5.1 310 18:25 19.07.2019
4933 Clear 24 1013 35 10000 6.2 310 17:57 19.07.2019
4934 Clear 24 1013 40 10000 6.2 320 17:29 19.07.2019
4935 Clear 24 1013 43 10000 5.1 310 16:59 19.07.2019
4936 Clear 24 1013 43 10000 5.1 310 16:40 19.07.2019
4937 Clear 24 1013 43 10000 5.1 290 16:18 19.07.2019
4938 Clouds 24 1013 43 10000 6.2 290 15:47 19.07.2019
4939 Clouds 23 1013 38 10000 5.7 280 15:29 19.07.2019
4940 Clouds 23 1013 49 10000 5.1 280 14:55 19.07.2019
4941 Clouds 23 1013 53 10000 5.1 270 14:37 19.07.2019
4942 Clouds 23 1013 53 10000 5.1 270 14:19 19.07.2019
4943 Clouds 22 1012 60 10000 3.6 270 13:42 19.07.2019
4944 Clouds 22 1012 60 10000 3.6 270 13:22 19.07.2019
4945 Clouds 22 1012 64 10000 3.1 280 12:48 19.07.2019
4946 Clouds 21 1012 68 10000 4.6 300 12:28 19.07.2019
4947 Clouds 21 1012 64 10000 3.6 260 11:47 19.07.2019
4948 Clouds 20 1012 77 10000 3.6 280 11:20 19.07.2019
4949 Clouds 20 1012 77 10000 3.1 270 10:58 19.07.2019
4950 Clouds 20 1012 77 10000 3.1 270 10:39 19.07.2019
4951 Clouds 20 1012 77 10000 4.1 260 10:18 19.07.2019
4952 Clouds 19 1012 77 10000 3.6 230 09:43 19.07.2019
4953 Clouds 19 1011 77 10000 5.1 220 09:22 19.07.2019
4954 Clouds 19 1011 77 10000 2.1 240 08:50 19.07.2019
4955 Clouds 18 1011 77 10000 2.1 230 08:32 19.07.2019
4956 Clear 17 1011 88 10000 2.6 250 07:42 19.07.2019
4957 Clear 17 1011 82 10000 2.6 240 07:23 19.07.2019
4958 Clouds 16 1010 88 7000 2.1 240 05:39 19.07.2019
4959 Clear 18 1010 63 10000 1 0 01:59 19.07.2019
4960 Clear 18 1010 77 10000 2.1 80 00:59 19.07.2019
4961 Clear 18 1010 77 10000 1 0 00:25 19.07.2019
4962 Clear 19 1010 72 10000 1 0 23:42 18.07.2019
4963 Clear 19 1010 77 10000 3.1 60 23:23 18.07.2019
4964 Clear 19 1010 72 10000 3.1 60 22:58 18.07.2019
4965 Clear 19 1010 72 10000 3.1 60 22:39 18.07.2019
4966 Clear 20 1010 68 10000 2.6 60 22:18 18.07.2019
4967 Clear 21 1010 64 10000 2.1 60 21:41 18.07.2019
4968 Clear 22 1010 64 10000 1 0 21:22 18.07.2019
4969 Clear 23 1010 64 10000 1 360 20:49 18.07.2019
4970 Clear 23 1010 53 10000 2.1 320 20:28 18.07.2019
4971 Clear 24 1010 44 10000 2.6 270 19:53 18.07.2019
4972 Clear 24 1010 44 10000 1.5 200 19:31 18.07.2019
4973 Clear 24 1010 41 10000 1.5 150 18:57 18.07.2019
4974 Clear 24 1010 41 10000 1.5 150 18:38 18.07.2019
4975 Clear 24 1010 41 10000 2.6 180 18:19 18.07.2019
4976 Clear 25 1010 41 10000 3.6 190 17:42 18.07.2019
4977 Clear 25 1010 41 10000 3.6 190 17:42 18.07.2019
4978 Clear 25 1010 41 10000 2.6 180 17:24 18.07.2019
4979 Clear 25 1010 44 10000 2.6 200 16:54 18.07.2019
4980 Clear 25 1011 44 10000 3.1 210 16:29 18.07.2019
4981 Clear 25 1011 41 10000 3.1 210 15:58 18.07.2019
4982 Clear 25 1011 41 10000 3.1 210 15:39 18.07.2019
4983 Clear 25 1011 47 10000 2.1 0 15:21 18.07.2019
4984 Clear 25 1011 50 10000 3.1 180 14:43 18.07.2019
4985 Clouds 24 1011 47 10000 2.1 0 14:25 18.07.2019
4986 Clouds 25 1011 44 10000 2.6 0 13:48 18.07.2019
4987 Clouds 24 1012 49 10000 2.1 0 13:23 18.07.2019
4988 Clouds 24 1012 49 10000 3.1 0 12:50 18.07.2019
4989 Clouds 23 1012 49 10000 3.1 0 12:21 18.07.2019
4990 Clouds 23 1012 53 10000 3.1 180 11:58 18.07.2019
4991 Clouds 22 1012 49 10000 3.6 140 11:39 18.07.2019
4992 Clouds 22 1012 49 10000 3.6 140 11:20 18.07.2019
4993 Clouds 22 1012 49 10000 2.6 200 10:41 18.07.2019
4994 Clear 20 1012 60 10000 2.6 210 09:50 18.07.2019
4995 Clear 18 1012 68 10000 2.1 160 09:26 18.07.2019
4996 Clear 17 1012 72 10000 1.5 150 08:52 18.07.2019
4997 Clear 16 1012 77 10000 1 0 08:25 18.07.2019
4998 Clear 14 1013 87 10000 1 60 07:57 18.07.2019
4999 Clear 13 1013 93 10000 2.1 70 07:35 18.07.2019
5000 Fog 12 1013 93 10000 0.5 0 06:48 18.07.2019
5001 Fog 10 1013 100 10000 0.5 0 06:20 18.07.2019
5002 Fog 11 1013 93 10000 1 320 03:34 18.07.2019
5003 Fog 12 1013 100 10000 1 0 02:23 18.07.2019
5004 Fog 12 1013 100 10000 0.5 0 01:36 18.07.2019
5005 Clear 14 1014 93 10000 2.1 310 23:59 17.07.2019
5006 Clear 14 1013 93 10000 0.5 0 23:22 17.07.2019
5007 Clear 15 1014 87 10000 1 320 22:59 17.07.2019
5008 Clear 15 1014 87 10000 1 320 22:41 17.07.2019
5009 Clouds 16 1013 82 10000 1 310 22:22 17.07.2019
5010 Clouds 17 1014 77 10000 1.5 40 21:57 17.07.2019
5011 Clouds 18 1013 63 10000 1.5 10 21:38 17.07.2019
5012 Clouds 19 1013 63 10000 1.5 10 21:19 17.07.2019
5013 Clouds 19 1013 60 10000 1 0 20:55 17.07.2019
5014 Clouds 20 1013 52 10000 1.5 70 20:37 17.07.2019
5015 Clouds 20 1013 52 10000 1.5 70 20:18 17.07.2019
5016 Clouds 20 1014 52 10000 2.6 310 19:41 17.07.2019
5017 Clouds 20 1014 52 10000 2.6 310 19:20 17.07.2019
5018 Clouds 21 1014 60 10000 1 0 18:45 17.07.2019
5019 Clouds 21 1014 60 10000 1 0 18:21 17.07.2019
5020 Clouds 20 1014 60 10000 2.1 330 17:59 17.07.2019
5021 Clouds 21 1014 60 10000 2.1 330 17:41 17.07.2019
5022 Clouds 21 1015 60 10000 2.1 330 17:22 17.07.2019
5023 Clouds 20 1015 60 10000 1.5 360 16:41 17.07.2019
5024 Clouds 19 1015 59 10000 1.5 0 16:20 17.07.2019
5025 Clouds 20 1015 59 10000 1.5 0 15:51 17.07.2019
5026 Rain 19 1015 63 10000 1 0 15:31 17.07.2019
5027 Clouds 19 1015 63 10000 1 0 14:57 17.07.2019
5028 Clouds 19 1015 72 10000 2.1 330 14:38 17.07.2019
5029 Clouds 19 1015 72 10000 2.1 330 14:20 17.07.2019
5030 Clouds 18 1015 67 10000 2.1 0 13:49 17.07.2019
5031 Clouds 18 1015 67 10000 2.1 0 13:31 17.07.2019
5032 Clouds 18 1015 72 10000 2.1 320 12:59 17.07.2019
5033 Clouds 17 1015 72 10000 1.5 320 12:38 17.07.2019
5034 Clouds 17 1015 72 10000 2.1 320 12:19 17.07.2019
5035 Clouds 16 1015 77 10000 1.5 360 11:41 17.07.2019
5036 Clouds 16 1015 72 10000 2.1 320 11:19 17.07.2019
5037 Clouds 15 1015 76 10000 1.5 320 10:48 17.07.2019
5038 Clouds 15 1015 76 10000 1.5 350 10:24 17.07.2019
5039 Clouds 15 1015 76 10000 2.1 340 09:45 17.07.2019
5040 Clouds 14 1015 76 10000 2.1 340 09:27 17.07.2019
5041 Clouds 14 1015 76 10000 2.6 300 08:56 17.07.2019
5042 Clouds 14 1015 76 10000 2.6 300 08:37 17.07.2019
5043 Clouds 14 1015 76 10000 4.1 310 08:18 17.07.2019
5044 Clouds 13 1015 82 10000 3.1 320 07:41 17.07.2019
5045 Clouds 13 1015 82 10000 3.1 320 07:22 17.07.2019
5046 Clouds 13 1015 82 10000 3.1 310 06:46 17.07.2019
5047 Clouds 13 1015 82 10000 3.1 310 06:28 17.07.2019
5048 Clouds 13 1015 82 10000 3.1 330 05:42 17.07.2019
5049 Clouds 13 1015 82 10000 3.1 330 05:20 17.07.2019
5050 Clouds 13 1015 82 10000 3.6 310 04:22 17.07.2019
5051 Clouds 13 1016 82 10000 3.6 300 02:45 17.07.2019
5052 Clouds 14 1016 76 10000 4.1 300 01:58 17.07.2019
5053 Clouds 14 1016 76 10000 4.1 300 01:24 17.07.2019
5054 Clouds 14 1016 76 10000 4.6 300 00:44 17.07.2019
5055 Clouds 14 1016 76 10000 4.6 280 00:23 17.07.2019
5056 Clouds 14 1016 76 10000 4.6 280 23:55 16.07.2019
5057 Clouds 14 1016 72 10000 4.6 300 23:29 16.07.2019
5058 Clouds 14 1016 72 10000 3.6 290 22:58 16.07.2019
5059 Clouds 15 1016 72 10000 5.1 280 22:40 16.07.2019
5060 Clouds 15 1016 72 10000 4.6 280 22:20 16.07.2019
5061 Clouds 15 1016 77 10000 4.6 300 21:45 16.07.2019
5062 Clouds 16 1015 72 10000 5.7 280 21:21 16.07.2019
5063 Clouds 16 1015 72 10000 5.7 280 20:58 16.07.2019
5064 Clouds 17 1015 72 10000 7.2 290 20:38 16.07.2019
5065 Clouds 17 1015 67 10000 7.7 290 20:20 16.07.2019
5066 Clouds 18 1015 67 10000 6.7 290 19:47 16.07.2019
5067 Clouds 18 1015 67 10000 6.7 290 19:27 16.07.2019
5068 Clouds 18 1015 67 10000 7.2 280 18:56 16.07.2019
5069 Clouds 19 1015 67 10000 8.2 280 18:37 16.07.2019
5070 Clouds 19 1015 67 10000 7.2 280 18:19 16.07.2019
5071 Clouds 19 1015 68 10000 6.7 290 17:40 16.07.2019
5072 Clouds 19 1015 68 10000 6.7 290 17:21 16.07.2019
5073 Clouds 19 1015 63 10000 8.2 300 16:44 16.07.2019
5074 Clouds 19 1015 63 10000 8.2 290 16:21 16.07.2019
5075 Clouds 19 1015 68 10000 8.2 280 15:42 16.07.2019
5076 Clouds 19 1015 68 10000 8.2 280 15:21 16.07.2019
5077 Clouds 19 1015 68 10000 9.3 290 14:59 16.07.2019
5078 Clouds 19 1015 68 10000 8.7 280 14:41 16.07.2019
5079 Clouds 19 1015 68 10000 8.2 290 14:23 16.07.2019
5080 Clouds 18 1015 72 10000 7.7 280 13:46 16.07.2019
5081 Clouds 18 1015 72 10000 7.7 280 13:27 16.07.2019
5082 Clouds 18 1015 82 10000 6.7 290 12:55 16.07.2019
5083 Drizzle 17 1015 77 10000 7.2 270 12:37 16.07.2019
5084 Drizzle 17 1015 77 10000 8.2 290 12:19 16.07.2019
5085 Drizzle 16 1014 82 10000 6.7 290 11:43 16.07.2019
5086 Drizzle 16 1014 82 10000 6.7 290 11:24 16.07.2019
5087 Drizzle 16 1014 93 4500 6.2 280 10:57 16.07.2019
5088 Drizzle 16 1014 87 10000 6.2 280 10:38 16.07.2019
5089 Drizzle 15 1014 87 10000 6.2 290 10:18 16.07.2019
5090 Drizzle 15 1014 87 10000 5.1 280 09:42 16.07.2019
5091 Drizzle 14 1014 93 10000 5.1 280 09:20 16.07.2019
5092 Drizzle 14 1014 93 4000 4.1 290 08:46 16.07.2019
5093 Drizzle 14 1014 93 6000 3.6 280 08:23 16.07.2019
5094 Drizzle 14 1014 93 6000 4.1 300 07:50 16.07.2019
5095 Drizzle 14 1014 93 6000 4.1 300 07:32 16.07.2019
5096 Drizzle 14 1014 87 7000 5.1 300 06:58 16.07.2019
5097 Drizzle 13 1014 87 10000 3.6 300 06:35 16.07.2019
5098 Drizzle 14 1014 87 8000 4.1 310 05:51 16.07.2019
5099 Clouds 14 1015 87 10000 3.6 300 05:26 16.07.2019
5100 Clouds 14 1015 82 10000 4.1 280 04:32 16.07.2019
5101 Clouds 14 1015 82 10000 4.6 280 03:42 16.07.2019
5102 Clouds 14 1015 82 10000 4.6 290 02:44 16.07.2019
5103 Clouds 14 1015 82 10000 4.6 290 02:22 16.07.2019
5104 Clouds 14 1015 82 10000 3.6 290 01:24 16.07.2019
5105 Drizzle 14 1015 87 10000 4.1 290 00:23 16.07.2019
5106 Drizzle 14 1015 87 10000 4.1 290 23:58 15.07.2019
5107 Drizzle 14 1015 82 10000 4.1 270 23:38 15.07.2019
5108 Drizzle 14 1015 87 10000 4.1 290 23:18 15.07.2019
5109 Clouds 14 1015 82 10000 4.6 270 22:43 15.07.2019
5110 Clouds 14 1015 82 10000 5.7 280 22:20 15.07.2019
5111 Clouds 15 1015 82 10000 5.7 280 21:57 15.07.2019
5112 Clouds 15 1015 77 10000 6.2 280 21:38 15.07.2019
5113 Clouds 15 1015 77 10000 6.7 280 21:19 15.07.2019
5114 Clouds 15 1015 77 10000 7.2 280 20:44 15.07.2019
5115 Clouds 15 1015 77 10000 7.2 280 20:44 15.07.2019
5116 Clouds 15 1015 72 10000 5.7 270 20:23 15.07.2019
5117 Clouds 15 1015 72 10000 5.7 270 19:57 15.07.2019
5118 Clouds 16 1016 67 10000 5.7 270 19:38 15.07.2019
5119 Clouds 16 1016 63 10000 6.2 280 19:18 15.07.2019
5120 Clouds 16 1016 63 10000 6.7 280 18:44 15.07.2019
5121 Clouds 16 1016 63 10000 6.2 280 18:21 15.07.2019
5122 Clouds 16 1016 63 10000 6.2 280 17:57 15.07.2019
5123 Clouds 16 1016 63 10000 7.2 290 17:38 15.07.2019
5124 Clouds 16 1016 63 10000 7.2 290 17:20 15.07.2019
5125 Clouds 17 1016 63 10000 6.7 290 16:57 15.07.2019
5126 Clouds 16 1016 63 10000 6.7 280 16:36 15.07.2019
5127 Clouds 16 1016 63 10000 5.7 280 16:18 15.07.2019
5128 Clouds 16 1016 63 10000 7.2 280 15:40 15.07.2019
5129 Clouds 16 1016 63 10000 7.2 280 15:22 15.07.2019
5130 Clouds 16 1016 63 10000 6.7 270 14:59 15.07.2019
5131 Clouds 16 1016 67 10000 6.7 290 14:38 15.07.2019
5132 Clouds 16 1016 63 10000 6.7 270 14:19 15.07.2019
5133 Clouds 16 1016 67 10000 5.7 260 13:47 15.07.2019
5134 Clouds 15 1017 67 10000 5.1 270 13:19 15.07.2019
5135 Clouds 15 1017 71 10000 5.7 270 12:47 15.07.2019
5136 Clouds 15 1017 71 10000 5.7 270 12:27 15.07.2019
5137 Clouds 15 1017 67 10000 4.6 280 11:57 15.07.2019
5138 Clouds 15 1017 76 10000 5.7 270 11:38 15.07.2019
5139 Clouds 15 1017 76 10000 5.1 260 11:18 15.07.2019
5140 Clouds 14 1017 72 10000 4.6 270 10:40 15.07.2019
5141 Clouds 14 1017 72 10000 4.6 270 10:22 15.07.2019
5142 Clouds 14 1017 76 10000 4.1 290 09:42 15.07.2019
5143 Clouds 14 1017 76 10000 2.6 280 09:20 15.07.2019
5144 Clouds 13 1017 71 10000 2.6 280 08:46 15.07.2019
5145 Clouds 13 1017 71 10000 2.6 280 08:25 15.07.2019
5146 Clouds 13 1017 76 10000 3.6 300 07:52 15.07.2019
5147 Clouds 13 1017 76 10000 3.6 300 07:32 15.07.2019
5148 Clouds 13 1017 82 10000 2.6 290 06:43 15.07.2019
5149 Clouds 13 1017 82 10000 2.6 290 06:21 15.07.2019
5150 Clouds 13 1017 82 10000 2.1 290 05:43 15.07.2019
5151 Clouds 13 1017 82 10000 2.1 290 04:48 15.07.2019
5152 Clouds 13 1017 82 10000 2.6 300 04:29 15.07.2019
5153 Clouds 13 1017 76 10000 3.1 290 03:29 15.07.2019
5154 Clouds 13 1018 71 10000 3.1 300 02:25 15.07.2019
5155 Clouds 13 1018 76 10000 3.1 290 01:35 15.07.2019
5156 Clouds 14 1018 76 10000 4.1 290 00:54 15.07.2019
5157 Clouds 14 1018 82 10000 2.1 280 00:28 15.07.2019
5158 Clouds 14 1018 82 10000 2.1 280 23:59 14.07.2019
5159 Clouds 14 1018 82 10000 3.6 300 23:40 14.07.2019
5160 Clouds 14 1018 87 10000 3.6 300 23:20 14.07.2019
5161 Clouds 14 1018 87 10000 3.6 300 22:58 14.07.2019
5162 Rain 14 1018 87 10000 2.1 280 22:38 14.07.2019
5163 Rain 14 1018 87 10000 2.1 280 22:20 14.07.2019
5164 Drizzle 15 1017 87 10000 4.6 280 21:46 14.07.2019
5165 Clouds 15 1017 82 10000 4.6 270 21:20 14.07.2019
5166 Clouds 15 1017 82 10000 4.6 270 20:59 14.07.2019
5167 Clouds 15 1017 77 10000 4.1 290 20:39 14.07.2019
5168 Clouds 15 1017 72 10000 4.6 280 20:20 14.07.2019
5169 Clouds 15 1017 72 10000 4.6 280 19:57 14.07.2019
5170 Clouds 16 1017 72 10000 4.1 280 19:38 14.07.2019
5171 Clouds 16 1017 72 10000 4.1 270 19:19 14.07.2019
5172 Clouds 16 1017 77 10000 4.6 280 18:42 14.07.2019
5173 Clouds 16 1017 77 10000 4.6 280 18:22 14.07.2019
5174 Clouds 16 1018 72 10000 4.6 280 17:58 14.07.2019
5175 Clouds 16 1018 72 10000 4.6 280 17:39 14.07.2019
5176 Clouds 16 1018 77 10000 4.6 280 17:18 14.07.2019
5177 Clouds 16 1018 72 10000 4.1 280 16:44 14.07.2019
5178 Clouds 16 1018 72 10000 4.1 280 16:21 14.07.2019
5179 Clouds 16 1018 77 10000 4.1 270 15:43 14.07.2019
5180 Clouds 16 1018 77 10000 4.6 260 15:24 14.07.2019
5181 Clouds 16 1018 72 10000 4.1 290 14:47 14.07.2019
5182 Clouds 16 1018 82 10000 3.6 290 14:20 14.07.2019
5183 Clouds 16 1018 77 10000 2.6 260 13:47 14.07.2019
5184 Clouds 16 1018 77 10000 2.6 260 13:25 14.07.2019
5185 Clouds 16 1018 77 10000 3.6 300 12:58 14.07.2019
5186 Clouds 16 1018 77 10000 3.1 300 12:40 14.07.2019
5187 Clouds 16 1018 77 10000 3.1 300 12:19 14.07.2019
5188 Clouds 15 1017 77 10000 4.1 300 11:51 14.07.2019
5189 Rain 15 1017 77 10000 3.1 330 11:22 14.07.2019
5190 Clouds 15 1017 77 10000 2.6 300 10:49 14.07.2019
5191 Clouds 15 1017 77 10000 2.6 300 10:22 14.07.2019
5192 Clouds 15 1017 77 10000 3.6 300 09:51 14.07.2019
5193 Clouds 14 1017 87 10000 3.6 320 09:30 14.07.2019
5194 Drizzle 14 1017 93 10000 2.6 300 08:57 14.07.2019
5195 Drizzle 14 1017 87 6000 3.6 310 08:39 14.07.2019
5196 Clouds 14 1016 82 10000 3.1 300 07:47 14.07.2019
5197 Clouds 14 1016 82 10000 3.1 300 07:22 14.07.2019
5198 Clouds 14 1016 82 10000 2.6 300 06:23 14.07.2019
5199 Clouds 14 1016 82 10000 3.1 300 05:43 14.07.2019
5200 Clouds 14 1016 82 10000 2.6 280 03:45 14.07.2019
5201 Clouds 14 1016 82 10000 2.6 280 03:27 14.07.2019
5202 Clouds 14 1016 82 10000 2.6 290 02:38 14.07.2019
5203 Clouds 14 1016 77 10000 2.6 290 02:20 14.07.2019
5204 Clouds 15 1017 77 10000 2.6 280 01:30 14.07.2019
5205 Clouds 15 1017 72 10000 2.6 290 00:55 14.07.2019
5206 Clouds 15 1017 72 10000 2.6 290 00:37 14.07.2019
5207 Clouds 15 1017 72 10000 3.1 300 00:18 14.07.2019
5208 Clouds 15 1017 77 10000 4.1 300 23:42 13.07.2019
5209 Clouds 15 1017 77 10000 4.1 300 23:22 13.07.2019
5210 Clouds 15 1016 77 10000 4.6 310 22:43 13.07.2019
5211 Clouds 15 1016 77 10000 4.6 310 22:22 13.07.2019
5212 Clouds 16 1016 77 10000 5.1 310 21:49 13.07.2019
5213 Clouds 16 1016 77 10000 6.7 300 21:23 13.07.2019
5214 Clouds 16 1016 77 10000 6.7 300 20:59 13.07.2019
5215 Clouds 17 1015 77 10000 5.7 290 20:39 13.07.2019
5216 Clouds 17 1015 77 10000 5.7 290 20:21 13.07.2019
5217 Clouds 17 1015 77 10000 6.2 290 19:41 13.07.2019
5218 Rain 18 1015 77 10000 7.2 300 19:23 13.07.2019
5219 Clouds 18 1015 72 10000 6.2 300 18:40 13.07.2019
5220 Clouds 19 1015 68 10000 5.7 300 18:19 13.07.2019
5221 Rain 20 1015 72 10000 5.7 300 17:38 13.07.2019
5222 Rain 20 1015 72 10000 5.7 300 17:38 13.07.2019
5223 Rain 20 1015 72 10000 5.7 300 17:38 13.07.2019
5224 Thunderstorm 20 1014 82 10000 4.1 320 17:19 13.07.2019
5225 Thunderstorm 20 1014 77 10000 3.1 330 16:46 13.07.2019
5226 Thunderstorm 20 1014 77 10000 3.1 330 16:26 13.07.2019
5227 Rain 20 1014 82 10000 2.6 40 15:54 13.07.2019
5228 Thunderstorm 20 1014 82 10000 3.1 50 15:36 13.07.2019
5229 Thunderstorm 21 1014 77 7000 6.2 330 15:18 13.07.2019
5230 Thunderstorm 21 1014 64 10000 4.6 300 14:41 13.07.2019
5231 Rain 20 1014 64 10000 3.1 320 14:20 13.07.2019
5232 Rain 21 1014 68 10000 3.6 330 13:44 13.07.2019
5233 Rain 21 1014 68 10000 3.6 330 13:23 13.07.2019
5234 Thunderstorm 21 1014 64 10000 2.6 300 12:42 13.07.2019
5235 Thunderstorm 21 1014 64 10000 2.6 300 12:23 13.07.2019
5236 Clouds 21 1013 72 10000 1.5 340 11:58 13.07.2019
5237 Clouds 20 1013 72 10000 1.5 340 11:38 13.07.2019
5238 Clouds 20 1013 72 10000 2.6 340 11:19 13.07.2019
5239 Clouds 19 1013 77 10000 2.6 320 10:42 13.07.2019
5240 Clouds 19 1013 77 10000 2.6 320 10:23 13.07.2019
5241 Clouds 18 1013 82 9000 2.6 320 09:50 13.07.2019
5242 Clouds 18 1013 82 9000 2.6 320 09:30 13.07.2019
5243 -273 0 0 0 0 0 08:56 13.07.2019
5244 Clouds 17 1012 88 7000 3.6 310 08:28 13.07.2019
5245 Clouds 16 1012 88 6000 2.1 300 07:55 13.07.2019
5246 Mist 16 1012 88 6000 1.5 330 07:28 13.07.2019
5247 Mist 16 1012 93 5000 2.6 320 06:31 13.07.2019
5248 Mist 16 1011 93 4500 1.5 320 05:49 13.07.2019
5249 Mist 16 1011 93 4500 2.6 320 04:41 13.07.2019
5250 Mist 16 1011 93 4500 2.6 320 04:21 13.07.2019
5251 Mist 16 1011 93 5000 2.1 300 03:43 13.07.2019
5252 Mist 16 1011 93 5000 1.5 260 03:25 13.07.2019
5253 Mist 16 1011 93 5000 1 210 01:54 13.07.2019
5254 Clouds 16 1011 93 6000 1.5 270 01:36 13.07.2019
5255 Clouds 16 1011 93 6000 1.5 270 01:18 13.07.2019
5256 Clouds 16 1010 93 10000 2.1 270 00:42 13.07.2019
5257 Clouds 16 1010 87 10000 2.1 260 00:18 13.07.2019
5258 Clouds 16 1010 87 10000 2.6 270 23:42 12.07.2019
5259 Clouds 16 1010 87 10000 2.1 270 23:23 12.07.2019
5260 Clouds 17 1010 82 10000 2.6 290 22:42 12.07.2019
5261 Clouds 17 1010 82 10000 2.6 290 22:22 12.07.2019
5262 Clouds 18 1010 77 10000 3.6 290 21:42 12.07.2019
5263 Clouds 18 1010 77 10000 3.6 290 21:21 12.07.2019
5264 Rain 18 1010 72 10000 4.1 300 20:53 12.07.2019
5265 Rain 19 1009 68 10000 5.1 300 20:24 12.07.2019
5266 Rain 19 1009 64 10000 5.1 300 19:45 12.07.2019
5267 Rain 20 1009 64 10000 4.6 290 19:27 12.07.2019
5268 Rain 20 1009 64 10000 4.6 290 18:59 12.07.2019
5269 Rain 20 1009 64 10000 4.1 280 18:39 12.07.2019
5270 Rain 20 1009 60 10000 4.1 270 18:20 12.07.2019
5271 Rain 19 1009 68 10000 3.1 260 17:48 12.07.2019
5272 Rain 20 1009 68 10000 3.1 260 17:27 12.07.2019
5273 Rain 20 1009 64 10000 5.1 280 16:44 12.07.2019
5274 Rain 20 1009 68 10000 5.1 300 16:21 12.07.2019
5275 Rain 21 1009 64 10000 4.1 300 15:41 12.07.2019
5276 Rain 20 1009 64 10000 4.1 270 15:21 12.07.2019
5277 Rain 20 1009 64 10000 4.1 270 14:57 12.07.2019
5278 Rain 20 1009 72 10000 2.1 250 14:38 12.07.2019
5279 Clouds 19 1009 82 10000 3.1 280 14:20 12.07.2019
5280 Rain 19 1009 82 10000 3.1 260 13:42 12.07.2019
5281 Rain 19 1010 88 10000 2.6 270 13:20 12.07.2019
5282 Rain 19 1009 77 10000 2.6 230 12:40 12.07.2019
5283 Rain 19 1009 77 10000 2.6 230 12:21 12.07.2019
5284 Clouds 18 1009 82 10000 2.1 240 11:45 12.07.2019
5285 Clouds 18 1009 82 10000 2.1 240 11:23 12.07.2019
5286 Rain 17 1010 88 10000 3.6 270 10:44 12.07.2019
5287 Rain 17 1010 88 10000 3.6 270 10:25 12.07.2019
5288 Rain 17 1010 93 4500 2.1 240 09:55 12.07.2019
5289 Rain 17 1010 93 4800 2.6 240 09:36 12.07.2019
5290 Mist 16 1009 93 4500 2.1 230 09:18 12.07.2019
5291 Rain 16 1009 93 4500 2.1 170 08:42 12.07.2019
5292 Rain 16 1009 93 4500 2.1 170 08:42 12.07.2019
5293 Mist 16 1009 93 5000 1.5 160 08:20 12.07.2019
5294 Rain 16 1009 93 5000 2.1 130 07:47 12.07.2019
5295 Rain 16 1009 93 5000 2.1 130 07:27 12.07.2019
5296 Rain 15 1010 93 7000 1.5 160 06:29 12.07.2019
5297 Rain 15 1010 93 8000 1.5 90 05:50 12.07.2019
5298 Rain 16 1010 93 9000 1 0 03:46 12.07.2019
5299 Rain 16 1011 93 8000 1 0 01:48 12.07.2019
5300 Rain 16 1011 100 9000 1.5 240 01:29 12.07.2019
5301 Rain 16 1011 93 10000 1.5 210 00:34 12.07.2019
5302 Rain 16 1011 100 9000 1.5 210 23:55 11.07.2019
5303 Rain 17 1011 93 9000 1.5 200 23:37 11.07.2019
5304 Rain 17 1011 100 8000 0.5 0 23:18 11.07.2019
5305 Clouds 17 1011 100 8000 1 0 22:42 11.07.2019
5306 Clouds 17 1011 93 8000 0.5 210 22:23 11.07.2019
5307 Clouds 17 1011 93 8000 0.5 210 22:23 11.07.2019
5308 Rain 17 1011 93 10000 0.5 0 21:43 11.07.2019
5309 Rain 18 1011 93 10000 1 0 21:20 11.07.2019
5310 Rain 18 1011 93 10000 1 0 20:59 11.07.2019
5311 Rain 18 1011 93 10000 1 0 20:41 11.07.2019
5312 Rain 18 1011 93 10000 1 0 20:22 11.07.2019
5313 Rain 19 1011 93 8000 0.5 0 19:55 11.07.2019
5314 Rain 19 1011 93 5000 2.1 240 19:37 11.07.2019
5315 Rain 19 1012 93 3500 4.6 260 19:19 11.07.2019
5316 Rain 19 1011 68 10000 2.6 0 18:40 11.07.2019
5317 Rain 20 1011 68 10000 2.6 0 18:21 11.07.2019
5318 Rain 20 1011 56 10000 1.5 0 17:47 11.07.2019
5319 Rain 20 1011 56 10000 1.5 0 17:28 11.07.2019
5320 Clouds 20 1012 60 10000 1 0 16:53 11.07.2019
5321 Clouds 20 1012 64 10000 1 0 16:25 11.07.2019
5322 Clouds 20 1012 63 10000 2.1 190 15:58 11.07.2019
5323 Clouds 20 1012 63 10000 2.1 190 15:39 11.07.2019
5324 Clouds 20 1012 64 10000 2.1 180 15:20 11.07.2019
5325 Clouds 20 1012 63 10000 3.6 190 14:44 11.07.2019
5326 Clouds 20 1012 63 10000 3.6 190 14:23 11.07.2019
5327 Clouds 19 1013 63 10000 3.1 190 13:52 11.07.2019
5328 Clouds 19 1013 68 10000 3.1 240 13:33 11.07.2019
5329 Clouds 19 1013 63 10000 4.6 210 12:58 11.07.2019
5330 Clouds 18 1013 63 10000 3.1 200 12:37 11.07.2019
5331 Clouds 18 1013 67 10000 3.6 190 12:19 11.07.2019
5332 Clouds 18 1013 67 10000 3.1 190 11:43 11.07.2019
5333 Clouds 17 1013 67 10000 3.1 190 11:24 11.07.2019
5334 Clouds 17 1014 72 10000 3.1 200 10:51 11.07.2019
5335 Clouds 16 1014 72 10000 3.1 200 10:20 11.07.2019
5336 Clear 15 1014 77 10000 2.6 230 09:50 11.07.2019
5337 Clear 15 1014 77 10000 2.6 230 09:31 11.07.2019
5338 Clear 15 1014 72 10000 3.1 230 08:59 11.07.2019
5339 Clear 15 1014 72 10000 2.6 220 08:39 11.07.2019
5340 Clear 14 1014 77 10000 1.5 240 08:19 11.07.2019
5341 Rain 14 1014 76 10000 1.5 190 07:43 11.07.2019
5342 Clouds 13 1014 82 10000 1 220 06:55 11.07.2019
5343 Rain 13 1014 82 10000 1 220 06:18 11.07.2019
5344 Clouds 13 1014 71 10000 0.5 0 05:32 11.07.2019
5345 Clouds 13 1015 71 10000 1 0 04:56 11.07.2019
5346 Clouds 14 1015 76 10000 1 280 03:57 11.07.2019
5347 Clouds 14 1015 71 10000 0.5 250 02:25 11.07.2019
5348 Clouds 14 1016 67 10000 0.5 0 00:35 11.07.2019
5349 Clear 15 1016 62 10000 1.5 280 23:51 10.07.2019
5350 Clear 15 1016 62 10000 1.5 280 23:28 10.07.2019
5351 Clouds 15 1016 54 10000 2.1 290 22:58 10.07.2019
5352 Clear 16 1017 48 10000 3.1 310 22:26 10.07.2019
5353 Clear 16 1017 48 10000 3.1 310 21:57 10.07.2019
5354 Clear 16 1017 51 10000 3.6 310 21:39 10.07.2019
5355 Clear 17 1017 48 10000 3.6 300 21:21 10.07.2019
5356 Clear 17 1017 45 10000 5.1 310 20:47 10.07.2019
5357 Clear 17 1017 45 10000 5.1 310 20:26 10.07.2019
5358 Clouds 18 1017 48 10000 5.1 280 19:59 10.07.2019
5359 Clouds 18 1017 52 10000 5.7 290 19:40 10.07.2019
5360 Clouds 19 1017 52 10000 5.7 290 19:21 10.07.2019
5361 Clouds 20 1017 45 10000 5.1 290 18:46 10.07.2019
5362 Clouds 20 1017 45 10000 5.1 290 18:24 10.07.2019
5363 Clouds 20 1017 52 10000 5.7 280 17:50 10.07.2019
5364 Clouds 20 1017 52 10000 5.7 280 17:30 10.07.2019
5365 Clouds 20 1017 52 10000 4.6 300 16:58 10.07.2019
5366 Clouds 20 1018 52 10000 5.1 270 16:22 10.07.2019
5367 Clouds 20 1018 55 10000 5.1 310 15:54 10.07.2019
5368 Clouds 20 1018 52 10000 5.1 290 15:36 10.07.2019
5369 Clouds 20 1018 52 10000 5.1 290 15:18 10.07.2019
5370 Clouds 19 1019 59 10000 4.1 0 14:39 10.07.2019
5371 Clouds 19 1019 63 10000 4.1 310 14:19 10.07.2019
5372 Clouds 19 1019 67 10000 4.1 280 13:41 10.07.2019
5373 Clouds 18 1019 67 10000 4.6 250 13:19 10.07.2019
5374 Clouds 18 1019 67 10000 4.1 270 12:42 10.07.2019
5375 Clouds 17 1019 67 10000 4.6 280 12:22 10.07.2019
5376 Clouds 17 1019 72 10000 4.6 290 11:56 10.07.2019
5377 Clouds 17 1019 72 10000 4.6 290 11:38 10.07.2019
5378 Clouds 17 1019 67 10000 4.1 290 11:20 10.07.2019
5379 Clouds 16 1019 72 10000 4.6 310 10:40 10.07.2019
5380 Clouds 16 1019 72 10000 4.6 310 10:19 10.07.2019
5381 Clouds 15 1019 72 10000 4.1 310 09:42 10.07.2019
5382 Clouds 15 1019 82 10000 4.6 320 09:20 10.07.2019
5383 Clouds 14 1019 76 10000 4.1 310 08:49 10.07.2019
5384 Clouds 14 1019 76 10000 4.1 310 08:28 10.07.2019
5385 Clouds 13 1018 82 10000 4.1 310 07:53 10.07.2019
5386 Clouds 13 1018 82 10000 4.1 310 07:28 10.07.2019
5387 Clouds 13 1018 87 10000 3.6 300 06:41 10.07.2019
5388 Clouds 12 1018 87 10000 3.1 290 05:42 10.07.2019
5389 Clouds 12 1018 93 10000 2.1 270 04:35 10.07.2019
5390 Clouds 11 1019 93 10000 2.1 260 03:20 10.07.2019
5391 Clouds 12 1019 87 10000 1.5 290 00:45 10.07.2019
5392 Clouds 12 1019 87 10000 1.5 300 23:58 09.07.2019
5393 Clouds 12 1019 81 10000 1.5 280 23:39 09.07.2019
5394 Clouds 13 1019 76 10000 3.1 300 23:21 09.07.2019
5395 Clouds 13 1019 76 10000 3.6 290 22:40 09.07.2019
5396 Clouds 14 1018 71 10000 4.1 290 22:22 09.07.2019
5397 Clouds 14 1018 71 10000 4.1 290 21:56 09.07.2019
5398 Clouds 14 1018 67 10000 5.7 290 21:37 09.07.2019
5399 Clouds 14 1018 72 10000 5.1 300 21:19 09.07.2019
5400 Clouds 15 1018 67 10000 5.1 310 20:43 09.07.2019
5401 Clouds 15 1018 67 10000 5.1 310 20:24 09.07.2019
5402 Clouds 16 1018 62 10000 6.7 300 19:40 09.07.2019
5403 Clouds 16 1018 59 10000 6.7 290 19:21 09.07.2019
5404 Clouds 16 1018 59 10000 7.2 310 18:45 09.07.2019
5405 Clouds 17 1018 59 10000 7.2 310 18:23 09.07.2019
5406 Clouds 17 1018 59 10000 6.2 300 17:55 09.07.2019
5407 Clouds 17 1018 59 10000 6.2 300 17:37 09.07.2019
5408 Clouds 17 1018 59 10000 6.2 290 17:18 09.07.2019
5409 Clouds 17 1018 59 10000 7.7 290 16:47 09.07.2019
5410 Clouds 17 1018 59 10000 7.7 290 16:24 09.07.2019
5411 Clouds 17 1017 63 10000 6.7 270 15:49 09.07.2019
5412 Clouds 17 1017 63 10000 6.7 270 15:31 09.07.2019
5413 Clouds 17 1018 63 10000 6.2 280 14:57 09.07.2019
5414 Clouds 17 1018 67 10000 4.1 310 14:39 09.07.2019
5415 Rain 16 1018 72 10000 5.1 300 14:18 09.07.2019
5416 Clouds 16 1017 72 10000 5.1 290 13:43 09.07.2019
5417 Clouds 16 1017 72 10000 5.1 290 13:24 09.07.2019
5418 Rain 16 1018 71 10000 4.6 280 12:41 09.07.2019
5419 Rain 16 1018 71 10000 4.6 280 12:22 09.07.2019
5420 Rain 15 1018 67 10000 4.6 280 12:22 09.07.2019
5421 Rain 15 1018 67 10000 4.6 280 11:58 09.07.2019
5422 Clouds 15 1018 71 10000 5.1 250 11:39 09.07.2019
5423 Clouds 15 1018 71 10000 5.1 250 11:21 09.07.2019
5424 Rain 15 1018 71 10000 4.6 280 10:54 09.07.2019
5425 Rain 14 1017 76 10000 3.6 270 10:33 09.07.2019
5426 Clouds 14 1017 82 10000 3.1 280 09:42 09.07.2019
5427 Clouds 14 1017 82 10000 3.1 280 09:22 09.07.2019
5428 Clouds 13 1017 82 10000 3.1 260 08:57 09.07.2019
5429 Clouds 13 1017 87 10000 3.1 270 08:39 09.07.2019
5430 Clouds 15 1015 77 10000 5.7 270 04:18 05.07.2019
5431 Clouds 15 1015 72 10000 6.7 280 03:38 05.07.2019
5432 Rain 15 1015 77 10000 5.7 270 03:19 05.07.2019
5433 Rain 15 1015 72 10000 4.6 260 02:46 05.07.2019
5434 Rain 16 1016 67 10000 5.1 270 01:52 05.07.2019
5435 Rain 16 1016 67 10000 4.1 270 01:25 05.07.2019
5436 Rain 16 1016 67 10000 4.1 270 00:48 05.07.2019
5437 Rain 16 1016 63 10000 5.1 270 00:25 05.07.2019
5438 Clear 16 1017 63 10000 5.1 270 23:23 04.07.2019
5439 Clear 16 1017 63 10000 5.1 270 23:23 04.07.2019
5440 Clear 16 1017 63 10000 5.1 270 23:23 04.07.2019
5441 Clear 16 1017 63 10000 5.1 270 22:59 04.07.2019
5442 Clear 17 1017 59 10000 5.1 270 22:40 04.07.2019
5443 Clear 17 1017 59 10000 5.1 270 22:19 04.07.2019
5444 Clouds 17 1018 59 10000 6.7 290 21:44 04.07.2019
5445 Clouds 18 1018 59 10000 6.7 290 21:25 04.07.2019
5446 Clouds 18 1018 55 10000 6.2 280 20:58 04.07.2019
5447 Clouds 19 1018 55 10000 7.2 280 20:37 04.07.2019
5448 Clouds 19 1018 55 10000 8.2 270 20:18 04.07.2019
5449 Clouds 19 1018 56 10000 7.2 270 19:41 04.07.2019
5450 Clouds 19 1019 56 10000 8.2 270 19:21 04.07.2019
5451 Clouds 19 1019 56 10000 6.2 280 18:47 04.07.2019
5452 Clouds 19 1019 56 10000 6.2 280 18:28 04.07.2019
5453 Clouds 19 1020 56 10000 6.2 280 17:58 04.07.2019
5454 Clouds 19 1020 59 10000 5.7 250 17:40 04.07.2019
5455 Clouds 19 1020 63 10000 5.7 240 17:18 04.07.2019
5456 Clouds 18 1021 67 10000 5.1 250 15:45 04.07.2019
5457 Clouds 19 1021 67 10000 5.1 250 15:25 04.07.2019
5458 Clouds 18 1022 67 10000 5.1 250 14:59 04.07.2019
5459 Clouds 18 1022 63 10000 5.7 260 14:39 04.07.2019
5460 Clouds 18 1022 63 10000 5.7 260 14:20 04.07.2019
5461 Clouds 18 1022 63 10000 4.1 260 13:57 04.07.2019
5462 Clouds 18 1022 63 10000 5.7 270 13:38 04.07.2019
5463 Clouds 17 1022 63 10000 6.7 270 13:19 04.07.2019
5464 Clouds 17 1023 63 10000 6.7 260 12:39 04.07.2019
5465 Clouds 17 1023 63 10000 6.7 260 12:39 04.07.2019
5466 Clouds 17 1023 63 10000 6.7 260 12:20 04.07.2019
5467 Clouds 16 1023 63 10000 6.2 270 11:55 04.07.2019
5468 Clouds 16 1023 67 10000 5.7 270 11:36 04.07.2019
5469 Clouds 16 1023 67 10000 5.7 270 11:18 04.07.2019
5470 Clouds 16 1023 62 10000 6.7 270 10:39 04.07.2019
5471 Clouds 16 1023 62 10000 6.7 270 10:18 04.07.2019
5472 Clouds 15 1023 62 10000 6.2 280 09:39 04.07.2019
5473 Clouds 15 1023 62 10000 6.2 280 09:20 04.07.2019
5474 Clouds 15 1023 62 10000 6.2 270 08:54 04.07.2019
5475 Clouds 13 1023 71 10000 3.1 260 08:19 04.07.2019
5476 Clear 12 1023 76 10000 2.6 270 07:43 04.07.2019
5477 Clear 11 1023 76 10000 2.6 270 07:20 04.07.2019
5478 Clouds 10 1023 81 10000 3.1 260 06:37 04.07.2019
5479 Clouds 8 1023 87 10000 2.6 250 05:47 04.07.2019
5480 Clouds 9 1024 87 10000 1.5 250 05:29 04.07.2019
5481 Clouds 10 1024 81 10000 1.5 260 02:41 04.07.2019
5482 Clouds 11 1024 76 10000 2.1 270 01:28 04.07.2019
5483 Clouds 11 1024 76 10000 2.1 270 00:57 04.07.2019
5484 Clouds 12 1024 71 10000 3.1 280 23:56 03.07.2019
5485 Clouds 12 1024 71 10000 2.6 290 23:21 03.07.2019
5486 Clouds 13 1024 66 10000 3.6 290 22:59 03.07.2019
5487 Clouds 13 1023 62 10000 4.1 300 22:39 03.07.2019
5488 Clouds 13 1023 62 10000 4.1 300 22:21 03.07.2019
5489 -273 0 0 0 0 0 21:56 03.07.2019
5490 Clouds 15 1023 58 10000 6.2 290 21:38 03.07.2019
5491 Clouds 15 1023 51 10000 6.2 300 21:19 03.07.2019
5492 Clouds 16 1023 48 10000 6.2 300 20:42 03.07.2019
5493 Clouds 16 1023 48 10000 6.2 300 20:23 03.07.2019
5494 Clouds 17 1023 55 10000 6.2 310 19:50 03.07.2019
5495 Clouds 17 1023 51 10000 8.2 300 19:32 03.07.2019
5496 Clouds 17 1023 45 10000 6.7 310 18:48 03.07.2019
5497 Clouds 17 1023 45 10000 6.7 310 18:27 03.07.2019
5498 Clouds 17 1023 42 10000 7.2 300 17:55 03.07.2019
5499 Clouds 17 1023 42 10000 7.2 300 17:55 03.07.2019
5500 Clouds 18 1023 45 10000 7.7 300 17:36 03.07.2019
5501 Clouds 18 1023 45 10000 7.7 300 17:18 03.07.2019
5502 Clouds 18 1023 55 10000 8.7 310 16:43 03.07.2019
5503 Clouds 18 1023 55 10000 8.7 310 16:21 03.07.2019
5504 Clouds 17 1023 55 10000 7.2 290 15:49 03.07.2019
5505 Clouds 17 1023 55 10000 7.2 290 15:31 03.07.2019
5506 Clouds 17 1023 51 10000 7.7 300 14:56 03.07.2019
5507 Clouds 18 1023 51 10000 5.7 280 14:37 03.07.2019
5508 Clouds 17 1023 51 10000 5.7 280 14:18 03.07.2019
5509 Clouds 17 1023 51 10000 7.2 300 13:35 03.07.2019
5510 Rain 17 1023 55 10000 7.2 290 12:54 03.07.2019
5511 Clouds 17 1023 59 10000 6.7 280 12:21 03.07.2019
5512 Clouds 16 1023 55 10000 5.7 280 11:59 03.07.2019
5513 Clouds 16 1023 62 10000 5.1 280 11:40 03.07.2019
5514 Clouds 16 1023 62 10000 5.1 280 11:21 03.07.2019
5515 Clouds 16 1022 67 10000 5.1 270 10:42 03.07.2019
5516 Clouds 16 1022 67 10000 5.1 270 10:23 03.07.2019
5517 Rain 15 1022 76 10000 4.6 260 09:55 03.07.2019
5518 Rain 15 1022 76 10000 4.6 260 09:36 03.07.2019
5519 Rain 15 1022 71 10000 3.6 270 09:18 03.07.2019
5520 Rain 14 1022 76 10000 4.1 280 08:41 03.07.2019
5521 Clouds 13 1022 76 10000 3.6 250 08:22 03.07.2019
5522 Clouds 12 1022 76 10000 4.1 260 07:38 03.07.2019
5523 Clouds 11 1022 76 10000 3.1 250 07:18 03.07.2019
5524 Clouds 10 1022 87 10000 2.6 240 06:19 03.07.2019
5525 Clouds 9 1022 87 10000 2.6 250 05:29 03.07.2019
5526 Clouds 9 1022 81 10000 2.6 250 04:28 03.07.2019
5527 Clouds 9 1022 87 10000 2.6 250 03:22 03.07.2019
5528 Clear 10 1022 87 10000 0.5 0 01:42 03.07.2019
5529 Clear 10 1022 76 10000 0.5 0 01:21 03.07.2019
5530 Clear 11 1022 76 10000 0.5 0 00:42 03.07.2019
5531 Clear 12 1022 66 10000 3.1 300 23:59 02.07.2019
5532 Clear 12 1022 66 10000 3.1 300 23:37 02.07.2019
5533 Clear 12 1022 71 10000 3.6 290 23:19 02.07.2019
5534 Clouds 13 1022 66 10000 4.1 300 22:55 02.07.2019
5535 Clouds 13 1022 66 10000 4.1 300 22:37 02.07.2019
5536 Clouds 13 1021 62 10000 3.1 290 22:18 02.07.2019
5537 Clouds 14 1021 58 10000 4.6 290 21:42 02.07.2019
5538 Clouds 15 1021 58 10000 6.2 310 21:21 02.07.2019
5539 Clouds 15 1021 58 10000 6.2 310 20:58 02.07.2019
5540 Clouds 16 1021 54 10000 7.2 300 20:39 02.07.2019
5541 Clouds 16 1021 58 10000 7.2 290 20:20 02.07.2019
5542 Clouds 16 1021 51 10000 7.2 280 19:42 02.07.2019
5543 Clouds 17 1021 48 10000 7.7 290 19:23 02.07.2019
5544 Clouds 17 1021 51 10000 8.2 290 18:49 02.07.2019
5545 Clouds 17 1021 48 10000 8.7 290 18:19 02.07.2019
5546 Clouds 17 1021 48 10000 8.7 290 18:19 02.07.2019
5547 Clouds 17 1021 45 10000 8.2 270 17:44 02.07.2019
5548 Clouds 17 1021 45 10000 8.2 270 17:24 02.07.2019
5549 Clouds 18 1021 48 10000 8.7 300 16:54 02.07.2019
5550 Clouds 18 1021 48 10000 8.7 300 16:35 02.07.2019
5551 Clouds 18 1021 51 10000 9.3 290 15:59 02.07.2019
5552 Clouds 18 1021 51 10000 9.8 300 15:38 02.07.2019
5553 Clouds 18 1021 55 10000 9.3 300 15:18 02.07.2019
5554 Clouds 18 1021 55 10000 9.3 290 14:41 02.07.2019
5555 Clouds 18 1020 51 10000 10.8 300 14:22 02.07.2019
5556 Clouds 17 1020 51 10000 10.8 300 13:43 02.07.2019
5557 Clouds 17 1020 59 10000 8.2 280 13:19 02.07.2019
5558 Rain 17 1020 62 10000 8.7 310 12:45 02.07.2019
5559 Rain 17 1020 62 10000 8.7 310 12:23 02.07.2019
5560 Rain 16 1020 58 10000 7.7 290 11:45 02.07.2019
5561 Rain 16 1020 58 10000 7.7 290 11:25 02.07.2019
5562 Rain 16 1019 58 10000 8.2 290 10:59 02.07.2019
5563 Rain 15 1019 67 10000 7.2 300 10:39 02.07.2019
5564 Clouds 15 1019 67 10000 7.7 300 10:21 02.07.2019
5565 Rain 15 1019 67 10000 9.8 270 09:42 02.07.2019
5566 Clouds 15 1018 62 10000 7.7 280 09:19 02.07.2019
5567 Rain 14 1018 67 10000 7.2 280 08:40 02.07.2019
5568 Rain 14 1018 67 10000 7.2 280 08:20 02.07.2019
5569 Rain 15 1018 67 10000 7.2 280 07:52 02.07.2019
5570 Clouds 14 1017 76 10000 3.6 260 07:20 02.07.2019
5571 Clouds 14 1017 71 10000 4.6 280 06:42 02.07.2019
5572 Clouds 14 1017 76 10000 4.6 290 05:58 02.07.2019
5573 Clouds 15 1016 87 10000 3.6 260 03:53 02.07.2019
5574 Clouds 16 1016 77 10000 5.1 260 00:56 02.07.2019
5575 Clouds 16 1016 72 10000 3.6 260 23:47 01.07.2019
5576 Clouds 16 1016 72 10000 5.7 270 23:20 01.07.2019
5577 Clouds 16 1016 72 10000 5.7 270 22:45 01.07.2019
5578 Clouds 17 1016 72 10000 5.7 270 22:27 01.07.2019
5579 Clouds 17 1015 59 10000 8.7 280 21:47 01.07.2019
5580 Clouds 17 1015 59 10000 8.7 280 21:26 01.07.2019
5581 Clouds 18 1015 55 10000 8.2 290 20:51 01.07.2019
5582 Clouds 18 1015 52 10000 10.8 290 20:22 01.07.2019
5583 Clouds 18 1015 52 10000 10.8 290 19:59 01.07.2019
5584 Clouds 19 1015 52 10000 10.8 290 19:40 01.07.2019
5585 Clouds 19 1014 49 10000 9.8 280 19:22 01.07.2019
5586 Clouds 19 1014 52 10000 10.8 280 18:53 01.07.2019
5587 Clouds 20 1014 52 10000 10.8 280 18:31 01.07.2019
5588 Clouds 21 1014 52 10000 9.3 290 18:00 01.07.2019
5589 Clouds 21 1014 46 10000 9.3 280 17:41 01.07.2019
5590 Clouds 22 1014 46 10000 9.3 280 17:21 01.07.2019
5591 Clouds 22 1014 46 10000 9.8 300 16:47 01.07.2019
5592 Clouds 22 1014 49 10000 8.2 300 16:26 01.07.2019
5593 Clouds 22 1013 60 10000 8.7 300 15:55 01.07.2019
5594 Clouds 22 1013 60 10000 8.7 300 15:36 01.07.2019
5595 Clouds 22 1013 46 10000 8.2 270 15:18 01.07.2019
5596 Clear 23 1013 43 10000 7.7 280 14:42 01.07.2019
5597 Clouds 23 1013 44 10000 10.3 270 14:19 01.07.2019
5598 Clouds 23 1012 47 10000 8.7 240 13:41 01.07.2019
5599 Clouds 23 1012 47 10000 8.7 240 13:22 01.07.2019
5600 Clouds 23 1012 47 10000 5.7 250 12:49 01.07.2019
5601 Clouds 22 1013 49 10000 7.2 240 12:30 01.07.2019
5602 Clouds 22 1013 56 10000 7.2 240 11:59 01.07.2019
5603 Clouds 22 1013 60 10000 5.7 250 11:39 01.07.2019
5604 Clouds 21 1013 60 10000 5.7 250 11:19 01.07.2019
5605 Clouds 21 1013 64 10000 7.2 220 10:47 01.07.2019
5606 Clouds 21 1013 68 10000 6.7 230 10:23 01.07.2019
5607 Clouds 20 1013 64 10000 5.7 240 09:45 01.07.2019
5608 Clouds 20 1013 64 10000 5.7 240 09:45 01.07.2019
5609 Clouds 19 1013 68 10000 5.7 230 09:27 01.07.2019
5610 Clouds 19 1013 72 10000 4.1 230 08:59 01.07.2019
5611 Clear 18 1013 72 10000 4.6 240 08:37 01.07.2019
5612 Clear 16 1014 82 10000 2.6 220 07:39 01.07.2019
5613 Clear 15 1013 87 10000 2.6 220 06:52 01.07.2019
5614 Clear 14 1013 93 10000 2.6 220 05:39 01.07.2019
5615 Clear 15 1014 87 10000 2.1 270 01:29 01.07.2019
5616 Clear 15 1014 87 10000 2.6 270 00:46 01.07.2019
5617 Clear 16 1014 87 10000 2.1 280 00:24 01.07.2019
5618 Clear 17 1014 82 10000 3.1 300 23:40 30.06.2019
5619 Clear 17 1014 82 10000 4.1 300 23:20 30.06.2019
5620 Clear 18 1014 82 10000 4.6 300 22:44 30.06.2019
5621 Clear 18 1014 77 10000 5.1 310 22:20 30.06.2019
5622 Clear 18 1014 77 10000 5.1 310 22:20 30.06.2019
5623 Clear 18 1014 77 10000 5.1 310 22:20 30.06.2019
5624 Clear 20 1014 72 10000 6.2 300 21:42 30.06.2019
5625 Clear 20 1013 68 10000 6.2 310 21:20 30.06.2019
5626 Clear 21 1013 64 10000 7.2 300 20:56 30.06.2019
5627 Clear 22 1013 64 10000 6.7 290 20:38 30.06.2019
5628 Clear 22 1013 64 10000 6.7 290 20:19 30.06.2019
5629 Clear 21 1013 64 10000 6.7 290 19:44 30.06.2019
5630 Clear 22 1012 64 10000 7.2 310 19:25 30.06.2019
5631 Clear 24 1013 64 10000 7.2 310 18:39 30.06.2019
5632 Clear 25 1012 60 10000 7.7 290 18:20 30.06.2019
5633 Clear 26 1012 61 10000 8.2 300 17:39 30.06.2019
5634 Clear 26 1012 61 10000 8.2 300 17:18 30.06.2019
5635 Clear 26 1011 61 10000 10.8 290 16:49 30.06.2019
5636 Clear 27 1011 61 10000 10.8 300 16:27 30.06.2019
5637 Clear 31 1010 48 10000 9.8 300 15:38 30.06.2019
5638 Clear 30 1010 48 10000 9.8 300 15:19 30.06.2019
5639 Clear 32 1009 28 10000 8.7 270 14:55 30.06.2019
5640 Clear 33 1009 26 10000 7.7 230 14:36 30.06.2019
5641 Clear 34 1009 26 10000 8.7 250 13:57 30.06.2019
5642 Clear 34 1009 26 10000 8.7 250 13:38 30.06.2019
5643 Clear 34 1009 28 10000 7.7 220 13:18 30.06.2019
5644 Clear 33 1009 29 10000 6.2 220 12:44 30.06.2019
5645 Clear 32 1009 29 10000 6.2 220 12:21 30.06.2019
5646 Clear 31 1009 31 10000 5.7 210 11:47 30.06.2019
5647 Clear 31 1009 31 10000 6.2 210 11:22 30.06.2019
5648 Clear 30 1010 33 10000 5.7 210 10:56 30.06.2019
5649 Clear 29 1010 35 10000 4.1 210 10:37 30.06.2019
5650 Clear 28 1010 35 10000 4.1 210 10:18 30.06.2019
5651 Clear 29 1010 35 10000 4.1 210 10:18 30.06.2019
5652 Clear 27 1010 39 10000 4.1 180 09:43 30.06.2019
5653 Clear 25 1010 44 10000 3.6 180 09:22 30.06.2019
5654 Clear 24 1010 44 10000 3.6 180 08:47 30.06.2019
5655 Clear 23 1011 44 10000 3.6 160 08:27 30.06.2019
5656 Clear 21 1011 49 10000 3.1 160 07:54 30.06.2019
5657 Clear 20 1011 52 10000 3.1 160 07:27 30.06.2019
5658 Clear 18 1011 56 10000 3.6 160 06:40 30.06.2019
5659 Clear 16 1012 68 10000 3.1 140 05:33 30.06.2019
5660 Clear 18 1014 77 10000 1 0 02:50 30.06.2019
5661 Clear 19 1014 60 10000 3.6 140 01:28 30.06.2019
5662 Clear 19 1015 68 10000 1 0 00:30 30.06.2019
5663 Clear 20 1015 60 10000 2.1 70 23:55 29.06.2019
5664 Clear 21 1015 64 10000 2.6 90 23:24 29.06.2019
5665 Clear 21 1015 47 10000 3.1 80 22:57 29.06.2019
5666 Clear 21 1015 47 10000 3.1 80 22:38 29.06.2019
5667 Clear 24 1016 47 10000 2.6 70 22:19 29.06.2019
5668 Clear 27 1016 39 10000 2.6 50 21:42 29.06.2019
5669 Clear 26 1016 39 10000 2.6 50 21:22 29.06.2019
5670 Clear 27 1016 37 10000 3.1 50 20:41 29.06.2019
5671 Clear 28 1016 32 10000 2.1 340 20:23 29.06.2019
5672 Clear 28 1017 30 10000 2.6 350 19:48 29.06.2019
5673 Clear 28 1017 30 10000 2.1 0 19:24 29.06.2019
5674 Clear 28 1017 28 10000 1.5 0 18:51 29.06.2019
5675 Clear 29 1017 27 10000 1.5 0 18:26 29.06.2019
5676 Clear 29 1018 27 10000 2.1 0 17:43 29.06.2019
5677 Clear 28 1018 25 10000 2.6 260 17:23 29.06.2019
5678 Clear 28 1018 25 10000 2.6 260 17:23 29.06.2019
5679 Clear 28 1018 22 10000 2.6 0 16:58 29.06.2019
5680 Clear 28 1019 25 10000 2.6 0 16:39 29.06.2019
5681 Clear 29 1019 25 10000 1.5 0 15:53 29.06.2019
5682 Clear 28 1019 26 10000 1 0 15:31 29.06.2019
5683 Clear 27 1020 28 10000 2.6 270 14:45 29.06.2019
5684 Clear 26 1020 28 10000 1.5 0 14:26 29.06.2019
5685 Clear 27 1020 31 10000 1.5 0 13:50 29.06.2019
5686 Clear 26 1021 36 10000 2.1 0 13:27 29.06.2019
5687 Clear 25 1021 38 10000 2.6 210 12:57 29.06.2019
5688 Clear 25 1021 36 10000 3.1 220 12:37 29.06.2019
5689 Clear 24 1021 36 10000 3.1 220 12:18 29.06.2019
5690 Clear 23 1022 43 10000 2.6 210 11:40 29.06.2019
5691 Clear 22 1022 43 10000 2.6 210 11:21 29.06.2019
5692 Clear 21 1022 43 10000 1.5 0 10:46 29.06.2019
5693 Clear 20 1022 52 10000 1 0 10:21 29.06.2019
5694 Clear 19 1022 60 10000 1.5 0 09:50 29.06.2019
5695 Clear 17 1022 72 10000 1 0 08:55 29.06.2019
5696 Clear 15 1022 77 10000 1 0 08:30 29.06.2019
5697 Clear 14 1022 77 10000 0.5 0 07:45 29.06.2019
5698 Clear 11 1022 93 10000 0.5 0 06:49 29.06.2019
5699 Fog 11 1023 93 10000 0.5 0 06:25 29.06.2019
5700 Fog 11 1023 100 10000 0.44 249.398 03:55 29.06.2019
5701 Fog 13 1024 93 10000 1.5 330 01:42 29.06.2019
5702 Clear 14 1024 87 10000 1.5 330 00:41 29.06.2019
5703 Clear 15 1024 82 10000 2.1 320 23:48 28.06.2019
5704 Clear 16 1024 82 10000 3.1 310 23:21 28.06.2019
5705 Clear 16 1024 77 10000 2.6 300 22:47 28.06.2019
5706 Clear 18 1024 72 10000 2.6 310 22:19 28.06.2019
5707 Clear 20 1024 68 10000 3.1 300 21:45 28.06.2019
5708 Clear 20 1024 64 10000 3.6 310 21:19 28.06.2019
5709 Clear 21 1024 60 10000 4.1 320 20:42 28.06.2019
5710 Clear 21 1024 60 10000 4.1 300 20:19 28.06.2019
5711 Clouds 22 1024 60 10000 4.6 310 19:42 28.06.2019
5712 Clouds 22 1024 60 10000 4.6 310 19:23 28.06.2019
5713 Clouds 22 1024 56 10000 4.1 300 18:42 28.06.2019
5714 Clouds 23 1024 56 10000 4.6 300 18:22 28.06.2019
5715 Clouds 23 1024 53 10000 3.6 280 17:54 28.06.2019
5716 Clouds 23 1024 49 10000 4.1 300 17:28 28.06.2019
5717 Clouds 24 1024 53 10000 3.6 290 16:47 28.06.2019
5718 Clouds 23 1024 53 10000 2.6 0 16:20 28.06.2019
5719 Clouds 23 1025 53 10000 4.1 300 15:47 28.06.2019
5720 Clouds 23 1025 49 10000 3.6 290 15:18 28.06.2019
5721 Clouds 23 1025 49 10000 5.1 330 14:42 28.06.2019
5722 Clouds 21 1025 56 10000 4.1 340 14:21 28.06.2019
5723 Clouds 21 1025 52 10000 3.6 300 13:49 28.06.2019
5724 Clouds 21 1025 56 10000 3.1 340 13:29 28.06.2019
5725 Clouds 20 1025 59 10000 2.6 300 12:53 28.06.2019
5726 Clouds 20 1025 63 10000 2.1 0 12:34 28.06.2019
5727 Clouds 18 1026 67 10000 2.6 300 11:46 28.06.2019
5728 Clouds 18 1026 72 10000 3.6 290 11:19 28.06.2019
5729 Clouds 17 1026 72 10000 2.6 300 10:43 28.06.2019
5730 Clouds 16 1026 72 10000 2.6 280 10:21 28.06.2019
5731 Clouds 15 1026 76 10000 2.6 310 09:47 28.06.2019
5732 Clouds 15 1026 76 10000 3.1 320 09:29 28.06.2019
5733 Clouds 14 1026 76 10000 3.1 300 08:44 28.06.2019
5734 Clouds 14 1026 82 10000 3.6 290 08:24 28.06.2019
5735 Clouds 14 1026 82 10000 3.6 290 07:45 28.06.2019
5736 Clouds 13 1025 76 10000 2.6 310 06:57 28.06.2019
5737 Clouds 13 1025 76 10000 3.1 340 05:42 28.06.2019
5738 Clouds 14 1025 76 10000 4.1 300 01:22 28.06.2019
5739 Clouds 14 1026 76 10000 3.6 320 00:26 28.06.2019
5740 Clouds 14 1026 76 10000 3.1 310 23:48 27.06.2019
5741 Clouds 14 1026 72 10000 4.1 300 23:25 27.06.2019
5742 Clouds 15 1026 72 10000 4.1 310 22:55 27.06.2019
5743 Clouds 15 1026 72 10000 4.1 310 22:36 27.06.2019
5744 Clouds 15 1026 72 10000 4.6 290 22:18 27.06.2019
5745 Clouds 15 1025 72 10000 4.6 300 21:47 27.06.2019
5746 Clouds 15 1025 72 10000 6.2 300 21:29 27.06.2019
5747 Clouds 16 1025 67 10000 6.2 310 20:55 27.06.2019
5748 Clouds 16 1025 72 10000 6.7 300 20:36 27.06.2019
5749 Clouds 16 1025 72 10000 6.7 300 20:18 27.06.2019
5750 Clouds 17 1025 67 10000 7.2 290 19:41 27.06.2019
5751 Clouds 17 1025 67 10000 6.7 310 19:23 27.06.2019
5752 Clouds 17 1025 67 10000 6.7 300 18:42 27.06.2019
5753 Clouds 17 1025 63 10000 6.7 310 18:19 27.06.2019
5754 Clouds 18 1026 63 10000 6.2 300 17:43 27.06.2019
5755 Clouds 18 1026 67 10000 7.7 300 17:22 27.06.2019
5756 Clouds 18 1026 67 10000 7.7 300 16:40 27.06.2019
5757 Clouds 18 1026 67 10000 7.7 300 16:19 27.06.2019
5758 Clouds 18 1026 67 10000 7.7 300 15:55 27.06.2019
5759 Clouds 18 1026 67 10000 8.2 310 15:35 27.06.2019
5760 Clouds 18 1026 67 10000 6.7 290 14:58 27.06.2019
5761 Clouds 18 1026 67 10000 6.2 290 14:38 27.06.2019
5762 Clouds 18 1026 67 10000 6.2 290 14:18 27.06.2019
5763 Clouds 18 1026 72 10000 7.2 280 13:42 27.06.2019
5764 Clouds 18 1026 72 10000 7.2 280 13:42 27.06.2019
5765 Clouds 18 1026 72 10000 7.2 290 13:24 27.06.2019
5766 Clouds 17 1026 72 10000 7.2 290 12:49 27.06.2019
5767 Clouds 17 1026 72 10000 7.2 290 12:49 27.06.2019
5768 Clouds 17 1026 72 10000 7.7 300 12:28 27.06.2019
5769 Rain 17 1026 72 10000 6.7 300 11:47 27.06.2019
5770 Clouds 16 1026 72 10000 5.1 300 11:24 27.06.2019
5771 Clouds 16 1026 72 10000 6.7 300 10:58 27.06.2019
5772 Clouds 16 1026 72 10000 6.7 300 10:40 27.06.2019
5773 Clouds 16 1026 72 10000 6.2 300 10:19 27.06.2019
5774 Clouds 16 1026 72 10000 8.2 300 09:41 27.06.2019
5775 Clouds 15 1026 72 10000 8.2 300 09:20 27.06.2019
5776 Clouds 15 1026 67 10000 6.7 310 08:50 27.06.2019
5777 Clouds 15 1026 71 10000 6.7 300 08:28 27.06.2019
5778 Clouds 14 1026 71 10000 6.2 300 07:48 27.06.2019
5779 Clouds 14 1025 71 10000 5.7 310 06:59 27.06.2019
5780 Clouds 13 1025 71 10000 4.6 300 06:37 27.06.2019
5781 Clouds 14 1025 76 10000 7.2 300 03:52 27.06.2019
5782 Clouds 14 1025 76 10000 5.1 300 02:43 27.06.2019
5783 Clouds 15 1025 72 10000 6.7 300 01:45 27.06.2019
5784 Clouds 15 1025 77 10000 6.2 310 00:53 27.06.2019
5785 Clouds 16 1025 77 10000 8.2 310 00:29 27.06.2019
5786 Clouds 16 1025 77 10000 7.2 300 23:52 26.06.2019
5787 Clouds 16 1025 72 10000 5.7 300 23:23 26.06.2019
5788 Clouds 16 1024 72 10000 8.2 300 22:59 26.06.2019
5789 Clouds 16 1024 72 10000 8.2 300 22:40 26.06.2019
5790 Clouds 17 1024 72 10000 7.2 300 22:20 26.06.2019
5791 Clouds 17 1024 77 10000 7.7 310 21:55 26.06.2019
5792 Clouds 17 1024 77 10000 7.7 310 21:37 26.06.2019
5793 Clouds 18 1024 72 10000 7.2 300 21:18 26.06.2019
5794 Clouds 19 1024 77 10000 6.2 300 20:40 26.06.2019
5795 Clouds 20 1023 72 10000 7.7 290 20:22 26.06.2019
5796 Clouds 20 1023 68 10000 6.7 300 19:44 26.06.2019
5797 Clouds 21 1023 68 10000 7.7 290 19:25 26.06.2019
5798 Clouds 23 1023 68 10000 7.7 280 18:48 26.06.2019
5799 Clouds 24 1023 64 10000 7.7 290 18:24 26.06.2019
5800 Clouds 25 1022 64 10000 7.7 290 17:59 26.06.2019
5801 Clouds 25 1022 64 10000 7.7 290 17:38 26.06.2019
5802 Clouds 26 1023 64 10000 7.7 300 17:19 26.06.2019
5803 Clouds 25 1022 64 10000 7.7 290 16:50 26.06.2019
5804 Clouds 26 1022 69 10000 7.2 290 16:26 26.06.2019
5805 Clouds 27 1022 65 10000 8.2 280 15:48 26.06.2019
5806 Clouds 27 1022 65 10000 8.2 290 15:26 26.06.2019
5807 Clouds 28 1022 61 10000 6.7 280 14:39 26.06.2019
5808 Clouds 28 1022 61 10000 6.7 280 14:20 26.06.2019
5809 Clear 27 1021 57 10000 7.7 280 13:45 26.06.2019
5810 Clouds 28 1021 57 10000 7.2 290 13:21 26.06.2019
5811 Clear 28 1021 57 10000 8.2 290 12:45 26.06.2019
5812 Clear 29 1021 58 10000 7.2 290 12:26 26.06.2019
5813 Clear 29 1020 58 10000 6.7 280 11:54 26.06.2019
5814 Clear 29 1020 58 10000 4.6 280 11:24 26.06.2019
5815 Clear 28 1020 57 10000 3.6 270 10:49 26.06.2019
5816 Clear 28 1019 61 10000 4.6 280 10:31 26.06.2019
5817 Clear 27 1019 57 10000 4.1 290 09:51 26.06.2019
5818 Clear 27 1019 61 10000 4.1 270 09:27 26.06.2019
5819 Clear 26 1018 61 10000 4.1 270 08:52 26.06.2019
5820 Clear 25 1018 61 10000 2.1 250 08:21 26.06.2019
5821 Clear 24 1018 69 10000 1.5 220 07:57 26.06.2019
5822 Clear 23 1018 73 10000 0.5 0 07:37 26.06.2019
5823 Clear 21 1018 77 10000 2.1 160 06:33 26.06.2019
5824 Clear 22 1018 73 10000 1 0 01:36 26.06.2019
5825 Clear 23 1018 69 10000 0.5 0 00:35 26.06.2019
5826 Clear 23 1018 64 10000 1.5 110 23:52 25.06.2019
5827 Clear 24 1018 57 10000 3.1 140 23:32 25.06.2019
5828 Clear 25 1018 51 10000 2.6 130 22:59 25.06.2019
5829 Clear 25 1018 51 10000 2.6 130 22:41 25.06.2019
5830 Clear 26 1018 48 10000 2.6 130 22:22 25.06.2019
5831 Clear 29 1018 40 10000 3.1 150 21:46 25.06.2019
5832 Clear 29 1018 38 10000 4.6 160 21:25 25.06.2019
5833 Clear 30 1018 38 10000 5.1 160 20:49 25.06.2019
5834 Clear 30 1018 38 10000 5.1 160 20:49 25.06.2019
5835 Clear 30 1018 38 10000 5.1 160 20:49 25.06.2019
5836 Clear 30 1018 38 10000 5.1 160 20:49 25.06.2019
5837 Clear 31 1018 38 10000 5.1 140 20:24 25.06.2019
5838 Clear 31 1018 35 10000 6.2 130 19:57 25.06.2019
5839 Clear 31 1018 35 10000 6.2 130 19:38 25.06.2019
5840 Clear 32 1018 33 10000 7.2 140 19:20 25.06.2019
5841 Clear 32 1018 33 10000 6.7 130 18:42 25.06.2019
5842 Clear 32 1018 33 10000 6.2 150 18:24 25.06.2019
5843 -273 0 0 0 0 0 17:45 25.06.2019
5844 Clear 33 1018 31 10000 7.2 140 17:26 25.06.2019
5845 Clear 33 1018 31 10000 7.2 140 17:26 25.06.2019
5846 Clear 33 1018 31 10000 7.2 140 17:26 25.06.2019
5847 Clear 33 1018 29 10000 5.7 140 16:44 25.06.2019
5848 Clear 33 1019 27 10000 7.7 150 16:26 25.06.2019
5849 Clear 33 1019 33 10000 5.7 130 15:59 25.06.2019
5850 Clear 33 1019 33 10000 5.7 130 15:39 25.06.2019
5851 Clear 32 1019 29 10000 6.2 150 15:20 25.06.2019
5852 Clear 32 1019 31 10000 5.7 150 14:45 25.06.2019
5853 Clear 32 1019 33 10000 6.2 150 14:26 25.06.2019
5854 Clear 31 1019 38 10000 5.1 140 13:43 25.06.2019
5855 Clear 30 1020 42 10000 4.6 140 13:24 25.06.2019
5856 Clear 29 1020 42 10000 4.6 150 12:43 25.06.2019
5857 Clear 28 1020 45 10000 5.1 150 12:24 25.06.2019
5858 Clear 27 1020 44 10000 4.1 130 11:46 25.06.2019
5859 Clear 27 1020 45 10000 3.6 110 11:24 25.06.2019
5860 Clear 26 1020 44 10000 2.6 130 10:58 25.06.2019
5861 Clear 25 1020 47 10000 3.1 130 10:37 25.06.2019
5862 Clear 25 1020 47 10000 3.1 130 10:19 25.06.2019
5863 Clear 24 1020 50 10000 3.6 130 09:39 25.06.2019
5864 Clear 23 1020 56 10000 3.6 130 09:21 25.06.2019
5865 Clear 22 1020 56 10000 3.6 120 08:59 25.06.2019
5866 Clear 21 1020 56 10000 3.6 110 08:31 25.06.2019
5867 Clear 19 1021 60 10000 3.6 110 07:51 25.06.2019
5868 Clear 18 1021 63 10000 3.1 110 07:31 25.06.2019
5869 Clear 18 1021 63 10000 2.6 100 06:49 25.06.2019
5870 Clear 17 1021 67 10000 2.1 90 06:23 25.06.2019
5871 Clear 19 1022 63 10000 3.1 110 02:44 25.06.2019
5872 Clear 19 1022 64 10000 3.6 100 01:19 25.06.2019
5873 Clear 20 1022 82 10000 1 0 00:28 25.06.2019
5874 Clear 20 1022 77 10000 2.1 70 23:52 24.06.2019
5875 Clear 21 1022 77 10000 2.1 70 23:33 24.06.2019
5876 Clear 21 1021 73 10000 3.1 70 22:59 24.06.2019
5877 Clear 21 1021 73 10000 3.1 70 22:38 24.06.2019
5878 Clear 21 1021 68 10000 4.1 70 22:18 24.06.2019
5879 Clear 22 1021 68 10000 4.6 60 21:38 24.06.2019
5880 Clear 24 1021 64 10000 4.6 60 21:18 24.06.2019
5881 Clear 24 1021 64 10000 6.2 60 20:55 24.06.2019
5882 Clear 24 1022 60 10000 4.6 50 20:36 24.06.2019
5883 Clear 25 1022 60 10000 4.6 50 20:18 24.06.2019
5884 Clear 25 1022 54 10000 6.7 60 19:41 24.06.2019
5885 Clear 26 1022 54 10000 6.7 60 19:21 24.06.2019
5886 Clear 26 1022 54 10000 7.2 60 18:43 24.06.2019
5887 Clear 27 1022 51 10000 7.2 70 18:24 24.06.2019
5888 Clear 27 1022 51 10000 6.7 50 17:46 24.06.2019
5889 Clear 27 1022 47 10000 4.6 70 17:25 24.06.2019
5890 Clear 27 1022 39 10000 4.6 0 16:46 24.06.2019
5891 Clear 27 1022 34 10000 4.1 160 16:20 24.06.2019
5892 Clear 27 1023 37 10000 4.6 70 15:47 24.06.2019
5893 Clear 27 1022 42 10000 5.7 80 15:29 24.06.2019
5894 Clear 27 1023 39 10000 5.7 80 14:43 24.06.2019
5895 Clear 27 1023 39 10000 6.2 80 14:24 24.06.2019
5896 Clear 27 1023 36 10000 4.6 80 13:46 24.06.2019
5897 Clear 27 1023 34 10000 5.1 90 13:24 24.06.2019
5898 Clear 26 1024 36 10000 6.2 80 12:43 24.06.2019
5899 Clear 26 1024 36 10000 6.2 80 12:21 24.06.2019
5900 Clear 25 1024 38 10000 5.7 90 11:46 24.06.2019
5901 Clear 25 1024 38 10000 5.1 110 11:28 24.06.2019
5902 Clear 23 1024 41 10000 5.1 80 10:58 24.06.2019
5903 Clear 24 1024 41 10000 5.1 80 10:39 24.06.2019
5904 Clear 23 1024 43 10000 4.6 100 10:20 24.06.2019
5905 Clear 21 1024 43 10000 5.1 100 09:44 24.06.2019
5906 Clear 19 1024 46 10000 3.6 90 09:19 24.06.2019
5907 Clear 19 1024 59 10000 3.1 90 08:50 24.06.2019
5908 Clear 18 1024 59 10000 3.6 110 08:20 24.06.2019
5909 Clear 16 1024 63 10000 3.1 100 07:42 24.06.2019
5910 Clear 15 1024 67 10000 3.1 100 07:23 24.06.2019
5911 Clear 15 1024 72 10000 2.6 90 06:25 24.06.2019
5912 Clear 14 1024 76 10000 2.1 90 05:56 24.06.2019
5913 Clear 15 1024 77 10000 1.5 80 04:59 24.06.2019
5914 Clear 15 1024 87 10000 1.5 80 03:57 24.06.2019
5915 Clear 16 1024 93 10000 1.5 60 02:52 24.06.2019
5916 Clear 16 1023 82 10000 2.1 70 01:58 24.06.2019
5917 Clear 16 1023 82 10000 2.1 70 01:40 24.06.2019
5918 Clear 16 1023 87 10000 3.1 70 01:21 24.06.2019
5919 Clear 17 1023 77 10000 4.1 60 00:38 24.06.2019
5920 Clear 17 1023 77 10000 4.1 60 00:18 24.06.2019
5921 Clear 18 1023 77 10000 4.1 60 23:42 23.06.2019
5922 Clear 18 1023 77 10000 4.6 60 23:21 23.06.2019
5923 Clear 19 1023 72 10000 4.1 50 22:42 23.06.2019
5924 Clear 18 1022 68 10000 4.6 60 22:20 23.06.2019
5925 Clear 20 1022 64 10000 4.6 50 21:44 23.06.2019
5926 Clear 21 1022 60 10000 5.7 60 21:25 23.06.2019
5927 Clear 22 1022 60 10000 5.1 60 20:58 23.06.2019
5928 Clear 23 1022 60 10000 5.1 60 20:38 23.06.2019
5929 Clear 23 1022 56 10000 5.7 60 20:20 23.06.2019
5930 Clear 24 1022 56 10000 5.7 80 19:43 23.06.2019
5931 Clouds 24 1022 57 10000 6.2 50 19:20 23.06.2019
5932 Clouds 24 1022 57 10000 6.2 60 18:48 23.06.2019
5933 Clouds 24 1022 53 10000 6.2 50 18:20 23.06.2019
5934 Clear 25 1022 53 10000 6.7 70 17:46 23.06.2019
5935 Clear 25 1022 44 10000 5.7 90 17:25 23.06.2019
5936 Clear 25 1022 44 10000 4.6 60 16:55 23.06.2019
5937 Clear 25 1022 44 10000 5.7 80 16:36 23.06.2019
5938 Clear 25 1022 44 10000 5.7 80 16:18 23.06.2019
5939 Clear 25 1022 44 10000 5.1 90 15:40 23.06.2019
5940 Clear 24 1023 44 10000 5.1 80 15:19 23.06.2019
5941 Clear 24 1023 47 10000 5.7 80 14:40 23.06.2019
5942 Clear 24 1023 47 10000 5.7 80 14:22 23.06.2019
5943 Clear 25 1023 47 10000 5.1 90 13:57 23.06.2019
5944 Clear 24 1023 44 10000 5.7 100 13:38 23.06.2019
5945 Clear 24 1023 44 10000 5.7 100 13:18 23.06.2019
5946 Clear 23 1023 47 10000 5.7 90 12:42 23.06.2019
5947 Clear 22 1023 49 10000 5.1 100 12:21 23.06.2019
5948 Clear 22 1023 53 10000 5.1 110 11:55 23.06.2019
5949 Clear 21 1023 53 10000 5.1 80 11:36 23.06.2019
5950 Clear 22 1023 53 10000 5.1 80 11:18 23.06.2019
5951 Clear 21 1023 56 10000 4.6 90 10:41 23.06.2019
5952 Clear 20 1023 55 10000 4.6 70 10:18 23.06.2019
5953 Clear 18 1023 63 10000 4.6 90 09:39 23.06.2019
5954 Clear 18 1023 63 10000 4.6 90 09:20 23.06.2019
5955 Clear 17 1023 59 10000 4.1 80 08:44 23.06.2019
5956 Clear 16 1023 63 10000 3.6 90 08:26 23.06.2019
5957 Clear 15 1023 63 10000 3.6 90 07:53 23.06.2019
5958 Clear 14 1023 71 10000 3.1 70 07:21 23.06.2019
5959 Clear 13 1023 71 10000 3.1 70 06:54 23.06.2019
5960 Clear 13 1023 71 10000 2.1 50 05:55 23.06.2019
5961 Clear 13 1023 71 10000 2.6 80 04:30 23.06.2019
5962 Clear 13 1023 76 10000 3.1 50 01:54 23.06.2019
5963 Clear 14 1023 76 10000 3.1 50 01:35 23.06.2019
5964 Clear 14 1023 71 10000 4.1 60 00:36 23.06.2019
5965 Clear 14 1023 67 10000 3.6 50 23:55 22.06.2019
5966 Clear 15 1023 62 10000 3.6 50 23:37 22.06.2019
5967 Clear 15 1023 62 10000 3.6 50 23:18 22.06.2019
5968 Clear 16 1022 55 10000 4.1 50 22:38 22.06.2019
5969 Clear 17 1022 55 10000 4.1 50 22:19 22.06.2019
5970 Clear 17 1022 55 10000 4.1 50 21:38 22.06.2019
5971 Clear 18 1022 55 10000 4.1 50 21:19 22.06.2019
5972 Clear 18 1022 52 10000 5.1 50 20:50 22.06.2019
5973 Clear 19 1022 55 10000 6.2 50 20:25 22.06.2019
5974 Clear 20 1022 56 10000 5.1 50 19:50 22.06.2019
5975 Clear 20 1022 56 10000 5.1 60 19:28 22.06.2019
5976 Clear 20 1022 52 10000 5.1 60 18:55 22.06.2019
5977 Clear 21 1022 49 10000 4.6 50 18:36 22.06.2019
5978 Clear 21 1022 49 10000 4.6 50 18:18 22.06.2019
5979 Clear 21 1022 43 10000 4.6 40 17:38 22.06.2019
5980 Clear 22 1023 46 10000 4.6 50 17:18 22.06.2019
5981 Clear 22 1023 46 10000 3.1 40 16:39 22.06.2019
5982 Clear 22 1023 46 10000 2.6 0 16:20 22.06.2019
5983 Clear 22 1023 46 10000 4.1 0 15:41 22.06.2019
5984 Clear 21 1023 46 10000 3.1 30 15:23 22.06.2019
5985 Clouds 21 1024 45 10000 3.6 40 14:50 22.06.2019
5986 Clouds 21 1024 43 10000 3.1 30 14:29 22.06.2019
5987 Clouds 21 1024 45 10000 2.1 0 13:45 22.06.2019
5988 Clouds 21 1024 45 10000 2.6 0 13:27 22.06.2019
5989 Clouds 20 1024 49 10000 2.1 0 12:54 22.06.2019
5990 Clouds 20 1024 49 10000 2.1 0 12:36 22.06.2019
5991 Clouds 19 1024 48 10000 2.1 90 11:59 22.06.2019
5992 Clouds 19 1024 55 10000 3.1 70 11:40 22.06.2019
5993 Clouds 18 1025 55 10000 2.6 10 10:54 22.06.2019
5994 Clouds 18 1024 63 10000 3.1 50 10:22 22.06.2019
5995 Clouds 17 1024 63 10000 3.1 60 09:56 22.06.2019
5996 Clouds 16 1024 67 10000 3.1 50 09:29 22.06.2019
5997 Clear 15 1024 67 10000 3.1 10 08:47 22.06.2019
5998 Clear 15 1024 67 10000 2.1 30 08:28 22.06.2019
5999 Clear 13 1024 82 10000 0.5 0 07:44 22.06.2019
6000 Clear 12 1024 82 10000 0.5 0 07:20 22.06.2019
6001 Clear 10 1023 93 10000 1 0 06:35 22.06.2019
6002 Fog 11 1023 93 10000 0.5 310 03:42 22.06.2019
6003 Clear 11 1022 87 10000 2.1 330 02:24 22.06.2019
6004 Clear 13 1022 76 10000 1.5 320 00:54 22.06.2019
6005 Clear 13 1021 72 10000 2.1 320 00:30 22.06.2019
6006 Clear 14 1021 72 10000 2.1 320 23:50 21.06.2019
6007 Clear 14 1021 77 10000 1.5 290 23:23 21.06.2019
6008 Clear 14 1021 72 10000 2.1 340 22:57 21.06.2019
6009 Clear 15 1021 72 10000 2.1 340 22:39 21.06.2019
6010 Clear 16 1020 77 10000 1 300 22:19 21.06.2019
6011 Clear 16 1020 67 10000 1.5 330 21:40 21.06.2019
6012 Clear 17 1020 67 10000 1.5 330 21:20 21.06.2019
6013 Clouds 17 1019 67 10000 2.1 310 20:48 21.06.2019
6014 Clouds 17 1019 63 10000 2.6 310 20:26 21.06.2019
6015 Clear 18 1019 59 10000 3.1 340 19:48 21.06.2019
6016 Clouds 18 1019 67 10000 5.1 320 19:22 21.06.2019
6017 Rain 18 1019 67 10000 7.2 310 18:41 21.06.2019
6018 Rain 18 1019 67 10000 5.7 310 18:23 21.06.2019
6019 Clouds 19 1018 63 10000 5.7 320 17:31 21.06.2019
6020 Rain 20 1018 56 10000 5.1 300 16:59 21.06.2019
6021 Clouds 20 1018 60 10000 4.6 310 16:37 21.06.2019
6022 Clouds 20 1018 60 10000 4.6 310 16:18 21.06.2019
6023 Clouds 21 1018 49 10000 4.6 240 15:37 21.06.2019
6024 Clouds 21 1018 49 10000 4.6 240 15:18 21.06.2019
6025 Clouds 20 1017 52 10000 4.1 260 14:40 21.06.2019
6026 Clouds 20 1017 52 10000 4.6 260 14:21 21.06.2019
6027 Clouds 20 1017 55 10000 5.1 260 13:40 21.06.2019
6028 Clouds 20 1017 55 10000 5.1 260 13:22 21.06.2019
6029 Clouds 20 1017 52 10000 5.1 250 12:51 21.06.2019
6030 Clouds 20 1017 59 10000 4.6 260 12:23 21.06.2019
6031 Clouds 20 1017 63 10000 5.7 240 11:56 21.06.2019
6032 Clouds 19 1017 63 10000 4.1 240 11:38 21.06.2019
6033 Clouds 19 1017 63 10000 4.1 240 11:19 21.06.2019
6034 Clouds 19 1017 63 10000 3.6 240 10:44 21.06.2019
6035 Clouds 19 1017 63 10000 3.6 240 10:44 21.06.2019
6036 Clouds 18 1017 68 10000 3.6 250 10:21 21.06.2019
6037 Clouds 18 1017 68 10000 3.1 240 09:43 21.06.2019
6038 Clouds 17 1016 72 10000 4.6 250 09:25 21.06.2019
6039 Clouds 16 1016 72 10000 2.6 260 08:58 21.06.2019
6040 Clouds 16 1016 77 10000 3.6 270 08:40 21.06.2019
6041 Clouds 16 1016 77 10000 3.6 270 08:19 21.06.2019
6042 Clear 15 1016 77 10000 3.1 270 07:45 21.06.2019
6043 Clear 15 1016 77 10000 3.1 270 07:45 21.06.2019
6044 Clear 14 1016 82 10000 2.6 280 07:22 21.06.2019
6045 Clear 14 1015 87 10000 1.5 250 06:29 21.06.2019
6046 Clear 13 1015 93 10000 2.1 270 05:56 21.06.2019
6047 Clear 14 1015 93 10000 2.1 250 04:53 21.06.2019
6048 Clear 15 1014 87 10000 2.1 290 03:49 21.06.2019
6049 Clear 15 1014 87 10000 2.6 280 03:30 21.06.2019
6050 Clouds 15 1014 87 10000 3.1 280 02:42 21.06.2019
6051 Clouds 16 1014 87 10000 3.6 290 01:33 21.06.2019
6052 Rain 16 1014 87 10000 3.6 290 00:48 21.06.2019
6053 Rain 17 1013 82 10000 4.6 300 23:59 20.06.2019
6054 Rain 17 1013 82 10000 4.6 300 23:41 20.06.2019
6055 Rain 17 1013 82 10000 4.6 290 23:21 20.06.2019
6056 Rain 17 1012 82 10000 2.6 320 22:46 20.06.2019
6057 Clouds 18 1012 77 10000 2.6 270 22:24 20.06.2019
6058 Clouds 18 1011 88 10000 1 310 21:57 20.06.2019
6059 Clouds 19 1011 88 10000 1 310 21:38 20.06.2019
6060 Clouds 19 1011 82 10000 0.5 0 21:19 20.06.2019
6061 Clouds 20 1011 72 10000 1 0 20:46 20.06.2019
6062 Clouds 20 1011 68 10000 1.5 300 20:26 20.06.2019
6063 Clouds 20 1011 64 10000 3.1 270 19:55 20.06.2019
6064 Clouds 21 1011 64 10000 3.1 270 19:37 20.06.2019
6065 Clouds 21 1011 68 10000 2.6 280 19:18 20.06.2019
6066 Clouds 21 1011 68 10000 3.1 270 18:42 20.06.2019
6067 Rain 21 1011 77 10000 2.1 260 18:23 20.06.2019
6068 Thunderstorm 21 1011 72 10000 4.1 330 17:53 20.06.2019
6069 Clouds 21 1011 68 10000 3.6 300 17:35 20.06.2019
6070 Clouds 21 1010 68 10000 2.6 320 16:56 20.06.2019
6071 Clouds 21 1010 68 10000 2.6 320 16:37 20.06.2019
6072 Clouds 21 1010 77 10000 4.6 330 16:18 20.06.2019
6073 Clouds 21 1010 68 10000 3.6 280 15:41 20.06.2019
6074 Clouds 21 1010 68 10000 4.1 250 15:22 20.06.2019
6075 Clouds 20 1010 68 10000 4.6 250 14:47 20.06.2019
6076 Clouds 20 1010 68 10000 4.1 270 14:23 20.06.2019
6077 Clouds 20 1010 64 10000 6.2 250 13:42 20.06.2019
6078 Clouds 19 1010 77 10000 5.7 250 13:21 20.06.2019
6079 Clouds 19 1010 77 10000 5.7 240 12:54 20.06.2019
6080 Clouds 19 1010 77 10000 5.7 240 12:36 20.06.2019
6081 Clouds 19 1009 77 10000 5.7 230 12:18 20.06.2019
6082 Clouds 19 1009 77 10000 4.1 230 11:40 20.06.2019
6083 Clouds 19 1009 82 10000 4.6 230 11:22 20.06.2019
6084 Clouds 18 1009 88 8000 3.6 230 10:43 20.06.2019
6085 Clouds 18 1009 88 7000 4.6 230 10:23 20.06.2019
6086 Clouds 18 1008 88 8000 5.1 230 09:41 20.06.2019
6087 Clouds 18 1008 88 8000 5.1 230 09:41 20.06.2019
6088 Clouds 18 1008 88 8000 5.1 230 09:23 20.06.2019
6089 Clouds 18 1008 88 10000 4.6 230 08:58 20.06.2019
6090 Clouds 18 1008 88 10000 4.1 230 08:40 20.06.2019
6091 Clouds 17 1008 88 10000 4.1 230 08:19 20.06.2019
6092 Clouds 17 1007 88 10000 4.1 230 07:42 20.06.2019
6093 Clouds 17 1007 93 10000 3.6 230 07:23 20.06.2019
6094 Clear 16 1007 93 10000 3.6 230 06:19 20.06.2019
6095 Clear 17 1007 88 10000 3.1 160 03:40 20.06.2019
6096 Rain 17 1007 88 10000 1.5 80 01:56 20.06.2019
6097 Clouds 17 1007 88 10000 1 0 00:33 20.06.2019
6098 Clouds 18 1007 88 10000 1 0 23:45 19.06.2019
6099 Clouds 18 1007 82 10000 1 0 23:27 19.06.2019
6100 Clouds 18 1007 77 10000 2.1 130 22:49 19.06.2019
6101 Clear 19 1006 77 10000 2.6 90 22:24 19.06.2019
6102 Clouds 18 1006 77 10000 1.5 50 21:58 19.06.2019
6103 Clouds 18 1006 77 10000 1.5 50 21:58 19.06.2019
6104 Clouds 19 1006 72 10000 1.5 80 21:38 19.06.2019
6105 Clouds 19 1006 72 10000 1.5 80 21:19 19.06.2019
6106 Clouds 20 1006 72 10000 1.5 30 20:41 19.06.2019
6107 Thunderstorm 20 1006 77 10000 4.6 330 20:21 19.06.2019
6108 Rain 23 1005 47 10000 6.7 190 19:46 19.06.2019
6109 Rain 23 1005 47 10000 6.7 190 19:26 19.06.2019
6110 Rain 26 1005 41 10000 9.3 230 18:56 19.06.2019
6111 Thunderstorm 28 1005 37 10000 3.6 230 18:24 19.06.2019
6112 Thunderstorm 29 1005 35 10000 4.1 240 17:48 19.06.2019
6113 Clouds 30 1005 35 10000 5.1 220 17:27 19.06.2019
6114 Clouds 29 1005 35 10000 5.1 220 16:56 19.06.2019
6115 Clouds 30 1005 35 10000 5.1 220 16:37 19.06.2019
6116 Clouds 30 1006 31 10000 6.7 220 16:19 19.06.2019
6117 Clouds 30 1006 40 10000 6.2 200 15:45 19.06.2019
6118 Rain 30 1006 40 10000 4.6 180 15:24 19.06.2019
6119 Rain 30 1006 40 10000 4.6 180 15:24 19.06.2019
6120 Clouds 30 1006 42 10000 6.2 170 14:44 19.06.2019
6121 Clouds 30 1007 40 10000 5.1 160 14:26 19.06.2019
6122 Rain 30 1007 42 10000 5.1 170 13:55 19.06.2019
6123 Rain 30 1007 42 10000 5.1 170 13:37 19.06.2019
6124 Clouds 30 1007 45 10000 6.7 140 13:19 19.06.2019
6125 Clear 29 1007 45 10000 5.1 150 12:42 19.06.2019
6126 Clouds 27 1007 51 10000 4.6 150 12:20 19.06.2019
6127 Clear 27 1008 51 10000 3.6 160 11:43 19.06.2019
6128 Clear 27 1008 51 10000 3.6 160 11:24 19.06.2019
6129 Clear 26 1008 51 10000 4.1 150 10:51 19.06.2019
6130 Clear 26 1008 50 10000 4.1 160 10:32 19.06.2019
6131 Clear 24 1008 53 10000 3.6 140 09:59 19.06.2019
6132 Clear 23 1008 53 10000 3.6 140 09:39 19.06.2019
6133 Clear 22 1009 57 10000 3.1 150 09:19 19.06.2019
6134 Clear 22 1009 60 10000 3.6 130 08:48 19.06.2019
6135 Clear 21 1009 64 10000 2.1 120 08:28 19.06.2019
6136 Clear 20 1009 68 10000 2.6 130 07:47 19.06.2019
6137 Clear 19 1009 72 10000 2.1 110 07:23 19.06.2019
6138 Clear 18 1009 72 10000 2.6 120 06:52 19.06.2019
6139 Clear 17 1009 82 10000 1.5 90 06:26 19.06.2019
6140 Clear 17 1010 87 10000 1.5 80 05:49 19.06.2019
6141 Clear 17 1010 88 10000 1 80 04:34 19.06.2019
6142 Clear 17 1011 93 10000 1.5 60 03:30 19.06.2019
6143 Clear 18 1011 82 10000 0.5 0 01:53 19.06.2019
6144 Clear 19 1012 82 10000 1 0 01:18 19.06.2019
6145 Clear 19 1012 82 10000 1 0 00:43 19.06.2019
6146 Clear 19 1012 82 10000 1 0 00:43 19.06.2019
6147 Clear 19 1012 77 10000 1 50 00:20 19.06.2019
6148 Clear 19 1012 77 10000 1.5 30 23:52 18.06.2019
6149 Clear 20 1012 77 10000 3.1 60 23:28 18.06.2019
6150 Clear 20 1012 72 10000 3.6 60 22:49 18.06.2019
6151 Clouds 21 1012 73 10000 1.5 40 22:25 18.06.2019
6152 Clouds 21 1012 73 10000 2.6 30 21:58 18.06.2019
6153 Clouds 21 1012 73 10000 2.6 30 21:39 18.06.2019
6154 Clouds 23 1012 64 10000 2.1 40 21:21 18.06.2019
6155 Clouds 24 1012 60 10000 3.1 330 20:44 18.06.2019
6156 Rain 24 1012 60 10000 2.6 360 20:25 18.06.2019
6157 Thunderstorm 24 1012 60 10000 4.6 340 19:55 18.06.2019
6158 Thunderstorm 24 1012 60 10000 4.6 340 19:37 18.06.2019
6159 Rain 24 1012 57 10000 6.7 300 19:19 18.06.2019
6160 Clouds 26 1012 42 10000 2.6 180 18:43 18.06.2019
6161 Clouds 27 1012 39 10000 5.1 150 18:24 18.06.2019
6162 Clear 27 1012 39 10000 6.2 150 17:40 18.06.2019
6163 Clear 27 1012 39 10000 6.2 150 17:20 18.06.2019
6164 Clear 28 1013 42 10000 5.1 170 16:47 18.06.2019
6165 Clear 27 1013 42 10000 5.7 160 16:27 18.06.2019
6166 Clouds 28 1013 39 10000 6.7 160 15:56 18.06.2019
6167 Clouds 28 1014 42 10000 5.1 160 15:37 18.06.2019
6168 Clouds 28 1014 42 10000 5.1 160 15:19 18.06.2019
6169 Rain 28 1014 42 10000 5.7 160 14:45 18.06.2019
6170 Rain 28 1014 42 10000 5.7 160 14:45 18.06.2019
6171 Rain 28 1014 42 10000 5.1 180 14:22 18.06.2019
6172 Clouds 28 1015 48 10000 5.1 170 13:58 18.06.2019
6173 Clouds 28 1015 48 10000 5.1 170 13:38 18.06.2019
6174 Clouds 28 1015 47 10000 3.6 160 13:20 18.06.2019
6175 Clouds 27 1015 50 10000 4.1 160 12:43 18.06.2019
6176 Clouds 26 1015 50 10000 3.6 150 12:25 18.06.2019
6177 Clear 26 1015 57 10000 3.6 150 11:45 18.06.2019
6178 Clear 25 1016 57 10000 4.1 150 11:23 18.06.2019
6179 Clear 25 1016 57 10000 4.1 150 11:23 18.06.2019
6180 Clear 25 1016 57 10000 4.1 150 10:57 18.06.2019
6181 Clear 24 1016 57 10000 4.1 150 10:38 18.06.2019
6182 Clear 24 1016 60 10000 4.1 140 10:19 18.06.2019
6183 Clear 23 1016 60 10000 4.1 140 09:49 18.06.2019
6184 Clear 22 1016 60 10000 4.6 140 09:24 18.06.2019
6185 Clear 20 1016 64 10000 4.1 140 08:47 18.06.2019
6186 Clear 20 1017 68 10000 4.6 140 08:21 18.06.2019
6187 Clear 19 1017 72 10000 4.6 140 07:45 18.06.2019
6188 Clear 18 1017 82 10000 2.6 140 07:24 18.06.2019
6189 Clear 17 1017 77 10000 3.6 130 06:45 18.06.2019
6190 Clear 17 1017 77 10000 3.1 120 05:24 18.06.2019
6191 Clear 17 1018 77 10000 3.6 110 03:59 18.06.2019
6192 Clear 18 1018 68 10000 3.1 110 02:27 18.06.2019
6193 Clear 18 1018 72 10000 2.1 90 01:26 18.06.2019
6194 Clear 18 1018 68 10000 2.1 80 00:57 18.06.2019
6195 Clear 18 1018 68 10000 3.1 80 00:30 18.06.2019
6196 Clear 19 1018 64 10000 3.1 80 23:42 17.06.2019
6197 Clear 19 1018 60 10000 3.1 90 23:23 17.06.2019
6198 Clear 19 1018 60 10000 2.6 80 22:58 17.06.2019
6199 Clear 20 1018 53 10000 2.6 90 22:38 17.06.2019
6200 Clear 20 1018 53 10000 2.6 90 22:20 17.06.2019
6201 Clear 23 1018 49 10000 2.6 100 21:45 17.06.2019
6202 Clear 23 1018 47 10000 3.6 100 21:23 17.06.2019
6203 Clear 23 1018 47 10000 3.6 100 21:23 17.06.2019
6204 Clear 24 1018 47 10000 4.1 100 20:42 17.06.2019
6205 Clear 24 1019 41 10000 3.6 130 20:23 17.06.2019
6206 Clear 24 1019 41 10000 4.1 170 19:57 17.06.2019
6207 Clear 24 1019 41 10000 4.1 170 19:39 17.06.2019
6208 Clear 25 1019 41 10000 4.1 130 19:20 17.06.2019
6209 Clear 25 1019 44 10000 4.1 110 18:39 17.06.2019
6210 Clear 25 1019 44 10000 4.1 110 18:18 17.06.2019
6211 Clear 25 1020 44 10000 3.6 150 17:58 17.06.2019
6212 Clear 25 1020 44 10000 3.6 150 17:39 17.06.2019
6213 Clear 25 1020 38 10000 1.5 0 17:20 17.06.2019
6214 Clear 25 1020 44 10000 1.5 0 16:42 17.06.2019
6215 Clear 25 1020 44 10000 1.5 0 16:24 17.06.2019
6216 Clear 25 1021 41 10000 2.1 170 15:45 17.06.2019
6217 Clear 25 1021 44 10000 2.1 0 15:20 17.06.2019
6218 Clear 25 1021 44 10000 2.1 0 14:58 17.06.2019
6219 Clear 25 1021 47 10000 1 0 14:40 17.06.2019
6220 Clear 24 1021 53 10000 2.6 0 14:21 17.06.2019
6221 Clouds 25 1021 46 10000 2.6 220 13:44 17.06.2019
6222 Clouds 24 1021 46 10000 2.6 220 13:21 17.06.2019
6223 Clouds 23 1021 46 10000 2.1 250 12:48 17.06.2019
6224 Clouds 23 1021 46 10000 2.1 250 12:30 17.06.2019
6225 Clouds 23 1022 53 10000 2.1 0 11:45 17.06.2019
6226 Clouds 23 1022 53 10000 2.1 0 11:26 17.06.2019
6227 Clouds 22 1022 60 10000 2.6 170 10:58 17.06.2019
6228 Clouds 21 1022 60 10000 2.6 170 10:40 17.06.2019
6229 Clear 20 1022 60 10000 3.1 160 10:21 17.06.2019
6230 Clear 20 1022 64 10000 3.1 180 09:45 17.06.2019
6231 Clear 18 1022 64 10000 3.1 180 09:27 17.06.2019
6232 Clear 17 1022 82 10000 2.6 150 08:41 17.06.2019
6233 Clear 16 1022 88 10000 2.6 160 08:23 17.06.2019
6234 Mist 15 1022 93 10000 1 0 07:42 17.06.2019
6235 Mist 14 1022 93 10000 1 0 07:24 17.06.2019
6236 Fog 13 1022 93 400 0.88 218.333 06:35 17.06.2019
6237 Fog 12 1021 100 300 1 320 05:47 17.06.2019
6238 Fog 12 1021 100 900 0.5 0 04:41 17.06.2019
6239 Fog 13 1021 93 500 0.5 0 03:49 17.06.2019
6240 Fog 13 1021 100 600 0.5 340 02:59 17.06.2019
6241 Fog 14 1021 100 600 1.5 340 02:41 17.06.2019
6242 Fog 14 1021 93 8000 1 300 01:56 17.06.2019
6243 Fog 14 1021 100 10000 1 310 01:34 17.06.2019
6244 Clear 15 1021 93 10000 1 290 00:44 17.06.2019
6245 Clear 15 1021 93 10000 1 290 00:23 17.06.2019
6246 Clear 16 1020 93 10000 0.5 0 23:43 16.06.2019
6247 Clouds 16 1020 93 10000 1.5 350 23:23 16.06.2019
6248 Clouds 16 1020 93 10000 1.5 350 22:57 16.06.2019
6249 Clouds 16 1020 93 10000 2.1 360 22:39 16.06.2019
6250 Clouds 16 1020 93 10000 2.1 360 22:19 16.06.2019
6251 Rain 16 1020 88 10000 2.6 350 22:19 16.06.2019
6252 Rain 17 1020 88 10000 2.6 350 21:56 16.06.2019
6253 Rain 17 1020 88 10000 3.6 340 21:38 16.06.2019
6254 Rain 18 1019 72 10000 5.1 320 21:19 16.06.2019
6255 Clouds 19 1019 56 10000 3.6 160 20:37 16.06.2019
6256 Clouds 20 1019 53 10000 4.1 150 20:19 16.06.2019
6257 Clouds 20 1019 53 10000 4.1 150 19:55 16.06.2019
6258 Clouds 21 1019 46 10000 1 0 19:37 16.06.2019
6259 Clouds 21 1019 49 10000 1.5 0 19:19 16.06.2019
6260 Clouds 22 1019 53 10000 2.1 200 18:41 16.06.2019
6261 Clouds 22 1019 53 10000 3.1 200 18:21 16.06.2019
6262 Clouds 22 1019 49 10000 2.1 160 17:49 16.06.2019
6263 Clouds 22 1019 53 10000 1.5 240 17:25 16.06.2019
6264 Clouds 22 1019 53 10000 1.5 240 16:58 16.06.2019
6265 Clouds 22 1019 53 10000 1.5 240 16:58 16.06.2019
6266 Clouds 22 1020 56 10000 2.6 230 16:40 16.06.2019
6267 Clouds 22 1020 60 10000 2.6 240 16:21 16.06.2019
6268 Clouds 22 1020 60 10000 2.6 240 16:21 16.06.2019
6269 Clouds 21 1019 49 10000 4.1 220 15:57 16.06.2019
6270 Clouds 22 1019 49 10000 4.1 220 15:38 16.06.2019
6271 Clouds 22 1019 49 10000 2.6 230 15:19 16.06.2019
6272 Clouds 22 1019 52 10000 2.6 250 14:37 16.06.2019
6273 Clouds 22 1019 49 10000 3.6 250 14:19 16.06.2019
6274 Clouds 22 1019 49 10000 1.5 240 13:46 16.06.2019
6275 Clouds 22 1019 49 10000 1.5 240 13:25 16.06.2019
6276 Clouds 21 1019 46 10000 2.1 230 12:45 16.06.2019
6277 Clouds 21 1019 52 10000 2.6 240 12:23 16.06.2019
6278 Clouds 21 1019 52 10000 2.6 240 11:59 16.06.2019
6279 Clouds 20 1019 56 10000 2.6 210 11:38 16.06.2019
6280 Clouds 20 1019 63 10000 3.1 210 11:19 16.06.2019
6281 Clear 19 1019 55 10000 2.6 230 10:45 16.06.2019
6282 Clear 18 1019 59 10000 2.1 270 10:20 16.06.2019
6283 Clear 18 1018 63 10000 2.1 290 09:46 16.06.2019
6284 Clear 17 1018 63 10000 2.1 290 09:25 16.06.2019
6285 Clear 16 1018 77 10000 2.6 270 08:50 16.06.2019
6286 Clear 15 1018 77 10000 1.5 260 08:22 16.06.2019
6287 Clear 14 1017 87 10000 2.1 250 07:50 16.06.2019
6288 Clear 14 1017 87 10000 2.1 250 07:32 16.06.2019
6289 Clear 13 1017 87 10000 2.6 250 06:55 16.06.2019
6290 Fog 12 1017 93 10000 2.1 240 06:21 16.06.2019
6291 Fog 12 1017 100 10000 2.1 240 05:28 16.06.2019
6292 Clouds 12 1017 93 10000 2.6 240 04:33 16.06.2019
6293 Clouds 13 1017 87 10000 2.1 240 03:51 16.06.2019
6294 Clouds 13 1017 87 10000 2.1 240 03:30 16.06.2019
6295 Clouds 14 1016 82 10000 4.6 290 01:59 16.06.2019
6296 Clouds 14 1016 82 10000 4.6 290 01:40 16.06.2019
6297 Clouds 14 1016 77 10000 4.6 280 01:21 16.06.2019
6298 Clouds 15 1016 82 10000 4.6 300 00:39 16.06.2019
6299 Clouds 15 1016 77 10000 5.7 290 00:19 16.06.2019
6300 Clouds 15 1015 77 10000 5.7 290 23:42 15.06.2019
6301 Clouds 15 1015 77 10000 5.7 290 23:22 15.06.2019
6302 Clouds 15 1014 82 10000 5.7 280 22:49 15.06.2019
6303 Clouds 16 1014 82 10000 5.7 280 22:26 15.06.2019
6304 Clouds 17 1013 77 10000 6.7 270 21:47 15.06.2019
6305 Clouds 17 1013 77 10000 6.7 270 21:29 15.06.2019
6306 Clouds 18 1013 77 10000 6.7 260 20:57 15.06.2019
6307 Clouds 19 1012 72 10000 5.7 250 20:39 15.06.2019
6308 Rain 20 1012 77 10000 4.1 270 20:18 15.06.2019
6309 Clouds 20 1012 68 10000 3.6 270 19:41 15.06.2019
6310 Clouds 20 1012 68 10000 3.6 270 19:23 15.06.2019
6311 Clouds 21 1011 64 10000 5.7 260 18:39 15.06.2019
6312 Clouds 21 1011 73 10000 6.2 240 18:20 15.06.2019
6313 Clouds 21 1010 77 10000 6.7 250 17:43 15.06.2019
6314 Clouds 21 1010 83 10000 4.1 250 17:22 15.06.2019
6315 Drizzle 21 1010 83 10000 5.1 240 16:48 15.06.2019
6316 Rain 20 1010 83 10000 2.6 160 16:20 15.06.2019
6317 Rain 20 1009 88 10000 1.5 90 15:44 15.06.2019
6318 Rain 20 1009 88 10000 1.5 90 15:23 15.06.2019
6319 Clouds 19 1009 82 10000 2.1 0 14:43 15.06.2019
6320 Clouds 19 1009 88 10000 4.1 110 14:19 15.06.2019
6321 Clouds 19 1009 88 10000 4.1 110 13:57 15.06.2019
6322 Clouds 19 1008 82 10000 3.1 100 13:39 15.06.2019
6323 Clouds 19 1008 82 10000 4.6 80 13:18 15.06.2019
6324 Clouds 19 1008 88 10000 6.2 80 12:47 15.06.2019
6325 Clouds 19 1008 88 10000 6.2 80 12:25 15.06.2019
6326 Clouds 20 1008 88 10000 6.2 70 11:51 15.06.2019
6327 Clouds 19 1008 88 10000 1.5 70 11:32 15.06.2019
6328 Thunderstorm 19 1007 88 10000 7.2 70 10:47 15.06.2019
6329 Rain 19 1008 82 10000 8.2 70 10:26 15.06.2019
6330 Rain 18 1008 82 10000 8.2 70 09:59 15.06.2019
6331 Rain 18 1009 82 10000 5.1 110 09:39 15.06.2019
6332 Thunderstorm 18 1007 88 10000 10.3 70 09:20 15.06.2019
6333 Thunderstorm 17 1010 93 10000 4.1 70 08:44 15.06.2019
6334 Thunderstorm 17 1010 93 10000 3.1 60 08:25 15.06.2019
6335 Rain 17 1010 93 10000 3.1 30 07:41 15.06.2019
6336 Rain 17 1010 88 10000 3.6 350 07:21 15.06.2019
6337 Rain 17 1010 88 10000 3.6 350 07:20 15.06.2019
6338 Rain 17 1011 82 10000 3.6 280 06:38 15.06.2019
6339 Clear 17 1011 82 10000 1 0 05:48 15.06.2019
6340 Clouds 17 1011 82 10000 3.1 70 05:20 15.06.2019
6341 Clouds 17 1011 77 10000 1.5 80 04:34 15.06.2019
6342 Clouds 17 1012 82 10000 3.1 70 03:38 15.06.2019
6343 Clear 17 1013 88 10000 1 0 02:48 15.06.2019
6344 Clear 17 1013 82 10000 1.5 30 01:59 15.06.2019
6345 Clear 17 1013 82 10000 1.5 40 01:40 15.06.2019
6346 Clear 18 1014 88 10000 2.6 30 00:47 15.06.2019
6347 Clear 18 1014 88 10000 2.1 30 00:28 15.06.2019
6348 Clear 18 1014 88 10000 2.1 30 23:53 14.06.2019
6349 Clear 19 1014 82 10000 2.1 340 23:25 14.06.2019
6350 Clear 19 1014 77 10000 1 0 22:43 14.06.2019
6351 Clear 20 1014 77 10000 1 0 22:23 14.06.2019
6352 Clear 20 1014 77 10000 1 0 22:23 14.06.2019
6353 Clear 20 1014 77 10000 1 0 22:23 14.06.2019
6354 Clear 20 1014 68 10000 2.1 50 21:58 14.06.2019
6355 Clear 21 1014 64 10000 1.5 30 21:39 14.06.2019
6356 Clear 21 1014 64 10000 1.5 10 21:21 14.06.2019
6357 Clear 22 1014 64 10000 2.1 20 20:42 14.06.2019
6358 Rain 22 1014 69 10000 2.6 20 20:18 14.06.2019
6359 Rain 22 1014 64 10000 2.1 30 19:51 14.06.2019
6360 Rain 22 1015 60 10000 2.6 80 19:23 14.06.2019
6361 Rain 22 1015 60 10000 2.6 80 18:58 14.06.2019
6362 Thunderstorm 23 1015 69 10000 2.1 70 18:40 14.06.2019
6363 Rain 23 1015 77 10000 3.1 310 18:22 14.06.2019
6364 Thunderstorm 25 1016 60 8000 7.7 250 17:48 14.06.2019
6365 Thunderstorm 25 1016 60 8000 7.7 250 17:30 14.06.2019
6366 Rain 26 1014 47 10000 4.1 160 16:58 14.06.2019
6367 Rain 26 1015 44 10000 5.7 160 16:40 14.06.2019
6368 Thunderstorm 25 1015 44 10000 7.7 150 16:19 14.06.2019
6369 Rain 26 1015 44 10000 6.7 160 15:41 14.06.2019
6370 Rain 26 1015 44 10000 6.7 160 15:23 14.06.2019
6371 Rain 26 1015 44 10000 6.7 160 15:23 14.06.2019
6372 Clouds 26 1015 42 10000 9.3 140 14:56 14.06.2019
6373 Clear 26 1015 41 10000 8.2 140 14:38 14.06.2019
6374 Clear 26 1015 39 10000 9.8 140 14:19 14.06.2019
6375 Clear 26 1015 39 10000 9.8 140 14:19 14.06.2019
6376 Clear 26 1015 41 10000 7.2 140 13:42 14.06.2019
6377 Clear 25 1015 41 10000 7.2 140 13:24 14.06.2019
6378 Clear 25 1016 38 10000 7.7 130 12:42 14.06.2019
6379 Clear 25 1016 38 10000 7.7 130 12:42 14.06.2019
6380 Clear 24 1016 38 10000 7.2 140 12:24 14.06.2019
6381 Clear 24 1016 44 10000 7.7 130 11:58 14.06.2019
6382 Clear 24 1016 44 10000 7.7 130 11:39 14.06.2019
6383 Clear 23 1016 43 10000 5.7 120 11:20 14.06.2019
6384 Clear 22 1016 43 10000 5.1 150 10:43 14.06.2019
6385 Clear 21 1016 49 10000 3.6 140 10:20 14.06.2019
6386 Clear 21 1017 52 10000 3.1 150 09:46 14.06.2019
6387 Clear 20 1017 52 10000 3.1 150 09:46 14.06.2019
6388 Clear 19 1016 59 10000 3.1 150 09:24 14.06.2019
6389 Clear 18 1016 63 10000 3.1 150 08:47 14.06.2019
6390 Clear 16 1016 72 10000 2.6 140 08:19 14.06.2019
6391 Clear 16 1016 72 10000 3.1 160 07:51 14.06.2019
6392 Clear 15 1016 72 10000 3.1 160 07:21 14.06.2019
6393 Clear 13 1016 82 10000 2.1 120 06:39 14.06.2019
6394 Clear 13 1015 82 10000 2.1 120 05:58 14.06.2019
6395 Clear 13 1015 82 10000 1.5 140 05:33 14.06.2019
6396 Clear 13 1015 87 10000 2.6 140 04:48 14.06.2019
6397 Clear 13 1015 93 10000 2.6 140 03:59 14.06.2019
6398 Clear 13 1015 87 10000 1.5 120 03:26 14.06.2019
6399 Clear 13 1015 87 10000 1.5 90 02:58 14.06.2019
6400 Clear 13 1015 87 10000 1 0 02:28 14.06.2019
6401 Clear 13 1015 87 10000 1 0 02:28 14.06.2019
6402 Clear 14 1014 82 10000 1 70 01:26 14.06.2019
6403 Clear 14 1014 67 10000 1.5 230 00:36 14.06.2019
6404 Clouds 15 1014 63 10000 2.6 220 00:18 14.06.2019
6405 Clouds 16 1013 72 10000 1.5 180 23:48 13.06.2019
6406 Clouds 16 1013 72 10000 1.5 180 23:24 13.06.2019
6407 Rain 17 1013 67 10000 1.5 210 22:40 13.06.2019
6408 Clear 17 1013 68 10000 1.5 210 22:22 13.06.2019
6409 Clear 18 1013 59 10000 2.1 230 21:58 13.06.2019
6410 Clear 18 1013 59 10000 2.1 230 21:37 13.06.2019
6411 Clear 18 1013 59 10000 2.1 230 21:18 13.06.2019
6412 Thunderstorm 20 1012 46 10000 2.6 210 20:44 13.06.2019
6413 Rain 20 1012 49 10000 1.5 230 20:20 13.06.2019
6414 Clouds 21 1012 52 10000 2.6 230 19:43 13.06.2019
6415 Clouds 22 1012 60 10000 1.5 240 19:25 13.06.2019
6416 Clouds 22 1012 60 10000 1.5 240 18:59 13.06.2019
6417 Rain 21 1012 56 10000 3.1 230 18:41 13.06.2019
6418 Rain 22 1012 43 10000 5.1 230 18:22 13.06.2019
6419 Rain 22 1012 40 10000 5.7 200 17:45 13.06.2019
6420 Clouds 23 1012 40 10000 5.7 200 17:22 13.06.2019
6421 Clear 23 1012 40 10000 6.7 220 16:59 13.06.2019
6422 Clear 23 1012 38 10000 6.7 220 16:41 13.06.2019
6423 Clear 23 1012 43 10000 7.2 220 16:20 13.06.2019
6424 Clear 23 1012 43 10000 6.7 220 15:43 13.06.2019
6425 Clear 23 1012 43 10000 6.7 220 15:24 13.06.2019
6426 Clear 23 1012 40 10000 7.7 220 14:54 13.06.2019
6427 Clear 23 1012 43 10000 7.7 210 14:31 13.06.2019
6428 Clear 22 1012 49 10000 8.2 230 13:59 13.06.2019
6429 Clear 22 1012 52 10000 7.2 220 13:39 13.06.2019
6430 Clouds 22 1012 49 10000 7.7 220 13:21 13.06.2019
6431 Clouds 21 1012 49 10000 7.7 210 12:42 13.06.2019
6432 Clouds 21 1012 52 10000 7.7 200 12:22 13.06.2019
6433 Clouds 21 1012 52 10000 7.7 200 11:56 13.06.2019
6434 Clouds 21 1012 56 10000 5.7 200 11:37 13.06.2019
6435 Clouds 20 1012 56 10000 5.7 210 11:18 13.06.2019
6436 Clear 20 1012 60 10000 4.1 180 10:43 13.06.2019
6437 Clear 18 1012 63 10000 4.6 150 10:23 13.06.2019
6438 Clear 18 1012 68 10000 4.1 150 09:43 13.06.2019
6439 Clear 17 1012 67 10000 3.1 160 09:22 13.06.2019
6440 Clear 16 1012 77 10000 3.1 160 08:44 13.06.2019
6441 Clear 15 1012 77 10000 3.1 160 08:25 13.06.2019
6442 Clear 14 1012 87 10000 3.6 160 07:52 13.06.2019
6443 Clear 14 1012 87 10000 3.6 160 07:25 13.06.2019
6444 Clear 13 1011 87 10000 3.6 160 06:47 13.06.2019
6445 Clear 13 1011 87 10000 3.6 160 06:23 13.06.2019
6446 Clear 13 1011 87 10000 4.1 160 05:55 13.06.2019
6447 Fog 12 1011 93 10000 2.6 170 05:37 13.06.2019
6448 Clear 13 1011 93 10000 3.6 170 04:57 13.06.2019
6449 Clear 13 1011 93 10000 2.6 220 02:33 13.06.2019
6450 Clear 14 1010 87 10000 3.1 220 01:25 13.06.2019
6451 Clouds 15 1010 93 10000 2.6 230 00:27 13.06.2019
6452 Clouds 16 1010 87 10000 5.1 220 23:24 12.06.2019
6453 Clouds 16 1009 87 10000 5.1 220 22:45 12.06.2019
6454 Clouds 17 1009 87 10000 5.1 220 22:27 12.06.2019
6455 Clouds 17 1009 88 10000 3.6 200 21:58 12.06.2019
6456 Clouds 18 1009 88 10000 3.6 200 21:40 12.06.2019
6457 Clouds 18 1008 93 10000 2.6 210 21:21 12.06.2019
6458 Clouds 18 1007 88 10000 2.6 240 20:42 12.06.2019
6459 Clouds 18 1007 88 10000 2.6 240 20:22 12.06.2019
6460 Clouds 18 1007 93 10000 1 0 19:57 12.06.2019
6461 Clouds 18 1007 88 10000 1.5 60 19:37 12.06.2019
6462 Clouds 18 1008 88 10000 2.1 240 19:19 12.06.2019
6463 Drizzle 18 1008 93 9000 4.1 240 18:42 12.06.2019
6464 Rain 18 1008 88 7000 4.6 240 18:23 12.06.2019
6465 Clouds 19 1008 93 10000 3.6 240 17:45 12.06.2019
6466 Clouds 19 1008 93 10000 3.6 240 17:23 12.06.2019
6467 Rain 20 1007 88 9000 2.1 240 16:43 12.06.2019
6468 Rain 20 1007 88 9000 2.1 240 16:25 12.06.2019
6469 Rain 21 1007 88 10000 0.5 0 15:58 12.06.2019
6470 Rain 21 1007 82 10000 2.6 120 15:33 12.06.2019
6471 Clouds 21 1007 82 10000 3.1 100 14:58 12.06.2019
6472 Clouds 21 1008 77 10000 3.1 80 14:33 12.06.2019
6473 Clouds 20 1008 82 10000 3.6 50 13:58 12.06.2019
6474 Clouds 20 1008 82 10000 3.6 50 13:58 12.06.2019
6475 Clouds 20 1008 82 10000 3.6 40 13:39 12.06.2019
6476 Clouds 20 1008 82 10000 3.6 40 13:39 12.06.2019
6477 Clouds 20 1009 88 10000 3.1 50 13:19 12.06.2019
6478 Clouds 19 1009 82 10000 3.1 60 12:44 12.06.2019
6479 Clouds 19 1009 82 10000 4.1 40 12:22 12.06.2019
6480 Clouds 19 1009 82 10000 4.1 40 11:58 12.06.2019
6481 Clouds 18 1009 88 10000 3.1 40 11:38 12.06.2019
6482 Mist 18 1009 88 10000 3.6 20 11:20 12.06.2019
6483 Mist 18 1010 88 9000 3.1 10 10:44 12.06.2019
6484 Clouds 18 1010 88 7000 3.6 20 10:20 12.06.2019
6485 Mist 17 1010 93 7000 2.6 10 09:43 12.06.2019
6486 Mist 17 1010 93 7000 2.6 10 09:22 12.06.2019
6487 Mist 17 1009 93 4900 3.1 360 08:46 12.06.2019
6488 Mist 16 1010 93 4300 3.1 350 08:20 12.06.2019
6489 Mist 16 1010 93 4800 3.6 340 07:37 12.06.2019
6490 Mist 16 1009 93 3500 3.6 290 06:43 12.06.2019
6491 Clear 16 1008 88 10000 2.6 30 05:27 12.06.2019
6492 Rain 16 1011 93 6000 7.2 60 03:55 12.06.2019
6493 Rain 17 1011 88 10000 4.1 20 01:27 12.06.2019
6494 Clear 17 1011 88 10000 2.6 10 00:38 12.06.2019
6495 Clear 17 1013 82 10000 2.6 300 23:47 11.06.2019
6496 Clear 17 1013 82 10000 2.6 300 23:29 11.06.2019
6497 Clear 18 1012 82 10000 3.1 330 22:44 11.06.2019
6498 Clouds 18 1012 77 10000 2.1 330 22:19 11.06.2019
6499 Clouds 19 1012 77 10000 2.1 330 21:57 11.06.2019
6500 Clouds 19 1012 77 10000 1.5 350 21:38 11.06.2019
6501 Clouds 20 1012 73 10000 3.1 310 21:20 11.06.2019
6502 Clouds 21 1012 73 10000 3.6 310 20:48 11.06.2019
6503 Clouds 21 1011 60 10000 2.6 280 20:26 11.06.2019
6504 Clouds 21 1011 60 10000 2.6 280 20:26 11.06.2019
6505 Clouds 21 1011 60 10000 2.6 280 19:55 11.06.2019
6506 Clouds 22 1011 60 10000 2.6 280 19:34 11.06.2019
6507 -273 0 0 0 0 0 18:58 11.06.2019
6508 Clouds 22 1011 64 10000 3.1 260 18:58 11.06.2019
6509 Clouds 22 1011 68 10000 3.1 250 18:23 11.06.2019
6510 Clouds 22 1011 68 10000 3.1 250 18:23 11.06.2019
6511 Clouds 22 1011 68 10000 4.6 230 17:54 11.06.2019
6512 Clouds 22 1011 68 10000 4.6 230 17:36 11.06.2019
6513 Clouds 22 1011 68 10000 3.6 220 17:18 11.06.2019
6514 Clouds 22 1011 68 10000 3.6 220 16:41 11.06.2019
6515 Clouds 22 1011 73 10000 3.1 220 16:23 11.06.2019
6516 Clouds 21 1011 77 10000 2.1 250 15:43 11.06.2019
6517 Clouds 21 1011 77 10000 2.1 250 15:24 11.06.2019
6518 Clouds 20 1011 77 10000 3.6 230 14:54 11.06.2019
6519 Clouds 20 1011 77 10000 2.1 220 14:23 11.06.2019
6520 Clouds 19 1010 93 10000 2.6 230 13:58 11.06.2019
6521 Clouds 19 1010 88 10000 1.5 210 13:37 11.06.2019
6522 Clouds 18 1010 88 8000 2.1 240 13:19 11.06.2019
6523 Clouds 17 1010 88 6000 1.5 260 12:41 11.06.2019
6524 Rain 17 1009 93 4800 2.1 30 12:21 11.06.2019
6525 Rain 16 1009 93 4500 2.6 20 11:41 11.06.2019
6526 Rain 16 1010 93 5000 2.1 230 11:21 11.06.2019
6527 Rain 16 1010 93 6000 2.1 220 10:50 11.06.2019
6528 Rain 16 1010 87 7000 1 0 10:27 11.06.2019
6529 Clouds 16 1009 87 7000 2.1 60 09:51 11.06.2019
6530 Clouds 16 1009 87 7000 2.1 60 09:25 11.06.2019
6531 Rain 15 1009 93 9000 2.6 60 08:56 11.06.2019
6532 Rain 15 1009 93 9000 2.6 60 08:38 11.06.2019
6533 Clouds 15 1009 93 9000 2.1 60 08:19 11.06.2019
6534 Clouds 15 1009 93 9000 4.1 60 07:32 11.06.2019
6535 Clouds 15 1009 87 9000 3.6 40 06:52 11.06.2019
6536 Clouds 15 1009 93 9000 4.1 40 05:21 11.06.2019
6537 Clouds 15 1010 93 9000 2.1 30 04:36 11.06.2019
6538 Clouds 15 1010 93 8000 3.1 50 02:26 11.06.2019
6539 Rain 16 1011 87 10000 4.6 50 00:52 11.06.2019
6540 Rain 16 1011 87 10000 4.6 50 00:26 11.06.2019
6541 Clouds 16 1011 82 10000 6.7 50 23:45 10.06.2019
6542 Clouds 16 1010 82 10000 5.7 50 23:21 10.06.2019
6543 Clouds 17 1011 82 10000 6.2 50 22:45 10.06.2019
6544 Clouds 17 1011 82 10000 6.2 50 22:27 10.06.2019
6545 Clouds 17 1011 82 10000 5.7 40 21:56 10.06.2019
6546 Clouds 18 1011 82 10000 5.7 40 21:38 10.06.2019
6547 Clouds 18 1011 82 10000 5.7 50 21:20 10.06.2019
6548 Rain 18 1012 77 10000 5.1 60 20:42 10.06.2019
6549 Clouds 19 1012 72 10000 6.2 40 20:21 10.06.2019
6550 Clouds 20 1012 72 10000 5.1 50 19:46 10.06.2019
6551 Clouds 20 1012 72 10000 5.1 50 19:23 10.06.2019
6552 Clouds 21 1012 68 10000 5.1 40 18:58 10.06.2019
6553 Clouds 21 1012 68 10000 5.7 40 18:40 10.06.2019
6554 Clouds 22 1012 68 10000 5.1 40 18:20 10.06.2019
6555 Clouds 22 1012 68 10000 5.7 40 17:44 10.06.2019
6556 Clouds 22 1012 68 10000 5.7 40 17:24 10.06.2019
6557 Clouds 22 1013 64 10000 5.1 50 16:56 10.06.2019
6558 Clouds 22 1013 64 10000 5.1 50 16:37 10.06.2019
6559 Clouds 22 1013 64 10000 5.1 50 16:18 10.06.2019
6560 Clouds 21 1013 64 10000 5.1 50 15:41 10.06.2019
6561 Clouds 21 1013 68 10000 5.1 60 15:23 10.06.2019
6562 Clouds 21 1013 68 10000 4.6 40 14:49 10.06.2019
6563 Clouds 21 1013 68 10000 4.6 40 14:30 10.06.2019
6564 Clouds 20 1014 72 10000 4.1 30 13:58 10.06.2019
6565 Clear 20 1014 68 10000 3.6 50 13:39 10.06.2019
6566 Clear 19 1014 72 10000 3.6 20 13:20 10.06.2019
6567 Clear 18 1014 82 10000 4.1 30 12:40 10.06.2019
6568 Clear 18 1014 82 10000 4.1 30 12:22 10.06.2019
6569 Clear 16 1015 82 10000 3.1 50 11:43 10.06.2019
6570 Rain 16 1015 77 10000 3.1 40 11:19 10.06.2019
6571 Rain 16 1015 77 10000 4.1 40 10:42 10.06.2019
6572 Rain 15 1015 87 10000 3.1 40 10:20 10.06.2019
6573 Rain 15 1015 87 10000 3.1 40 09:57 10.06.2019
6574 Rain 15 1015 87 10000 3.6 40 09:38 10.06.2019
6575 Rain 14 1016 87 10000 3.1 40 09:19 10.06.2019
6576 Rain 14 1016 87 10000 3.1 40 08:43 10.06.2019
6577 Rain 14 1016 87 10000 2.6 70 08:18 10.06.2019
6578 Rain 14 1016 82 10000 3.6 50 06:34 10.06.2019
6579 Clear 15 1018 72 10000 4.6 60 04:28 10.06.2019
6580 Rain 15 1020 72 10000 3.6 50 01:58 10.06.2019
6581 Rain 15 1020 72 10000 3.6 50 01:26 10.06.2019
6582 Clear 15 1020 72 10000 3.1 30 00:55 10.06.2019
6583 Clear 15 1020 63 10000 3.6 50 00:19 10.06.2019
6584 Clear 16 1021 63 10000 3.1 30 23:42 09.06.2019
6585 Clear 16 1021 59 10000 3.1 40 23:19 09.06.2019
6586 Clear 16 1021 55 10000 3.1 20 22:44 09.06.2019
6587 Clear 16 1021 55 10000 3.1 20 22:25 09.06.2019
6588 Clear 18 1021 52 10000 2.1 340 21:45 09.06.2019
6589 Clear 18 1021 52 10000 2.1 340 21:26 09.06.2019
6590 Clear 20 1021 37 10000 1.5 70 20:45 09.06.2019
6591 Clear 20 1021 43 10000 1.5 320 20:23 09.06.2019
6592 Clear 20 1021 43 10000 1.5 320 19:58 09.06.2019
6593 Clear 21 1021 35 10000 1 0 19:39 09.06.2019
6594 Clear 21 1021 35 10000 1 0 19:18 09.06.2019
6595 Clear 22 1021 35 10000 2.1 0 18:42 09.06.2019
6596 Clear 22 1022 40 10000 2.1 240 18:24 09.06.2019
6597 Clear 21 1022 37 10000 3.1 210 17:48 09.06.2019
6598 Clear 22 1022 37 10000 3.1 210 17:28 09.06.2019
6599 Clear 21 1022 40 10000 4.1 220 16:55 09.06.2019
6600 Clear 21 1022 40 10000 4.1 220 16:37 09.06.2019
6601 Clear 21 1023 45 10000 3.6 220 16:19 09.06.2019
6602 Clear 21 1023 45 10000 2.1 250 15:47 09.06.2019
6603 Clear 21 1023 45 10000 2.1 250 15:28 09.06.2019
6604 Clouds 21 1023 49 10000 3.1 250 14:46 09.06.2019
6605 Clouds 20 1023 49 10000 3.1 250 14:27 09.06.2019
6606 Clouds 20 1023 52 10000 4.1 260 13:56 09.06.2019
6607 Clouds 20 1023 48 10000 3.1 260 13:37 09.06.2019
6608 Clouds 19 1024 52 10000 4.1 230 12:46 09.06.2019
6609 Clouds 19 1024 52 10000 4.1 230 12:27 09.06.2019
6610 Clouds 19 1024 52 10000 4.6 250 11:49 09.06.2019
6611 Clouds 18 1024 52 10000 4.6 250 11:30 09.06.2019
6612 Clouds 17 1023 67 10000 5.7 210 10:47 09.06.2019
6613 Clouds 17 1024 67 10000 5.7 220 10:26 09.06.2019
6614 Clouds 16 1024 67 10000 5.7 220 09:58 09.06.2019
6615 Clouds 16 1023 67 10000 5.1 220 09:38 09.06.2019
6616 Clouds 16 1023 67 10000 5.1 220 09:38 09.06.2019
6617 Clouds 15 1023 67 10000 6.7 220 09:19 09.06.2019
6618 Clear 15 1023 71 10000 7.2 230 08:44 09.06.2019
6619 Clear 13 1022 71 10000 6.2 220 07:52 09.06.2019
6620 Clear 12 1022 76 10000 5.7 220 06:44 09.06.2019
6621 Clear 12 1022 76 10000 5.7 220 06:20 09.06.2019
6622 Clear 13 1020 66 10000 5.7 210 02:59 09.06.2019
6623 Clear 13 1020 66 10000 5.7 210 01:37 09.06.2019
6624 Clear 13 1020 62 10000 7.2 210 01:19 09.06.2019
6625 Clear 13 1020 58 10000 7.7 210 00:29 09.06.2019
6626 Clear 13 1019 71 10000 3.6 220 23:41 08.06.2019
6627 Clear 14 1019 67 10000 3.6 230 23:23 08.06.2019
6628 Clear 14 1019 67 10000 3.6 230 22:55 08.06.2019
6629 Clouds 14 1019 71 10000 4.1 210 22:36 08.06.2019
6630 Rain 14 1019 72 10000 4.6 240 22:18 08.06.2019
6631 Rain 15 1018 82 10000 1.5 230 21:49 08.06.2019
6632 Rain 16 1018 82 10000 1.5 230 21:24 08.06.2019
6633 Rain 16 1018 63 10000 3.1 240 20:46 08.06.2019
6634 Rain 17 1018 63 10000 3.1 240 20:25 08.06.2019
6635 Clouds 17 1018 63 10000 4.1 230 19:58 08.06.2019
6636 Rain 18 1017 51 10000 6.7 220 19:39 08.06.2019
6637 Clouds 18 1017 48 10000 8.2 220 19:19 08.06.2019
6638 Clouds 18 1017 48 10000 10.8 210 18:43 08.06.2019
6639 Clouds 18 1016 48 10000 9.8 220 18:25 08.06.2019
6640 Clouds 18 1016 48 10000 8.7 210 17:46 08.06.2019
6641 Clouds 18 1016 48 10000 8.7 210 17:23 08.06.2019
6642 Clouds 18 1016 51 10000 10.3 210 16:54 08.06.2019
6643 Clouds 17 1016 51 10000 10.3 210 16:35 08.06.2019
6644 Clouds 17 1016 51 10000 8.7 200 15:56 08.06.2019
6645 Clouds 17 1016 51 10000 8.7 200 15:36 08.06.2019
6646 Rain 17 1016 51 10000 10.8 210 14:49 08.06.2019
6647 Rain 16 1016 51 10000 10.8 210 14:31 08.06.2019
6648 Rain 16 1015 51 10000 12.3 210 13:53 08.06.2019
6649 Clouds 16 1015 55 10000 11.3 210 13:22 08.06.2019
6650 Clouds 16 1015 55 10000 9.3 210 12:42 08.06.2019
6651 Clouds 16 1014 55 10000 12.3 210 11:59 08.06.2019
6652 Clouds 16 1014 59 10000 9.3 200 11:40 08.06.2019
6653 Clouds 16 1013 63 10000 9.8 190 11:20 08.06.2019
6654 Clouds 16 1013 59 10000 8.7 190 10:43 08.06.2019
6655 Clouds 17 1013 59 10000 7.2 190 10:22 08.06.2019
6656 Clouds 16 1013 63 10000 7.7 190 09:40 08.06.2019
6657 Clouds 15 1013 67 10000 7.7 190 08:59 08.06.2019
6658 Clouds 15 1012 67 10000 7.2 190 08:25 08.06.2019
6659 Clear 14 1012 72 10000 6.2 190 07:46 08.06.2019
6660 Clear 14 1011 72 10000 5.7 190 06:45 08.06.2019
6661 Clear 14 1011 72 10000 5.7 190 06:45 08.06.2019
6662 Clear 15 1011 82 10000 4.1 170 04:19 08.06.2019
6663 Rain 16 1011 87 10000 3.6 0 02:21 08.06.2019
6664 Thunderstorm 16 1010 93 6000 2.1 0 00:45 08.06.2019
6665 Thunderstorm 16 1011 87 7000 2.1 290 00:24 08.06.2019
6666 Rain 16 1010 77 10000 1.5 60 23:41 07.06.2019
6667 Clear 17 1010 72 10000 3.6 80 23:19 07.06.2019
6668 Clear 17 1010 72 10000 4.1 60 22:37 07.06.2019
6669 Clear 18 1009 68 10000 5.7 70 22:19 07.06.2019
6670 Clear 19 1009 68 10000 5.7 70 21:49 07.06.2019
6671 Clear 20 1009 64 10000 5.1 60 21:28 07.06.2019
6672 Clear 21 1009 43 10000 4.1 100 20:55 07.06.2019
6673 Clear 21 1009 43 10000 4.1 100 20:35 07.06.2019
6674 Clear 22 1009 40 10000 5.7 110 19:48 07.06.2019
6675 Clear 22 1010 40 10000 6.2 100 19:21 07.06.2019
6676 Clear 22 1010 38 10000 5.7 110 18:52 07.06.2019
6677 Clear 23 1010 38 10000 5.7 110 18:28 07.06.2019
6678 Clear 22 1011 43 10000 5.1 120 17:48 07.06.2019
6679 Clear 22 1011 43 10000 5.1 120 17:27 07.06.2019
6680 Clear 23 1011 37 10000 5.7 120 16:57 07.06.2019
6681 Clear 22 1012 37 10000 4.6 120 16:36 07.06.2019
6682 Clear 22 1012 43 10000 5.1 110 15:52 07.06.2019
6683 Clear 21 1013 43 10000 4.6 80 15:23 07.06.2019
6684 Clear 21 1013 43 10000 2.6 80 14:48 07.06.2019
6685 Clear 21 1013 43 10000 2.6 80 14:26 07.06.2019
6686 Clear 21 1014 42 10000 3.6 0 13:47 07.06.2019
6687 Clear 20